<?xml version="1.0" encoding="UTF-8" standalone="no" ?>
<gpx xmlns="http://www.topografix.com/GPX/1/1" xmlns:xsi="http://www.w3.org/2001/XMLSchema-instance" xsi:schemaLocation="http://www.topografix.com/GPX/1/1 http://www.topografix.com/GPX/1/1/gpx.xsd" version="1.1" creator="VisuGPX - https://www.visugpx.com">
  <metadata>
    <name>zz007-ze04-maxiavalanche-ruta5-68-2250</name>
  </metadata>
  <trk>
    <name><![CDATA[03-JUIN-14 17:52:03]]></name>
    <trkseg>
      <trkpt lat="42.41591" lon="0.13987">
        <ele>596.15</ele>
        <time>2014-06-03T07:02:50Z</time>
      </trkpt>
      <trkpt lat="42.41591" lon="0.13987">
        <ele>598.56</ele>
        <time>2014-06-03T07:02:51Z</time>
      </trkpt>
      <trkpt lat="42.4159" lon="0.13986">
        <ele>598.08</ele>
        <time>2014-06-03T07:03:06Z</time>
      </trkpt>
      <trkpt lat="42.41575" lon="0.13996">
        <ele>596.64</ele>
        <time>2014-06-03T07:03:14Z</time>
      </trkpt>
      <trkpt lat="42.41569" lon="0.13998">
        <ele>595.19</ele>
        <time>2014-06-03T07:03:18Z</time>
      </trkpt>
      <trkpt lat="42.41554" lon="0.13978">
        <ele>591.83</ele>
        <time>2014-06-03T07:03:25Z</time>
      </trkpt>
      <trkpt lat="42.41559" lon="0.13953">
        <ele>589.43</ele>
        <time>2014-06-03T07:03:29Z</time>
      </trkpt>
      <trkpt lat="42.4157" lon="0.13935">
        <ele>587.98</ele>
        <time>2014-06-03T07:03:33Z</time>
      </trkpt>
      <trkpt lat="42.41571" lon="0.13924">
        <ele>588.46</ele>
        <time>2014-06-03T07:03:43Z</time>
      </trkpt>
      <trkpt lat="42.41571" lon="0.13924">
        <ele>588.46</ele>
        <time>2014-06-03T07:03:52Z</time>
      </trkpt>
      <trkpt lat="42.41567" lon="0.13917">
        <ele>587.02</ele>
        <time>2014-06-03T07:03:54Z</time>
      </trkpt>
      <trkpt lat="42.41566" lon="0.13894">
        <ele>582.22</ele>
        <time>2014-06-03T07:03:58Z</time>
      </trkpt>
      <trkpt lat="42.41569" lon="0.13887">
        <ele>580.77</ele>
        <time>2014-06-03T07:03:59Z</time>
      </trkpt>
      <trkpt lat="42.41588" lon="0.13851">
        <ele>575.49</ele>
        <time>2014-06-03T07:04:03Z</time>
      </trkpt>
      <trkpt lat="42.41597" lon="0.13836">
        <ele>570.68</ele>
        <time>2014-06-03T07:04:05Z</time>
      </trkpt>
      <trkpt lat="42.41605" lon="0.13817">
        <ele>566.83</ele>
        <time>2014-06-03T07:04:08Z</time>
      </trkpt>
      <trkpt lat="42.41607" lon="0.13812">
        <ele>566.35</ele>
        <time>2014-06-03T07:04:09Z</time>
      </trkpt>
      <trkpt lat="42.41585" lon="0.13815">
        <ele>564.43</ele>
        <time>2014-06-03T07:04:18Z</time>
      </trkpt>
      <trkpt lat="42.41565" lon="0.13818">
        <ele>561.07</ele>
        <time>2014-06-03T07:04:23Z</time>
      </trkpt>
      <trkpt lat="42.4155" lon="0.13824">
        <ele>556.74</ele>
        <time>2014-06-03T07:04:27Z</time>
      </trkpt>
      <trkpt lat="42.4153" lon="0.13828">
        <ele>554.82</ele>
        <time>2014-06-03T07:04:34Z</time>
      </trkpt>
      <trkpt lat="42.41514" lon="0.13843">
        <ele>554.82</ele>
        <time>2014-06-03T07:04:39Z</time>
      </trkpt>
      <trkpt lat="42.4146" lon="0.13918">
        <ele>551.93</ele>
        <time>2014-06-03T07:04:55Z</time>
      </trkpt>
      <trkpt lat="42.41452" lon="0.13937">
        <ele>551.93</ele>
        <time>2014-06-03T07:04:58Z</time>
      </trkpt>
      <trkpt lat="42.41455" lon="0.13949">
        <ele>551.93</ele>
        <time>2014-06-03T07:05:04Z</time>
      </trkpt>
      <trkpt lat="42.41462" lon="0.13927">
        <ele>551.45</ele>
        <time>2014-06-03T07:05:08Z</time>
      </trkpt>
      <trkpt lat="42.41496" lon="0.1387">
        <ele>552.9</ele>
        <time>2014-06-03T07:05:18Z</time>
      </trkpt>
      <trkpt lat="42.41514" lon="0.13843">
        <ele>554.34</ele>
        <time>2014-06-03T07:05:27Z</time>
      </trkpt>
      <trkpt lat="42.41514" lon="0.13843">
        <ele>553.86</ele>
        <time>2014-06-03T07:05:57Z</time>
      </trkpt>
      <trkpt lat="42.41514" lon="0.13843">
        <ele>553.86</ele>
        <time>2014-06-03T07:06:18Z</time>
      </trkpt>
      <trkpt lat="42.41513" lon="0.13844">
        <ele>553.38</ele>
        <time>2014-06-03T07:06:33Z</time>
      </trkpt>
      <trkpt lat="42.41513" lon="0.13843">
        <ele>553.38</ele>
        <time>2014-06-03T07:06:55Z</time>
      </trkpt>
      <trkpt lat="42.41513" lon="0.13843">
        <ele>553.38</ele>
        <time>2014-06-03T07:07:18Z</time>
      </trkpt>
      <trkpt lat="42.41512" lon="0.13845">
        <ele>553.38</ele>
        <time>2014-06-03T07:07:40Z</time>
      </trkpt>
      <trkpt lat="42.41512" lon="0.13845">
        <ele>552.9</ele>
        <time>2014-06-03T07:07:59Z</time>
      </trkpt>
      <trkpt lat="42.41512" lon="0.13845">
        <ele>552.9</ele>
        <time>2014-06-03T07:08:31Z</time>
      </trkpt>
      <trkpt lat="42.41511" lon="0.13845">
        <ele>553.38</ele>
        <time>2014-06-03T07:08:58Z</time>
      </trkpt>
      <trkpt lat="42.41512" lon="0.13846">
        <ele>552.9</ele>
        <time>2014-06-03T07:09:10Z</time>
      </trkpt>
      <trkpt lat="42.41512" lon="0.13846">
        <ele>552.41</ele>
        <time>2014-06-03T07:09:28Z</time>
      </trkpt>
      <trkpt lat="42.41512" lon="0.13847">
        <ele>552.9</ele>
        <time>2014-06-03T07:09:33Z</time>
      </trkpt>
      <trkpt lat="42.41502" lon="0.13859">
        <ele>552.9</ele>
        <time>2014-06-03T07:09:40Z</time>
      </trkpt>
      <trkpt lat="42.41495" lon="0.13871">
        <ele>552.41</ele>
        <time>2014-06-03T07:09:43Z</time>
      </trkpt>
      <trkpt lat="42.41484" lon="0.13887">
        <ele>551.45</ele>
        <time>2014-06-03T07:09:47Z</time>
      </trkpt>
      <trkpt lat="42.41465" lon="0.13914">
        <ele>550.97</ele>
        <time>2014-06-03T07:09:52Z</time>
      </trkpt>
      <trkpt lat="42.41451" lon="0.13958">
        <ele>550.01</ele>
        <time>2014-06-03T07:09:58Z</time>
      </trkpt>
      <trkpt lat="42.41452" lon="0.13973">
        <ele>550.01</ele>
        <time>2014-06-03T07:10:00Z</time>
      </trkpt>
      <trkpt lat="42.4146" lon="0.14012">
        <ele>548.57</ele>
        <time>2014-06-03T07:10:05Z</time>
      </trkpt>
      <trkpt lat="42.41481" lon="0.14152">
        <ele>547.13</ele>
        <time>2014-06-03T07:10:22Z</time>
      </trkpt>
      <trkpt lat="42.41499" lon="0.14299">
        <ele>547.13</ele>
        <time>2014-06-03T07:10:40Z</time>
      </trkpt>
      <trkpt lat="42.41513" lon="0.14402">
        <ele>547.13</ele>
        <time>2014-06-03T07:10:53Z</time>
      </trkpt>
      <trkpt lat="42.41512" lon="0.1443">
        <ele>547.13</ele>
        <time>2014-06-03T07:10:57Z</time>
      </trkpt>
      <trkpt lat="42.41527" lon="0.14452">
        <ele>547.61</ele>
        <time>2014-06-03T07:11:02Z</time>
      </trkpt>
      <trkpt lat="42.4155" lon="0.14464">
        <ele>545.69</ele>
        <time>2014-06-03T07:11:07Z</time>
      </trkpt>
      <trkpt lat="42.41563" lon="0.14509">
        <ele>543.76</ele>
        <time>2014-06-03T07:11:12Z</time>
      </trkpt>
      <trkpt lat="42.41595" lon="0.14619">
        <ele>544.72</ele>
        <time>2014-06-03T07:11:26Z</time>
      </trkpt>
      <trkpt lat="42.41649" lon="0.14707">
        <ele>545.69</ele>
        <time>2014-06-03T07:11:42Z</time>
      </trkpt>
      <trkpt lat="42.41706" lon="0.14781">
        <ele>546.65</ele>
        <time>2014-06-03T07:11:58Z</time>
      </trkpt>
      <trkpt lat="42.41774" lon="0.14822">
        <ele>548.09</ele>
        <time>2014-06-03T07:12:14Z</time>
      </trkpt>
      <trkpt lat="42.4186" lon="0.14835">
        <ele>550.49</ele>
        <time>2014-06-03T07:12:32Z</time>
      </trkpt>
      <trkpt lat="42.41884" lon="0.14838">
        <ele>550.01</ele>
        <time>2014-06-03T07:12:37Z</time>
      </trkpt>
      <trkpt lat="42.41944" lon="0.14872">
        <ele>551.93</ele>
        <time>2014-06-03T07:12:51Z</time>
      </trkpt>
      <trkpt lat="42.41956" lon="0.14885">
        <ele>552.41</ele>
        <time>2014-06-03T07:12:54Z</time>
      </trkpt>
      <trkpt lat="42.41977" lon="0.14919">
        <ele>553.38</ele>
        <time>2014-06-03T07:13:01Z</time>
      </trkpt>
      <trkpt lat="42.41994" lon="0.14973">
        <ele>553.38</ele>
        <time>2014-06-03T07:13:10Z</time>
      </trkpt>
      <trkpt lat="42.41998" lon="0.15">
        <ele>553.86</ele>
        <time>2014-06-03T07:13:14Z</time>
      </trkpt>
      <trkpt lat="42.4201" lon="0.15118">
        <ele>554.34</ele>
        <time>2014-06-03T07:13:31Z</time>
      </trkpt>
      <trkpt lat="42.42047" lon="0.15213">
        <ele>554.82</ele>
        <time>2014-06-03T07:13:47Z</time>
      </trkpt>
      <trkpt lat="42.42076" lon="0.15247">
        <ele>556.26</ele>
        <time>2014-06-03T07:13:55Z</time>
      </trkpt>
      <trkpt lat="42.42124" lon="0.15303">
        <ele>557.7</ele>
        <time>2014-06-03T07:14:09Z</time>
      </trkpt>
      <trkpt lat="42.4217" lon="0.15362">
        <ele>558.18</ele>
        <time>2014-06-03T07:14:24Z</time>
      </trkpt>
      <trkpt lat="42.42211" lon="0.15421">
        <ele>560.59</ele>
        <time>2014-06-03T07:14:39Z</time>
      </trkpt>
      <trkpt lat="42.42241" lon="0.1546">
        <ele>563.95</ele>
        <time>2014-06-03T07:14:51Z</time>
      </trkpt>
      <trkpt lat="42.42287" lon="0.15509">
        <ele>564.91</ele>
        <time>2014-06-03T07:15:06Z</time>
      </trkpt>
      <trkpt lat="42.42329" lon="0.15555">
        <ele>566.83</ele>
        <time>2014-06-03T07:15:20Z</time>
      </trkpt>
      <trkpt lat="42.42348" lon="0.15573">
        <ele>567.32</ele>
        <time>2014-06-03T07:15:26Z</time>
      </trkpt>
      <trkpt lat="42.42358" lon="0.15583">
        <ele>567.8</ele>
        <time>2014-06-03T07:15:29Z</time>
      </trkpt>
      <trkpt lat="42.42413" lon="0.15615">
        <ele>568.28</ele>
        <time>2014-06-03T07:15:44Z</time>
      </trkpt>
      <trkpt lat="42.42424" lon="0.15624">
        <ele>567.32</ele>
        <time>2014-06-03T07:15:47Z</time>
      </trkpt>
      <trkpt lat="42.42451" lon="0.15649">
        <ele>568.28</ele>
        <time>2014-06-03T07:15:54Z</time>
      </trkpt>
      <trkpt lat="42.42464" lon="0.15668">
        <ele>567.8</ele>
        <time>2014-06-03T07:15:58Z</time>
      </trkpt>
      <trkpt lat="42.4249" lon="0.15719">
        <ele>567.32</ele>
        <time>2014-06-03T07:16:07Z</time>
      </trkpt>
      <trkpt lat="42.42493" lon="0.15776">
        <ele>567.8</ele>
        <time>2014-06-03T07:16:15Z</time>
      </trkpt>
      <trkpt lat="42.42482" lon="0.15809">
        <ele>567.32</ele>
        <time>2014-06-03T07:16:20Z</time>
      </trkpt>
      <trkpt lat="42.4247" lon="0.15837">
        <ele>567.8</ele>
        <time>2014-06-03T07:16:25Z</time>
      </trkpt>
      <trkpt lat="42.42459" lon="0.15877">
        <ele>569.24</ele>
        <time>2014-06-03T07:16:32Z</time>
      </trkpt>
      <trkpt lat="42.42463" lon="0.15906">
        <ele>570.2</ele>
        <time>2014-06-03T07:16:37Z</time>
      </trkpt>
      <trkpt lat="42.42483" lon="0.15959">
        <ele>570.68</ele>
        <time>2014-06-03T07:16:49Z</time>
      </trkpt>
      <trkpt lat="42.42479" lon="0.15968">
        <ele>568.76</ele>
        <time>2014-06-03T07:16:53Z</time>
      </trkpt>
      <trkpt lat="42.42473" lon="0.15977">
        <ele>569.24</ele>
        <time>2014-06-03T07:17:00Z</time>
      </trkpt>
      <trkpt lat="42.42471" lon="0.15988">
        <ele>568.76</ele>
        <time>2014-06-03T07:17:13Z</time>
      </trkpt>
      <trkpt lat="42.42468" lon="0.16018">
        <ele>568.76</ele>
        <time>2014-06-03T07:17:24Z</time>
      </trkpt>
      <trkpt lat="42.42468" lon="0.16061">
        <ele>569.24</ele>
        <time>2014-06-03T07:17:37Z</time>
      </trkpt>
      <trkpt lat="42.42459" lon="0.16111">
        <ele>570.2</ele>
        <time>2014-06-03T07:17:50Z</time>
      </trkpt>
      <trkpt lat="42.42453" lon="0.16126">
        <ele>570.2</ele>
        <time>2014-06-03T07:17:55Z</time>
      </trkpt>
      <trkpt lat="42.42439" lon="0.16175">
        <ele>571.16</ele>
        <time>2014-06-03T07:18:10Z</time>
      </trkpt>
      <trkpt lat="42.42431" lon="0.1622">
        <ele>572.6</ele>
        <time>2014-06-03T07:18:23Z</time>
      </trkpt>
      <trkpt lat="42.42434" lon="0.16261">
        <ele>573.56</ele>
        <time>2014-06-03T07:18:35Z</time>
      </trkpt>
      <trkpt lat="42.42454" lon="0.16285">
        <ele>573.56</ele>
        <time>2014-06-03T07:18:44Z</time>
      </trkpt>
      <trkpt lat="42.42461" lon="0.16296">
        <ele>574.04</ele>
        <time>2014-06-03T07:18:48Z</time>
      </trkpt>
      <trkpt lat="42.4245" lon="0.16315">
        <ele>574.53</ele>
        <time>2014-06-03T07:18:55Z</time>
      </trkpt>
      <trkpt lat="42.42419" lon="0.16344">
        <ele>575.97</ele>
        <time>2014-06-03T07:19:08Z</time>
      </trkpt>
      <trkpt lat="42.42404" lon="0.16361">
        <ele>576.93</ele>
        <time>2014-06-03T07:19:15Z</time>
      </trkpt>
      <trkpt lat="42.42411" lon="0.16393">
        <ele>576.93</ele>
        <time>2014-06-03T07:19:24Z</time>
      </trkpt>
      <trkpt lat="42.42398" lon="0.16415">
        <ele>577.89</ele>
        <time>2014-06-03T07:19:33Z</time>
      </trkpt>
      <trkpt lat="42.42373" lon="0.16466">
        <ele>578.85</ele>
        <time>2014-06-03T07:19:48Z</time>
      </trkpt>
      <trkpt lat="42.42364" lon="0.16511">
        <ele>579.81</ele>
        <time>2014-06-03T07:20:01Z</time>
      </trkpt>
      <trkpt lat="42.4236" lon="0.16536">
        <ele>580.29</ele>
        <time>2014-06-03T07:20:08Z</time>
      </trkpt>
      <trkpt lat="42.4235" lon="0.16542">
        <ele>580.29</ele>
        <time>2014-06-03T07:20:12Z</time>
      </trkpt>
      <trkpt lat="42.42331" lon="0.16582">
        <ele>581.25</ele>
        <time>2014-06-03T07:20:25Z</time>
      </trkpt>
      <trkpt lat="42.42318" lon="0.16627">
        <ele>582.7</ele>
        <time>2014-06-03T07:20:38Z</time>
      </trkpt>
      <trkpt lat="42.42311" lon="0.16672">
        <ele>582.7</ele>
        <time>2014-06-03T07:20:50Z</time>
      </trkpt>
      <trkpt lat="42.42315" lon="0.16693">
        <ele>583.66</ele>
        <time>2014-06-03T07:20:56Z</time>
      </trkpt>
      <trkpt lat="42.42314" lon="0.16703">
        <ele>583.66</ele>
        <time>2014-06-03T07:20:59Z</time>
      </trkpt>
      <trkpt lat="42.4231" lon="0.16717">
        <ele>584.14</ele>
        <time>2014-06-03T07:21:03Z</time>
      </trkpt>
      <trkpt lat="42.42306" lon="0.16761">
        <ele>585.1</ele>
        <time>2014-06-03T07:21:16Z</time>
      </trkpt>
      <trkpt lat="42.42287" lon="0.16788">
        <ele>585.58</ele>
        <time>2014-06-03T07:21:26Z</time>
      </trkpt>
      <trkpt lat="42.42264" lon="0.16822">
        <ele>587.02</ele>
        <time>2014-06-03T07:21:39Z</time>
      </trkpt>
      <trkpt lat="42.42259" lon="0.16827">
        <ele>587.5</ele>
        <time>2014-06-03T07:21:41Z</time>
      </trkpt>
      <trkpt lat="42.42245" lon="0.16842">
        <ele>588.46</ele>
        <time>2014-06-03T07:21:48Z</time>
      </trkpt>
      <trkpt lat="42.42212" lon="0.16871">
        <ele>588.95</ele>
        <time>2014-06-03T07:22:02Z</time>
      </trkpt>
      <trkpt lat="42.42194" lon="0.16875">
        <ele>590.87</ele>
        <time>2014-06-03T07:22:10Z</time>
      </trkpt>
      <trkpt lat="42.42188" lon="0.16871">
        <ele>592.79</ele>
        <time>2014-06-03T07:22:13Z</time>
      </trkpt>
      <trkpt lat="42.42173" lon="0.16859">
        <ele>596.15</ele>
        <time>2014-06-03T07:22:20Z</time>
      </trkpt>
      <trkpt lat="42.42169" lon="0.1686">
        <ele>596.64</ele>
        <time>2014-06-03T07:22:22Z</time>
      </trkpt>
      <trkpt lat="42.42147" lon="0.16877">
        <ele>600</ele>
        <time>2014-06-03T07:22:33Z</time>
      </trkpt>
      <trkpt lat="42.42145" lon="0.16878">
        <ele>600.48</ele>
        <time>2014-06-03T07:22:34Z</time>
      </trkpt>
      <trkpt lat="42.42128" lon="0.16881">
        <ele>601.92</ele>
        <time>2014-06-03T07:22:42Z</time>
      </trkpt>
      <trkpt lat="42.4212" lon="0.16862">
        <ele>603.85</ele>
        <time>2014-06-03T07:22:49Z</time>
      </trkpt>
      <trkpt lat="42.42098" lon="0.16847">
        <ele>606.73</ele>
        <time>2014-06-03T07:23:01Z</time>
      </trkpt>
      <trkpt lat="42.42071" lon="0.16842">
        <ele>609.13</ele>
        <time>2014-06-03T07:23:14Z</time>
      </trkpt>
      <trkpt lat="42.42047" lon="0.16838">
        <ele>610.09</ele>
        <time>2014-06-03T07:23:26Z</time>
      </trkpt>
      <trkpt lat="42.42041" lon="0.16847">
        <ele>609.13</ele>
        <time>2014-06-03T07:23:28Z</time>
      </trkpt>
      <trkpt lat="42.42037" lon="0.16859">
        <ele>609.61</ele>
        <time>2014-06-03T07:23:30Z</time>
      </trkpt>
      <trkpt lat="42.42014" lon="0.16881">
        <ele>608.17</ele>
        <time>2014-06-03T07:23:37Z</time>
      </trkpt>
      <trkpt lat="42.42003" lon="0.16893">
        <ele>608.17</ele>
        <time>2014-06-03T07:23:41Z</time>
      </trkpt>
      <trkpt lat="42.41992" lon="0.16895">
        <ele>610.57</ele>
        <time>2014-06-03T07:23:47Z</time>
      </trkpt>
      <trkpt lat="42.41968" lon="0.16914">
        <ele>612.98</ele>
        <time>2014-06-03T07:24:00Z</time>
      </trkpt>
      <trkpt lat="42.41943" lon="0.16936">
        <ele>614.9</ele>
        <time>2014-06-03T07:24:14Z</time>
      </trkpt>
      <trkpt lat="42.41935" lon="0.16939">
        <ele>615.86</ele>
        <time>2014-06-03T07:24:18Z</time>
      </trkpt>
      <trkpt lat="42.41919" lon="0.16933">
        <ele>617.3</ele>
        <time>2014-06-03T07:24:26Z</time>
      </trkpt>
      <trkpt lat="42.41911" lon="0.16937">
        <ele>618.26</ele>
        <time>2014-06-03T07:24:30Z</time>
      </trkpt>
      <trkpt lat="42.41896" lon="0.16949">
        <ele>619.71</ele>
        <time>2014-06-03T07:24:38Z</time>
      </trkpt>
      <trkpt lat="42.41872" lon="0.16961">
        <ele>617.3</ele>
        <time>2014-06-03T07:24:43Z</time>
      </trkpt>
      <trkpt lat="42.41854" lon="0.16982">
        <ele>619.23</ele>
        <time>2014-06-03T07:24:48Z</time>
      </trkpt>
      <trkpt lat="42.41846" lon="0.17">
        <ele>621.15</ele>
        <time>2014-06-03T07:24:54Z</time>
      </trkpt>
      <trkpt lat="42.41831" lon="0.17008">
        <ele>623.07</ele>
        <time>2014-06-03T07:25:02Z</time>
      </trkpt>
      <trkpt lat="42.41818" lon="0.17018">
        <ele>625.96</ele>
        <time>2014-06-03T07:25:10Z</time>
      </trkpt>
      <trkpt lat="42.41801" lon="0.17013">
        <ele>629.8</ele>
        <time>2014-06-03T07:25:20Z</time>
      </trkpt>
      <trkpt lat="42.41792" lon="0.16998">
        <ele>632.2</ele>
        <time>2014-06-03T07:25:27Z</time>
      </trkpt>
      <trkpt lat="42.41773" lon="0.16993">
        <ele>635.57</ele>
        <time>2014-06-03T07:25:38Z</time>
      </trkpt>
      <trkpt lat="42.4177" lon="0.16993">
        <ele>635.09</ele>
        <time>2014-06-03T07:25:40Z</time>
      </trkpt>
      <trkpt lat="42.41753" lon="0.16965">
        <ele>638.93</ele>
        <time>2014-06-03T07:25:54Z</time>
      </trkpt>
      <trkpt lat="42.41731" lon="0.16947">
        <ele>641.82</ele>
        <time>2014-06-03T07:26:08Z</time>
      </trkpt>
      <trkpt lat="42.41722" lon="0.16938">
        <ele>643.74</ele>
        <time>2014-06-03T07:26:15Z</time>
      </trkpt>
      <trkpt lat="42.41701" lon="0.16935">
        <ele>644.7</ele>
        <time>2014-06-03T07:26:27Z</time>
      </trkpt>
      <trkpt lat="42.41691" lon="0.16935">
        <ele>643.74</ele>
        <time>2014-06-03T07:26:36Z</time>
      </trkpt>
      <trkpt lat="42.41684" lon="0.16936">
        <ele>643.74</ele>
        <time>2014-06-03T07:26:46Z</time>
      </trkpt>
      <trkpt lat="42.41684" lon="0.16936">
        <ele>643.26</ele>
        <time>2014-06-03T07:27:10Z</time>
      </trkpt>
      <trkpt lat="42.41685" lon="0.16936">
        <ele>643.26</ele>
        <time>2014-06-03T07:27:43Z</time>
      </trkpt>
      <trkpt lat="42.41684" lon="0.16936">
        <ele>642.78</ele>
        <time>2014-06-03T07:27:56Z</time>
      </trkpt>
      <trkpt lat="42.41684" lon="0.16936">
        <ele>642.78</ele>
        <time>2014-06-03T07:28:14Z</time>
      </trkpt>
      <trkpt lat="42.41682" lon="0.16936">
        <ele>643.26</ele>
        <time>2014-06-03T07:28:27Z</time>
      </trkpt>
      <trkpt lat="42.41682" lon="0.16936">
        <ele>642.3</ele>
        <time>2014-06-03T07:29:01Z</time>
      </trkpt>
      <trkpt lat="42.41681" lon="0.16935">
        <ele>642.3</ele>
        <time>2014-06-03T07:29:40Z</time>
      </trkpt>
      <trkpt lat="42.41682" lon="0.16936">
        <ele>641.82</ele>
        <time>2014-06-03T07:30:18Z</time>
      </trkpt>
      <trkpt lat="42.41682" lon="0.16936">
        <ele>641.82</ele>
        <time>2014-06-03T07:30:47Z</time>
      </trkpt>
      <trkpt lat="42.41681" lon="0.16936">
        <ele>642.3</ele>
        <time>2014-06-03T07:31:21Z</time>
      </trkpt>
      <trkpt lat="42.41681" lon="0.16936">
        <ele>641.82</ele>
        <time>2014-06-03T07:32:02Z</time>
      </trkpt>
      <trkpt lat="42.41681" lon="0.16936">
        <ele>641.82</ele>
        <time>2014-06-03T07:32:39Z</time>
      </trkpt>
      <trkpt lat="42.4168" lon="0.16936">
        <ele>641.82</ele>
        <time>2014-06-03T07:32:44Z</time>
      </trkpt>
      <trkpt lat="42.41671" lon="0.16938">
        <ele>640.86</ele>
        <time>2014-06-03T07:32:48Z</time>
      </trkpt>
      <trkpt lat="42.41655" lon="0.16941">
        <ele>639.41</ele>
        <time>2014-06-03T07:32:51Z</time>
      </trkpt>
      <trkpt lat="42.41642" lon="0.16941">
        <ele>637.49</ele>
        <time>2014-06-03T07:32:53Z</time>
      </trkpt>
      <trkpt lat="42.41619" lon="0.1692">
        <ele>633.17</ele>
        <time>2014-06-03T07:32:58Z</time>
      </trkpt>
      <trkpt lat="42.4161" lon="0.16922">
        <ele>631.72</ele>
        <time>2014-06-03T07:33:01Z</time>
      </trkpt>
      <trkpt lat="42.41609" lon="0.16927">
        <ele>632.2</ele>
        <time>2014-06-03T07:33:02Z</time>
      </trkpt>
      <trkpt lat="42.41609" lon="0.17001">
        <ele>633.65</ele>
        <time>2014-06-03T07:33:16Z</time>
      </trkpt>
      <trkpt lat="42.41619" lon="0.17067">
        <ele>635.09</ele>
        <time>2014-06-03T07:33:32Z</time>
      </trkpt>
      <trkpt lat="42.41632" lon="0.17123">
        <ele>637.01</ele>
        <time>2014-06-03T07:33:47Z</time>
      </trkpt>
      <trkpt lat="42.41653" lon="0.17183">
        <ele>638.45</ele>
        <time>2014-06-03T07:34:03Z</time>
      </trkpt>
      <trkpt lat="42.41664" lon="0.17237">
        <ele>640.86</ele>
        <time>2014-06-03T07:34:18Z</time>
      </trkpt>
      <trkpt lat="42.41685" lon="0.17299">
        <ele>641.82</ele>
        <time>2014-06-03T07:34:34Z</time>
      </trkpt>
      <trkpt lat="42.41698" lon="0.17351">
        <ele>641.34</ele>
        <time>2014-06-03T07:34:46Z</time>
      </trkpt>
      <trkpt lat="42.417" lon="0.17361">
        <ele>640.86</ele>
        <time>2014-06-03T07:34:48Z</time>
      </trkpt>
      <trkpt lat="42.41698" lon="0.1742">
        <ele>639.89</ele>
        <time>2014-06-03T07:34:58Z</time>
      </trkpt>
      <trkpt lat="42.41691" lon="0.17474">
        <ele>639.89</ele>
        <time>2014-06-03T07:35:07Z</time>
      </trkpt>
      <trkpt lat="42.41695" lon="0.175">
        <ele>639.89</ele>
        <time>2014-06-03T07:35:11Z</time>
      </trkpt>
      <trkpt lat="42.41734" lon="0.17573">
        <ele>642.78</ele>
        <time>2014-06-03T07:35:27Z</time>
      </trkpt>
      <trkpt lat="42.41768" lon="0.17622">
        <ele>644.22</ele>
        <time>2014-06-03T07:35:42Z</time>
      </trkpt>
      <trkpt lat="42.41787" lon="0.17641">
        <ele>647.1</ele>
        <time>2014-06-03T07:35:52Z</time>
      </trkpt>
      <trkpt lat="42.41797" lon="0.1767">
        <ele>650.47</ele>
        <time>2014-06-03T07:36:04Z</time>
      </trkpt>
      <trkpt lat="42.41803" lon="0.17708">
        <ele>653.83</ele>
        <time>2014-06-03T07:36:18Z</time>
      </trkpt>
      <trkpt lat="42.41811" lon="0.17748">
        <ele>657.2</ele>
        <time>2014-06-03T07:36:33Z</time>
      </trkpt>
      <trkpt lat="42.41813" lon="0.17798">
        <ele>659.6</ele>
        <time>2014-06-03T07:36:51Z</time>
      </trkpt>
      <trkpt lat="42.41824" lon="0.17845">
        <ele>662.01</ele>
        <time>2014-06-03T07:37:08Z</time>
      </trkpt>
      <trkpt lat="42.41843" lon="0.17872">
        <ele>664.89</ele>
        <time>2014-06-03T07:37:22Z</time>
      </trkpt>
      <trkpt lat="42.41858" lon="0.17906">
        <ele>666.33</ele>
        <time>2014-06-03T07:37:36Z</time>
      </trkpt>
      <trkpt lat="42.41868" lon="0.17957">
        <ele>668.73</ele>
        <time>2014-06-03T07:37:53Z</time>
      </trkpt>
      <trkpt lat="42.41881" lon="0.17995">
        <ele>669.7</ele>
        <time>2014-06-03T07:38:07Z</time>
      </trkpt>
      <trkpt lat="42.41882" lon="0.1804">
        <ele>671.14</ele>
        <time>2014-06-03T07:38:22Z</time>
      </trkpt>
      <trkpt lat="42.41872" lon="0.18079">
        <ele>674.02</ele>
        <time>2014-06-03T07:38:36Z</time>
      </trkpt>
      <trkpt lat="42.41898" lon="0.18107">
        <ele>676.42</ele>
        <time>2014-06-03T07:38:51Z</time>
      </trkpt>
      <trkpt lat="42.41935" lon="0.18136">
        <ele>678.35</ele>
        <time>2014-06-03T07:39:09Z</time>
      </trkpt>
      <trkpt lat="42.41959" lon="0.18157">
        <ele>681.71</ele>
        <time>2014-06-03T07:39:22Z</time>
      </trkpt>
      <trkpt lat="42.41985" lon="0.18173">
        <ele>683.63</ele>
        <time>2014-06-03T07:39:36Z</time>
      </trkpt>
      <trkpt lat="42.41998" lon="0.18211">
        <ele>684.12</ele>
        <time>2014-06-03T07:39:49Z</time>
      </trkpt>
      <trkpt lat="42.41994" lon="0.18256">
        <ele>687</ele>
        <time>2014-06-03T07:40:03Z</time>
      </trkpt>
      <trkpt lat="42.42001" lon="0.18302">
        <ele>689.4</ele>
        <time>2014-06-03T07:40:19Z</time>
      </trkpt>
      <trkpt lat="42.4202" lon="0.18333">
        <ele>691.81</ele>
        <time>2014-06-03T07:40:34Z</time>
      </trkpt>
      <trkpt lat="42.42032" lon="0.18349">
        <ele>693.25</ele>
        <time>2014-06-03T07:40:44Z</time>
      </trkpt>
      <trkpt lat="42.42047" lon="0.1838">
        <ele>696.13</ele>
        <time>2014-06-03T07:40:59Z</time>
      </trkpt>
      <trkpt lat="42.42065" lon="0.18405">
        <ele>699.5</ele>
        <time>2014-06-03T07:41:13Z</time>
      </trkpt>
      <trkpt lat="42.42081" lon="0.18404">
        <ele>702.86</ele>
        <time>2014-06-03T07:41:22Z</time>
      </trkpt>
      <trkpt lat="42.42105" lon="0.18383">
        <ele>705.26</ele>
        <time>2014-06-03T07:41:37Z</time>
      </trkpt>
      <trkpt lat="42.42124" lon="0.18388">
        <ele>707.67</ele>
        <time>2014-06-03T07:41:50Z</time>
      </trkpt>
      <trkpt lat="42.42107" lon="0.18415">
        <ele>710.55</ele>
        <time>2014-06-03T07:42:04Z</time>
      </trkpt>
      <trkpt lat="42.421" lon="0.1845">
        <ele>713.92</ele>
        <time>2014-06-03T07:42:18Z</time>
      </trkpt>
      <trkpt lat="42.42107" lon="0.18468">
        <ele>716.32</ele>
        <time>2014-06-03T07:42:26Z</time>
      </trkpt>
      <trkpt lat="42.42127" lon="0.18488">
        <ele>719.68</ele>
        <time>2014-06-03T07:42:39Z</time>
      </trkpt>
      <trkpt lat="42.42149" lon="0.1852">
        <ele>721.61</ele>
        <time>2014-06-03T07:42:56Z</time>
      </trkpt>
      <trkpt lat="42.42154" lon="0.1856">
        <ele>724.97</ele>
        <time>2014-06-03T07:43:11Z</time>
      </trkpt>
      <trkpt lat="42.42158" lon="0.18605">
        <ele>726.89</ele>
        <time>2014-06-03T07:43:28Z</time>
      </trkpt>
      <trkpt lat="42.42156" lon="0.18648">
        <ele>729.78</ele>
        <time>2014-06-03T07:43:44Z</time>
      </trkpt>
      <trkpt lat="42.42157" lon="0.18679">
        <ele>732.18</ele>
        <time>2014-06-03T07:43:56Z</time>
      </trkpt>
      <trkpt lat="42.42164" lon="0.18676">
        <ele>733.62</ele>
        <time>2014-06-03T07:44:00Z</time>
      </trkpt>
      <trkpt lat="42.42172" lon="0.18627">
        <ele>736.03</ele>
        <time>2014-06-03T07:44:17Z</time>
      </trkpt>
      <trkpt lat="42.42184" lon="0.18564">
        <ele>737.95</ele>
        <time>2014-06-03T07:44:34Z</time>
      </trkpt>
      <trkpt lat="42.42211" lon="0.18552">
        <ele>737.95</ele>
        <time>2014-06-03T07:44:44Z</time>
      </trkpt>
      <trkpt lat="42.42244" lon="0.18578">
        <ele>739.39</ele>
        <time>2014-06-03T07:44:56Z</time>
      </trkpt>
      <trkpt lat="42.42256" lon="0.18626">
        <ele>740.35</ele>
        <time>2014-06-03T07:45:09Z</time>
      </trkpt>
      <trkpt lat="42.42267" lon="0.18695">
        <ele>742.76</ele>
        <time>2014-06-03T07:45:25Z</time>
      </trkpt>
      <trkpt lat="42.42283" lon="0.1874">
        <ele>745.64</ele>
        <time>2014-06-03T07:45:37Z</time>
      </trkpt>
      <trkpt lat="42.42289" lon="0.1875">
        <ele>746.12</ele>
        <time>2014-06-03T07:45:40Z</time>
      </trkpt>
      <trkpt lat="42.42311" lon="0.1877">
        <ele>745.64</ele>
        <time>2014-06-03T07:45:51Z</time>
      </trkpt>
      <trkpt lat="42.4233" lon="0.18781">
        <ele>745.64</ele>
        <time>2014-06-03T07:46:02Z</time>
      </trkpt>
      <trkpt lat="42.4233" lon="0.18781">
        <ele>745.64</ele>
        <time>2014-06-03T07:46:28Z</time>
      </trkpt>
      <trkpt lat="42.4233" lon="0.18781">
        <ele>744.68</ele>
        <time>2014-06-03T07:46:56Z</time>
      </trkpt>
      <trkpt lat="42.42344" lon="0.18787">
        <ele>743.24</ele>
        <time>2014-06-03T07:47:05Z</time>
      </trkpt>
      <trkpt lat="42.4237" lon="0.18804">
        <ele>741.79</ele>
        <time>2014-06-03T07:47:11Z</time>
      </trkpt>
      <trkpt lat="42.42387" lon="0.18818">
        <ele>741.31</ele>
        <time>2014-06-03T07:47:15Z</time>
      </trkpt>
      <trkpt lat="42.42398" lon="0.18824">
        <ele>740.83</ele>
        <time>2014-06-03T07:47:17Z</time>
      </trkpt>
      <trkpt lat="42.42413" lon="0.18817">
        <ele>741.79</ele>
        <time>2014-06-03T07:47:21Z</time>
      </trkpt>
      <trkpt lat="42.42424" lon="0.18797">
        <ele>744.2</ele>
        <time>2014-06-03T07:47:29Z</time>
      </trkpt>
      <trkpt lat="42.42451" lon="0.18794">
        <ele>745.64</ele>
        <time>2014-06-03T07:47:42Z</time>
      </trkpt>
      <trkpt lat="42.42466" lon="0.18787">
        <ele>744.2</ele>
        <time>2014-06-03T07:47:47Z</time>
      </trkpt>
      <trkpt lat="42.4247" lon="0.1877">
        <ele>744.2</ele>
        <time>2014-06-03T07:47:53Z</time>
      </trkpt>
      <trkpt lat="42.42444" lon="0.1875">
        <ele>747.56</ele>
        <time>2014-06-03T07:48:06Z</time>
      </trkpt>
      <trkpt lat="42.42433" lon="0.18718">
        <ele>749.97</ele>
        <time>2014-06-03T07:48:18Z</time>
      </trkpt>
      <trkpt lat="42.4245" lon="0.18688">
        <ele>749.49</ele>
        <time>2014-06-03T07:48:28Z</time>
      </trkpt>
      <trkpt lat="42.42468" lon="0.18681">
        <ele>749</ele>
        <time>2014-06-03T07:48:33Z</time>
      </trkpt>
      <trkpt lat="42.42523" lon="0.1868">
        <ele>750.93</ele>
        <time>2014-06-03T07:48:47Z</time>
      </trkpt>
      <trkpt lat="42.42552" lon="0.18692">
        <ele>752.85</ele>
        <time>2014-06-03T07:48:57Z</time>
      </trkpt>
      <trkpt lat="42.42565" lon="0.18695">
        <ele>752.37</ele>
        <time>2014-06-03T07:49:01Z</time>
      </trkpt>
      <trkpt lat="42.42577" lon="0.18699">
        <ele>750.93</ele>
        <time>2014-06-03T07:49:04Z</time>
      </trkpt>
      <trkpt lat="42.42605" lon="0.1868">
        <ele>748.52</ele>
        <time>2014-06-03T07:49:11Z</time>
      </trkpt>
      <trkpt lat="42.4259" lon="0.18652">
        <ele>749.97</ele>
        <time>2014-06-03T07:49:19Z</time>
      </trkpt>
      <trkpt lat="42.42586" lon="0.18646">
        <ele>750.45</ele>
        <time>2014-06-03T07:49:21Z</time>
      </trkpt>
      <trkpt lat="42.42583" lon="0.18641">
        <ele>751.41</ele>
        <time>2014-06-03T07:49:23Z</time>
      </trkpt>
      <trkpt lat="42.4258" lon="0.18623">
        <ele>753.81</ele>
        <time>2014-06-03T07:49:29Z</time>
      </trkpt>
      <trkpt lat="42.42586" lon="0.18623">
        <ele>756.21</ele>
        <time>2014-06-03T07:49:34Z</time>
      </trkpt>
      <trkpt lat="42.42588" lon="0.18619">
        <ele>757.18</ele>
        <time>2014-06-03T07:49:37Z</time>
      </trkpt>
      <trkpt lat="42.42604" lon="0.18617">
        <ele>758.62</ele>
        <time>2014-06-03T07:49:46Z</time>
      </trkpt>
      <trkpt lat="42.42612" lon="0.1862">
        <ele>759.58</ele>
        <time>2014-06-03T07:49:50Z</time>
      </trkpt>
      <trkpt lat="42.42634" lon="0.18636">
        <ele>762.94</ele>
        <time>2014-06-03T07:50:04Z</time>
      </trkpt>
      <trkpt lat="42.42653" lon="0.18654">
        <ele>765.83</ele>
        <time>2014-06-03T07:50:17Z</time>
      </trkpt>
      <trkpt lat="42.42672" lon="0.18667">
        <ele>768.71</ele>
        <time>2014-06-03T07:50:29Z</time>
      </trkpt>
      <trkpt lat="42.42695" lon="0.1868">
        <ele>772.56</ele>
        <time>2014-06-03T07:50:44Z</time>
      </trkpt>
      <trkpt lat="42.42697" lon="0.18681">
        <ele>772.08</ele>
        <time>2014-06-03T07:50:45Z</time>
      </trkpt>
      <trkpt lat="42.42702" lon="0.18685">
        <ele>773.04</ele>
        <time>2014-06-03T07:50:49Z</time>
      </trkpt>
      <trkpt lat="42.42723" lon="0.18693">
        <ele>775.92</ele>
        <time>2014-06-03T07:51:02Z</time>
      </trkpt>
      <trkpt lat="42.42751" lon="0.18698">
        <ele>778.32</ele>
        <time>2014-06-03T07:51:18Z</time>
      </trkpt>
      <trkpt lat="42.42771" lon="0.18706">
        <ele>781.69</ele>
        <time>2014-06-03T07:51:30Z</time>
      </trkpt>
      <trkpt lat="42.42787" lon="0.18714">
        <ele>785.05</ele>
        <time>2014-06-03T07:51:39Z</time>
      </trkpt>
      <trkpt lat="42.42794" lon="0.18717">
        <ele>786.5</ele>
        <time>2014-06-03T07:51:43Z</time>
      </trkpt>
      <trkpt lat="42.42808" lon="0.1872">
        <ele>789.38</ele>
        <time>2014-06-03T07:51:51Z</time>
      </trkpt>
      <trkpt lat="42.42813" lon="0.18724">
        <ele>790.82</ele>
        <time>2014-06-03T07:51:56Z</time>
      </trkpt>
      <trkpt lat="42.42818" lon="0.18733">
        <ele>792.26</ele>
        <time>2014-06-03T07:52:01Z</time>
      </trkpt>
      <trkpt lat="42.42822" lon="0.18736">
        <ele>793.71</ele>
        <time>2014-06-03T07:52:04Z</time>
      </trkpt>
      <trkpt lat="42.42824" lon="0.18736">
        <ele>794.19</ele>
        <time>2014-06-03T07:52:06Z</time>
      </trkpt>
      <trkpt lat="42.4283" lon="0.18735">
        <ele>795.63</ele>
        <time>2014-06-03T07:52:10Z</time>
      </trkpt>
      <trkpt lat="42.42854" lon="0.18733">
        <ele>796.59</ele>
        <time>2014-06-03T07:52:23Z</time>
      </trkpt>
      <trkpt lat="42.42875" lon="0.18735">
        <ele>798.99</ele>
        <time>2014-06-03T07:52:35Z</time>
      </trkpt>
      <trkpt lat="42.42891" lon="0.18736">
        <ele>800.44</ele>
        <time>2014-06-03T07:52:48Z</time>
      </trkpt>
      <trkpt lat="42.42891" lon="0.18736">
        <ele>800.44</ele>
        <time>2014-06-03T07:53:09Z</time>
      </trkpt>
      <trkpt lat="42.42891" lon="0.18736">
        <ele>799.95</ele>
        <time>2014-06-03T07:53:30Z</time>
      </trkpt>
      <trkpt lat="42.42891" lon="0.18736">
        <ele>799.95</ele>
        <time>2014-06-03T07:53:53Z</time>
      </trkpt>
      <trkpt lat="42.42891" lon="0.18735">
        <ele>799.95</ele>
        <time>2014-06-03T07:54:10Z</time>
      </trkpt>
      <trkpt lat="42.42915" lon="0.18732">
        <ele>799.47</ele>
        <time>2014-06-03T07:54:21Z</time>
      </trkpt>
      <trkpt lat="42.42943" lon="0.18728">
        <ele>799.47</ele>
        <time>2014-06-03T07:54:31Z</time>
      </trkpt>
      <trkpt lat="42.42967" lon="0.18724">
        <ele>801.88</ele>
        <time>2014-06-03T07:54:42Z</time>
      </trkpt>
      <trkpt lat="42.42992" lon="0.18728">
        <ele>804.28</ele>
        <time>2014-06-03T07:54:55Z</time>
      </trkpt>
      <trkpt lat="42.42997" lon="0.1873">
        <ele>805.24</ele>
        <time>2014-06-03T07:54:58Z</time>
      </trkpt>
      <trkpt lat="42.43012" lon="0.18747">
        <ele>808.13</ele>
        <time>2014-06-03T07:55:10Z</time>
      </trkpt>
      <trkpt lat="42.43027" lon="0.18751">
        <ele>810.05</ele>
        <time>2014-06-03T07:55:18Z</time>
      </trkpt>
      <trkpt lat="42.43046" lon="0.18731">
        <ele>811.97</ele>
        <time>2014-06-03T07:55:31Z</time>
      </trkpt>
      <trkpt lat="42.43047" lon="0.18731">
        <ele>811.97</ele>
        <time>2014-06-03T07:55:32Z</time>
      </trkpt>
      <trkpt lat="42.43061" lon="0.18729">
        <ele>812.93</ele>
        <time>2014-06-03T07:55:40Z</time>
      </trkpt>
      <trkpt lat="42.43073" lon="0.18737">
        <ele>813.41</ele>
        <time>2014-06-03T07:55:47Z</time>
      </trkpt>
      <trkpt lat="42.43074" lon="0.18736">
        <ele>813.89</ele>
        <time>2014-06-03T07:55:48Z</time>
      </trkpt>
      <trkpt lat="42.43084" lon="0.18737">
        <ele>813.41</ele>
        <time>2014-06-03T07:55:53Z</time>
      </trkpt>
      <trkpt lat="42.4309" lon="0.1873">
        <ele>813.89</ele>
        <time>2014-06-03T07:55:58Z</time>
      </trkpt>
      <trkpt lat="42.43094" lon="0.18715">
        <ele>814.85</ele>
        <time>2014-06-03T07:56:04Z</time>
      </trkpt>
      <trkpt lat="42.43101" lon="0.18704">
        <ele>815.82</ele>
        <time>2014-06-03T07:56:10Z</time>
      </trkpt>
      <trkpt lat="42.43112" lon="0.18693">
        <ele>818.22</ele>
        <time>2014-06-03T07:56:19Z</time>
      </trkpt>
      <trkpt lat="42.43117" lon="0.18683">
        <ele>820.14</ele>
        <time>2014-06-03T07:56:26Z</time>
      </trkpt>
      <trkpt lat="42.43127" lon="0.18676">
        <ele>821.1</ele>
        <time>2014-06-03T07:56:34Z</time>
      </trkpt>
      <trkpt lat="42.43146" lon="0.18674">
        <ele>823.99</ele>
        <time>2014-06-03T07:56:48Z</time>
      </trkpt>
      <trkpt lat="42.43165" lon="0.18672">
        <ele>824.95</ele>
        <time>2014-06-03T07:57:00Z</time>
      </trkpt>
      <trkpt lat="42.43169" lon="0.18671">
        <ele>824.47</ele>
        <time>2014-06-03T07:57:02Z</time>
      </trkpt>
      <trkpt lat="42.43191" lon="0.18683">
        <ele>825.43</ele>
        <time>2014-06-03T07:57:15Z</time>
      </trkpt>
      <trkpt lat="42.43195" lon="0.18685">
        <ele>824.95</ele>
        <time>2014-06-03T07:57:17Z</time>
      </trkpt>
      <trkpt lat="42.43209" lon="0.18706">
        <ele>823.51</ele>
        <time>2014-06-03T07:57:25Z</time>
      </trkpt>
      <trkpt lat="42.43211" lon="0.18712">
        <ele>823.99</ele>
        <time>2014-06-03T07:57:27Z</time>
      </trkpt>
      <trkpt lat="42.43213" lon="0.18713">
        <ele>824.47</ele>
        <time>2014-06-03T07:57:28Z</time>
      </trkpt>
      <trkpt lat="42.43221" lon="0.18708">
        <ele>823.99</ele>
        <time>2014-06-03T07:57:31Z</time>
      </trkpt>
      <trkpt lat="42.43223" lon="0.18703">
        <ele>824.47</ele>
        <time>2014-06-03T07:57:33Z</time>
      </trkpt>
      <trkpt lat="42.43229" lon="0.18688">
        <ele>823.99</ele>
        <time>2014-06-03T07:57:38Z</time>
      </trkpt>
      <trkpt lat="42.43236" lon="0.18678">
        <ele>824.95</ele>
        <time>2014-06-03T07:57:43Z</time>
      </trkpt>
      <trkpt lat="42.43245" lon="0.18672">
        <ele>824.95</ele>
        <time>2014-06-03T07:57:49Z</time>
      </trkpt>
      <trkpt lat="42.43256" lon="0.18669">
        <ele>825.43</ele>
        <time>2014-06-03T07:57:56Z</time>
      </trkpt>
      <trkpt lat="42.43271" lon="0.18667">
        <ele>825.91</ele>
        <time>2014-06-03T07:58:04Z</time>
      </trkpt>
      <trkpt lat="42.43277" lon="0.18671">
        <ele>826.87</ele>
        <time>2014-06-03T07:58:08Z</time>
      </trkpt>
      <trkpt lat="42.43293" lon="0.18678">
        <ele>827.83</ele>
        <time>2014-06-03T07:58:17Z</time>
      </trkpt>
      <trkpt lat="42.43302" lon="0.18681">
        <ele>827.83</ele>
        <time>2014-06-03T07:58:21Z</time>
      </trkpt>
      <trkpt lat="42.4331" lon="0.18682">
        <ele>827.83</ele>
        <time>2014-06-03T07:58:25Z</time>
      </trkpt>
      <trkpt lat="42.43314" lon="0.18684">
        <ele>828.31</ele>
        <time>2014-06-03T07:58:27Z</time>
      </trkpt>
      <trkpt lat="42.43324" lon="0.18686">
        <ele>829.27</ele>
        <time>2014-06-03T07:58:32Z</time>
      </trkpt>
      <trkpt lat="42.43325" lon="0.18688">
        <ele>829.27</ele>
        <time>2014-06-03T07:58:33Z</time>
      </trkpt>
      <trkpt lat="42.43336" lon="0.18688">
        <ele>830.72</ele>
        <time>2014-06-03T07:58:39Z</time>
      </trkpt>
      <trkpt lat="42.43341" lon="0.18686">
        <ele>831.68</ele>
        <time>2014-06-03T07:58:42Z</time>
      </trkpt>
      <trkpt lat="42.43344" lon="0.18682">
        <ele>832.64</ele>
        <time>2014-06-03T07:58:46Z</time>
      </trkpt>
      <trkpt lat="42.43348" lon="0.18679">
        <ele>833.6</ele>
        <time>2014-06-03T07:58:49Z</time>
      </trkpt>
      <trkpt lat="42.4335" lon="0.18679">
        <ele>833.6</ele>
        <time>2014-06-03T07:59:00Z</time>
      </trkpt>
      <trkpt lat="42.43351" lon="0.18677">
        <ele>834.08</ele>
        <time>2014-06-03T07:59:02Z</time>
      </trkpt>
      <trkpt lat="42.43353" lon="0.18672">
        <ele>834.08</ele>
        <time>2014-06-03T07:59:04Z</time>
      </trkpt>
      <trkpt lat="42.43354" lon="0.18663">
        <ele>834.56</ele>
        <time>2014-06-03T07:59:08Z</time>
      </trkpt>
      <trkpt lat="42.43364" lon="0.18649">
        <ele>836</ele>
        <time>2014-06-03T07:59:16Z</time>
      </trkpt>
      <trkpt lat="42.43371" lon="0.18646">
        <ele>836.96</ele>
        <time>2014-06-03T07:59:21Z</time>
      </trkpt>
      <trkpt lat="42.4338" lon="0.18642">
        <ele>838.41</ele>
        <time>2014-06-03T07:59:27Z</time>
      </trkpt>
      <trkpt lat="42.43401" lon="0.18639">
        <ele>839.37</ele>
        <time>2014-06-03T07:59:40Z</time>
      </trkpt>
      <trkpt lat="42.43419" lon="0.1864">
        <ele>841.29</ele>
        <time>2014-06-03T07:59:50Z</time>
      </trkpt>
      <trkpt lat="42.43439" lon="0.18642">
        <ele>844.66</ele>
        <time>2014-06-03T08:00:02Z</time>
      </trkpt>
      <trkpt lat="42.43443" lon="0.1864">
        <ele>846.1</ele>
        <time>2014-06-03T08:00:05Z</time>
      </trkpt>
      <trkpt lat="42.43448" lon="0.18641">
        <ele>848.02</ele>
        <time>2014-06-03T08:00:14Z</time>
      </trkpt>
      <trkpt lat="42.43462" lon="0.18639">
        <ele>848.98</ele>
        <time>2014-06-03T08:00:21Z</time>
      </trkpt>
      <trkpt lat="42.43472" lon="0.18636">
        <ele>849.46</ele>
        <time>2014-06-03T08:00:26Z</time>
      </trkpt>
      <trkpt lat="42.43497" lon="0.18632">
        <ele>850.9</ele>
        <time>2014-06-03T08:00:40Z</time>
      </trkpt>
      <trkpt lat="42.43518" lon="0.18625">
        <ele>852.35</ele>
        <time>2014-06-03T08:00:51Z</time>
      </trkpt>
      <trkpt lat="42.43541" lon="0.18624">
        <ele>855.71</ele>
        <time>2014-06-03T08:01:04Z</time>
      </trkpt>
      <trkpt lat="42.43546" lon="0.18623">
        <ele>856.19</ele>
        <time>2014-06-03T08:01:08Z</time>
      </trkpt>
      <trkpt lat="42.43568" lon="0.18622">
        <ele>857.63</ele>
        <time>2014-06-03T08:01:21Z</time>
      </trkpt>
      <trkpt lat="42.43579" lon="0.18624">
        <ele>859.08</ele>
        <time>2014-06-03T08:01:29Z</time>
      </trkpt>
      <trkpt lat="42.43586" lon="0.18626">
        <ele>859.56</ele>
        <time>2014-06-03T08:01:36Z</time>
      </trkpt>
      <trkpt lat="42.43599" lon="0.18626">
        <ele>860.52</ele>
        <time>2014-06-03T08:01:47Z</time>
      </trkpt>
      <trkpt lat="42.43603" lon="0.1863">
        <ele>861.96</ele>
        <time>2014-06-03T08:01:59Z</time>
      </trkpt>
      <trkpt lat="42.43616" lon="0.18631">
        <ele>863.4</ele>
        <time>2014-06-03T08:02:12Z</time>
      </trkpt>
      <trkpt lat="42.43627" lon="0.18618">
        <ele>862.92</ele>
        <time>2014-06-03T08:02:22Z</time>
      </trkpt>
      <trkpt lat="42.43628" lon="0.18616">
        <ele>862.92</ele>
        <time>2014-06-03T08:02:23Z</time>
      </trkpt>
      <trkpt lat="42.43639" lon="0.18605">
        <ele>864.36</ele>
        <time>2014-06-03T08:02:34Z</time>
      </trkpt>
      <trkpt lat="42.43656" lon="0.18597">
        <ele>864.36</ele>
        <time>2014-06-03T08:02:44Z</time>
      </trkpt>
      <trkpt lat="42.43671" lon="0.18593">
        <ele>864.36</ele>
        <time>2014-06-03T08:02:50Z</time>
      </trkpt>
      <trkpt lat="42.43694" lon="0.18592">
        <ele>864.36</ele>
        <time>2014-06-03T08:02:59Z</time>
      </trkpt>
      <trkpt lat="42.43702" lon="0.18594">
        <ele>865.32</ele>
        <time>2014-06-03T08:03:03Z</time>
      </trkpt>
      <trkpt lat="42.43726" lon="0.18597">
        <ele>867.73</ele>
        <time>2014-06-03T08:03:15Z</time>
      </trkpt>
      <trkpt lat="42.4373" lon="0.18598">
        <ele>868.69</ele>
        <time>2014-06-03T08:03:17Z</time>
      </trkpt>
      <trkpt lat="42.43736" lon="0.186">
        <ele>869.65</ele>
        <time>2014-06-03T08:03:20Z</time>
      </trkpt>
      <trkpt lat="42.43748" lon="0.18607">
        <ele>871.09</ele>
        <time>2014-06-03T08:03:28Z</time>
      </trkpt>
      <trkpt lat="42.4376" lon="0.18611">
        <ele>872.05</ele>
        <time>2014-06-03T08:03:39Z</time>
      </trkpt>
      <trkpt lat="42.43768" lon="0.1861">
        <ele>874.46</ele>
        <time>2014-06-03T08:03:51Z</time>
      </trkpt>
      <trkpt lat="42.43772" lon="0.18607">
        <ele>876.86</ele>
        <time>2014-06-03T08:04:04Z</time>
      </trkpt>
      <trkpt lat="42.43783" lon="0.186">
        <ele>879.26</ele>
        <time>2014-06-03T08:04:17Z</time>
      </trkpt>
      <trkpt lat="42.43784" lon="0.186">
        <ele>882.15</ele>
        <time>2014-06-03T08:04:31Z</time>
      </trkpt>
      <trkpt lat="42.43793" lon="0.18598">
        <ele>884.55</ele>
        <time>2014-06-03T08:04:44Z</time>
      </trkpt>
      <trkpt lat="42.43795" lon="0.18599">
        <ele>886.95</ele>
        <time>2014-06-03T08:04:55Z</time>
      </trkpt>
      <trkpt lat="42.43795" lon="0.18599">
        <ele>890.32</ele>
        <time>2014-06-03T08:05:09Z</time>
      </trkpt>
      <trkpt lat="42.43804" lon="0.18603">
        <ele>891.28</ele>
        <time>2014-06-03T08:05:15Z</time>
      </trkpt>
      <trkpt lat="42.4382" lon="0.18605">
        <ele>893.2</ele>
        <time>2014-06-03T08:05:30Z</time>
      </trkpt>
      <trkpt lat="42.43829" lon="0.18608">
        <ele>893.68</ele>
        <time>2014-06-03T08:05:44Z</time>
      </trkpt>
      <trkpt lat="42.43829" lon="0.18608">
        <ele>893.2</ele>
        <time>2014-06-03T08:06:18Z</time>
      </trkpt>
      <trkpt lat="42.4383" lon="0.18607">
        <ele>893.2</ele>
        <time>2014-06-03T08:06:51Z</time>
      </trkpt>
      <trkpt lat="42.4383" lon="0.18607">
        <ele>893.68</ele>
        <time>2014-06-03T08:07:19Z</time>
      </trkpt>
      <trkpt lat="42.43831" lon="0.18607">
        <ele>893.2</ele>
        <time>2014-06-03T08:07:53Z</time>
      </trkpt>
      <trkpt lat="42.43831" lon="0.18606">
        <ele>893.68</ele>
        <time>2014-06-03T08:08:30Z</time>
      </trkpt>
      <trkpt lat="42.43832" lon="0.18606">
        <ele>892.72</ele>
        <time>2014-06-03T08:09:03Z</time>
      </trkpt>
      <trkpt lat="42.43832" lon="0.18605">
        <ele>893.2</ele>
        <time>2014-06-03T08:09:44Z</time>
      </trkpt>
      <trkpt lat="42.43832" lon="0.18605">
        <ele>893.68</ele>
        <time>2014-06-03T08:10:12Z</time>
      </trkpt>
      <trkpt lat="42.43832" lon="0.18605">
        <ele>893.68</ele>
        <time>2014-06-03T08:10:48Z</time>
      </trkpt>
      <trkpt lat="42.43832" lon="0.18604">
        <ele>893.68</ele>
        <time>2014-06-03T08:11:24Z</time>
      </trkpt>
      <trkpt lat="42.43832" lon="0.18604">
        <ele>893.68</ele>
        <time>2014-06-03T08:12:01Z</time>
      </trkpt>
      <trkpt lat="42.43832" lon="0.18604">
        <ele>894.16</ele>
        <time>2014-06-03T08:12:38Z</time>
      </trkpt>
      <trkpt lat="42.43832" lon="0.18604">
        <ele>894.16</ele>
        <time>2014-06-03T08:13:11Z</time>
      </trkpt>
      <trkpt lat="42.43835" lon="0.18605">
        <ele>895.61</ele>
        <time>2014-06-03T08:13:24Z</time>
      </trkpt>
      <trkpt lat="42.43835" lon="0.18605">
        <ele>896.09</ele>
        <time>2014-06-03T08:13:44Z</time>
      </trkpt>
      <trkpt lat="42.43835" lon="0.18605">
        <ele>895.61</ele>
        <time>2014-06-03T08:14:02Z</time>
      </trkpt>
      <trkpt lat="42.43862" lon="0.18608">
        <ele>897.53</ele>
        <time>2014-06-03T08:14:16Z</time>
      </trkpt>
      <trkpt lat="42.43882" lon="0.18603">
        <ele>896.09</ele>
        <time>2014-06-03T08:14:22Z</time>
      </trkpt>
      <trkpt lat="42.43904" lon="0.1861">
        <ele>894.16</ele>
        <time>2014-06-03T08:14:26Z</time>
      </trkpt>
      <trkpt lat="42.43924" lon="0.18609">
        <ele>892.72</ele>
        <time>2014-06-03T08:14:29Z</time>
      </trkpt>
      <trkpt lat="42.43931" lon="0.18609">
        <ele>892.24</ele>
        <time>2014-06-03T08:14:30Z</time>
      </trkpt>
      <trkpt lat="42.4396" lon="0.18603">
        <ele>890.32</ele>
        <time>2014-06-03T08:14:34Z</time>
      </trkpt>
      <trkpt lat="42.43985" lon="0.18592">
        <ele>888.88</ele>
        <time>2014-06-03T08:14:37Z</time>
      </trkpt>
      <trkpt lat="42.44001" lon="0.18583">
        <ele>887.91</ele>
        <time>2014-06-03T08:14:39Z</time>
      </trkpt>
      <trkpt lat="42.44022" lon="0.18575">
        <ele>889.84</ele>
        <time>2014-06-03T08:14:42Z</time>
      </trkpt>
      <trkpt lat="42.44045" lon="0.18564">
        <ele>889.84</ele>
        <time>2014-06-03T08:14:46Z</time>
      </trkpt>
      <trkpt lat="42.44062" lon="0.18553">
        <ele>890.32</ele>
        <time>2014-06-03T08:14:49Z</time>
      </trkpt>
      <trkpt lat="42.4411" lon="0.18521">
        <ele>886.47</ele>
        <time>2014-06-03T08:14:57Z</time>
      </trkpt>
      <trkpt lat="42.44134" lon="0.18507">
        <ele>884.07</ele>
        <time>2014-06-03T08:15:00Z</time>
      </trkpt>
      <trkpt lat="42.44179" lon="0.18498">
        <ele>880.71</ele>
        <time>2014-06-03T08:15:05Z</time>
      </trkpt>
      <trkpt lat="42.44197" lon="0.18498">
        <ele>880.71</ele>
        <time>2014-06-03T08:15:07Z</time>
      </trkpt>
      <trkpt lat="42.44224" lon="0.18493">
        <ele>881.67</ele>
        <time>2014-06-03T08:15:14Z</time>
      </trkpt>
      <trkpt lat="42.44224" lon="0.18493">
        <ele>882.15</ele>
        <time>2014-06-03T08:15:40Z</time>
      </trkpt>
      <trkpt lat="42.44223" lon="0.18494">
        <ele>882.15</ele>
        <time>2014-06-03T08:16:10Z</time>
      </trkpt>
      <trkpt lat="42.44224" lon="0.18493">
        <ele>882.15</ele>
        <time>2014-06-03T08:16:37Z</time>
      </trkpt>
      <trkpt lat="42.44224" lon="0.18493">
        <ele>882.63</ele>
        <time>2014-06-03T08:17:10Z</time>
      </trkpt>
      <trkpt lat="42.44232" lon="0.18494">
        <ele>881.19</ele>
        <time>2014-06-03T08:17:19Z</time>
      </trkpt>
      <trkpt lat="42.44255" lon="0.18516">
        <ele>877.82</ele>
        <time>2014-06-03T08:17:24Z</time>
      </trkpt>
      <trkpt lat="42.44267" lon="0.18529">
        <ele>876.38</ele>
        <time>2014-06-03T08:17:27Z</time>
      </trkpt>
      <trkpt lat="42.44272" lon="0.18536">
        <ele>873.98</ele>
        <time>2014-06-03T08:17:29Z</time>
      </trkpt>
      <trkpt lat="42.44282" lon="0.18551">
        <ele>871.09</ele>
        <time>2014-06-03T08:17:35Z</time>
      </trkpt>
      <trkpt lat="42.44284" lon="0.18556">
        <ele>870.13</ele>
        <time>2014-06-03T08:17:38Z</time>
      </trkpt>
      <trkpt lat="42.44284" lon="0.18558">
        <ele>869.65</ele>
        <time>2014-06-03T08:17:39Z</time>
      </trkpt>
      <trkpt lat="42.44288" lon="0.18576">
        <ele>866.29</ele>
        <time>2014-06-03T08:17:43Z</time>
      </trkpt>
      <trkpt lat="42.44294" lon="0.18598">
        <ele>862.44</ele>
        <time>2014-06-03T08:17:47Z</time>
      </trkpt>
      <trkpt lat="42.44296" lon="0.18604">
        <ele>861.96</ele>
        <time>2014-06-03T08:17:48Z</time>
      </trkpt>
      <trkpt lat="42.443" lon="0.18624">
        <ele>858.59</ele>
        <time>2014-06-03T08:17:52Z</time>
      </trkpt>
      <trkpt lat="42.44308" lon="0.18637">
        <ele>855.23</ele>
        <time>2014-06-03T08:17:55Z</time>
      </trkpt>
      <trkpt lat="42.44312" lon="0.18641">
        <ele>854.27</ele>
        <time>2014-06-03T08:17:57Z</time>
      </trkpt>
      <trkpt lat="42.44318" lon="0.1866">
        <ele>852.35</ele>
        <time>2014-06-03T08:18:01Z</time>
      </trkpt>
      <trkpt lat="42.44333" lon="0.18712">
        <ele>849.46</ele>
        <time>2014-06-03T08:18:08Z</time>
      </trkpt>
      <trkpt lat="42.44338" lon="0.18743">
        <ele>847.06</ele>
        <time>2014-06-03T08:18:12Z</time>
      </trkpt>
      <trkpt lat="42.44338" lon="0.18748">
        <ele>847.06</ele>
        <time>2014-06-03T08:18:13Z</time>
      </trkpt>
      <trkpt lat="42.44336" lon="0.18756">
        <ele>846.1</ele>
        <time>2014-06-03T08:18:15Z</time>
      </trkpt>
      <trkpt lat="42.44329" lon="0.18773">
        <ele>844.66</ele>
        <time>2014-06-03T08:18:18Z</time>
      </trkpt>
      <trkpt lat="42.44342" lon="0.18813">
        <ele>841.77</ele>
        <time>2014-06-03T08:18:25Z</time>
      </trkpt>
      <trkpt lat="42.44353" lon="0.18842">
        <ele>838.41</ele>
        <time>2014-06-03T08:18:29Z</time>
      </trkpt>
      <trkpt lat="42.44356" lon="0.18848">
        <ele>838.89</ele>
        <time>2014-06-03T08:18:30Z</time>
      </trkpt>
      <trkpt lat="42.44368" lon="0.18868">
        <ele>836</ele>
        <time>2014-06-03T08:18:34Z</time>
      </trkpt>
      <trkpt lat="42.44371" lon="0.18873">
        <ele>836</ele>
        <time>2014-06-03T08:18:35Z</time>
      </trkpt>
      <trkpt lat="42.44385" lon="0.18885">
        <ele>830.72</ele>
        <time>2014-06-03T08:18:39Z</time>
      </trkpt>
      <trkpt lat="42.44399" lon="0.18891">
        <ele>829.27</ele>
        <time>2014-06-03T08:18:41Z</time>
      </trkpt>
      <trkpt lat="42.44414" lon="0.18894">
        <ele>828.31</ele>
        <time>2014-06-03T08:18:43Z</time>
      </trkpt>
      <trkpt lat="42.44431" lon="0.18895">
        <ele>825.91</ele>
        <time>2014-06-03T08:18:46Z</time>
      </trkpt>
      <trkpt lat="42.4446" lon="0.18895">
        <ele>822.55</ele>
        <time>2014-06-03T08:18:51Z</time>
      </trkpt>
      <trkpt lat="42.44465" lon="0.18895">
        <ele>821.58</ele>
        <time>2014-06-03T08:18:53Z</time>
      </trkpt>
      <trkpt lat="42.44458" lon="0.18913">
        <ele>819.18</ele>
        <time>2014-06-03T08:19:00Z</time>
      </trkpt>
      <trkpt lat="42.44455" lon="0.18926">
        <ele>815.82</ele>
        <time>2014-06-03T08:19:03Z</time>
      </trkpt>
      <trkpt lat="42.44454" lon="0.18928">
        <ele>815.82</ele>
        <time>2014-06-03T08:19:04Z</time>
      </trkpt>
      <trkpt lat="42.44454" lon="0.1894">
        <ele>814.85</ele>
        <time>2014-06-03T08:19:06Z</time>
      </trkpt>
      <trkpt lat="42.44452" lon="0.18954">
        <ele>812.93</ele>
        <time>2014-06-03T08:19:08Z</time>
      </trkpt>
      <trkpt lat="42.44458" lon="0.18958">
        <ele>810.53</ele>
        <time>2014-06-03T08:19:11Z</time>
      </trkpt>
      <trkpt lat="42.44463" lon="0.1896">
        <ele>810.05</ele>
        <time>2014-06-03T08:19:13Z</time>
      </trkpt>
      <trkpt lat="42.44463" lon="0.18964">
        <ele>808.61</ele>
        <time>2014-06-03T08:19:15Z</time>
      </trkpt>
      <trkpt lat="42.44463" lon="0.18971">
        <ele>806.2</ele>
        <time>2014-06-03T08:19:19Z</time>
      </trkpt>
      <trkpt lat="42.44457" lon="0.18981">
        <ele>803.8</ele>
        <time>2014-06-03T08:19:22Z</time>
      </trkpt>
      <trkpt lat="42.44456" lon="0.18998">
        <ele>800.44</ele>
        <time>2014-06-03T08:19:27Z</time>
      </trkpt>
      <trkpt lat="42.44451" lon="0.19012">
        <ele>798.51</ele>
        <time>2014-06-03T08:19:29Z</time>
      </trkpt>
      <trkpt lat="42.44446" lon="0.19027">
        <ele>797.55</ele>
        <time>2014-06-03T08:19:31Z</time>
      </trkpt>
      <trkpt lat="42.44434" lon="0.19058">
        <ele>793.71</ele>
        <time>2014-06-03T08:19:35Z</time>
      </trkpt>
      <trkpt lat="42.44424" lon="0.19091">
        <ele>789.86</ele>
        <time>2014-06-03T08:19:39Z</time>
      </trkpt>
      <trkpt lat="42.44428" lon="0.19123">
        <ele>786.5</ele>
        <time>2014-06-03T08:19:43Z</time>
      </trkpt>
      <trkpt lat="42.44431" lon="0.19131">
        <ele>786.02</ele>
        <time>2014-06-03T08:19:44Z</time>
      </trkpt>
      <trkpt lat="42.44435" lon="0.19135">
        <ele>785.05</ele>
        <time>2014-06-03T08:19:45Z</time>
      </trkpt>
      <trkpt lat="42.44444" lon="0.19143">
        <ele>783.13</ele>
        <time>2014-06-03T08:19:48Z</time>
      </trkpt>
      <trkpt lat="42.4445" lon="0.19145">
        <ele>781.69</ele>
        <time>2014-06-03T08:19:50Z</time>
      </trkpt>
      <trkpt lat="42.44454" lon="0.19146">
        <ele>781.21</ele>
        <time>2014-06-03T08:19:51Z</time>
      </trkpt>
      <trkpt lat="42.44475" lon="0.19154">
        <ele>779.77</ele>
        <time>2014-06-03T08:19:53Z</time>
      </trkpt>
      <trkpt lat="42.44482" lon="0.1916">
        <ele>778.32</ele>
        <time>2014-06-03T08:19:54Z</time>
      </trkpt>
      <trkpt lat="42.44524" lon="0.19202">
        <ele>773.52</ele>
        <time>2014-06-03T08:20:00Z</time>
      </trkpt>
      <trkpt lat="42.4453" lon="0.1921">
        <ele>773.04</ele>
        <time>2014-06-03T08:20:01Z</time>
      </trkpt>
      <trkpt lat="42.44537" lon="0.19227">
        <ele>771.6</ele>
        <time>2014-06-03T08:20:03Z</time>
      </trkpt>
      <trkpt lat="42.44539" lon="0.19235">
        <ele>771.11</ele>
        <time>2014-06-03T08:20:04Z</time>
      </trkpt>
      <trkpt lat="42.44551" lon="0.19251">
        <ele>768.71</ele>
        <time>2014-06-03T08:20:08Z</time>
      </trkpt>
      <trkpt lat="42.44553" lon="0.19255">
        <ele>768.71</ele>
        <time>2014-06-03T08:20:18Z</time>
      </trkpt>
      <trkpt lat="42.44553" lon="0.19255">
        <ele>769.19</ele>
        <time>2014-06-03T08:20:38Z</time>
      </trkpt>
      <trkpt lat="42.44552" lon="0.19254">
        <ele>769.67</ele>
        <time>2014-06-03T08:21:04Z</time>
      </trkpt>
      <trkpt lat="42.44562" lon="0.19263">
        <ele>766.79</ele>
        <time>2014-06-03T08:21:08Z</time>
      </trkpt>
      <trkpt lat="42.44574" lon="0.19277">
        <ele>763.42</ele>
        <time>2014-06-03T08:21:12Z</time>
      </trkpt>
      <trkpt lat="42.44569" lon="0.19284">
        <ele>761.98</ele>
        <time>2014-06-03T08:21:17Z</time>
      </trkpt>
      <trkpt lat="42.44572" lon="0.19274">
        <ele>762.46</ele>
        <time>2014-06-03T08:21:28Z</time>
      </trkpt>
      <trkpt lat="42.44572" lon="0.19274">
        <ele>762.46</ele>
        <time>2014-06-03T08:22:09Z</time>
      </trkpt>
      <trkpt lat="42.44572" lon="0.19274">
        <ele>762.46</ele>
        <time>2014-06-03T08:22:57Z</time>
      </trkpt>
      <trkpt lat="42.44571" lon="0.19274">
        <ele>762.94</ele>
        <time>2014-06-03T08:23:39Z</time>
      </trkpt>
      <trkpt lat="42.44571" lon="0.19274">
        <ele>762.94</ele>
        <time>2014-06-03T08:24:26Z</time>
      </trkpt>
      <trkpt lat="42.44571" lon="0.19274">
        <ele>763.9</ele>
        <time>2014-06-03T08:24:29Z</time>
      </trkpt>
      <trkpt lat="42.44565" lon="0.19268">
        <ele>764.39</ele>
        <time>2014-06-03T08:24:34Z</time>
      </trkpt>
      <trkpt lat="42.44562" lon="0.19267">
        <ele>765.83</ele>
        <time>2014-06-03T08:24:36Z</time>
      </trkpt>
      <trkpt lat="42.44562" lon="0.19267">
        <ele>765.83</ele>
        <time>2014-06-03T08:24:42Z</time>
      </trkpt>
      <trkpt lat="42.44566" lon="0.19272">
        <ele>764.87</ele>
        <time>2014-06-03T08:24:45Z</time>
      </trkpt>
      <trkpt lat="42.44566" lon="0.19284">
        <ele>761.5</ele>
        <time>2014-06-03T08:24:48Z</time>
      </trkpt>
      <trkpt lat="42.44565" lon="0.19287">
        <ele>761.5</ele>
        <time>2014-06-03T08:24:49Z</time>
      </trkpt>
      <trkpt lat="42.44572" lon="0.19287">
        <ele>759.1</ele>
        <time>2014-06-03T08:24:53Z</time>
      </trkpt>
      <trkpt lat="42.44572" lon="0.19295">
        <ele>756.21</ele>
        <time>2014-06-03T08:24:57Z</time>
      </trkpt>
      <trkpt lat="42.44572" lon="0.19306">
        <ele>751.89</ele>
        <time>2014-06-03T08:25:02Z</time>
      </trkpt>
      <trkpt lat="42.44575" lon="0.19316">
        <ele>750.45</ele>
        <time>2014-06-03T08:25:05Z</time>
      </trkpt>
      <trkpt lat="42.44572" lon="0.19323">
        <ele>749.49</ele>
        <time>2014-06-03T08:25:12Z</time>
      </trkpt>
      <trkpt lat="42.44564" lon="0.19343">
        <ele>748.52</ele>
        <time>2014-06-03T08:25:26Z</time>
      </trkpt>
      <trkpt lat="42.44558" lon="0.1935">
        <ele>747.56</ele>
        <time>2014-06-03T08:25:28Z</time>
      </trkpt>
      <trkpt lat="42.44545" lon="0.19358">
        <ele>747.56</ele>
        <time>2014-06-03T08:25:32Z</time>
      </trkpt>
      <trkpt lat="42.44539" lon="0.19365">
        <ele>747.08</ele>
        <time>2014-06-03T08:25:35Z</time>
      </trkpt>
      <trkpt lat="42.44534" lon="0.1938">
        <ele>746.6</ele>
        <time>2014-06-03T08:25:40Z</time>
      </trkpt>
      <trkpt lat="42.44536" lon="0.19404">
        <ele>746.12</ele>
        <time>2014-06-03T08:25:47Z</time>
      </trkpt>
      <trkpt lat="42.44536" lon="0.19422">
        <ele>746.12</ele>
        <time>2014-06-03T08:25:50Z</time>
      </trkpt>
      <trkpt lat="42.44548" lon="0.19475">
        <ele>744.2</ele>
        <time>2014-06-03T08:26:00Z</time>
      </trkpt>
      <trkpt lat="42.44544" lon="0.19493">
        <ele>744.2</ele>
        <time>2014-06-03T08:26:04Z</time>
      </trkpt>
      <trkpt lat="42.44524" lon="0.19522">
        <ele>742.76</ele>
        <time>2014-06-03T08:26:12Z</time>
      </trkpt>
      <trkpt lat="42.44519" lon="0.1955">
        <ele>738.43</ele>
        <time>2014-06-03T08:26:21Z</time>
      </trkpt>
      <trkpt lat="42.44518" lon="0.19553">
        <ele>743.72</ele>
        <time>2014-06-03T08:26:22Z</time>
      </trkpt>
      <trkpt lat="42.44524" lon="0.19575">
        <ele>742.76</ele>
        <time>2014-06-03T08:26:33Z</time>
      </trkpt>
      <trkpt lat="42.4452" lon="0.1958">
        <ele>742.76</ele>
        <time>2014-06-03T08:26:37Z</time>
      </trkpt>
      <trkpt lat="42.44521" lon="0.19584">
        <ele>743.24</ele>
        <time>2014-06-03T08:26:42Z</time>
      </trkpt>
      <trkpt lat="42.44522" lon="0.19587">
        <ele>743.72</ele>
        <time>2014-06-03T08:26:44Z</time>
      </trkpt>
      <trkpt lat="42.44524" lon="0.19589">
        <ele>743.72</ele>
        <time>2014-06-03T08:26:46Z</time>
      </trkpt>
      <trkpt lat="42.44529" lon="0.19616">
        <ele>745.16</ele>
        <time>2014-06-03T08:26:57Z</time>
      </trkpt>
      <trkpt lat="42.44526" lon="0.19621">
        <ele>746.12</ele>
        <time>2014-06-03T08:26:59Z</time>
      </trkpt>
      <trkpt lat="42.4451" lon="0.19616">
        <ele>749.49</ele>
        <time>2014-06-03T08:27:11Z</time>
      </trkpt>
      <trkpt lat="42.44502" lon="0.19609">
        <ele>751.41</ele>
        <time>2014-06-03T08:27:17Z</time>
      </trkpt>
      <trkpt lat="42.44508" lon="0.19623">
        <ele>751.89</ele>
        <time>2014-06-03T08:27:26Z</time>
      </trkpt>
      <trkpt lat="42.44523" lon="0.19638">
        <ele>753.33</ele>
        <time>2014-06-03T08:27:39Z</time>
      </trkpt>
      <trkpt lat="42.44527" lon="0.19644">
        <ele>754.77</ele>
        <time>2014-06-03T08:27:42Z</time>
      </trkpt>
      <trkpt lat="42.44533" lon="0.19651">
        <ele>756.69</ele>
        <time>2014-06-03T08:27:48Z</time>
      </trkpt>
      <trkpt lat="42.44543" lon="0.19662">
        <ele>759.1</ele>
        <time>2014-06-03T08:27:56Z</time>
      </trkpt>
      <trkpt lat="42.44548" lon="0.19665">
        <ele>759.58</ele>
        <time>2014-06-03T08:28:00Z</time>
      </trkpt>
      <trkpt lat="42.44559" lon="0.19679">
        <ele>762.46</ele>
        <time>2014-06-03T08:28:11Z</time>
      </trkpt>
      <trkpt lat="42.44565" lon="0.19685">
        <ele>763.9</ele>
        <time>2014-06-03T08:28:17Z</time>
      </trkpt>
      <trkpt lat="42.44576" lon="0.19698">
        <ele>765.83</ele>
        <time>2014-06-03T08:28:27Z</time>
      </trkpt>
      <trkpt lat="42.44586" lon="0.1971">
        <ele>767.27</ele>
        <time>2014-06-03T08:28:36Z</time>
      </trkpt>
      <trkpt lat="42.44595" lon="0.19722">
        <ele>768.71</ele>
        <time>2014-06-03T08:28:45Z</time>
      </trkpt>
      <trkpt lat="42.44612" lon="0.19741">
        <ele>771.11</ele>
        <time>2014-06-03T08:28:59Z</time>
      </trkpt>
      <trkpt lat="42.44621" lon="0.19753">
        <ele>772.08</ele>
        <time>2014-06-03T08:29:07Z</time>
      </trkpt>
      <trkpt lat="42.44629" lon="0.19756">
        <ele>773.52</ele>
        <time>2014-06-03T08:29:13Z</time>
      </trkpt>
      <trkpt lat="42.44635" lon="0.1976">
        <ele>774.48</ele>
        <time>2014-06-03T08:29:17Z</time>
      </trkpt>
      <trkpt lat="42.4464" lon="0.19768">
        <ele>775.92</ele>
        <time>2014-06-03T08:29:22Z</time>
      </trkpt>
      <trkpt lat="42.44645" lon="0.1977">
        <ele>775.44</ele>
        <time>2014-06-03T08:29:26Z</time>
      </trkpt>
      <trkpt lat="42.44654" lon="0.19771">
        <ele>776.88</ele>
        <time>2014-06-03T08:29:33Z</time>
      </trkpt>
      <trkpt lat="42.44658" lon="0.19772">
        <ele>776.88</ele>
        <time>2014-06-03T08:29:36Z</time>
      </trkpt>
      <trkpt lat="42.44662" lon="0.19776">
        <ele>778.81</ele>
        <time>2014-06-03T08:29:46Z</time>
      </trkpt>
      <trkpt lat="42.44661" lon="0.19776">
        <ele>778.81</ele>
        <time>2014-06-03T08:29:59Z</time>
      </trkpt>
      <trkpt lat="42.44661" lon="0.19776">
        <ele>778.32</ele>
        <time>2014-06-03T08:30:10Z</time>
      </trkpt>
      <trkpt lat="42.44658" lon="0.19783">
        <ele>779.29</ele>
        <time>2014-06-03T08:30:16Z</time>
      </trkpt>
      <trkpt lat="42.44654" lon="0.19785">
        <ele>779.77</ele>
        <time>2014-06-03T08:30:19Z</time>
      </trkpt>
      <trkpt lat="42.44646" lon="0.19797">
        <ele>783.13</ele>
        <time>2014-06-03T08:30:31Z</time>
      </trkpt>
      <trkpt lat="42.44645" lon="0.19798">
        <ele>783.13</ele>
        <time>2014-06-03T08:30:33Z</time>
      </trkpt>
      <trkpt lat="42.44643" lon="0.19807">
        <ele>784.57</ele>
        <time>2014-06-03T08:30:40Z</time>
      </trkpt>
      <trkpt lat="42.44643" lon="0.19815">
        <ele>785.53</ele>
        <time>2014-06-03T08:30:49Z</time>
      </trkpt>
      <trkpt lat="42.44642" lon="0.19825">
        <ele>786.02</ele>
        <time>2014-06-03T08:30:57Z</time>
      </trkpt>
      <trkpt lat="42.44642" lon="0.19835">
        <ele>786.5</ele>
        <time>2014-06-03T08:31:03Z</time>
      </trkpt>
      <trkpt lat="42.44641" lon="0.19846">
        <ele>786.98</ele>
        <time>2014-06-03T08:31:17Z</time>
      </trkpt>
      <trkpt lat="42.44641" lon="0.19846">
        <ele>787.46</ele>
        <time>2014-06-03T08:31:47Z</time>
      </trkpt>
      <trkpt lat="42.44641" lon="0.19846">
        <ele>786.98</ele>
        <time>2014-06-03T08:32:19Z</time>
      </trkpt>
      <trkpt lat="42.44641" lon="0.19846">
        <ele>790.82</ele>
        <time>2014-06-03T08:32:42Z</time>
      </trkpt>
      <trkpt lat="42.44641" lon="0.19846">
        <ele>787.46</ele>
        <time>2014-06-03T08:32:43Z</time>
      </trkpt>
      <trkpt lat="42.44641" lon="0.19846">
        <ele>786.98</ele>
        <time>2014-06-03T08:33:08Z</time>
      </trkpt>
      <trkpt lat="42.44641" lon="0.19846">
        <ele>786.98</ele>
        <time>2014-06-03T08:33:36Z</time>
      </trkpt>
      <trkpt lat="42.44641" lon="0.19846">
        <ele>786.5</ele>
        <time>2014-06-03T08:33:59Z</time>
      </trkpt>
      <trkpt lat="42.44641" lon="0.19846">
        <ele>786.98</ele>
        <time>2014-06-03T08:34:22Z</time>
      </trkpt>
      <trkpt lat="42.44641" lon="0.19846">
        <ele>786.98</ele>
        <time>2014-06-03T08:34:55Z</time>
      </trkpt>
      <trkpt lat="42.44641" lon="0.19845">
        <ele>787.46</ele>
        <time>2014-06-03T08:35:27Z</time>
      </trkpt>
      <trkpt lat="42.44642" lon="0.19852">
        <ele>787.46</ele>
        <time>2014-06-03T08:35:38Z</time>
      </trkpt>
      <trkpt lat="42.44643" lon="0.1989">
        <ele>787.94</ele>
        <time>2014-06-03T08:35:51Z</time>
      </trkpt>
      <trkpt lat="42.44643" lon="0.19933">
        <ele>788.9</ele>
        <time>2014-06-03T08:36:03Z</time>
      </trkpt>
      <trkpt lat="42.44635" lon="0.19976">
        <ele>788.42</ele>
        <time>2014-06-03T08:36:13Z</time>
      </trkpt>
      <trkpt lat="42.44634" lon="0.1998">
        <ele>788.42</ele>
        <time>2014-06-03T08:36:14Z</time>
      </trkpt>
      <trkpt lat="42.44635" lon="0.20005">
        <ele>788.42</ele>
        <time>2014-06-03T08:36:19Z</time>
      </trkpt>
      <trkpt lat="42.44627" lon="0.20053">
        <ele>791.3</ele>
        <time>2014-06-03T08:36:30Z</time>
      </trkpt>
      <trkpt lat="42.44621" lon="0.20067">
        <ele>791.3</ele>
        <time>2014-06-03T08:36:34Z</time>
      </trkpt>
      <trkpt lat="42.44592" lon="0.20118">
        <ele>792.26</ele>
        <time>2014-06-03T08:36:48Z</time>
      </trkpt>
      <trkpt lat="42.44604" lon="0.20155">
        <ele>793.22</ele>
        <time>2014-06-03T08:36:57Z</time>
      </trkpt>
      <trkpt lat="42.44622" lon="0.202">
        <ele>795.63</ele>
        <time>2014-06-03T08:37:09Z</time>
      </trkpt>
      <trkpt lat="42.44643" lon="0.20239">
        <ele>797.07</ele>
        <time>2014-06-03T08:37:20Z</time>
      </trkpt>
      <trkpt lat="42.44652" lon="0.20252">
        <ele>797.07</ele>
        <time>2014-06-03T08:37:24Z</time>
      </trkpt>
      <trkpt lat="42.44661" lon="0.2026">
        <ele>798.03</ele>
        <time>2014-06-03T08:37:28Z</time>
      </trkpt>
      <trkpt lat="42.44694" lon="0.20279">
        <ele>800.44</ele>
        <time>2014-06-03T08:37:40Z</time>
      </trkpt>
      <trkpt lat="42.44723" lon="0.20298">
        <ele>801.88</ele>
        <time>2014-06-03T08:37:51Z</time>
      </trkpt>
      <trkpt lat="42.4475" lon="0.20308">
        <ele>803.8</ele>
        <time>2014-06-03T08:38:01Z</time>
      </trkpt>
      <trkpt lat="42.44776" lon="0.20328">
        <ele>805.72</ele>
        <time>2014-06-03T08:38:13Z</time>
      </trkpt>
      <trkpt lat="42.44794" lon="0.20342">
        <ele>807.16</ele>
        <time>2014-06-03T08:38:22Z</time>
      </trkpt>
      <trkpt lat="42.448" lon="0.20338">
        <ele>807.64</ele>
        <time>2014-06-03T08:38:33Z</time>
      </trkpt>
      <trkpt lat="42.448" lon="0.20338">
        <ele>807.16</ele>
        <time>2014-06-03T08:38:59Z</time>
      </trkpt>
      <trkpt lat="42.44806" lon="0.20331">
        <ele>808.13</ele>
        <time>2014-06-03T08:39:13Z</time>
      </trkpt>
      <trkpt lat="42.44832" lon="0.20316">
        <ele>810.53</ele>
        <time>2014-06-03T08:39:28Z</time>
      </trkpt>
      <trkpt lat="42.44862" lon="0.20306">
        <ele>812.45</ele>
        <time>2014-06-03T08:39:43Z</time>
      </trkpt>
      <trkpt lat="42.4489" lon="0.20302">
        <ele>814.85</ele>
        <time>2014-06-03T08:39:55Z</time>
      </trkpt>
      <trkpt lat="42.44922" lon="0.20298">
        <ele>818.22</ele>
        <time>2014-06-03T08:40:08Z</time>
      </trkpt>
      <trkpt lat="42.44958" lon="0.20294">
        <ele>820.62</ele>
        <time>2014-06-03T08:40:23Z</time>
      </trkpt>
      <trkpt lat="42.44994" lon="0.20293">
        <ele>823.51</ele>
        <time>2014-06-03T08:40:38Z</time>
      </trkpt>
      <trkpt lat="42.45019" lon="0.20298">
        <ele>825.43</ele>
        <time>2014-06-03T08:40:49Z</time>
      </trkpt>
      <trkpt lat="42.45052" lon="0.20302">
        <ele>828.31</ele>
        <time>2014-06-03T08:41:03Z</time>
      </trkpt>
      <trkpt lat="42.45076" lon="0.20302">
        <ele>830.24</ele>
        <time>2014-06-03T08:41:16Z</time>
      </trkpt>
      <trkpt lat="42.45078" lon="0.20301">
        <ele>830.24</ele>
        <time>2014-06-03T08:41:17Z</time>
      </trkpt>
      <trkpt lat="42.45095" lon="0.20311">
        <ele>831.2</ele>
        <time>2014-06-03T08:41:27Z</time>
      </trkpt>
      <trkpt lat="42.4513" lon="0.2033">
        <ele>834.08</ele>
        <time>2014-06-03T08:41:44Z</time>
      </trkpt>
      <trkpt lat="42.45139" lon="0.20334">
        <ele>834.56</ele>
        <time>2014-06-03T08:41:50Z</time>
      </trkpt>
      <trkpt lat="42.45152" lon="0.20345">
        <ele>836</ele>
        <time>2014-06-03T08:41:58Z</time>
      </trkpt>
      <trkpt lat="42.45179" lon="0.20366">
        <ele>838.89</ele>
        <time>2014-06-03T08:42:14Z</time>
      </trkpt>
      <trkpt lat="42.45205" lon="0.20366">
        <ele>841.29</ele>
        <time>2014-06-03T08:42:28Z</time>
      </trkpt>
      <trkpt lat="42.45234" lon="0.2035">
        <ele>844.18</ele>
        <time>2014-06-03T08:42:43Z</time>
      </trkpt>
      <trkpt lat="42.45265" lon="0.20333">
        <ele>846.1</ele>
        <time>2014-06-03T08:42:58Z</time>
      </trkpt>
      <trkpt lat="42.45286" lon="0.20354">
        <ele>849.46</ele>
        <time>2014-06-03T08:43:12Z</time>
      </trkpt>
      <trkpt lat="42.45291" lon="0.20384">
        <ele>852.83</ele>
        <time>2014-06-03T08:43:26Z</time>
      </trkpt>
      <trkpt lat="42.45276" lon="0.20407">
        <ele>854.75</ele>
        <time>2014-06-03T08:43:39Z</time>
      </trkpt>
      <trkpt lat="42.45269" lon="0.20431">
        <ele>856.19</ele>
        <time>2014-06-03T08:43:51Z</time>
      </trkpt>
      <trkpt lat="42.45269" lon="0.20433">
        <ele>856.67</ele>
        <time>2014-06-03T08:43:52Z</time>
      </trkpt>
      <trkpt lat="42.45269" lon="0.20455">
        <ele>858.11</ele>
        <time>2014-06-03T08:44:05Z</time>
      </trkpt>
      <trkpt lat="42.45278" lon="0.20484">
        <ele>860.04</ele>
        <time>2014-06-03T08:44:20Z</time>
      </trkpt>
      <trkpt lat="42.45289" lon="0.20507">
        <ele>862.44</ele>
        <time>2014-06-03T08:44:35Z</time>
      </trkpt>
      <trkpt lat="42.45291" lon="0.20509">
        <ele>862.44</ele>
        <time>2014-06-03T08:44:37Z</time>
      </trkpt>
      <trkpt lat="42.45297" lon="0.2052">
        <ele>863.88</ele>
        <time>2014-06-03T08:44:44Z</time>
      </trkpt>
      <trkpt lat="42.45305" lon="0.20535">
        <ele>864.84</ele>
        <time>2014-06-03T08:44:52Z</time>
      </trkpt>
      <trkpt lat="42.45308" lon="0.20543">
        <ele>865.32</ele>
        <time>2014-06-03T08:44:56Z</time>
      </trkpt>
      <trkpt lat="42.45316" lon="0.20579">
        <ele>867.73</ele>
        <time>2014-06-03T08:45:13Z</time>
      </trkpt>
      <trkpt lat="42.45317" lon="0.20618">
        <ele>870.61</ele>
        <time>2014-06-03T08:45:29Z</time>
      </trkpt>
      <trkpt lat="42.45302" lon="0.2065">
        <ele>872.53</ele>
        <time>2014-06-03T08:45:44Z</time>
      </trkpt>
      <trkpt lat="42.45297" lon="0.20677">
        <ele>874.46</ele>
        <time>2014-06-03T08:45:55Z</time>
      </trkpt>
      <trkpt lat="42.453" lon="0.20685">
        <ele>874.46</ele>
        <time>2014-06-03T08:45:59Z</time>
      </trkpt>
      <trkpt lat="42.45322" lon="0.20711">
        <ele>877.82</ele>
        <time>2014-06-03T08:46:15Z</time>
      </trkpt>
      <trkpt lat="42.4535" lon="0.20714">
        <ele>880.22</ele>
        <time>2014-06-03T08:46:31Z</time>
      </trkpt>
      <trkpt lat="42.45364" lon="0.20688">
        <ele>882.15</ele>
        <time>2014-06-03T08:46:44Z</time>
      </trkpt>
      <trkpt lat="42.45385" lon="0.20672">
        <ele>884.55</ele>
        <time>2014-06-03T08:46:58Z</time>
      </trkpt>
      <trkpt lat="42.45394" lon="0.20682">
        <ele>885.51</ele>
        <time>2014-06-03T08:47:04Z</time>
      </trkpt>
      <trkpt lat="42.45397" lon="0.20691">
        <ele>885.99</ele>
        <time>2014-06-03T08:47:08Z</time>
      </trkpt>
      <trkpt lat="42.45407" lon="0.2072">
        <ele>888.88</ele>
        <time>2014-06-03T08:47:24Z</time>
      </trkpt>
      <trkpt lat="42.45423" lon="0.20747">
        <ele>891.28</ele>
        <time>2014-06-03T08:47:40Z</time>
      </trkpt>
      <trkpt lat="42.45435" lon="0.20759">
        <ele>892.72</ele>
        <time>2014-06-03T08:47:50Z</time>
      </trkpt>
      <trkpt lat="42.45442" lon="0.20757">
        <ele>893.2</ele>
        <time>2014-06-03T08:47:54Z</time>
      </trkpt>
      <trkpt lat="42.4545" lon="0.20732">
        <ele>895.12</ele>
        <time>2014-06-03T08:48:08Z</time>
      </trkpt>
      <trkpt lat="42.45447" lon="0.20709">
        <ele>895.61</ele>
        <time>2014-06-03T08:48:18Z</time>
      </trkpt>
      <trkpt lat="42.45444" lon="0.20683">
        <ele>896.09</ele>
        <time>2014-06-03T08:48:29Z</time>
      </trkpt>
      <trkpt lat="42.45447" lon="0.20664">
        <ele>897.05</ele>
        <time>2014-06-03T08:48:37Z</time>
      </trkpt>
      <trkpt lat="42.45448" lon="0.2066">
        <ele>897.53</ele>
        <time>2014-06-03T08:48:39Z</time>
      </trkpt>
      <trkpt lat="42.4546" lon="0.20653">
        <ele>898.97</ele>
        <time>2014-06-03T08:48:47Z</time>
      </trkpt>
      <trkpt lat="42.45484" lon="0.20654">
        <ele>901.85</ele>
        <time>2014-06-03T08:49:02Z</time>
      </trkpt>
      <trkpt lat="42.45502" lon="0.20668">
        <ele>904.26</ele>
        <time>2014-06-03T08:49:15Z</time>
      </trkpt>
      <trkpt lat="42.45515" lon="0.20683">
        <ele>905.7</ele>
        <time>2014-06-03T08:49:25Z</time>
      </trkpt>
      <trkpt lat="42.45532" lon="0.20703">
        <ele>908.1</ele>
        <time>2014-06-03T08:49:40Z</time>
      </trkpt>
      <trkpt lat="42.45554" lon="0.20725">
        <ele>910.99</ele>
        <time>2014-06-03T08:49:56Z</time>
      </trkpt>
      <trkpt lat="42.45574" lon="0.20744">
        <ele>912.91</ele>
        <time>2014-06-03T08:50:10Z</time>
      </trkpt>
      <trkpt lat="42.45601" lon="0.20766">
        <ele>915.31</ele>
        <time>2014-06-03T08:50:26Z</time>
      </trkpt>
      <trkpt lat="42.45624" lon="0.20792">
        <ele>917.72</ele>
        <time>2014-06-03T08:50:42Z</time>
      </trkpt>
      <trkpt lat="42.4564" lon="0.20829">
        <ele>917.72</ele>
        <time>2014-06-03T08:50:57Z</time>
      </trkpt>
      <trkpt lat="42.45623" lon="0.20862">
        <ele>918.68</ele>
        <time>2014-06-03T08:51:10Z</time>
      </trkpt>
      <trkpt lat="42.45599" lon="0.20876">
        <ele>921.08</ele>
        <time>2014-06-03T08:51:23Z</time>
      </trkpt>
      <trkpt lat="42.45595" lon="0.20878">
        <ele>921.08</ele>
        <time>2014-06-03T08:51:25Z</time>
      </trkpt>
      <trkpt lat="42.45589" lon="0.2088">
        <ele>922.04</ele>
        <time>2014-06-03T08:51:29Z</time>
      </trkpt>
      <trkpt lat="42.45579" lon="0.20885">
        <ele>923.48</ele>
        <time>2014-06-03T08:51:35Z</time>
      </trkpt>
      <trkpt lat="42.45555" lon="0.20894">
        <ele>925.41</ele>
        <time>2014-06-03T08:51:48Z</time>
      </trkpt>
      <trkpt lat="42.4553" lon="0.20904">
        <ele>927.81</ele>
        <time>2014-06-03T08:52:03Z</time>
      </trkpt>
      <trkpt lat="42.45506" lon="0.20921">
        <ele>930.21</ele>
        <time>2014-06-03T08:52:17Z</time>
      </trkpt>
      <trkpt lat="42.45485" lon="0.20939">
        <ele>931.17</ele>
        <time>2014-06-03T08:52:30Z</time>
      </trkpt>
      <trkpt lat="42.45469" lon="0.20954">
        <ele>932.62</ele>
        <time>2014-06-03T08:52:40Z</time>
      </trkpt>
      <trkpt lat="42.45464" lon="0.20964">
        <ele>933.58</ele>
        <time>2014-06-03T08:52:45Z</time>
      </trkpt>
      <trkpt lat="42.45458" lon="0.20969">
        <ele>933.58</ele>
        <time>2014-06-03T08:52:50Z</time>
      </trkpt>
      <trkpt lat="42.45454" lon="0.20972">
        <ele>934.54</ele>
        <time>2014-06-03T08:52:53Z</time>
      </trkpt>
      <trkpt lat="42.45448" lon="0.20976">
        <ele>934.54</ele>
        <time>2014-06-03T08:52:59Z</time>
      </trkpt>
      <trkpt lat="42.45442" lon="0.20979">
        <ele>934.54</ele>
        <time>2014-06-03T08:53:03Z</time>
      </trkpt>
      <trkpt lat="42.45425" lon="0.20995">
        <ele>935.5</ele>
        <time>2014-06-03T08:53:16Z</time>
      </trkpt>
      <trkpt lat="42.45419" lon="0.21001">
        <ele>936.46</ele>
        <time>2014-06-03T08:53:21Z</time>
      </trkpt>
      <trkpt lat="42.45394" lon="0.21023">
        <ele>937.42</ele>
        <time>2014-06-03T08:53:38Z</time>
      </trkpt>
      <trkpt lat="42.45388" lon="0.2103">
        <ele>938.86</ele>
        <time>2014-06-03T08:53:43Z</time>
      </trkpt>
      <trkpt lat="42.45376" lon="0.21039">
        <ele>938.86</ele>
        <time>2014-06-03T08:53:52Z</time>
      </trkpt>
      <trkpt lat="42.45363" lon="0.21048">
        <ele>940.31</ele>
        <time>2014-06-03T08:54:03Z</time>
      </trkpt>
      <trkpt lat="42.45364" lon="0.21049">
        <ele>939.35</ele>
        <time>2014-06-03T08:54:06Z</time>
      </trkpt>
      <trkpt lat="42.45371" lon="0.21043">
        <ele>939.35</ele>
        <time>2014-06-03T08:54:12Z</time>
      </trkpt>
      <trkpt lat="42.45375" lon="0.2104">
        <ele>939.35</ele>
        <time>2014-06-03T08:54:16Z</time>
      </trkpt>
      <trkpt lat="42.45378" lon="0.21037">
        <ele>939.35</ele>
        <time>2014-06-03T08:54:19Z</time>
      </trkpt>
      <trkpt lat="42.45375" lon="0.21038">
        <ele>939.35</ele>
        <time>2014-06-03T08:54:35Z</time>
      </trkpt>
      <trkpt lat="42.45367" lon="0.21043">
        <ele>939.35</ele>
        <time>2014-06-03T08:54:58Z</time>
      </trkpt>
      <trkpt lat="42.45352" lon="0.21073">
        <ele>941.75</ele>
        <time>2014-06-03T08:55:11Z</time>
      </trkpt>
      <trkpt lat="42.45354" lon="0.21107">
        <ele>945.11</ele>
        <time>2014-06-03T08:55:25Z</time>
      </trkpt>
      <trkpt lat="42.45353" lon="0.21135">
        <ele>947.04</ele>
        <time>2014-06-03T08:55:40Z</time>
      </trkpt>
      <trkpt lat="42.45351" lon="0.21161">
        <ele>950.4</ele>
        <time>2014-06-03T08:55:52Z</time>
      </trkpt>
      <trkpt lat="42.45351" lon="0.21191">
        <ele>952.8</ele>
        <time>2014-06-03T08:56:07Z</time>
      </trkpt>
      <trkpt lat="42.45351" lon="0.21193">
        <ele>953.28</ele>
        <time>2014-06-03T08:56:08Z</time>
      </trkpt>
      <trkpt lat="42.45356" lon="0.21218">
        <ele>955.21</ele>
        <time>2014-06-03T08:56:23Z</time>
      </trkpt>
      <trkpt lat="42.45365" lon="0.2124">
        <ele>956.65</ele>
        <time>2014-06-03T08:56:34Z</time>
      </trkpt>
      <trkpt lat="42.45381" lon="0.21259">
        <ele>959.05</ele>
        <time>2014-06-03T08:56:47Z</time>
      </trkpt>
      <trkpt lat="42.45386" lon="0.21263">
        <ele>959.53</ele>
        <time>2014-06-03T08:56:51Z</time>
      </trkpt>
      <trkpt lat="42.45396" lon="0.21268">
        <ele>960.01</ele>
        <time>2014-06-03T08:56:58Z</time>
      </trkpt>
      <trkpt lat="42.45416" lon="0.21274">
        <ele>961.94</ele>
        <time>2014-06-03T08:57:11Z</time>
      </trkpt>
      <trkpt lat="42.45436" lon="0.21271">
        <ele>962.9</ele>
        <time>2014-06-03T08:57:24Z</time>
      </trkpt>
      <trkpt lat="42.45449" lon="0.21269">
        <ele>964.82</ele>
        <time>2014-06-03T08:57:33Z</time>
      </trkpt>
      <trkpt lat="42.45466" lon="0.21264">
        <ele>966.26</ele>
        <time>2014-06-03T08:57:45Z</time>
      </trkpt>
      <trkpt lat="42.45479" lon="0.21263">
        <ele>967.7</ele>
        <time>2014-06-03T08:57:53Z</time>
      </trkpt>
      <trkpt lat="42.45511" lon="0.21264">
        <ele>969.63</ele>
        <time>2014-06-03T08:58:11Z</time>
      </trkpt>
      <trkpt lat="42.45538" lon="0.21264">
        <ele>971.55</ele>
        <time>2014-06-03T08:58:26Z</time>
      </trkpt>
      <trkpt lat="42.45561" lon="0.21268">
        <ele>972.99</ele>
        <time>2014-06-03T08:58:38Z</time>
      </trkpt>
      <trkpt lat="42.45589" lon="0.21273">
        <ele>973.95</ele>
        <time>2014-06-03T08:58:49Z</time>
      </trkpt>
      <trkpt lat="42.45623" lon="0.2128">
        <ele>976.36</ele>
        <time>2014-06-03T08:59:03Z</time>
      </trkpt>
      <trkpt lat="42.45652" lon="0.21264">
        <ele>977.8</ele>
        <time>2014-06-03T08:59:16Z</time>
      </trkpt>
      <trkpt lat="42.45685" lon="0.21233">
        <ele>977.8</ele>
        <time>2014-06-03T08:59:30Z</time>
      </trkpt>
      <trkpt lat="42.45715" lon="0.21215">
        <ele>977.8</ele>
        <time>2014-06-03T08:59:42Z</time>
      </trkpt>
      <trkpt lat="42.45742" lon="0.21221">
        <ele>978.28</ele>
        <time>2014-06-03T08:59:52Z</time>
      </trkpt>
      <trkpt lat="42.45779" lon="0.21248">
        <ele>976.84</ele>
        <time>2014-06-03T09:00:04Z</time>
      </trkpt>
      <trkpt lat="42.45835" lon="0.21272">
        <ele>977.32</ele>
        <time>2014-06-03T09:00:19Z</time>
      </trkpt>
      <trkpt lat="42.45856" lon="0.21302">
        <ele>979.72</ele>
        <time>2014-06-03T09:00:31Z</time>
      </trkpt>
      <trkpt lat="42.4587" lon="0.21334">
        <ele>983.09</ele>
        <time>2014-06-03T09:00:45Z</time>
      </trkpt>
      <trkpt lat="42.45883" lon="0.21369">
        <ele>986.45</ele>
        <time>2014-06-03T09:00:59Z</time>
      </trkpt>
      <trkpt lat="42.45886" lon="0.21378">
        <ele>986.93</ele>
        <time>2014-06-03T09:01:03Z</time>
      </trkpt>
      <trkpt lat="42.4589" lon="0.21391">
        <ele>988.37</ele>
        <time>2014-06-03T09:01:08Z</time>
      </trkpt>
      <trkpt lat="42.45904" lon="0.21425">
        <ele>991.74</ele>
        <time>2014-06-03T09:01:23Z</time>
      </trkpt>
      <trkpt lat="42.45928" lon="0.21425">
        <ele>992.7</ele>
        <time>2014-06-03T09:01:36Z</time>
      </trkpt>
      <trkpt lat="42.45955" lon="0.21404">
        <ele>994.14</ele>
        <time>2014-06-03T09:01:50Z</time>
      </trkpt>
      <trkpt lat="42.45984" lon="0.21378">
        <ele>994.62</ele>
        <time>2014-06-03T09:02:04Z</time>
      </trkpt>
      <trkpt lat="42.46026" lon="0.21343">
        <ele>996.54</ele>
        <time>2014-06-03T09:02:22Z</time>
      </trkpt>
      <trkpt lat="42.46059" lon="0.21319">
        <ele>997.99</ele>
        <time>2014-06-03T09:02:36Z</time>
      </trkpt>
      <trkpt lat="42.46095" lon="0.21299">
        <ele>999.43</ele>
        <time>2014-06-03T09:02:50Z</time>
      </trkpt>
      <trkpt lat="42.46132" lon="0.21294">
        <ele>1001.35</ele>
        <time>2014-06-03T09:03:04Z</time>
      </trkpt>
      <trkpt lat="42.46166" lon="0.21294">
        <ele>1003.75</ele>
        <time>2014-06-03T09:03:17Z</time>
      </trkpt>
      <trkpt lat="42.46185" lon="0.21293">
        <ele>1005.68</ele>
        <time>2014-06-03T09:03:27Z</time>
      </trkpt>
      <trkpt lat="42.4621" lon="0.21293">
        <ele>1009.04</ele>
        <time>2014-06-03T09:03:38Z</time>
      </trkpt>
      <trkpt lat="42.46237" lon="0.21307">
        <ele>1011.93</ele>
        <time>2014-06-03T09:03:51Z</time>
      </trkpt>
      <trkpt lat="42.46257" lon="0.21311">
        <ele>1012.41</ele>
        <time>2014-06-03T09:04:01Z</time>
      </trkpt>
      <trkpt lat="42.46287" lon="0.21289">
        <ele>1014.81</ele>
        <time>2014-06-03T09:04:15Z</time>
      </trkpt>
      <trkpt lat="42.46299" lon="0.21289">
        <ele>1015.29</ele>
        <time>2014-06-03T09:04:21Z</time>
      </trkpt>
      <trkpt lat="42.46314" lon="0.21296">
        <ele>1015.77</ele>
        <time>2014-06-03T09:04:31Z</time>
      </trkpt>
      <trkpt lat="42.46329" lon="0.21272">
        <ele>1015.77</ele>
        <time>2014-06-03T09:04:42Z</time>
      </trkpt>
      <trkpt lat="42.46355" lon="0.21224">
        <ele>1015.77</ele>
        <time>2014-06-03T09:04:58Z</time>
      </trkpt>
      <trkpt lat="42.46385" lon="0.21179">
        <ele>1014.33</ele>
        <time>2014-06-03T09:05:10Z</time>
      </trkpt>
      <trkpt lat="42.46427" lon="0.21156">
        <ele>1017.21</ele>
        <time>2014-06-03T09:05:24Z</time>
      </trkpt>
      <trkpt lat="42.46446" lon="0.21136">
        <ele>1017.69</ele>
        <time>2014-06-03T09:05:33Z</time>
      </trkpt>
      <trkpt lat="42.46438" lon="0.21115">
        <ele>1018.65</ele>
        <time>2014-06-03T09:05:41Z</time>
      </trkpt>
      <trkpt lat="42.46433" lon="0.21074">
        <ele>1021.06</ele>
        <time>2014-06-03T09:05:54Z</time>
      </trkpt>
      <trkpt lat="42.46431" lon="0.21048">
        <ele>1022.5</ele>
        <time>2014-06-03T09:06:01Z</time>
      </trkpt>
      <trkpt lat="42.4643" lon="0.21033">
        <ele>1022.98</ele>
        <time>2014-06-03T09:06:05Z</time>
      </trkpt>
      <trkpt lat="42.46428" lon="0.21008">
        <ele>1024.42</ele>
        <time>2014-06-03T09:06:11Z</time>
      </trkpt>
      <trkpt lat="42.46415" lon="0.20973">
        <ele>1026.34</ele>
        <time>2014-06-03T09:06:21Z</time>
      </trkpt>
      <trkpt lat="42.46389" lon="0.20926">
        <ele>1029.23</ele>
        <time>2014-06-03T09:06:35Z</time>
      </trkpt>
      <trkpt lat="42.46382" lon="0.20905">
        <ele>1030.67</ele>
        <time>2014-06-03T09:06:42Z</time>
      </trkpt>
      <trkpt lat="42.46388" lon="0.20924">
        <ele>1029.23</ele>
        <time>2014-06-03T09:06:52Z</time>
      </trkpt>
      <trkpt lat="42.46383" lon="0.20911">
        <ele>1030.67</ele>
        <time>2014-06-03T09:06:57Z</time>
      </trkpt>
      <trkpt lat="42.46376" lon="0.20868">
        <ele>1032.59</ele>
        <time>2014-06-03T09:07:11Z</time>
      </trkpt>
      <trkpt lat="42.46371" lon="0.2082">
        <ele>1035.96</ele>
        <time>2014-06-03T09:07:28Z</time>
      </trkpt>
      <trkpt lat="42.46362" lon="0.2079">
        <ele>1039.32</ele>
        <time>2014-06-03T09:07:41Z</time>
      </trkpt>
      <trkpt lat="42.46351" lon="0.20759">
        <ele>1042.69</ele>
        <time>2014-06-03T09:07:54Z</time>
      </trkpt>
      <trkpt lat="42.46361" lon="0.20735">
        <ele>1045.57</ele>
        <time>2014-06-03T09:08:06Z</time>
      </trkpt>
      <trkpt lat="42.46383" lon="0.20731">
        <ele>1048.45</ele>
        <time>2014-06-03T09:08:18Z</time>
      </trkpt>
      <trkpt lat="42.46402" lon="0.20733">
        <ele>1051.82</ele>
        <time>2014-06-03T09:08:27Z</time>
      </trkpt>
      <trkpt lat="42.46423" lon="0.20714">
        <ele>1054.7</ele>
        <time>2014-06-03T09:08:39Z</time>
      </trkpt>
      <trkpt lat="42.46444" lon="0.20688">
        <ele>1058.07</ele>
        <time>2014-06-03T09:08:53Z</time>
      </trkpt>
      <trkpt lat="42.46463" lon="0.20683">
        <ele>1061.43</ele>
        <time>2014-06-03T09:09:02Z</time>
      </trkpt>
      <trkpt lat="42.46467" lon="0.20679">
        <ele>1061.91</ele>
        <time>2014-06-03T09:09:11Z</time>
      </trkpt>
      <trkpt lat="42.46467" lon="0.20679">
        <ele>1061.91</ele>
        <time>2014-06-03T09:09:38Z</time>
      </trkpt>
      <trkpt lat="42.46467" lon="0.20679">
        <ele>1061.91</ele>
        <time>2014-06-03T09:10:05Z</time>
      </trkpt>
      <trkpt lat="42.46467" lon="0.20679">
        <ele>1061.91</ele>
        <time>2014-06-03T09:10:26Z</time>
      </trkpt>
      <trkpt lat="42.46467" lon="0.20678">
        <ele>1062.39</ele>
        <time>2014-06-03T09:10:59Z</time>
      </trkpt>
      <trkpt lat="42.46467" lon="0.20679">
        <ele>1062.39</ele>
        <time>2014-06-03T09:11:30Z</time>
      </trkpt>
      <trkpt lat="42.46466" lon="0.20679">
        <ele>1062.87</ele>
        <time>2014-06-03T09:11:58Z</time>
      </trkpt>
      <trkpt lat="42.46466" lon="0.20679">
        <ele>1062.87</ele>
        <time>2014-06-03T09:12:30Z</time>
      </trkpt>
      <trkpt lat="42.46466" lon="0.2068">
        <ele>1062.87</ele>
        <time>2014-06-03T09:13:03Z</time>
      </trkpt>
      <trkpt lat="42.46466" lon="0.20678">
        <ele>1062.87</ele>
        <time>2014-06-03T09:13:38Z</time>
      </trkpt>
      <trkpt lat="42.46464" lon="0.20678">
        <ele>1062.87</ele>
        <time>2014-06-03T09:13:50Z</time>
      </trkpt>
      <trkpt lat="42.46464" lon="0.20678">
        <ele>1063.36</ele>
        <time>2014-06-03T09:14:10Z</time>
      </trkpt>
      <trkpt lat="42.46464" lon="0.20679">
        <ele>1063.36</ele>
        <time>2014-06-03T09:14:32Z</time>
      </trkpt>
      <trkpt lat="42.46464" lon="0.2068">
        <ele>1063.36</ele>
        <time>2014-06-03T09:15:02Z</time>
      </trkpt>
      <trkpt lat="42.46464" lon="0.2068">
        <ele>1063.84</ele>
        <time>2014-06-03T09:15:24Z</time>
      </trkpt>
      <trkpt lat="42.46464" lon="0.20681">
        <ele>1063.36</ele>
        <time>2014-06-03T09:15:48Z</time>
      </trkpt>
      <trkpt lat="42.46464" lon="0.20681">
        <ele>1063.84</ele>
        <time>2014-06-03T09:16:08Z</time>
      </trkpt>
      <trkpt lat="42.46465" lon="0.20681">
        <ele>1063.36</ele>
        <time>2014-06-03T09:16:24Z</time>
      </trkpt>
      <trkpt lat="42.46465" lon="0.20681">
        <ele>1063.84</ele>
        <time>2014-06-03T09:16:42Z</time>
      </trkpt>
      <trkpt lat="42.46465" lon="0.20676">
        <ele>1062.39</ele>
        <time>2014-06-03T09:16:46Z</time>
      </trkpt>
      <trkpt lat="42.46481" lon="0.20635">
        <ele>1059.03</ele>
        <time>2014-06-03T09:16:52Z</time>
      </trkpt>
      <trkpt lat="42.46492" lon="0.20599">
        <ele>1055.18</ele>
        <time>2014-06-03T09:16:56Z</time>
      </trkpt>
      <trkpt lat="42.46506" lon="0.20573">
        <ele>1053.26</ele>
        <time>2014-06-03T09:16:59Z</time>
      </trkpt>
      <trkpt lat="42.4651" lon="0.20566">
        <ele>1052.78</ele>
        <time>2014-06-03T09:17:00Z</time>
      </trkpt>
      <trkpt lat="42.46513" lon="0.20543">
        <ele>1048.45</ele>
        <time>2014-06-03T09:17:04Z</time>
      </trkpt>
      <trkpt lat="42.46514" lon="0.20537">
        <ele>1047.97</ele>
        <time>2014-06-03T09:17:05Z</time>
      </trkpt>
      <trkpt lat="42.46525" lon="0.20507">
        <ele>1047.01</ele>
        <time>2014-06-03T09:17:10Z</time>
      </trkpt>
      <trkpt lat="42.46538" lon="0.20492">
        <ele>1045.09</ele>
        <time>2014-06-03T09:17:15Z</time>
      </trkpt>
      <trkpt lat="42.4654" lon="0.20479">
        <ele>1044.61</ele>
        <time>2014-06-03T09:17:19Z</time>
      </trkpt>
      <trkpt lat="42.46534" lon="0.20461">
        <ele>1042.69</ele>
        <time>2014-06-03T09:17:26Z</time>
      </trkpt>
      <trkpt lat="42.46532" lon="0.2045">
        <ele>1041.73</ele>
        <time>2014-06-03T09:17:37Z</time>
      </trkpt>
      <trkpt lat="42.46532" lon="0.20443">
        <ele>1041.25</ele>
        <time>2014-06-03T09:17:45Z</time>
      </trkpt>
      <trkpt lat="42.46529" lon="0.20433">
        <ele>1039.32</ele>
        <time>2014-06-03T09:17:55Z</time>
      </trkpt>
      <trkpt lat="42.46527" lon="0.20427">
        <ele>1038.36</ele>
        <time>2014-06-03T09:18:02Z</time>
      </trkpt>
      <trkpt lat="42.46526" lon="0.20425">
        <ele>1037.88</ele>
        <time>2014-06-03T09:18:04Z</time>
      </trkpt>
      <trkpt lat="42.46524" lon="0.2042">
        <ele>1037.4</ele>
        <time>2014-06-03T09:18:08Z</time>
      </trkpt>
      <trkpt lat="42.46522" lon="0.20415">
        <ele>1036.44</ele>
        <time>2014-06-03T09:18:15Z</time>
      </trkpt>
      <trkpt lat="42.46523" lon="0.20408">
        <ele>1035.96</ele>
        <time>2014-06-03T09:18:20Z</time>
      </trkpt>
      <trkpt lat="42.46525" lon="0.2037">
        <ele>1035.48</ele>
        <time>2014-06-03T09:18:32Z</time>
      </trkpt>
      <trkpt lat="42.46527" lon="0.20331">
        <ele>1035.48</ele>
        <time>2014-06-03T09:18:45Z</time>
      </trkpt>
      <trkpt lat="42.46531" lon="0.20288">
        <ele>1034.04</ele>
        <time>2014-06-03T09:18:58Z</time>
      </trkpt>
      <trkpt lat="42.46527" lon="0.20262">
        <ele>1034.52</ele>
        <time>2014-06-03T09:19:06Z</time>
      </trkpt>
      <trkpt lat="42.46511" lon="0.20231">
        <ele>1035</ele>
        <time>2014-06-03T09:19:19Z</time>
      </trkpt>
      <trkpt lat="42.46506" lon="0.20225">
        <ele>1035</ele>
        <time>2014-06-03T09:19:22Z</time>
      </trkpt>
      <trkpt lat="42.46501" lon="0.20208">
        <ele>1036.92</ele>
        <time>2014-06-03T09:19:28Z</time>
      </trkpt>
      <trkpt lat="42.465" lon="0.20206">
        <ele>1037.4</ele>
        <time>2014-06-03T09:19:29Z</time>
      </trkpt>
      <trkpt lat="42.46486" lon="0.2017">
        <ele>1039.8</ele>
        <time>2014-06-03T09:19:44Z</time>
      </trkpt>
      <trkpt lat="42.46476" lon="0.20136">
        <ele>1041.73</ele>
        <time>2014-06-03T09:19:56Z</time>
      </trkpt>
      <trkpt lat="42.46472" lon="0.20121">
        <ele>1040.76</ele>
        <time>2014-06-03T09:20:00Z</time>
      </trkpt>
      <trkpt lat="42.46473" lon="0.20109">
        <ele>1039.8</ele>
        <time>2014-06-03T09:20:02Z</time>
      </trkpt>
      <trkpt lat="42.46471" lon="0.20063">
        <ele>1035.48</ele>
        <time>2014-06-03T09:20:08Z</time>
      </trkpt>
      <trkpt lat="42.46457" lon="0.20012">
        <ele>1033.55</ele>
        <time>2014-06-03T09:20:14Z</time>
      </trkpt>
      <trkpt lat="42.4645" lon="0.19997">
        <ele>1032.11</ele>
        <time>2014-06-03T09:20:16Z</time>
      </trkpt>
      <trkpt lat="42.46437" lon="0.19982">
        <ele>1030.19</ele>
        <time>2014-06-03T09:20:20Z</time>
      </trkpt>
      <trkpt lat="42.46434" lon="0.19978">
        <ele>1029.23</ele>
        <time>2014-06-03T09:20:21Z</time>
      </trkpt>
      <trkpt lat="42.46422" lon="0.19967">
        <ele>1027.79</ele>
        <time>2014-06-03T09:20:29Z</time>
      </trkpt>
      <trkpt lat="42.46422" lon="0.19967">
        <ele>1026.83</ele>
        <time>2014-06-03T09:20:54Z</time>
      </trkpt>
      <trkpt lat="42.46422" lon="0.19968">
        <ele>1027.31</ele>
        <time>2014-06-03T09:21:18Z</time>
      </trkpt>
      <trkpt lat="42.46422" lon="0.19968">
        <ele>1027.31</ele>
        <time>2014-06-03T09:21:29Z</time>
      </trkpt>
      <trkpt lat="42.46426" lon="0.1996">
        <ele>1027.31</ele>
        <time>2014-06-03T09:21:33Z</time>
      </trkpt>
      <trkpt lat="42.46426" lon="0.19933">
        <ele>1022.5</ele>
        <time>2014-06-03T09:21:37Z</time>
      </trkpt>
      <trkpt lat="42.46424" lon="0.19911">
        <ele>1020.58</ele>
        <time>2014-06-03T09:21:40Z</time>
      </trkpt>
      <trkpt lat="42.4642" lon="0.19913">
        <ele>1017.69</ele>
        <time>2014-06-03T09:21:44Z</time>
      </trkpt>
      <trkpt lat="42.46417" lon="0.19925">
        <ele>1016.73</ele>
        <time>2014-06-03T09:21:46Z</time>
      </trkpt>
      <trkpt lat="42.46416" lon="0.19932">
        <ele>1015.77</ele>
        <time>2014-06-03T09:21:48Z</time>
      </trkpt>
      <trkpt lat="42.4641" lon="0.19936">
        <ele>1011.44</ele>
        <time>2014-06-03T09:21:52Z</time>
      </trkpt>
      <trkpt lat="42.46409" lon="0.19928">
        <ele>1010.48</ele>
        <time>2014-06-03T09:21:54Z</time>
      </trkpt>
      <trkpt lat="42.46405" lon="0.1991">
        <ele>1007.12</ele>
        <time>2014-06-03T09:21:57Z</time>
      </trkpt>
      <trkpt lat="42.46402" lon="0.19894">
        <ele>1005.68</ele>
        <time>2014-06-03T09:21:59Z</time>
      </trkpt>
      <trkpt lat="42.46401" lon="0.19865">
        <ele>1003.75</ele>
        <time>2014-06-03T09:22:02Z</time>
      </trkpt>
      <trkpt lat="42.46403" lon="0.19856">
        <ele>1002.31</ele>
        <time>2014-06-03T09:22:03Z</time>
      </trkpt>
      <trkpt lat="42.46416" lon="0.19828">
        <ele>998.95</ele>
        <time>2014-06-03T09:22:07Z</time>
      </trkpt>
      <trkpt lat="42.46431" lon="0.19811">
        <ele>995.58</ele>
        <time>2014-06-03T09:22:12Z</time>
      </trkpt>
      <trkpt lat="42.46434" lon="0.19808">
        <ele>995.1</ele>
        <time>2014-06-03T09:22:13Z</time>
      </trkpt>
      <trkpt lat="42.46441" lon="0.19793">
        <ele>994.14</ele>
        <time>2014-06-03T09:22:16Z</time>
      </trkpt>
      <trkpt lat="42.46442" lon="0.19775">
        <ele>993.66</ele>
        <time>2014-06-03T09:22:19Z</time>
      </trkpt>
      <trkpt lat="42.46439" lon="0.19754">
        <ele>994.62</ele>
        <time>2014-06-03T09:22:23Z</time>
      </trkpt>
      <trkpt lat="42.46437" lon="0.19733">
        <ele>993.66</ele>
        <time>2014-06-03T09:22:26Z</time>
      </trkpt>
      <trkpt lat="42.46442" lon="0.19683">
        <ele>989.81</ele>
        <time>2014-06-03T09:22:32Z</time>
      </trkpt>
      <trkpt lat="42.46444" lon="0.19667">
        <ele>989.81</ele>
        <time>2014-06-03T09:22:35Z</time>
      </trkpt>
      <trkpt lat="42.46448" lon="0.19634">
        <ele>985.01</ele>
        <time>2014-06-03T09:22:41Z</time>
      </trkpt>
      <trkpt lat="42.46451" lon="0.19613">
        <ele>981.64</ele>
        <time>2014-06-03T09:22:45Z</time>
      </trkpt>
      <trkpt lat="42.46454" lon="0.196">
        <ele>980.2</ele>
        <time>2014-06-03T09:22:47Z</time>
      </trkpt>
      <trkpt lat="42.46454" lon="0.19588">
        <ele>977.8</ele>
        <time>2014-06-03T09:22:49Z</time>
      </trkpt>
      <trkpt lat="42.4645" lon="0.19555">
        <ele>972.99</ele>
        <time>2014-06-03T09:22:54Z</time>
      </trkpt>
      <trkpt lat="42.46446" lon="0.19537">
        <ele>970.11</ele>
        <time>2014-06-03T09:22:58Z</time>
      </trkpt>
      <trkpt lat="42.46432" lon="0.1954">
        <ele>966.74</ele>
        <time>2014-06-03T09:23:02Z</time>
      </trkpt>
      <trkpt lat="42.46427" lon="0.19541">
        <ele>965.3</ele>
        <time>2014-06-03T09:23:04Z</time>
      </trkpt>
      <trkpt lat="42.46429" lon="0.19522">
        <ele>960.98</ele>
        <time>2014-06-03T09:23:09Z</time>
      </trkpt>
      <trkpt lat="42.46415" lon="0.19527">
        <ele>956.65</ele>
        <time>2014-06-03T09:23:13Z</time>
      </trkpt>
      <trkpt lat="42.46398" lon="0.19525">
        <ele>952.8</ele>
        <time>2014-06-03T09:23:17Z</time>
      </trkpt>
      <trkpt lat="42.46399" lon="0.19501">
        <ele>949.44</ele>
        <time>2014-06-03T09:23:20Z</time>
      </trkpt>
      <trkpt lat="42.46404" lon="0.19478">
        <ele>947.04</ele>
        <time>2014-06-03T09:23:23Z</time>
      </trkpt>
      <trkpt lat="42.46403" lon="0.19467">
        <ele>945.59</ele>
        <time>2014-06-03T09:23:25Z</time>
      </trkpt>
      <trkpt lat="42.46397" lon="0.19453">
        <ele>942.23</ele>
        <time>2014-06-03T09:23:29Z</time>
      </trkpt>
      <trkpt lat="42.46394" lon="0.1944">
        <ele>938.86</ele>
        <time>2014-06-03T09:23:32Z</time>
      </trkpt>
      <trkpt lat="42.46395" lon="0.19422">
        <ele>937.42</ele>
        <time>2014-06-03T09:23:35Z</time>
      </trkpt>
      <trkpt lat="42.46389" lon="0.1941">
        <ele>936.94</ele>
        <time>2014-06-03T09:23:37Z</time>
      </trkpt>
      <trkpt lat="42.46386" lon="0.19379">
        <ele>933.1</ele>
        <time>2014-06-03T09:23:41Z</time>
      </trkpt>
      <trkpt lat="42.46384" lon="0.19365">
        <ele>931.65</ele>
        <time>2014-06-03T09:23:43Z</time>
      </trkpt>
      <trkpt lat="42.46386" lon="0.19354">
        <ele>929.73</ele>
        <time>2014-06-03T09:23:45Z</time>
      </trkpt>
      <trkpt lat="42.46389" lon="0.19348">
        <ele>930.21</ele>
        <time>2014-06-03T09:23:47Z</time>
      </trkpt>
      <trkpt lat="42.46378" lon="0.19324">
        <ele>929.73</ele>
        <time>2014-06-03T09:23:54Z</time>
      </trkpt>
      <trkpt lat="42.46369" lon="0.19314">
        <ele>930.21</ele>
        <time>2014-06-03T09:23:57Z</time>
      </trkpt>
      <trkpt lat="42.46348" lon="0.19303">
        <ele>927.81</ele>
        <time>2014-06-03T09:24:01Z</time>
      </trkpt>
      <trkpt lat="42.46331" lon="0.19297">
        <ele>925.89</ele>
        <time>2014-06-03T09:24:04Z</time>
      </trkpt>
      <trkpt lat="42.46319" lon="0.19274">
        <ele>923.96</ele>
        <time>2014-06-03T09:24:08Z</time>
      </trkpt>
      <trkpt lat="42.46314" lon="0.19246">
        <ele>922.52</ele>
        <time>2014-06-03T09:24:11Z</time>
      </trkpt>
      <trkpt lat="42.46312" lon="0.19225">
        <ele>921.08</ele>
        <time>2014-06-03T09:24:13Z</time>
      </trkpt>
      <trkpt lat="42.46311" lon="0.19185">
        <ele>920.6</ele>
        <time>2014-06-03T09:24:17Z</time>
      </trkpt>
      <trkpt lat="42.46315" lon="0.19168">
        <ele>920.6</ele>
        <time>2014-06-03T09:24:19Z</time>
      </trkpt>
      <trkpt lat="42.46317" lon="0.19135">
        <ele>920.6</ele>
        <time>2014-06-03T09:24:24Z</time>
      </trkpt>
      <trkpt lat="42.46301" lon="0.19094">
        <ele>918.2</ele>
        <time>2014-06-03T09:24:32Z</time>
      </trkpt>
      <trkpt lat="42.46288" lon="0.19078">
        <ele>916.27</ele>
        <time>2014-06-03T09:24:36Z</time>
      </trkpt>
      <trkpt lat="42.46273" lon="0.1907">
        <ele>914.35</ele>
        <time>2014-06-03T09:24:41Z</time>
      </trkpt>
      <trkpt lat="42.46264" lon="0.19045">
        <ele>913.39</ele>
        <time>2014-06-03T09:24:46Z</time>
      </trkpt>
      <trkpt lat="42.46265" lon="0.19025">
        <ele>912.43</ele>
        <time>2014-06-03T09:24:49Z</time>
      </trkpt>
      <trkpt lat="42.46265" lon="0.19012">
        <ele>911.95</ele>
        <time>2014-06-03T09:24:51Z</time>
      </trkpt>
      <trkpt lat="42.46264" lon="0.18991">
        <ele>911.47</ele>
        <time>2014-06-03T09:24:54Z</time>
      </trkpt>
      <trkpt lat="42.46262" lon="0.18977">
        <ele>910.51</ele>
        <time>2014-06-03T09:24:56Z</time>
      </trkpt>
      <trkpt lat="42.46256" lon="0.18951">
        <ele>907.14</ele>
        <time>2014-06-03T09:25:00Z</time>
      </trkpt>
      <trkpt lat="42.46246" lon="0.18921">
        <ele>903.3</ele>
        <time>2014-06-03T09:25:05Z</time>
      </trkpt>
      <trkpt lat="42.46232" lon="0.1891">
        <ele>901.85</ele>
        <time>2014-06-03T09:25:11Z</time>
      </trkpt>
      <trkpt lat="42.46197" lon="0.18907">
        <ele>897.53</ele>
        <time>2014-06-03T09:25:16Z</time>
      </trkpt>
      <trkpt lat="42.46178" lon="0.18899">
        <ele>900.41</ele>
        <time>2014-06-03T09:25:20Z</time>
      </trkpt>
      <trkpt lat="42.46176" lon="0.18897">
        <ele>900.41</ele>
        <time>2014-06-03T09:25:31Z</time>
      </trkpt>
      <trkpt lat="42.46176" lon="0.18897">
        <ele>899.93</ele>
        <time>2014-06-03T09:25:46Z</time>
      </trkpt>
      <trkpt lat="42.46175" lon="0.18897">
        <ele>899.45</ele>
        <time>2014-06-03T09:26:15Z</time>
      </trkpt>
      <trkpt lat="42.46175" lon="0.18897">
        <ele>899.45</ele>
        <time>2014-06-03T09:26:32Z</time>
      </trkpt>
      <trkpt lat="42.46175" lon="0.18898">
        <ele>899.45</ele>
        <time>2014-06-03T09:26:52Z</time>
      </trkpt>
      <trkpt lat="42.4615" lon="0.18909">
        <ele>895.61</ele>
        <time>2014-06-03T09:26:59Z</time>
      </trkpt>
      <trkpt lat="42.46145" lon="0.18912">
        <ele>896.09</ele>
        <time>2014-06-03T09:27:00Z</time>
      </trkpt>
      <trkpt lat="42.46132" lon="0.18925">
        <ele>896.09</ele>
        <time>2014-06-03T09:27:03Z</time>
      </trkpt>
      <trkpt lat="42.46113" lon="0.1893">
        <ele>893.68</ele>
        <time>2014-06-03T09:27:06Z</time>
      </trkpt>
      <trkpt lat="42.46099" lon="0.18928">
        <ele>892.72</ele>
        <time>2014-06-03T09:27:08Z</time>
      </trkpt>
      <trkpt lat="42.46053" lon="0.1888">
        <ele>889.84</ele>
        <time>2014-06-03T09:27:16Z</time>
      </trkpt>
      <trkpt lat="42.46033" lon="0.18854">
        <ele>888.4</ele>
        <time>2014-06-03T09:27:20Z</time>
      </trkpt>
      <trkpt lat="42.46019" lon="0.18838">
        <ele>888.88</ele>
        <time>2014-06-03T09:27:25Z</time>
      </trkpt>
      <trkpt lat="42.46026" lon="0.18822">
        <ele>889.84</ele>
        <time>2014-06-03T09:27:34Z</time>
      </trkpt>
      <trkpt lat="42.46034" lon="0.18807">
        <ele>890.8</ele>
        <time>2014-06-03T09:27:40Z</time>
      </trkpt>
      <trkpt lat="42.4606" lon="0.18769">
        <ele>891.76</ele>
        <time>2014-06-03T09:27:54Z</time>
      </trkpt>
      <trkpt lat="42.46079" lon="0.18741">
        <ele>891.76</ele>
        <time>2014-06-03T09:28:06Z</time>
      </trkpt>
      <trkpt lat="42.46118" lon="0.18698">
        <ele>892.24</ele>
        <time>2014-06-03T09:28:21Z</time>
      </trkpt>
      <trkpt lat="42.46151" lon="0.18641">
        <ele>892.72</ele>
        <time>2014-06-03T09:28:36Z</time>
      </trkpt>
      <trkpt lat="42.46158" lon="0.18621">
        <ele>892.72</ele>
        <time>2014-06-03T09:28:40Z</time>
      </trkpt>
      <trkpt lat="42.46164" lon="0.18606">
        <ele>891.76</ele>
        <time>2014-06-03T09:28:43Z</time>
      </trkpt>
      <trkpt lat="42.46213" lon="0.18539">
        <ele>891.28</ele>
        <time>2014-06-03T09:28:58Z</time>
      </trkpt>
      <trkpt lat="42.46236" lon="0.18522">
        <ele>891.76</ele>
        <time>2014-06-03T09:29:04Z</time>
      </trkpt>
      <trkpt lat="42.46297" lon="0.18461">
        <ele>891.28</ele>
        <time>2014-06-03T09:29:22Z</time>
      </trkpt>
      <trkpt lat="42.46361" lon="0.18423">
        <ele>892.24</ele>
        <time>2014-06-03T09:29:40Z</time>
      </trkpt>
      <trkpt lat="42.46412" lon="0.18391">
        <ele>894.64</ele>
        <time>2014-06-03T09:29:55Z</time>
      </trkpt>
      <trkpt lat="42.46451" lon="0.18359">
        <ele>894.64</ele>
        <time>2014-06-03T09:30:08Z</time>
      </trkpt>
      <trkpt lat="42.46469" lon="0.18343">
        <ele>893.68</ele>
        <time>2014-06-03T09:30:13Z</time>
      </trkpt>
      <trkpt lat="42.46489" lon="0.18324">
        <ele>891.76</ele>
        <time>2014-06-03T09:30:17Z</time>
      </trkpt>
      <trkpt lat="42.46557" lon="0.18226">
        <ele>888.88</ele>
        <time>2014-06-03T09:30:32Z</time>
      </trkpt>
      <trkpt lat="42.46595" lon="0.18158">
        <ele>885.99</ele>
        <time>2014-06-03T09:30:41Z</time>
      </trkpt>
      <trkpt lat="42.46646" lon="0.18068">
        <ele>884.07</ele>
        <time>2014-06-03T09:30:53Z</time>
      </trkpt>
      <trkpt lat="42.46669" lon="0.18017">
        <ele>883.59</ele>
        <time>2014-06-03T09:30:59Z</time>
      </trkpt>
      <trkpt lat="42.46687" lon="0.17986">
        <ele>882.15</ele>
        <time>2014-06-03T09:31:03Z</time>
      </trkpt>
      <trkpt lat="42.46714" lon="0.17906">
        <ele>878.3</ele>
        <time>2014-06-03T09:31:11Z</time>
      </trkpt>
      <trkpt lat="42.46719" lon="0.17896">
        <ele>877.82</ele>
        <time>2014-06-03T09:31:12Z</time>
      </trkpt>
      <trkpt lat="42.46747" lon="0.1787">
        <ele>873.5</ele>
        <time>2014-06-03T09:31:16Z</time>
      </trkpt>
      <trkpt lat="42.46756" lon="0.17869">
        <ele>873.5</ele>
        <time>2014-06-03T09:31:17Z</time>
      </trkpt>
      <trkpt lat="42.46768" lon="0.17839">
        <ele>873.98</ele>
        <time>2014-06-03T09:31:21Z</time>
      </trkpt>
      <trkpt lat="42.46765" lon="0.17831">
        <ele>874.46</ele>
        <time>2014-06-03T09:31:22Z</time>
      </trkpt>
      <trkpt lat="42.46761" lon="0.17764">
        <ele>873.01</ele>
        <time>2014-06-03T09:31:31Z</time>
      </trkpt>
      <trkpt lat="42.46773" lon="0.17741">
        <ele>871.57</ele>
        <time>2014-06-03T09:31:34Z</time>
      </trkpt>
      <trkpt lat="42.46807" lon="0.17633">
        <ele>870.61</ele>
        <time>2014-06-03T09:31:47Z</time>
      </trkpt>
      <trkpt lat="42.46855" lon="0.17613">
        <ele>868.21</ele>
        <time>2014-06-03T09:31:55Z</time>
      </trkpt>
      <trkpt lat="42.46905" lon="0.17626">
        <ele>864.36</ele>
        <time>2014-06-03T09:32:01Z</time>
      </trkpt>
      <trkpt lat="42.46956" lon="0.17598">
        <ele>860.04</ele>
        <time>2014-06-03T09:32:07Z</time>
      </trkpt>
      <trkpt lat="42.47003" lon="0.17605">
        <ele>857.15</ele>
        <time>2014-06-03T09:32:12Z</time>
      </trkpt>
      <trkpt lat="42.47011" lon="0.17612">
        <ele>857.15</ele>
        <time>2014-06-03T09:32:13Z</time>
      </trkpt>
      <trkpt lat="42.47028" lon="0.17615">
        <ele>856.19</ele>
        <time>2014-06-03T09:32:15Z</time>
      </trkpt>
      <trkpt lat="42.47055" lon="0.17608">
        <ele>856.19</ele>
        <time>2014-06-03T09:32:18Z</time>
      </trkpt>
      <trkpt lat="42.47103" lon="0.17568">
        <ele>853.31</ele>
        <time>2014-06-03T09:32:24Z</time>
      </trkpt>
      <trkpt lat="42.47119" lon="0.17554">
        <ele>852.35</ele>
        <time>2014-06-03T09:32:26Z</time>
      </trkpt>
      <trkpt lat="42.47152" lon="0.17529">
        <ele>851.38</ele>
        <time>2014-06-03T09:32:30Z</time>
      </trkpt>
      <trkpt lat="42.47224" lon="0.17516">
        <ele>848.02</ele>
        <time>2014-06-03T09:32:38Z</time>
      </trkpt>
      <trkpt lat="42.47262" lon="0.17523">
        <ele>846.1</ele>
        <time>2014-06-03T09:32:42Z</time>
      </trkpt>
      <trkpt lat="42.47294" lon="0.17547">
        <ele>843.21</ele>
        <time>2014-06-03T09:32:46Z</time>
      </trkpt>
      <trkpt lat="42.47314" lon="0.17544">
        <ele>842.25</ele>
        <time>2014-06-03T09:32:51Z</time>
      </trkpt>
      <trkpt lat="42.47316" lon="0.17541">
        <ele>841.77</ele>
        <time>2014-06-03T09:32:52Z</time>
      </trkpt>
      <trkpt lat="42.4732" lon="0.17531">
        <ele>841.77</ele>
        <time>2014-06-03T09:33:04Z</time>
      </trkpt>
      <trkpt lat="42.4732" lon="0.17531">
        <ele>841.29</ele>
        <time>2014-06-03T09:33:25Z</time>
      </trkpt>
      <trkpt lat="42.47328" lon="0.1751">
        <ele>840.81</ele>
        <time>2014-06-03T09:33:35Z</time>
      </trkpt>
      <trkpt lat="42.47357" lon="0.17477">
        <ele>839.37</ele>
        <time>2014-06-03T09:33:46Z</time>
      </trkpt>
      <trkpt lat="42.47382" lon="0.17483">
        <ele>839.37</ele>
        <time>2014-06-03T09:33:56Z</time>
      </trkpt>
      <trkpt lat="42.47385" lon="0.17486">
        <ele>839.37</ele>
        <time>2014-06-03T09:33:58Z</time>
      </trkpt>
      <trkpt lat="42.47388" lon="0.1749">
        <ele>839.37</ele>
        <time>2014-06-03T09:34:08Z</time>
      </trkpt>
      <trkpt lat="42.47392" lon="0.17491">
        <ele>839.37</ele>
        <time>2014-06-03T09:34:14Z</time>
      </trkpt>
      <trkpt lat="42.47386" lon="0.1749">
        <ele>839.37</ele>
        <time>2014-06-03T09:34:24Z</time>
      </trkpt>
      <trkpt lat="42.47386" lon="0.1749">
        <ele>839.37</ele>
        <time>2014-06-03T09:34:43Z</time>
      </trkpt>
      <trkpt lat="42.47386" lon="0.1749">
        <ele>839.37</ele>
        <time>2014-06-03T09:35:17Z</time>
      </trkpt>
      <trkpt lat="42.47386" lon="0.1749">
        <ele>839.85</ele>
        <time>2014-06-03T09:35:34Z</time>
      </trkpt>
      <trkpt lat="42.47386" lon="0.1749">
        <ele>838.89</ele>
        <time>2014-06-03T09:35:55Z</time>
      </trkpt>
      <trkpt lat="42.47404" lon="0.17476">
        <ele>840.33</ele>
        <time>2014-06-03T09:36:04Z</time>
      </trkpt>
      <trkpt lat="42.47421" lon="0.17438">
        <ele>842.73</ele>
        <time>2014-06-03T09:36:15Z</time>
      </trkpt>
      <trkpt lat="42.47436" lon="0.17425">
        <ele>844.66</ele>
        <time>2014-06-03T09:36:21Z</time>
      </trkpt>
      <trkpt lat="42.47483" lon="0.174">
        <ele>846.58</ele>
        <time>2014-06-03T09:36:36Z</time>
      </trkpt>
      <trkpt lat="42.47533" lon="0.17347">
        <ele>847.54</ele>
        <time>2014-06-03T09:36:52Z</time>
      </trkpt>
      <trkpt lat="42.47541" lon="0.17315">
        <ele>847.54</ele>
        <time>2014-06-03T09:36:58Z</time>
      </trkpt>
      <trkpt lat="42.47554" lon="0.17297">
        <ele>848.98</ele>
        <time>2014-06-03T09:37:03Z</time>
      </trkpt>
      <trkpt lat="42.47573" lon="0.17289">
        <ele>850.42</ele>
        <time>2014-06-03T09:37:08Z</time>
      </trkpt>
      <trkpt lat="42.47619" lon="0.17279">
        <ele>851.38</ele>
        <time>2014-06-03T09:37:19Z</time>
      </trkpt>
      <trkpt lat="42.47672" lon="0.17235">
        <ele>850.42</ele>
        <time>2014-06-03T09:37:32Z</time>
      </trkpt>
      <trkpt lat="42.47687" lon="0.17228">
        <ele>850.42</ele>
        <time>2014-06-03T09:37:35Z</time>
      </trkpt>
      <trkpt lat="42.47715" lon="0.17193">
        <ele>850.9</ele>
        <time>2014-06-03T09:37:43Z</time>
      </trkpt>
      <trkpt lat="42.47755" lon="0.17179">
        <ele>854.27</ele>
        <time>2014-06-03T09:37:56Z</time>
      </trkpt>
      <trkpt lat="42.47795" lon="0.17155">
        <ele>856.67</ele>
        <time>2014-06-03T09:38:11Z</time>
      </trkpt>
      <trkpt lat="42.4783" lon="0.1712">
        <ele>858.59</ele>
        <time>2014-06-03T09:38:26Z</time>
      </trkpt>
      <trkpt lat="42.47873" lon="0.17106">
        <ele>860.52</ele>
        <time>2014-06-03T09:38:41Z</time>
      </trkpt>
      <trkpt lat="42.47922" lon="0.17098">
        <ele>862.44</ele>
        <time>2014-06-03T09:38:57Z</time>
      </trkpt>
      <trkpt lat="42.47962" lon="0.17086">
        <ele>863.88</ele>
        <time>2014-06-03T09:39:10Z</time>
      </trkpt>
      <trkpt lat="42.48009" lon="0.17078">
        <ele>864.84</ele>
        <time>2014-06-03T09:39:24Z</time>
      </trkpt>
      <trkpt lat="42.48055" lon="0.17058">
        <ele>865.32</ele>
        <time>2014-06-03T09:39:39Z</time>
      </trkpt>
      <trkpt lat="42.48076" lon="0.1705">
        <ele>860.52</ele>
        <time>2014-06-03T09:39:48Z</time>
      </trkpt>
      <trkpt lat="42.48078" lon="0.17049">
        <ele>868.21</ele>
        <time>2014-06-03T09:39:49Z</time>
      </trkpt>
      <trkpt lat="42.48105" lon="0.17044">
        <ele>869.65</ele>
        <time>2014-06-03T09:40:01Z</time>
      </trkpt>
      <trkpt lat="42.48107" lon="0.17044">
        <ele>870.13</ele>
        <time>2014-06-03T09:40:02Z</time>
      </trkpt>
      <trkpt lat="42.48137" lon="0.17062">
        <ele>872.53</ele>
        <time>2014-06-03T09:40:18Z</time>
      </trkpt>
      <trkpt lat="42.48162" lon="0.17077">
        <ele>875.9</ele>
        <time>2014-06-03T09:40:33Z</time>
      </trkpt>
      <trkpt lat="42.48186" lon="0.17084">
        <ele>878.78</ele>
        <time>2014-06-03T09:40:48Z</time>
      </trkpt>
      <trkpt lat="42.48208" lon="0.171">
        <ele>881.19</ele>
        <time>2014-06-03T09:41:03Z</time>
      </trkpt>
      <trkpt lat="42.48231" lon="0.17116">
        <ele>883.59</ele>
        <time>2014-06-03T09:41:18Z</time>
      </trkpt>
      <trkpt lat="42.48254" lon="0.17145">
        <ele>886.47</ele>
        <time>2014-06-03T09:41:36Z</time>
      </trkpt>
      <trkpt lat="42.48266" lon="0.17177">
        <ele>888.88</ele>
        <time>2014-06-03T09:41:52Z</time>
      </trkpt>
      <trkpt lat="42.48274" lon="0.17205">
        <ele>891.28</ele>
        <time>2014-06-03T09:42:05Z</time>
      </trkpt>
      <trkpt lat="42.4829" lon="0.1723">
        <ele>893.2</ele>
        <time>2014-06-03T09:42:19Z</time>
      </trkpt>
      <trkpt lat="42.48304" lon="0.1724">
        <ele>894.16</ele>
        <time>2014-06-03T09:42:28Z</time>
      </trkpt>
      <trkpt lat="42.48312" lon="0.17247">
        <ele>895.12</ele>
        <time>2014-06-03T09:42:34Z</time>
      </trkpt>
      <trkpt lat="42.48359" lon="0.17232">
        <ele>894.16</ele>
        <time>2014-06-03T09:42:49Z</time>
      </trkpt>
      <trkpt lat="42.48404" lon="0.17228">
        <ele>893.68</ele>
        <time>2014-06-03T09:43:02Z</time>
      </trkpt>
      <trkpt lat="42.48435" lon="0.17189">
        <ele>894.64</ele>
        <time>2014-06-03T09:43:15Z</time>
      </trkpt>
      <trkpt lat="42.48461" lon="0.17126">
        <ele>896.09</ele>
        <time>2014-06-03T09:43:33Z</time>
      </trkpt>
      <trkpt lat="42.48485" lon="0.17084">
        <ele>898.49</ele>
        <time>2014-06-03T09:43:48Z</time>
      </trkpt>
      <trkpt lat="42.48516" lon="0.17056">
        <ele>899.45</ele>
        <time>2014-06-03T09:44:03Z</time>
      </trkpt>
      <trkpt lat="42.48541" lon="0.17039">
        <ele>901.85</ele>
        <time>2014-06-03T09:44:16Z</time>
      </trkpt>
      <trkpt lat="42.48574" lon="0.17017">
        <ele>902.82</ele>
        <time>2014-06-03T09:44:32Z</time>
      </trkpt>
      <trkpt lat="42.48609" lon="0.17001">
        <ele>903.78</ele>
        <time>2014-06-03T09:44:47Z</time>
      </trkpt>
      <trkpt lat="42.48641" lon="0.16993">
        <ele>904.26</ele>
        <time>2014-06-03T09:45:00Z</time>
      </trkpt>
      <trkpt lat="42.48675" lon="0.16991">
        <ele>904.74</ele>
        <time>2014-06-03T09:45:15Z</time>
      </trkpt>
      <trkpt lat="42.48703" lon="0.16997">
        <ele>905.22</ele>
        <time>2014-06-03T09:45:28Z</time>
      </trkpt>
      <trkpt lat="42.48714" lon="0.16996">
        <ele>905.22</ele>
        <time>2014-06-03T09:45:32Z</time>
      </trkpt>
      <trkpt lat="42.48712" lon="0.16993">
        <ele>904.74</ele>
        <time>2014-06-03T09:45:37Z</time>
      </trkpt>
      <trkpt lat="42.48706" lon="0.16994">
        <ele>905.22</ele>
        <time>2014-06-03T09:45:42Z</time>
      </trkpt>
      <trkpt lat="42.487" lon="0.16998">
        <ele>905.22</ele>
        <time>2014-06-03T09:45:47Z</time>
      </trkpt>
      <trkpt lat="42.48689" lon="0.16993">
        <ele>905.7</ele>
        <time>2014-06-03T09:45:56Z</time>
      </trkpt>
      <trkpt lat="42.48687" lon="0.16996">
        <ele>905.22</ele>
        <time>2014-06-03T09:46:01Z</time>
      </trkpt>
      <trkpt lat="42.48708" lon="0.17">
        <ele>905.22</ele>
        <time>2014-06-03T09:46:15Z</time>
      </trkpt>
      <trkpt lat="42.48729" lon="0.16979">
        <ele>905.7</ele>
        <time>2014-06-03T09:46:29Z</time>
      </trkpt>
      <trkpt lat="42.48746" lon="0.16953">
        <ele>906.66</ele>
        <time>2014-06-03T09:46:43Z</time>
      </trkpt>
      <trkpt lat="42.4875" lon="0.16949">
        <ele>907.14</ele>
        <time>2014-06-03T09:46:46Z</time>
      </trkpt>
      <trkpt lat="42.48756" lon="0.16945">
        <ele>907.62</ele>
        <time>2014-06-03T09:46:51Z</time>
      </trkpt>
      <trkpt lat="42.48761" lon="0.16939">
        <ele>908.1</ele>
        <time>2014-06-03T09:46:56Z</time>
      </trkpt>
      <trkpt lat="42.48778" lon="0.16921">
        <ele>910.99</ele>
        <time>2014-06-03T09:47:12Z</time>
      </trkpt>
      <trkpt lat="42.48779" lon="0.1692">
        <ele>910.99</ele>
        <time>2014-06-03T09:47:13Z</time>
      </trkpt>
      <trkpt lat="42.48798" lon="0.16902">
        <ele>913.87</ele>
        <time>2014-06-03T09:47:28Z</time>
      </trkpt>
      <trkpt lat="42.48815" lon="0.16885">
        <ele>915.79</ele>
        <time>2014-06-03T09:47:42Z</time>
      </trkpt>
      <trkpt lat="42.48826" lon="0.16877">
        <ele>917.24</ele>
        <time>2014-06-03T09:47:56Z</time>
      </trkpt>
      <trkpt lat="42.48826" lon="0.16877">
        <ele>917.72</ele>
        <time>2014-06-03T09:48:21Z</time>
      </trkpt>
      <trkpt lat="42.48827" lon="0.16877">
        <ele>917.72</ele>
        <time>2014-06-03T09:48:22Z</time>
      </trkpt>
      <trkpt lat="42.4884" lon="0.16868">
        <ele>918.68</ele>
        <time>2014-06-03T09:48:34Z</time>
      </trkpt>
      <trkpt lat="42.48842" lon="0.16866">
        <ele>919.16</ele>
        <time>2014-06-03T09:48:36Z</time>
      </trkpt>
      <trkpt lat="42.48862" lon="0.16845">
        <ele>921.08</ele>
        <time>2014-06-03T09:48:50Z</time>
      </trkpt>
      <trkpt lat="42.48875" lon="0.16797">
        <ele>924.45</ele>
        <time>2014-06-03T09:49:06Z</time>
      </trkpt>
      <trkpt lat="42.48877" lon="0.16762">
        <ele>927.81</ele>
        <time>2014-06-03T09:49:18Z</time>
      </trkpt>
      <trkpt lat="42.48883" lon="0.16723">
        <ele>929.73</ele>
        <time>2014-06-03T09:49:31Z</time>
      </trkpt>
      <trkpt lat="42.48891" lon="0.16668">
        <ele>930.21</ele>
        <time>2014-06-03T09:49:47Z</time>
      </trkpt>
      <trkpt lat="42.48888" lon="0.1664">
        <ele>927.81</ele>
        <time>2014-06-03T09:49:51Z</time>
      </trkpt>
      <trkpt lat="42.48887" lon="0.16631">
        <ele>927.33</ele>
        <time>2014-06-03T09:49:52Z</time>
      </trkpt>
      <trkpt lat="42.4891" lon="0.16584">
        <ele>923.96</ele>
        <time>2014-06-03T09:49:58Z</time>
      </trkpt>
      <trkpt lat="42.48934" lon="0.16572">
        <ele>921.56</ele>
        <time>2014-06-03T09:50:01Z</time>
      </trkpt>
      <trkpt lat="42.48977" lon="0.16564">
        <ele>916.27</ele>
        <time>2014-06-03T09:50:05Z</time>
      </trkpt>
      <trkpt lat="42.49013" lon="0.16558">
        <ele>912.43</ele>
        <time>2014-06-03T09:50:08Z</time>
      </trkpt>
      <trkpt lat="42.49072" lon="0.16549">
        <ele>909.06</ele>
        <time>2014-06-03T09:50:13Z</time>
      </trkpt>
      <trkpt lat="42.49183" lon="0.16506">
        <ele>908.58</ele>
        <time>2014-06-03T09:50:25Z</time>
      </trkpt>
      <trkpt lat="42.49214" lon="0.16495">
        <ele>907.62</ele>
        <time>2014-06-03T09:50:29Z</time>
      </trkpt>
      <trkpt lat="42.49255" lon="0.16492">
        <ele>905.7</ele>
        <time>2014-06-03T09:50:34Z</time>
      </trkpt>
      <trkpt lat="42.49282" lon="0.16497">
        <ele>903.78</ele>
        <time>2014-06-03T09:50:37Z</time>
      </trkpt>
      <trkpt lat="42.49302" lon="0.16496">
        <ele>901.85</ele>
        <time>2014-06-03T09:50:39Z</time>
      </trkpt>
      <trkpt lat="42.49333" lon="0.16487">
        <ele>898.97</ele>
        <time>2014-06-03T09:50:42Z</time>
      </trkpt>
      <trkpt lat="42.49421" lon="0.16446">
        <ele>895.12</ele>
        <time>2014-06-03T09:50:51Z</time>
      </trkpt>
      <trkpt lat="42.49464" lon="0.16422">
        <ele>891.28</ele>
        <time>2014-06-03T09:50:55Z</time>
      </trkpt>
      <trkpt lat="42.49475" lon="0.16418">
        <ele>890.32</ele>
        <time>2014-06-03T09:50:56Z</time>
      </trkpt>
      <trkpt lat="42.49538" lon="0.16422">
        <ele>884.07</ele>
        <time>2014-06-03T09:51:01Z</time>
      </trkpt>
      <trkpt lat="42.4955" lon="0.16427">
        <ele>884.07</ele>
        <time>2014-06-03T09:51:02Z</time>
      </trkpt>
      <trkpt lat="42.49596" lon="0.16455">
        <ele>881.67</ele>
        <time>2014-06-03T09:51:06Z</time>
      </trkpt>
      <trkpt lat="42.49606" lon="0.16463">
        <ele>881.67</ele>
        <time>2014-06-03T09:51:07Z</time>
      </trkpt>
      <trkpt lat="42.49624" lon="0.16481">
        <ele>881.67</ele>
        <time>2014-06-03T09:51:09Z</time>
      </trkpt>
      <trkpt lat="42.49697" lon="0.1651">
        <ele>877.34</ele>
        <time>2014-06-03T09:51:16Z</time>
      </trkpt>
      <trkpt lat="42.49708" lon="0.16515">
        <ele>876.38</ele>
        <time>2014-06-03T09:51:17Z</time>
      </trkpt>
      <trkpt lat="42.49728" lon="0.16529">
        <ele>875.9</ele>
        <time>2014-06-03T09:51:19Z</time>
      </trkpt>
      <trkpt lat="42.49753" lon="0.16564">
        <ele>878.78</ele>
        <time>2014-06-03T09:51:23Z</time>
      </trkpt>
      <trkpt lat="42.4977" lon="0.16582">
        <ele>879.74</ele>
        <time>2014-06-03T09:51:26Z</time>
      </trkpt>
      <trkpt lat="42.49782" lon="0.16623">
        <ele>881.67</ele>
        <time>2014-06-03T09:51:32Z</time>
      </trkpt>
      <trkpt lat="42.498" lon="0.16657">
        <ele>880.71</ele>
        <time>2014-06-03T09:51:39Z</time>
      </trkpt>
      <trkpt lat="42.49824" lon="0.16652">
        <ele>877.82</ele>
        <time>2014-06-03T09:51:43Z</time>
      </trkpt>
      <trkpt lat="42.49871" lon="0.1667">
        <ele>874.94</ele>
        <time>2014-06-03T09:51:49Z</time>
      </trkpt>
      <trkpt lat="42.49906" lon="0.16656">
        <ele>878.3</ele>
        <time>2014-06-03T09:51:54Z</time>
      </trkpt>
      <trkpt lat="42.49921" lon="0.16663">
        <ele>879.74</ele>
        <time>2014-06-03T09:51:57Z</time>
      </trkpt>
      <trkpt lat="42.49944" lon="0.16676">
        <ele>880.22</ele>
        <time>2014-06-03T09:52:02Z</time>
      </trkpt>
      <trkpt lat="42.49957" lon="0.16679">
        <ele>880.71</ele>
        <time>2014-06-03T09:52:05Z</time>
      </trkpt>
      <trkpt lat="42.50007" lon="0.16717">
        <ele>879.74</ele>
        <time>2014-06-03T09:52:16Z</time>
      </trkpt>
      <trkpt lat="42.50061" lon="0.16798">
        <ele>877.82</ele>
        <time>2014-06-03T09:52:29Z</time>
      </trkpt>
      <trkpt lat="42.50092" lon="0.1683">
        <ele>878.3</ele>
        <time>2014-06-03T09:52:35Z</time>
      </trkpt>
      <trkpt lat="42.50114" lon="0.16865">
        <ele>878.78</ele>
        <time>2014-06-03T09:52:41Z</time>
      </trkpt>
      <trkpt lat="42.50139" lon="0.1688">
        <ele>878.78</ele>
        <time>2014-06-03T09:52:46Z</time>
      </trkpt>
      <trkpt lat="42.5018" lon="0.16911">
        <ele>876.86</ele>
        <time>2014-06-03T09:52:54Z</time>
      </trkpt>
      <trkpt lat="42.50192" lon="0.16914">
        <ele>876.86</ele>
        <time>2014-06-03T09:52:56Z</time>
      </trkpt>
      <trkpt lat="42.50226" lon="0.16921">
        <ele>878.78</ele>
        <time>2014-06-03T09:53:03Z</time>
      </trkpt>
      <trkpt lat="42.50246" lon="0.16938">
        <ele>878.3</ele>
        <time>2014-06-03T09:53:09Z</time>
      </trkpt>
      <trkpt lat="42.50266" lon="0.16965">
        <ele>877.34</ele>
        <time>2014-06-03T09:53:15Z</time>
      </trkpt>
      <trkpt lat="42.50275" lon="0.16976">
        <ele>876.38</ele>
        <time>2014-06-03T09:53:17Z</time>
      </trkpt>
      <trkpt lat="42.50284" lon="0.16989">
        <ele>874.94</ele>
        <time>2014-06-03T09:53:19Z</time>
      </trkpt>
      <trkpt lat="42.503" lon="0.17026">
        <ele>871.09</ele>
        <time>2014-06-03T09:53:23Z</time>
      </trkpt>
      <trkpt lat="42.50315" lon="0.17029">
        <ele>869.65</ele>
        <time>2014-06-03T09:53:25Z</time>
      </trkpt>
      <trkpt lat="42.50329" lon="0.17028">
        <ele>870.61</ele>
        <time>2014-06-03T09:53:32Z</time>
      </trkpt>
      <trkpt lat="42.50331" lon="0.17025">
        <ele>870.13</ele>
        <time>2014-06-03T09:53:46Z</time>
      </trkpt>
      <trkpt lat="42.50331" lon="0.17024">
        <ele>870.13</ele>
        <time>2014-06-03T09:54:02Z</time>
      </trkpt>
      <trkpt lat="42.50331" lon="0.17024">
        <ele>870.13</ele>
        <time>2014-06-03T09:54:27Z</time>
      </trkpt>
      <trkpt lat="42.5035" lon="0.17026">
        <ele>869.65</ele>
        <time>2014-06-03T09:54:35Z</time>
      </trkpt>
      <trkpt lat="42.50357" lon="0.17031">
        <ele>869.17</ele>
        <time>2014-06-03T09:54:37Z</time>
      </trkpt>
      <trkpt lat="42.50383" lon="0.17057">
        <ele>867.25</ele>
        <time>2014-06-03T09:54:43Z</time>
      </trkpt>
      <trkpt lat="42.50396" lon="0.17079">
        <ele>865.32</ele>
        <time>2014-06-03T09:54:46Z</time>
      </trkpt>
      <trkpt lat="42.50413" lon="0.17099">
        <ele>864.36</ele>
        <time>2014-06-03T09:54:49Z</time>
      </trkpt>
      <trkpt lat="42.50433" lon="0.17124">
        <ele>865.32</ele>
        <time>2014-06-03T09:54:53Z</time>
      </trkpt>
      <trkpt lat="42.50443" lon="0.17146">
        <ele>867.73</ele>
        <time>2014-06-03T09:54:57Z</time>
      </trkpt>
      <trkpt lat="42.50469" lon="0.17181">
        <ele>870.13</ele>
        <time>2014-06-03T09:55:08Z</time>
      </trkpt>
      <trkpt lat="42.50502" lon="0.17232">
        <ele>872.05</ele>
        <time>2014-06-03T09:55:24Z</time>
      </trkpt>
      <trkpt lat="42.50527" lon="0.17278">
        <ele>870.61</ele>
        <time>2014-06-03T09:55:38Z</time>
      </trkpt>
      <trkpt lat="42.50533" lon="0.17283">
        <ele>869.65</ele>
        <time>2014-06-03T09:55:40Z</time>
      </trkpt>
      <trkpt lat="42.50551" lon="0.17287">
        <ele>868.69</ele>
        <time>2014-06-03T09:55:44Z</time>
      </trkpt>
      <trkpt lat="42.50562" lon="0.1731">
        <ele>870.61</ele>
        <time>2014-06-03T09:55:50Z</time>
      </trkpt>
      <trkpt lat="42.50581" lon="0.17349">
        <ele>873.5</ele>
        <time>2014-06-03T09:56:02Z</time>
      </trkpt>
      <trkpt lat="42.50603" lon="0.17393">
        <ele>874.94</ele>
        <time>2014-06-03T09:56:16Z</time>
      </trkpt>
      <trkpt lat="42.50604" lon="0.17396">
        <ele>874.46</ele>
        <time>2014-06-03T09:56:18Z</time>
      </trkpt>
      <trkpt lat="42.50608" lon="0.17404">
        <ele>874.46</ele>
        <time>2014-06-03T09:56:23Z</time>
      </trkpt>
      <trkpt lat="42.50615" lon="0.17421">
        <ele>874.46</ele>
        <time>2014-06-03T09:56:30Z</time>
      </trkpt>
      <trkpt lat="42.50615" lon="0.17423">
        <ele>874.94</ele>
        <time>2014-06-03T09:56:47Z</time>
      </trkpt>
      <trkpt lat="42.50624" lon="0.17438">
        <ele>874.94</ele>
        <time>2014-06-03T09:57:01Z</time>
      </trkpt>
      <trkpt lat="42.50638" lon="0.1746">
        <ele>874.46</ele>
        <time>2014-06-03T09:57:06Z</time>
      </trkpt>
      <trkpt lat="42.50643" lon="0.17483">
        <ele>875.42</ele>
        <time>2014-06-03T09:57:10Z</time>
      </trkpt>
      <trkpt lat="42.5063" lon="0.17528">
        <ele>877.82</ele>
        <time>2014-06-03T09:57:17Z</time>
      </trkpt>
      <trkpt lat="42.50621" lon="0.17578">
        <ele>881.19</ele>
        <time>2014-06-03T09:57:28Z</time>
      </trkpt>
      <trkpt lat="42.50614" lon="0.17607">
        <ele>883.11</ele>
        <time>2014-06-03T09:57:40Z</time>
      </trkpt>
      <trkpt lat="42.50609" lon="0.17616">
        <ele>883.11</ele>
        <time>2014-06-03T09:57:51Z</time>
      </trkpt>
      <trkpt lat="42.50606" lon="0.17635">
        <ele>884.55</ele>
        <time>2014-06-03T09:58:02Z</time>
      </trkpt>
      <trkpt lat="42.50602" lon="0.17685">
        <ele>885.51</ele>
        <time>2014-06-03T09:58:14Z</time>
      </trkpt>
      <trkpt lat="42.50621" lon="0.17709">
        <ele>885.99</ele>
        <time>2014-06-03T09:58:23Z</time>
      </trkpt>
      <trkpt lat="42.50613" lon="0.17725">
        <ele>888.4</ele>
        <time>2014-06-03T09:58:34Z</time>
      </trkpt>
      <trkpt lat="42.50595" lon="0.17726">
        <ele>890.32</ele>
        <time>2014-06-03T09:58:45Z</time>
      </trkpt>
      <trkpt lat="42.5059" lon="0.17748">
        <ele>892.24</ele>
        <time>2014-06-03T09:58:56Z</time>
      </trkpt>
      <trkpt lat="42.50593" lon="0.17778">
        <ele>895.12</ele>
        <time>2014-06-03T09:59:10Z</time>
      </trkpt>
      <trkpt lat="42.50592" lon="0.17782">
        <ele>895.61</ele>
        <time>2014-06-03T09:59:12Z</time>
      </trkpt>
      <trkpt lat="42.50578" lon="0.178">
        <ele>898.01</ele>
        <time>2014-06-03T09:59:25Z</time>
      </trkpt>
      <trkpt lat="42.50556" lon="0.17796">
        <ele>899.93</ele>
        <time>2014-06-03T09:59:39Z</time>
      </trkpt>
      <trkpt lat="42.50545" lon="0.17757">
        <ele>902.33</ele>
        <time>2014-06-03T09:59:53Z</time>
      </trkpt>
      <trkpt lat="42.50534" lon="0.17726">
        <ele>904.74</ele>
        <time>2014-06-03T10:00:06Z</time>
      </trkpt>
      <trkpt lat="42.5052" lon="0.17711">
        <ele>905.7</ele>
        <time>2014-06-03T10:00:15Z</time>
      </trkpt>
      <trkpt lat="42.50501" lon="0.17694">
        <ele>908.1</ele>
        <time>2014-06-03T10:00:28Z</time>
      </trkpt>
      <trkpt lat="42.50484" lon="0.17681">
        <ele>909.54</ele>
        <time>2014-06-03T10:00:38Z</time>
      </trkpt>
      <trkpt lat="42.50459" lon="0.17662">
        <ele>912.91</ele>
        <time>2014-06-03T10:00:53Z</time>
      </trkpt>
      <trkpt lat="42.50439" lon="0.17649">
        <ele>915.31</ele>
        <time>2014-06-03T10:01:05Z</time>
      </trkpt>
      <trkpt lat="42.50417" lon="0.17639">
        <ele>917.72</ele>
        <time>2014-06-03T10:01:18Z</time>
      </trkpt>
      <trkpt lat="42.50395" lon="0.17632">
        <ele>920.6</ele>
        <time>2014-06-03T10:01:31Z</time>
      </trkpt>
      <trkpt lat="42.50371" lon="0.17629">
        <ele>923.48</ele>
        <time>2014-06-03T10:01:45Z</time>
      </trkpt>
      <trkpt lat="42.50353" lon="0.1764">
        <ele>926.85</ele>
        <time>2014-06-03T10:01:58Z</time>
      </trkpt>
      <trkpt lat="42.50355" lon="0.1767">
        <ele>929.25</ele>
        <time>2014-06-03T10:02:12Z</time>
      </trkpt>
      <trkpt lat="42.50357" lon="0.17695">
        <ele>932.62</ele>
        <time>2014-06-03T10:02:24Z</time>
      </trkpt>
      <trkpt lat="42.50346" lon="0.17709">
        <ele>934.06</ele>
        <time>2014-06-03T10:02:34Z</time>
      </trkpt>
      <trkpt lat="42.50342" lon="0.17709">
        <ele>934.54</ele>
        <time>2014-06-03T10:02:37Z</time>
      </trkpt>
      <trkpt lat="42.50325" lon="0.17693">
        <ele>936.94</ele>
        <time>2014-06-03T10:02:49Z</time>
      </trkpt>
      <trkpt lat="42.50315" lon="0.1769">
        <ele>938.38</ele>
        <time>2014-06-03T10:02:55Z</time>
      </trkpt>
      <trkpt lat="42.50293" lon="0.17703">
        <ele>941.27</ele>
        <time>2014-06-03T10:03:10Z</time>
      </trkpt>
      <trkpt lat="42.50273" lon="0.17717">
        <ele>944.15</ele>
        <time>2014-06-03T10:03:24Z</time>
      </trkpt>
      <trkpt lat="42.50256" lon="0.17724">
        <ele>947.04</ele>
        <time>2014-06-03T10:03:35Z</time>
      </trkpt>
      <trkpt lat="42.5025" lon="0.17724">
        <ele>947.04</ele>
        <time>2014-06-03T10:03:39Z</time>
      </trkpt>
      <trkpt lat="42.50228" lon="0.17726">
        <ele>950.4</ele>
        <time>2014-06-03T10:03:53Z</time>
      </trkpt>
      <trkpt lat="42.50225" lon="0.17741">
        <ele>951.36</ele>
        <time>2014-06-03T10:04:00Z</time>
      </trkpt>
      <trkpt lat="42.50232" lon="0.17759">
        <ele>952.8</ele>
        <time>2014-06-03T10:04:10Z</time>
      </trkpt>
      <trkpt lat="42.50248" lon="0.17789">
        <ele>956.65</ele>
        <time>2014-06-03T10:04:27Z</time>
      </trkpt>
      <trkpt lat="42.50249" lon="0.178">
        <ele>957.13</ele>
        <time>2014-06-03T10:04:32Z</time>
      </trkpt>
      <trkpt lat="42.50257" lon="0.1783">
        <ele>959.53</ele>
        <time>2014-06-03T10:04:47Z</time>
      </trkpt>
      <trkpt lat="42.50271" lon="0.17858">
        <ele>961.94</ele>
        <time>2014-06-03T10:05:02Z</time>
      </trkpt>
      <trkpt lat="42.50274" lon="0.17872">
        <ele>963.86</ele>
        <time>2014-06-03T10:05:09Z</time>
      </trkpt>
      <trkpt lat="42.50273" lon="0.1788">
        <ele>964.34</ele>
        <time>2014-06-03T10:05:13Z</time>
      </trkpt>
      <trkpt lat="42.50248" lon="0.1788">
        <ele>967.22</ele>
        <time>2014-06-03T10:05:28Z</time>
      </trkpt>
      <trkpt lat="42.50241" lon="0.17873">
        <ele>967.7</ele>
        <time>2014-06-03T10:05:32Z</time>
      </trkpt>
      <trkpt lat="42.50222" lon="0.17865">
        <ele>969.63</ele>
        <time>2014-06-03T10:05:47Z</time>
      </trkpt>
      <trkpt lat="42.50208" lon="0.17865">
        <ele>971.55</ele>
        <time>2014-06-03T10:05:57Z</time>
      </trkpt>
      <trkpt lat="42.50184" lon="0.17855">
        <ele>973.47</ele>
        <time>2014-06-03T10:06:08Z</time>
      </trkpt>
      <trkpt lat="42.50167" lon="0.17853">
        <ele>975.39</ele>
        <time>2014-06-03T10:06:18Z</time>
      </trkpt>
      <trkpt lat="42.50146" lon="0.17846">
        <ele>978.28</ele>
        <time>2014-06-03T10:06:31Z</time>
      </trkpt>
      <trkpt lat="42.50134" lon="0.17846">
        <ele>980.68</ele>
        <time>2014-06-03T10:06:41Z</time>
      </trkpt>
      <trkpt lat="42.50111" lon="0.17845">
        <ele>982.6</ele>
        <time>2014-06-03T10:06:53Z</time>
      </trkpt>
      <trkpt lat="42.50111" lon="0.17844">
        <ele>982.6</ele>
        <time>2014-06-03T10:07:16Z</time>
      </trkpt>
      <trkpt lat="42.501" lon="0.17844">
        <ele>984.05</ele>
        <time>2014-06-03T10:07:26Z</time>
      </trkpt>
      <trkpt lat="42.50104" lon="0.17865">
        <ele>985.97</ele>
        <time>2014-06-03T10:07:35Z</time>
      </trkpt>
      <trkpt lat="42.50112" lon="0.17886">
        <ele>988.37</ele>
        <time>2014-06-03T10:07:46Z</time>
      </trkpt>
      <trkpt lat="42.50112" lon="0.17895">
        <ele>988.85</ele>
        <time>2014-06-03T10:07:50Z</time>
      </trkpt>
      <trkpt lat="42.50114" lon="0.17909">
        <ele>990.3</ele>
        <time>2014-06-03T10:07:56Z</time>
      </trkpt>
      <trkpt lat="42.50124" lon="0.17929">
        <ele>991.74</ele>
        <time>2014-06-03T10:08:07Z</time>
      </trkpt>
      <trkpt lat="42.50131" lon="0.17943">
        <ele>993.18</ele>
        <time>2014-06-03T10:08:15Z</time>
      </trkpt>
      <trkpt lat="42.50147" lon="0.17967">
        <ele>995.58</ele>
        <time>2014-06-03T10:08:31Z</time>
      </trkpt>
      <trkpt lat="42.50151" lon="0.17976">
        <ele>996.06</ele>
        <time>2014-06-03T10:08:36Z</time>
      </trkpt>
      <trkpt lat="42.50147" lon="0.17998">
        <ele>998.95</ele>
        <time>2014-06-03T10:08:46Z</time>
      </trkpt>
      <trkpt lat="42.50146" lon="0.17999">
        <ele>998.47</ele>
        <time>2014-06-03T10:08:47Z</time>
      </trkpt>
      <trkpt lat="42.50137" lon="0.17998">
        <ele>999.43</ele>
        <time>2014-06-03T10:08:52Z</time>
      </trkpt>
      <trkpt lat="42.5013" lon="0.17991">
        <ele>1000.87</ele>
        <time>2014-06-03T10:09:04Z</time>
      </trkpt>
      <trkpt lat="42.50129" lon="0.1799">
        <ele>1001.35</ele>
        <time>2014-06-03T10:09:06Z</time>
      </trkpt>
      <trkpt lat="42.50112" lon="0.17985">
        <ele>1002.31</ele>
        <time>2014-06-03T10:09:15Z</time>
      </trkpt>
      <trkpt lat="42.50089" lon="0.17968">
        <ele>1005.2</ele>
        <time>2014-06-03T10:09:28Z</time>
      </trkpt>
      <trkpt lat="42.50088" lon="0.17967">
        <ele>1006.16</ele>
        <time>2014-06-03T10:09:34Z</time>
      </trkpt>
      <trkpt lat="42.5008" lon="0.17965">
        <ele>1007.12</ele>
        <time>2014-06-03T10:09:39Z</time>
      </trkpt>
      <trkpt lat="42.50053" lon="0.17956">
        <ele>1009.52</ele>
        <time>2014-06-03T10:09:52Z</time>
      </trkpt>
      <trkpt lat="42.50033" lon="0.17948">
        <ele>1011.44</ele>
        <time>2014-06-03T10:10:03Z</time>
      </trkpt>
      <trkpt lat="42.5002" lon="0.17948">
        <ele>1013.85</ele>
        <time>2014-06-03T10:10:13Z</time>
      </trkpt>
      <trkpt lat="42.50016" lon="0.17951">
        <ele>1014.33</ele>
        <time>2014-06-03T10:10:16Z</time>
      </trkpt>
      <trkpt lat="42.5002" lon="0.17979">
        <ele>1017.21</ele>
        <time>2014-06-03T10:10:31Z</time>
      </trkpt>
      <trkpt lat="42.50023" lon="0.18004">
        <ele>1020.1</ele>
        <time>2014-06-03T10:10:45Z</time>
      </trkpt>
      <trkpt lat="42.50025" lon="0.18009">
        <ele>1020.58</ele>
        <time>2014-06-03T10:10:59Z</time>
      </trkpt>
      <trkpt lat="42.50025" lon="0.1802">
        <ele>1021.54</ele>
        <time>2014-06-03T10:11:12Z</time>
      </trkpt>
      <trkpt lat="42.50024" lon="0.18026">
        <ele>1022.5</ele>
        <time>2014-06-03T10:11:17Z</time>
      </trkpt>
      <trkpt lat="42.50031" lon="0.18041">
        <ele>1023.94</ele>
        <time>2014-06-03T10:11:27Z</time>
      </trkpt>
      <trkpt lat="42.50039" lon="0.1806">
        <ele>1026.34</ele>
        <time>2014-06-03T10:11:40Z</time>
      </trkpt>
      <trkpt lat="42.50044" lon="0.18065">
        <ele>1026.83</ele>
        <time>2014-06-03T10:11:43Z</time>
      </trkpt>
      <trkpt lat="42.50054" lon="0.18081">
        <ele>1027.79</ele>
        <time>2014-06-03T10:11:52Z</time>
      </trkpt>
      <trkpt lat="42.50055" lon="0.18084">
        <ele>1028.27</ele>
        <time>2014-06-03T10:11:54Z</time>
      </trkpt>
      <trkpt lat="42.50072" lon="0.1811">
        <ele>1030.67</ele>
        <time>2014-06-03T10:12:11Z</time>
      </trkpt>
      <trkpt lat="42.50075" lon="0.18118">
        <ele>1031.63</ele>
        <time>2014-06-03T10:12:15Z</time>
      </trkpt>
      <trkpt lat="42.50074" lon="0.18126">
        <ele>1032.11</ele>
        <time>2014-06-03T10:12:20Z</time>
      </trkpt>
      <trkpt lat="42.50074" lon="0.18137">
        <ele>1033.55</ele>
        <time>2014-06-03T10:12:26Z</time>
      </trkpt>
      <trkpt lat="42.50075" lon="0.18144">
        <ele>1033.55</ele>
        <time>2014-06-03T10:12:31Z</time>
      </trkpt>
      <trkpt lat="42.50077" lon="0.18149">
        <ele>1034.52</ele>
        <time>2014-06-03T10:12:34Z</time>
      </trkpt>
      <trkpt lat="42.50084" lon="0.18167">
        <ele>1036.92</ele>
        <time>2014-06-03T10:12:45Z</time>
      </trkpt>
      <trkpt lat="42.50085" lon="0.18171">
        <ele>1036.92</ele>
        <time>2014-06-03T10:12:47Z</time>
      </trkpt>
      <trkpt lat="42.50084" lon="0.18199">
        <ele>1039.32</ele>
        <time>2014-06-03T10:13:01Z</time>
      </trkpt>
      <trkpt lat="42.50083" lon="0.18216">
        <ele>1040.28</ele>
        <time>2014-06-03T10:13:11Z</time>
      </trkpt>
      <trkpt lat="42.50089" lon="0.1822">
        <ele>1040.28</ele>
        <time>2014-06-03T10:13:15Z</time>
      </trkpt>
      <trkpt lat="42.50091" lon="0.18222">
        <ele>1040.76</ele>
        <time>2014-06-03T10:13:17Z</time>
      </trkpt>
      <trkpt lat="42.50109" lon="0.18223">
        <ele>1044.13</ele>
        <time>2014-06-03T10:13:32Z</time>
      </trkpt>
      <trkpt lat="42.50111" lon="0.18224">
        <ele>1043.65</ele>
        <time>2014-06-03T10:13:33Z</time>
      </trkpt>
      <trkpt lat="42.50121" lon="0.18227">
        <ele>1045.09</ele>
        <time>2014-06-03T10:13:39Z</time>
      </trkpt>
      <trkpt lat="42.50126" lon="0.18226">
        <ele>1045.57</ele>
        <time>2014-06-03T10:13:43Z</time>
      </trkpt>
      <trkpt lat="42.50153" lon="0.18233">
        <ele>1047.97</ele>
        <time>2014-06-03T10:13:58Z</time>
      </trkpt>
      <trkpt lat="42.50159" lon="0.18243">
        <ele>1048.94</ele>
        <time>2014-06-03T10:14:04Z</time>
      </trkpt>
      <trkpt lat="42.50159" lon="0.18252">
        <ele>1049.9</ele>
        <time>2014-06-03T10:14:10Z</time>
      </trkpt>
      <trkpt lat="42.50159" lon="0.18255">
        <ele>1050.38</ele>
        <time>2014-06-03T10:14:11Z</time>
      </trkpt>
      <trkpt lat="42.50156" lon="0.18265">
        <ele>1050.86</ele>
        <time>2014-06-03T10:14:17Z</time>
      </trkpt>
      <trkpt lat="42.50151" lon="0.18279">
        <ele>1052.78</ele>
        <time>2014-06-03T10:14:26Z</time>
      </trkpt>
      <trkpt lat="42.50146" lon="0.18285">
        <ele>1053.26</ele>
        <time>2014-06-03T10:14:31Z</time>
      </trkpt>
      <trkpt lat="42.50142" lon="0.1829">
        <ele>1054.22</ele>
        <time>2014-06-03T10:14:43Z</time>
      </trkpt>
      <trkpt lat="42.50142" lon="0.1829">
        <ele>1053.74</ele>
        <time>2014-06-03T10:15:06Z</time>
      </trkpt>
      <trkpt lat="42.50141" lon="0.1829">
        <ele>1053.74</ele>
        <time>2014-06-03T10:15:25Z</time>
      </trkpt>
      <trkpt lat="42.50141" lon="0.1829">
        <ele>1053.74</ele>
        <time>2014-06-03T10:15:59Z</time>
      </trkpt>
      <trkpt lat="42.50141" lon="0.18291">
        <ele>1053.74</ele>
        <time>2014-06-03T10:16:35Z</time>
      </trkpt>
      <trkpt lat="42.50141" lon="0.18291">
        <ele>1053.26</ele>
        <time>2014-06-03T10:17:06Z</time>
      </trkpt>
      <trkpt lat="42.50141" lon="0.18291">
        <ele>1053.26</ele>
        <time>2014-06-03T10:17:33Z</time>
      </trkpt>
      <trkpt lat="42.50141" lon="0.18291">
        <ele>1053.26</ele>
        <time>2014-06-03T10:17:41Z</time>
      </trkpt>
      <trkpt lat="42.50131" lon="0.18289">
        <ele>1054.7</ele>
        <time>2014-06-03T10:17:53Z</time>
      </trkpt>
      <trkpt lat="42.5012" lon="0.18291">
        <ele>1056.15</ele>
        <time>2014-06-03T10:18:05Z</time>
      </trkpt>
      <trkpt lat="42.5012" lon="0.18291">
        <ele>1056.15</ele>
        <time>2014-06-03T10:18:06Z</time>
      </trkpt>
      <trkpt lat="42.50113" lon="0.18292">
        <ele>1057.11</ele>
        <time>2014-06-03T10:18:12Z</time>
      </trkpt>
      <trkpt lat="42.50108" lon="0.18296">
        <ele>1058.07</ele>
        <time>2014-06-03T10:18:17Z</time>
      </trkpt>
      <trkpt lat="42.50092" lon="0.183">
        <ele>1059.99</ele>
        <time>2014-06-03T10:18:30Z</time>
      </trkpt>
      <trkpt lat="42.50085" lon="0.183">
        <ele>1060.47</ele>
        <time>2014-06-03T10:18:37Z</time>
      </trkpt>
      <trkpt lat="42.50061" lon="0.18307">
        <ele>1063.84</ele>
        <time>2014-06-03T10:18:53Z</time>
      </trkpt>
      <trkpt lat="42.50054" lon="0.18309">
        <ele>1065.28</ele>
        <time>2014-06-03T10:19:03Z</time>
      </trkpt>
      <trkpt lat="42.50043" lon="0.18286">
        <ele>1067.2</ele>
        <time>2014-06-03T10:19:16Z</time>
      </trkpt>
      <trkpt lat="42.50033" lon="0.18274">
        <ele>1068.16</ele>
        <time>2014-06-03T10:19:27Z</time>
      </trkpt>
      <trkpt lat="42.50024" lon="0.18272">
        <ele>1070.08</ele>
        <time>2014-06-03T10:19:35Z</time>
      </trkpt>
      <trkpt lat="42.50009" lon="0.18274">
        <ele>1071.53</ele>
        <time>2014-06-03T10:19:45Z</time>
      </trkpt>
      <trkpt lat="42.49995" lon="0.18262">
        <ele>1073.93</ele>
        <time>2014-06-03T10:19:59Z</time>
      </trkpt>
      <trkpt lat="42.49984" lon="0.18253">
        <ele>1074.41</ele>
        <time>2014-06-03T10:20:05Z</time>
      </trkpt>
      <trkpt lat="42.49975" lon="0.18236">
        <ele>1075.85</ele>
        <time>2014-06-03T10:20:16Z</time>
      </trkpt>
      <trkpt lat="42.49961" lon="0.18219">
        <ele>1078.26</ele>
        <time>2014-06-03T10:20:25Z</time>
      </trkpt>
      <trkpt lat="42.49942" lon="0.18205">
        <ele>1080.66</ele>
        <time>2014-06-03T10:20:39Z</time>
      </trkpt>
      <trkpt lat="42.49937" lon="0.182">
        <ele>1081.14</ele>
        <time>2014-06-03T10:20:43Z</time>
      </trkpt>
      <trkpt lat="42.49928" lon="0.18188">
        <ele>1082.58</ele>
        <time>2014-06-03T10:20:52Z</time>
      </trkpt>
      <trkpt lat="42.49909" lon="0.1819">
        <ele>1085.95</ele>
        <time>2014-06-03T10:21:05Z</time>
      </trkpt>
      <trkpt lat="42.49905" lon="0.18192">
        <ele>1085.95</ele>
        <time>2014-06-03T10:21:08Z</time>
      </trkpt>
      <trkpt lat="42.49901" lon="0.18197">
        <ele>1086.91</ele>
        <time>2014-06-03T10:21:13Z</time>
      </trkpt>
      <trkpt lat="42.49896" lon="0.18199">
        <ele>1087.87</ele>
        <time>2014-06-03T10:21:17Z</time>
      </trkpt>
      <trkpt lat="42.4988" lon="0.18196">
        <ele>1089.79</ele>
        <time>2014-06-03T10:21:28Z</time>
      </trkpt>
      <trkpt lat="42.49859" lon="0.18188">
        <ele>1091.71</ele>
        <time>2014-06-03T10:21:41Z</time>
      </trkpt>
      <trkpt lat="42.49845" lon="0.18189">
        <ele>1093.16</ele>
        <time>2014-06-03T10:21:48Z</time>
      </trkpt>
      <trkpt lat="42.49835" lon="0.18187">
        <ele>1093.64</ele>
        <time>2014-06-03T10:21:53Z</time>
      </trkpt>
      <trkpt lat="42.49813" lon="0.18174">
        <ele>1096.04</ele>
        <time>2014-06-03T10:22:06Z</time>
      </trkpt>
      <trkpt lat="42.49798" lon="0.1817">
        <ele>1097.48</ele>
        <time>2014-06-03T10:22:16Z</time>
      </trkpt>
      <trkpt lat="42.49787" lon="0.18163">
        <ele>1098.92</ele>
        <time>2014-06-03T10:22:29Z</time>
      </trkpt>
      <trkpt lat="42.49768" lon="0.18156">
        <ele>1102.29</ele>
        <time>2014-06-03T10:22:41Z</time>
      </trkpt>
      <trkpt lat="42.49748" lon="0.18143">
        <ele>1104.21</ele>
        <time>2014-06-03T10:22:53Z</time>
      </trkpt>
      <trkpt lat="42.49737" lon="0.18128">
        <ele>1105.17</ele>
        <time>2014-06-03T10:23:00Z</time>
      </trkpt>
      <trkpt lat="42.4973" lon="0.18108">
        <ele>1108.54</ele>
        <time>2014-06-03T10:23:14Z</time>
      </trkpt>
      <trkpt lat="42.49728" lon="0.181">
        <ele>1109.5</ele>
        <time>2014-06-03T10:23:18Z</time>
      </trkpt>
      <trkpt lat="42.49724" lon="0.18095">
        <ele>1109.98</ele>
        <time>2014-06-03T10:23:21Z</time>
      </trkpt>
      <trkpt lat="42.49713" lon="0.18094">
        <ele>1110.46</ele>
        <time>2014-06-03T10:23:26Z</time>
      </trkpt>
      <trkpt lat="42.49711" lon="0.181">
        <ele>1110.94</ele>
        <time>2014-06-03T10:23:30Z</time>
      </trkpt>
      <trkpt lat="42.49711" lon="0.18107">
        <ele>1111.42</ele>
        <time>2014-06-03T10:23:33Z</time>
      </trkpt>
      <trkpt lat="42.49725" lon="0.18135">
        <ele>1113.82</ele>
        <time>2014-06-03T10:23:48Z</time>
      </trkpt>
      <trkpt lat="42.49731" lon="0.18159">
        <ele>1115.27</ele>
        <time>2014-06-03T10:23:59Z</time>
      </trkpt>
      <trkpt lat="42.49731" lon="0.18189">
        <ele>1118.15</ele>
        <time>2014-06-03T10:24:14Z</time>
      </trkpt>
      <trkpt lat="42.49749" lon="0.18225">
        <ele>1120.07</ele>
        <time>2014-06-03T10:24:29Z</time>
      </trkpt>
      <trkpt lat="42.49764" lon="0.18255">
        <ele>1123.44</ele>
        <time>2014-06-03T10:24:41Z</time>
      </trkpt>
      <trkpt lat="42.49778" lon="0.1828">
        <ele>1125.84</ele>
        <time>2014-06-03T10:24:53Z</time>
      </trkpt>
      <trkpt lat="42.49794" lon="0.18304">
        <ele>1129.21</ele>
        <time>2014-06-03T10:25:06Z</time>
      </trkpt>
      <trkpt lat="42.49795" lon="0.18305">
        <ele>1128.73</ele>
        <time>2014-06-03T10:25:07Z</time>
      </trkpt>
      <trkpt lat="42.49807" lon="0.18327">
        <ele>1132.09</ele>
        <time>2014-06-03T10:25:20Z</time>
      </trkpt>
      <trkpt lat="42.49817" lon="0.18344">
        <ele>1133.53</ele>
        <time>2014-06-03T10:25:31Z</time>
      </trkpt>
      <trkpt lat="42.49816" lon="0.18361">
        <ele>1136.42</ele>
        <time>2014-06-03T10:25:43Z</time>
      </trkpt>
      <trkpt lat="42.49823" lon="0.1839">
        <ele>1139.3</ele>
        <time>2014-06-03T10:25:57Z</time>
      </trkpt>
      <trkpt lat="42.49823" lon="0.18394">
        <ele>1139.3</ele>
        <time>2014-06-03T10:25:59Z</time>
      </trkpt>
      <trkpt lat="42.49814" lon="0.18394">
        <ele>1140.26</ele>
        <time>2014-06-03T10:26:07Z</time>
      </trkpt>
      <trkpt lat="42.49811" lon="0.18384">
        <ele>1141.7</ele>
        <time>2014-06-03T10:26:13Z</time>
      </trkpt>
      <trkpt lat="42.49802" lon="0.18374">
        <ele>1142.66</ele>
        <time>2014-06-03T10:26:18Z</time>
      </trkpt>
      <trkpt lat="42.49799" lon="0.1837">
        <ele>1143.14</ele>
        <time>2014-06-03T10:26:20Z</time>
      </trkpt>
      <trkpt lat="42.49787" lon="0.18361">
        <ele>1144.11</ele>
        <time>2014-06-03T10:26:28Z</time>
      </trkpt>
      <trkpt lat="42.4976" lon="0.18348">
        <ele>1147.47</ele>
        <time>2014-06-03T10:26:46Z</time>
      </trkpt>
      <trkpt lat="42.49741" lon="0.18341">
        <ele>1149.87</ele>
        <time>2014-06-03T10:26:59Z</time>
      </trkpt>
      <trkpt lat="42.49737" lon="0.18339">
        <ele>1149.87</ele>
        <time>2014-06-03T10:27:01Z</time>
      </trkpt>
      <trkpt lat="42.49725" lon="0.18336">
        <ele>1151.32</ele>
        <time>2014-06-03T10:27:09Z</time>
      </trkpt>
      <trkpt lat="42.49719" lon="0.18334">
        <ele>1153.24</ele>
        <time>2014-06-03T10:27:13Z</time>
      </trkpt>
      <trkpt lat="42.4971" lon="0.18325">
        <ele>1154.2</ele>
        <time>2014-06-03T10:27:21Z</time>
      </trkpt>
      <trkpt lat="42.49698" lon="0.18314">
        <ele>1156.6</ele>
        <time>2014-06-03T10:27:29Z</time>
      </trkpt>
      <trkpt lat="42.49687" lon="0.18317">
        <ele>1158.05</ele>
        <time>2014-06-03T10:27:36Z</time>
      </trkpt>
      <trkpt lat="42.49703" lon="0.18348">
        <ele>1161.89</ele>
        <time>2014-06-03T10:27:53Z</time>
      </trkpt>
      <trkpt lat="42.49717" lon="0.18373">
        <ele>1164.29</ele>
        <time>2014-06-03T10:28:06Z</time>
      </trkpt>
      <trkpt lat="42.4973" lon="0.18394">
        <ele>1167.66</ele>
        <time>2014-06-03T10:28:17Z</time>
      </trkpt>
      <trkpt lat="42.49734" lon="0.18403">
        <ele>1169.1</ele>
        <time>2014-06-03T10:28:22Z</time>
      </trkpt>
      <trkpt lat="42.49747" lon="0.18429">
        <ele>1171.5</ele>
        <time>2014-06-03T10:28:34Z</time>
      </trkpt>
      <trkpt lat="42.49761" lon="0.18452">
        <ele>1174.87</ele>
        <time>2014-06-03T10:28:45Z</time>
      </trkpt>
      <trkpt lat="42.49762" lon="0.18454">
        <ele>1174.39</ele>
        <time>2014-06-03T10:28:46Z</time>
      </trkpt>
      <trkpt lat="42.49763" lon="0.18458">
        <ele>1174.87</ele>
        <time>2014-06-03T10:28:48Z</time>
      </trkpt>
      <trkpt lat="42.49769" lon="0.18461">
        <ele>1175.83</ele>
        <time>2014-06-03T10:28:52Z</time>
      </trkpt>
      <trkpt lat="42.49773" lon="0.1847">
        <ele>1176.31</ele>
        <time>2014-06-03T10:28:57Z</time>
      </trkpt>
      <trkpt lat="42.49774" lon="0.18477">
        <ele>1177.27</ele>
        <time>2014-06-03T10:29:00Z</time>
      </trkpt>
      <trkpt lat="42.4977" lon="0.18484">
        <ele>1178.71</ele>
        <time>2014-06-03T10:29:04Z</time>
      </trkpt>
      <trkpt lat="42.49753" lon="0.1848">
        <ele>1180.16</ele>
        <time>2014-06-03T10:29:14Z</time>
      </trkpt>
      <trkpt lat="42.49736" lon="0.18458">
        <ele>1183.04</ele>
        <time>2014-06-03T10:29:28Z</time>
      </trkpt>
      <trkpt lat="42.49732" lon="0.18454">
        <ele>1183.52</ele>
        <time>2014-06-03T10:29:31Z</time>
      </trkpt>
      <trkpt lat="42.49726" lon="0.18448">
        <ele>1184.48</ele>
        <time>2014-06-03T10:29:35Z</time>
      </trkpt>
      <trkpt lat="42.49706" lon="0.18431">
        <ele>1186.88</ele>
        <time>2014-06-03T10:29:50Z</time>
      </trkpt>
      <trkpt lat="42.49703" lon="0.18429">
        <ele>1187.85</ele>
        <time>2014-06-03T10:29:53Z</time>
      </trkpt>
      <trkpt lat="42.49694" lon="0.1843">
        <ele>1188.81</ele>
        <time>2014-06-03T10:29:59Z</time>
      </trkpt>
      <trkpt lat="42.49688" lon="0.18428">
        <ele>1190.25</ele>
        <time>2014-06-03T10:30:03Z</time>
      </trkpt>
      <trkpt lat="42.49666" lon="0.18417">
        <ele>1193.13</ele>
        <time>2014-06-03T10:30:17Z</time>
      </trkpt>
      <trkpt lat="42.49659" lon="0.18407">
        <ele>1195.54</ele>
        <time>2014-06-03T10:30:30Z</time>
      </trkpt>
      <trkpt lat="42.49642" lon="0.18386">
        <ele>1197.94</ele>
        <time>2014-06-03T10:30:41Z</time>
      </trkpt>
      <trkpt lat="42.49632" lon="0.18375">
        <ele>1198.42</ele>
        <time>2014-06-03T10:30:47Z</time>
      </trkpt>
      <trkpt lat="42.49627" lon="0.18369">
        <ele>1198.9</ele>
        <time>2014-06-03T10:30:50Z</time>
      </trkpt>
      <trkpt lat="42.49616" lon="0.18331">
        <ele>1201.79</ele>
        <time>2014-06-03T10:31:04Z</time>
      </trkpt>
      <trkpt lat="42.49613" lon="0.1832">
        <ele>1202.75</ele>
        <time>2014-06-03T10:31:09Z</time>
      </trkpt>
      <trkpt lat="42.4961" lon="0.18313">
        <ele>1203.71</ele>
        <time>2014-06-03T10:31:13Z</time>
      </trkpt>
      <trkpt lat="42.49606" lon="0.18308">
        <ele>1204.67</ele>
        <time>2014-06-03T10:31:17Z</time>
      </trkpt>
      <trkpt lat="42.49589" lon="0.18294">
        <ele>1207.55</ele>
        <time>2014-06-03T10:31:29Z</time>
      </trkpt>
      <trkpt lat="42.49588" lon="0.18294">
        <ele>1208.03</ele>
        <time>2014-06-03T10:31:30Z</time>
      </trkpt>
      <trkpt lat="42.49583" lon="0.18288">
        <ele>1208.51</ele>
        <time>2014-06-03T10:31:34Z</time>
      </trkpt>
      <trkpt lat="42.49567" lon="0.18269">
        <ele>1212.36</ele>
        <time>2014-06-03T10:31:48Z</time>
      </trkpt>
      <trkpt lat="42.49562" lon="0.18264">
        <ele>1213.32</ele>
        <time>2014-06-03T10:32:01Z</time>
      </trkpt>
      <trkpt lat="42.49562" lon="0.18265">
        <ele>1211.88</ele>
        <time>2014-06-03T10:32:37Z</time>
      </trkpt>
      <trkpt lat="42.49562" lon="0.18264">
        <ele>1212.36</ele>
        <time>2014-06-03T10:33:15Z</time>
      </trkpt>
      <trkpt lat="42.49564" lon="0.18263">
        <ele>1211.88</ele>
        <time>2014-06-03T10:33:18Z</time>
      </trkpt>
      <trkpt lat="42.49565" lon="0.18268">
        <ele>1212.36</ele>
        <time>2014-06-03T10:33:21Z</time>
      </trkpt>
      <trkpt lat="42.49562" lon="0.18271">
        <ele>1213.8</ele>
        <time>2014-06-03T10:33:33Z</time>
      </trkpt>
      <trkpt lat="42.49561" lon="0.18271">
        <ele>1212.84</ele>
        <time>2014-06-03T10:33:50Z</time>
      </trkpt>
      <trkpt lat="42.49561" lon="0.18271">
        <ele>1213.32</ele>
        <time>2014-06-03T10:34:22Z</time>
      </trkpt>
      <trkpt lat="42.49561" lon="0.18271">
        <ele>1213.32</ele>
        <time>2014-06-03T10:34:53Z</time>
      </trkpt>
      <trkpt lat="42.49561" lon="0.18271">
        <ele>1213.32</ele>
        <time>2014-06-03T10:35:31Z</time>
      </trkpt>
      <trkpt lat="42.49561" lon="0.1827">
        <ele>1213.8</ele>
        <time>2014-06-03T10:36:03Z</time>
      </trkpt>
      <trkpt lat="42.49561" lon="0.1827">
        <ele>1214.76</ele>
        <time>2014-06-03T10:36:40Z</time>
      </trkpt>
      <trkpt lat="42.49562" lon="0.1827">
        <ele>1214.28</ele>
        <time>2014-06-03T10:37:13Z</time>
      </trkpt>
      <trkpt lat="42.49561" lon="0.18271">
        <ele>1214.76</ele>
        <time>2014-06-03T10:37:44Z</time>
      </trkpt>
      <trkpt lat="42.49561" lon="0.18271">
        <ele>1214.76</ele>
        <time>2014-06-03T10:38:15Z</time>
      </trkpt>
      <trkpt lat="42.49561" lon="0.18271">
        <ele>1214.76</ele>
        <time>2014-06-03T10:38:41Z</time>
      </trkpt>
      <trkpt lat="42.49561" lon="0.18271">
        <ele>1214.28</ele>
        <time>2014-06-03T10:39:13Z</time>
      </trkpt>
      <trkpt lat="42.49561" lon="0.18271">
        <ele>1214.28</ele>
        <time>2014-06-03T10:39:45Z</time>
      </trkpt>
      <trkpt lat="42.49561" lon="0.18272">
        <ele>1214.76</ele>
        <time>2014-06-03T10:40:15Z</time>
      </trkpt>
      <trkpt lat="42.49561" lon="0.18272">
        <ele>1214.76</ele>
        <time>2014-06-03T10:40:33Z</time>
      </trkpt>
      <trkpt lat="42.49561" lon="0.18272">
        <ele>1214.28</ele>
        <time>2014-06-03T10:40:36Z</time>
      </trkpt>
      <trkpt lat="42.4956" lon="0.18278">
        <ele>1214.28</ele>
        <time>2014-06-03T10:40:41Z</time>
      </trkpt>
      <trkpt lat="42.49558" lon="0.18287">
        <ele>1215.72</ele>
        <time>2014-06-03T10:40:46Z</time>
      </trkpt>
      <trkpt lat="42.49562" lon="0.18295">
        <ele>1216.21</ele>
        <time>2014-06-03T10:40:52Z</time>
      </trkpt>
      <trkpt lat="42.49569" lon="0.18302">
        <ele>1217.17</ele>
        <time>2014-06-03T10:40:57Z</time>
      </trkpt>
      <trkpt lat="42.49579" lon="0.18311">
        <ele>1218.61</ele>
        <time>2014-06-03T10:41:04Z</time>
      </trkpt>
      <trkpt lat="42.49584" lon="0.18328">
        <ele>1220.53</ele>
        <time>2014-06-03T10:41:14Z</time>
      </trkpt>
      <trkpt lat="42.49587" lon="0.18341">
        <ele>1221.49</ele>
        <time>2014-06-03T10:41:21Z</time>
      </trkpt>
      <trkpt lat="42.49587" lon="0.18346">
        <ele>1222.45</ele>
        <time>2014-06-03T10:41:24Z</time>
      </trkpt>
      <trkpt lat="42.49582" lon="0.18377">
        <ele>1224.86</ele>
        <time>2014-06-03T10:41:39Z</time>
      </trkpt>
      <trkpt lat="42.49582" lon="0.18407">
        <ele>1227.26</ele>
        <time>2014-06-03T10:41:54Z</time>
      </trkpt>
      <trkpt lat="42.49583" lon="0.18415">
        <ele>1227.74</ele>
        <time>2014-06-03T10:41:59Z</time>
      </trkpt>
      <trkpt lat="42.49588" lon="0.1843">
        <ele>1231.11</ele>
        <time>2014-06-03T10:42:07Z</time>
      </trkpt>
      <trkpt lat="42.49588" lon="0.18434">
        <ele>1229.18</ele>
        <time>2014-06-03T10:42:09Z</time>
      </trkpt>
      <trkpt lat="42.49593" lon="0.18445">
        <ele>1230.14</ele>
        <time>2014-06-03T10:42:16Z</time>
      </trkpt>
      <trkpt lat="42.49597" lon="0.18451">
        <ele>1231.11</ele>
        <time>2014-06-03T10:42:20Z</time>
      </trkpt>
      <trkpt lat="42.4961" lon="0.18473">
        <ele>1233.03</ele>
        <time>2014-06-03T10:42:33Z</time>
      </trkpt>
      <trkpt lat="42.49623" lon="0.18491">
        <ele>1235.43</ele>
        <time>2014-06-03T10:42:46Z</time>
      </trkpt>
      <trkpt lat="42.49639" lon="0.18515">
        <ele>1237.35</ele>
        <time>2014-06-03T10:42:59Z</time>
      </trkpt>
      <trkpt lat="42.49654" lon="0.1853">
        <ele>1240.24</ele>
        <time>2014-06-03T10:43:11Z</time>
      </trkpt>
      <trkpt lat="42.49658" lon="0.18541">
        <ele>1241.2</ele>
        <time>2014-06-03T10:43:18Z</time>
      </trkpt>
      <trkpt lat="42.49669" lon="0.18564">
        <ele>1244.08</ele>
        <time>2014-06-03T10:43:32Z</time>
      </trkpt>
      <trkpt lat="42.49672" lon="0.1857">
        <ele>1244.56</ele>
        <time>2014-06-03T10:43:36Z</time>
      </trkpt>
      <trkpt lat="42.49677" lon="0.1858">
        <ele>1245.53</ele>
        <time>2014-06-03T10:43:43Z</time>
      </trkpt>
      <trkpt lat="42.49689" lon="0.18601">
        <ele>1247.45</ele>
        <time>2014-06-03T10:43:56Z</time>
      </trkpt>
      <trkpt lat="42.49697" lon="0.18613">
        <ele>1248.89</ele>
        <time>2014-06-03T10:44:05Z</time>
      </trkpt>
      <trkpt lat="42.49704" lon="0.18621">
        <ele>1249.37</ele>
        <time>2014-06-03T10:44:11Z</time>
      </trkpt>
      <trkpt lat="42.49708" lon="0.18625">
        <ele>1250.81</ele>
        <time>2014-06-03T10:44:14Z</time>
      </trkpt>
      <trkpt lat="42.49717" lon="0.18638">
        <ele>1252.25</ele>
        <time>2014-06-03T10:44:23Z</time>
      </trkpt>
      <trkpt lat="42.49728" lon="0.18655">
        <ele>1255.62</ele>
        <time>2014-06-03T10:44:38Z</time>
      </trkpt>
      <trkpt lat="42.49739" lon="0.18671">
        <ele>1257.06</ele>
        <time>2014-06-03T10:44:47Z</time>
      </trkpt>
      <trkpt lat="42.49749" lon="0.18687">
        <ele>1258.98</ele>
        <time>2014-06-03T10:44:57Z</time>
      </trkpt>
      <trkpt lat="42.49751" lon="0.18689">
        <ele>1259.46</ele>
        <time>2014-06-03T10:44:59Z</time>
      </trkpt>
      <trkpt lat="42.49754" lon="0.18692">
        <ele>1259.94</ele>
        <time>2014-06-03T10:45:02Z</time>
      </trkpt>
      <trkpt lat="42.49766" lon="0.18705">
        <ele>1261.87</ele>
        <time>2014-06-03T10:45:11Z</time>
      </trkpt>
      <trkpt lat="42.49784" lon="0.18716">
        <ele>1264.27</ele>
        <time>2014-06-03T10:45:23Z</time>
      </trkpt>
      <trkpt lat="42.49797" lon="0.18737">
        <ele>1266.19</ele>
        <time>2014-06-03T10:45:37Z</time>
      </trkpt>
      <trkpt lat="42.49815" lon="0.18747">
        <ele>1268.6</ele>
        <time>2014-06-03T10:45:49Z</time>
      </trkpt>
      <trkpt lat="42.49834" lon="0.18753">
        <ele>1271</ele>
        <time>2014-06-03T10:46:02Z</time>
      </trkpt>
      <trkpt lat="42.49838" lon="0.18755">
        <ele>1271.48</ele>
        <time>2014-06-03T10:46:05Z</time>
      </trkpt>
      <trkpt lat="42.49843" lon="0.18758">
        <ele>1272.44</ele>
        <time>2014-06-03T10:46:10Z</time>
      </trkpt>
      <trkpt lat="42.49851" lon="0.18764">
        <ele>1273.88</ele>
        <time>2014-06-03T10:46:15Z</time>
      </trkpt>
      <trkpt lat="42.49855" lon="0.1877">
        <ele>1274.36</ele>
        <time>2014-06-03T10:46:19Z</time>
      </trkpt>
      <trkpt lat="42.49862" lon="0.18776">
        <ele>1275.81</ele>
        <time>2014-06-03T10:46:29Z</time>
      </trkpt>
      <trkpt lat="42.4987" lon="0.18794">
        <ele>1277.73</ele>
        <time>2014-06-03T10:46:40Z</time>
      </trkpt>
      <trkpt lat="42.49873" lon="0.18815">
        <ele>1279.65</ele>
        <time>2014-06-03T10:46:53Z</time>
      </trkpt>
      <trkpt lat="42.49889" lon="0.18832">
        <ele>1281.57</ele>
        <time>2014-06-03T10:47:07Z</time>
      </trkpt>
      <trkpt lat="42.49907" lon="0.18836">
        <ele>1283.02</ele>
        <time>2014-06-03T10:47:20Z</time>
      </trkpt>
      <trkpt lat="42.4991" lon="0.18835">
        <ele>1283.02</ele>
        <time>2014-06-03T10:47:22Z</time>
      </trkpt>
      <trkpt lat="42.49923" lon="0.18831">
        <ele>1284.94</ele>
        <time>2014-06-03T10:47:31Z</time>
      </trkpt>
      <trkpt lat="42.49929" lon="0.18831">
        <ele>1285.9</ele>
        <time>2014-06-03T10:47:34Z</time>
      </trkpt>
      <trkpt lat="42.49939" lon="0.18854">
        <ele>1290.71</ele>
        <time>2014-06-03T10:47:46Z</time>
      </trkpt>
      <trkpt lat="42.49928" lon="0.18879">
        <ele>1291.19</ele>
        <time>2014-06-03T10:47:59Z</time>
      </trkpt>
      <trkpt lat="42.49909" lon="0.18896">
        <ele>1294.07</ele>
        <time>2014-06-03T10:48:13Z</time>
      </trkpt>
      <trkpt lat="42.49901" lon="0.18898">
        <ele>1295.03</ele>
        <time>2014-06-03T10:48:19Z</time>
      </trkpt>
      <trkpt lat="42.49893" lon="0.18897">
        <ele>1295.03</ele>
        <time>2014-06-03T10:48:25Z</time>
      </trkpt>
      <trkpt lat="42.49879" lon="0.18895">
        <ele>1296.96</ele>
        <time>2014-06-03T10:48:35Z</time>
      </trkpt>
      <trkpt lat="42.49872" lon="0.18894">
        <ele>1298.4</ele>
        <time>2014-06-03T10:48:40Z</time>
      </trkpt>
      <trkpt lat="42.49855" lon="0.18887">
        <ele>1300.8</ele>
        <time>2014-06-03T10:48:54Z</time>
      </trkpt>
      <trkpt lat="42.49841" lon="0.1888">
        <ele>1300.8</ele>
        <time>2014-06-03T10:49:05Z</time>
      </trkpt>
      <trkpt lat="42.49838" lon="0.18879">
        <ele>1302.72</ele>
        <time>2014-06-03T10:49:07Z</time>
      </trkpt>
      <trkpt lat="42.49825" lon="0.18869">
        <ele>1304.65</ele>
        <time>2014-06-03T10:49:21Z</time>
      </trkpt>
      <trkpt lat="42.49824" lon="0.18868">
        <ele>1305.13</ele>
        <time>2014-06-03T10:49:22Z</time>
      </trkpt>
      <trkpt lat="42.49817" lon="0.18862">
        <ele>1305.61</ele>
        <time>2014-06-03T10:49:29Z</time>
      </trkpt>
      <trkpt lat="42.49806" lon="0.18852">
        <ele>1307.53</ele>
        <time>2014-06-03T10:49:39Z</time>
      </trkpt>
      <trkpt lat="42.49783" lon="0.18845">
        <ele>1310.41</ele>
        <time>2014-06-03T10:49:57Z</time>
      </trkpt>
      <trkpt lat="42.49771" lon="0.18842">
        <ele>1312.34</ele>
        <time>2014-06-03T10:50:07Z</time>
      </trkpt>
      <trkpt lat="42.49752" lon="0.18835">
        <ele>1314.74</ele>
        <time>2014-06-03T10:50:22Z</time>
      </trkpt>
      <trkpt lat="42.4974" lon="0.18836">
        <ele>1316.18</ele>
        <time>2014-06-03T10:50:31Z</time>
      </trkpt>
      <trkpt lat="42.4974" lon="0.18843">
        <ele>1317.14</ele>
        <time>2014-06-03T10:50:36Z</time>
      </trkpt>
      <trkpt lat="42.49741" lon="0.18845">
        <ele>1317.14</ele>
        <time>2014-06-03T10:50:38Z</time>
      </trkpt>
      <trkpt lat="42.49746" lon="0.18847">
        <ele>1317.62</ele>
        <time>2014-06-03T10:50:41Z</time>
      </trkpt>
      <trkpt lat="42.49755" lon="0.18851">
        <ele>1319.07</ele>
        <time>2014-06-03T10:50:48Z</time>
      </trkpt>
      <trkpt lat="42.49766" lon="0.18861">
        <ele>1322.43</ele>
        <time>2014-06-03T10:51:00Z</time>
      </trkpt>
      <trkpt lat="42.49768" lon="0.18864">
        <ele>1323.39</ele>
        <time>2014-06-03T10:51:02Z</time>
      </trkpt>
      <trkpt lat="42.4977" lon="0.18866">
        <ele>1322.91</ele>
        <time>2014-06-03T10:51:04Z</time>
      </trkpt>
      <trkpt lat="42.4978" lon="0.18877">
        <ele>1323.87</ele>
        <time>2014-06-03T10:51:17Z</time>
      </trkpt>
      <trkpt lat="42.4979" lon="0.18891">
        <ele>1326.28</ele>
        <time>2014-06-03T10:51:29Z</time>
      </trkpt>
      <trkpt lat="42.49802" lon="0.18914">
        <ele>1328.2</ele>
        <time>2014-06-03T10:51:42Z</time>
      </trkpt>
      <trkpt lat="42.49814" lon="0.1893">
        <ele>1329.64</ele>
        <time>2014-06-03T10:51:55Z</time>
      </trkpt>
      <trkpt lat="42.49814" lon="0.18931">
        <ele>1330.12</ele>
        <time>2014-06-03T10:51:56Z</time>
      </trkpt>
      <trkpt lat="42.49815" lon="0.18934">
        <ele>1330.12</ele>
        <time>2014-06-03T10:51:58Z</time>
      </trkpt>
      <trkpt lat="42.49821" lon="0.18947">
        <ele>1331.08</ele>
        <time>2014-06-03T10:52:13Z</time>
      </trkpt>
      <trkpt lat="42.49822" lon="0.18947">
        <ele>1331.08</ele>
        <time>2014-06-03T10:52:14Z</time>
      </trkpt>
      <trkpt lat="42.49832" lon="0.18974">
        <ele>1333.49</ele>
        <time>2014-06-03T10:52:29Z</time>
      </trkpt>
      <trkpt lat="42.49834" lon="0.18977">
        <ele>1334.45</ele>
        <time>2014-06-03T10:52:31Z</time>
      </trkpt>
      <trkpt lat="42.49834" lon="0.1898">
        <ele>1334.93</ele>
        <time>2014-06-03T10:52:32Z</time>
      </trkpt>
      <trkpt lat="42.49837" lon="0.18989">
        <ele>1335.89</ele>
        <time>2014-06-03T10:52:46Z</time>
      </trkpt>
      <trkpt lat="42.49837" lon="0.18989">
        <ele>1335.41</ele>
        <time>2014-06-03T10:53:10Z</time>
      </trkpt>
      <trkpt lat="42.49837" lon="0.1899">
        <ele>1336.37</ele>
        <time>2014-06-03T10:53:42Z</time>
      </trkpt>
      <trkpt lat="42.49841" lon="0.19008">
        <ele>1338.29</ele>
        <time>2014-06-03T10:53:54Z</time>
      </trkpt>
      <trkpt lat="42.4984" lon="0.19009">
        <ele>1337.81</ele>
        <time>2014-06-03T10:53:55Z</time>
      </trkpt>
      <trkpt lat="42.49841" lon="0.19022">
        <ele>1338.77</ele>
        <time>2014-06-03T10:54:03Z</time>
      </trkpt>
      <trkpt lat="42.49843" lon="0.19025">
        <ele>1339.73</ele>
        <time>2014-06-03T10:54:06Z</time>
      </trkpt>
      <trkpt lat="42.49845" lon="0.19044">
        <ele>1342.14</ele>
        <time>2014-06-03T10:54:22Z</time>
      </trkpt>
      <trkpt lat="42.49846" lon="0.19056">
        <ele>1343.58</ele>
        <time>2014-06-03T10:54:32Z</time>
      </trkpt>
      <trkpt lat="42.49845" lon="0.1907">
        <ele>1344.06</ele>
        <time>2014-06-03T10:54:38Z</time>
      </trkpt>
      <trkpt lat="42.49849" lon="0.19091">
        <ele>1346.46</ele>
        <time>2014-06-03T10:54:47Z</time>
      </trkpt>
      <trkpt lat="42.4985" lon="0.19099">
        <ele>1347.43</ele>
        <time>2014-06-03T10:54:51Z</time>
      </trkpt>
      <trkpt lat="42.49852" lon="0.19124">
        <ele>1349.83</ele>
        <time>2014-06-03T10:55:04Z</time>
      </trkpt>
      <trkpt lat="42.49859" lon="0.19156">
        <ele>1351.75</ele>
        <time>2014-06-03T10:55:19Z</time>
      </trkpt>
      <trkpt lat="42.49859" lon="0.19158">
        <ele>1352.23</ele>
        <time>2014-06-03T10:55:20Z</time>
      </trkpt>
      <trkpt lat="42.49859" lon="0.19165">
        <ele>1352.71</ele>
        <time>2014-06-03T10:55:24Z</time>
      </trkpt>
      <trkpt lat="42.49859" lon="0.19174">
        <ele>1354.15</ele>
        <time>2014-06-03T10:55:29Z</time>
      </trkpt>
      <trkpt lat="42.49861" lon="0.19208">
        <ele>1357.04</ele>
        <time>2014-06-03T10:55:46Z</time>
      </trkpt>
      <trkpt lat="42.49864" lon="0.19226">
        <ele>1358</ele>
        <time>2014-06-03T10:55:56Z</time>
      </trkpt>
      <trkpt lat="42.49872" lon="0.19258">
        <ele>1361.36</ele>
        <time>2014-06-03T10:56:14Z</time>
      </trkpt>
      <trkpt lat="42.49877" lon="0.19284">
        <ele>1363.77</ele>
        <time>2014-06-03T10:56:27Z</time>
      </trkpt>
      <trkpt lat="42.49879" lon="0.19307">
        <ele>1365.69</ele>
        <time>2014-06-03T10:56:38Z</time>
      </trkpt>
      <trkpt lat="42.49884" lon="0.19338">
        <ele>1369.05</ele>
        <time>2014-06-03T10:56:55Z</time>
      </trkpt>
      <trkpt lat="42.49884" lon="0.19339">
        <ele>1369.54</ele>
        <time>2014-06-03T10:56:56Z</time>
      </trkpt>
      <trkpt lat="42.49885" lon="0.19344">
        <ele>1370.02</ele>
        <time>2014-06-03T10:56:59Z</time>
      </trkpt>
      <trkpt lat="42.49891" lon="0.19374">
        <ele>1372.42</ele>
        <time>2014-06-03T10:57:16Z</time>
      </trkpt>
      <trkpt lat="42.49893" lon="0.19389">
        <ele>1375.3</ele>
        <time>2014-06-03T10:57:25Z</time>
      </trkpt>
      <trkpt lat="42.49897" lon="0.19413">
        <ele>1376.75</ele>
        <time>2014-06-03T10:57:38Z</time>
      </trkpt>
      <trkpt lat="42.49898" lon="0.1944">
        <ele>1378.67</ele>
        <time>2014-06-03T10:57:54Z</time>
      </trkpt>
      <trkpt lat="42.49898" lon="0.19444">
        <ele>1378.67</ele>
        <time>2014-06-03T10:57:57Z</time>
      </trkpt>
      <trkpt lat="42.49899" lon="0.19454">
        <ele>1380.11</ele>
        <time>2014-06-03T10:58:03Z</time>
      </trkpt>
      <trkpt lat="42.49902" lon="0.19464">
        <ele>1380.59</ele>
        <time>2014-06-03T10:58:10Z</time>
      </trkpt>
      <trkpt lat="42.49904" lon="0.19496">
        <ele>1383.47</ele>
        <time>2014-06-03T10:58:28Z</time>
      </trkpt>
      <trkpt lat="42.49906" lon="0.19515">
        <ele>1384.92</ele>
        <time>2014-06-03T10:58:39Z</time>
      </trkpt>
      <trkpt lat="42.49909" lon="0.19526">
        <ele>1386.36</ele>
        <time>2014-06-03T10:58:46Z</time>
      </trkpt>
      <trkpt lat="42.4991" lon="0.19535">
        <ele>1387.32</ele>
        <time>2014-06-03T10:58:52Z</time>
      </trkpt>
      <trkpt lat="42.49912" lon="0.19542">
        <ele>1388.28</ele>
        <time>2014-06-03T10:58:57Z</time>
      </trkpt>
      <trkpt lat="42.49912" lon="0.19546">
        <ele>1388.76</ele>
        <time>2014-06-03T10:58:59Z</time>
      </trkpt>
      <trkpt lat="42.49913" lon="0.19549">
        <ele>1388.28</ele>
        <time>2014-06-03T10:59:01Z</time>
      </trkpt>
      <trkpt lat="42.49913" lon="0.19574">
        <ele>1390.68</ele>
        <time>2014-06-03T10:59:17Z</time>
      </trkpt>
      <trkpt lat="42.49914" lon="0.19583">
        <ele>1391.17</ele>
        <time>2014-06-03T10:59:23Z</time>
      </trkpt>
      <trkpt lat="42.49916" lon="0.19604">
        <ele>1393.09</ele>
        <time>2014-06-03T10:59:36Z</time>
      </trkpt>
      <trkpt lat="42.49916" lon="0.19623">
        <ele>1394.53</ele>
        <time>2014-06-03T10:59:48Z</time>
      </trkpt>
      <trkpt lat="42.49917" lon="0.19635">
        <ele>1395.49</ele>
        <time>2014-06-03T11:00:02Z</time>
      </trkpt>
      <trkpt lat="42.49916" lon="0.19636">
        <ele>1395.97</ele>
        <time>2014-06-03T11:00:15Z</time>
      </trkpt>
      <trkpt lat="42.49916" lon="0.19644">
        <ele>1395.49</ele>
        <time>2014-06-03T11:00:19Z</time>
      </trkpt>
      <trkpt lat="42.49918" lon="0.19663">
        <ele>1397.41</ele>
        <time>2014-06-03T11:00:32Z</time>
      </trkpt>
      <trkpt lat="42.49921" lon="0.19678">
        <ele>1398.37</ele>
        <time>2014-06-03T11:00:43Z</time>
      </trkpt>
      <trkpt lat="42.49922" lon="0.19687">
        <ele>1399.82</ele>
        <time>2014-06-03T11:00:48Z</time>
      </trkpt>
      <trkpt lat="42.49922" lon="0.19699">
        <ele>1400.3</ele>
        <time>2014-06-03T11:00:56Z</time>
      </trkpt>
      <trkpt lat="42.4992" lon="0.1972">
        <ele>1401.74</ele>
        <time>2014-06-03T11:01:12Z</time>
      </trkpt>
      <trkpt lat="42.49919" lon="0.19729">
        <ele>1403.18</ele>
        <time>2014-06-03T11:01:18Z</time>
      </trkpt>
      <trkpt lat="42.49919" lon="0.19735">
        <ele>1404.14</ele>
        <time>2014-06-03T11:01:22Z</time>
      </trkpt>
      <trkpt lat="42.49918" lon="0.19762">
        <ele>1406.55</ele>
        <time>2014-06-03T11:01:39Z</time>
      </trkpt>
      <trkpt lat="42.49918" lon="0.19792">
        <ele>1409.43</ele>
        <time>2014-06-03T11:01:53Z</time>
      </trkpt>
      <trkpt lat="42.49917" lon="0.19807">
        <ele>1411.35</ele>
        <time>2014-06-03T11:02:01Z</time>
      </trkpt>
      <trkpt lat="42.49917" lon="0.1982">
        <ele>1411.83</ele>
        <time>2014-06-03T11:02:07Z</time>
      </trkpt>
      <trkpt lat="42.4992" lon="0.1985">
        <ele>1414.72</ele>
        <time>2014-06-03T11:02:23Z</time>
      </trkpt>
      <trkpt lat="42.49924" lon="0.19877">
        <ele>1416.64</ele>
        <time>2014-06-03T11:02:39Z</time>
      </trkpt>
      <trkpt lat="42.49924" lon="0.19878">
        <ele>1417.12</ele>
        <time>2014-06-03T11:02:40Z</time>
      </trkpt>
      <trkpt lat="42.49926" lon="0.19891">
        <ele>1418.08</ele>
        <time>2014-06-03T11:02:55Z</time>
      </trkpt>
      <trkpt lat="42.49926" lon="0.19891">
        <ele>1417.12</ele>
        <time>2014-06-03T11:03:07Z</time>
      </trkpt>
      <trkpt lat="42.49925" lon="0.19891">
        <ele>1418.08</ele>
        <time>2014-06-03T11:03:29Z</time>
      </trkpt>
      <trkpt lat="42.49928" lon="0.19894">
        <ele>1418.56</ele>
        <time>2014-06-03T11:03:43Z</time>
      </trkpt>
      <trkpt lat="42.49927" lon="0.19894">
        <ele>1418.56</ele>
        <time>2014-06-03T11:03:58Z</time>
      </trkpt>
      <trkpt lat="42.49927" lon="0.19894">
        <ele>1419.04</ele>
        <time>2014-06-03T11:04:29Z</time>
      </trkpt>
      <trkpt lat="42.49927" lon="0.19894">
        <ele>1419.04</ele>
        <time>2014-06-03T11:04:51Z</time>
      </trkpt>
      <trkpt lat="42.49927" lon="0.19894">
        <ele>1419.04</ele>
        <time>2014-06-03T11:05:19Z</time>
      </trkpt>
      <trkpt lat="42.49928" lon="0.199">
        <ele>1419.52</ele>
        <time>2014-06-03T11:05:32Z</time>
      </trkpt>
      <trkpt lat="42.49929" lon="0.19906">
        <ele>1419.52</ele>
        <time>2014-06-03T11:05:36Z</time>
      </trkpt>
      <trkpt lat="42.4993" lon="0.19919">
        <ele>1420.97</ele>
        <time>2014-06-03T11:05:46Z</time>
      </trkpt>
      <trkpt lat="42.49932" lon="0.19933">
        <ele>1422.89</ele>
        <time>2014-06-03T11:05:55Z</time>
      </trkpt>
      <trkpt lat="42.49935" lon="0.19942">
        <ele>1423.37</ele>
        <time>2014-06-03T11:06:01Z</time>
      </trkpt>
      <trkpt lat="42.49932" lon="0.1997">
        <ele>1426.73</ele>
        <time>2014-06-03T11:06:15Z</time>
      </trkpt>
      <trkpt lat="42.49931" lon="0.19983">
        <ele>1427.21</ele>
        <time>2014-06-03T11:06:22Z</time>
      </trkpt>
      <trkpt lat="42.4994" lon="0.20002">
        <ele>1430.58</ele>
        <time>2014-06-03T11:06:35Z</time>
      </trkpt>
      <trkpt lat="42.49944" lon="0.20027">
        <ele>1432.98</ele>
        <time>2014-06-03T11:06:49Z</time>
      </trkpt>
      <trkpt lat="42.49945" lon="0.20032">
        <ele>1433.46</ele>
        <time>2014-06-03T11:06:52Z</time>
      </trkpt>
      <trkpt lat="42.49947" lon="0.20047">
        <ele>1434.42</ele>
        <time>2014-06-03T11:07:01Z</time>
      </trkpt>
      <trkpt lat="42.49945" lon="0.2007">
        <ele>1436.35</ele>
        <time>2014-06-03T11:07:14Z</time>
      </trkpt>
      <trkpt lat="42.49946" lon="0.20077">
        <ele>1436.83</ele>
        <time>2014-06-03T11:07:28Z</time>
      </trkpt>
      <trkpt lat="42.49947" lon="0.20089">
        <ele>1438.27</ele>
        <time>2014-06-03T11:07:47Z</time>
      </trkpt>
      <trkpt lat="42.49945" lon="0.20097">
        <ele>1438.75</ele>
        <time>2014-06-03T11:07:51Z</time>
      </trkpt>
      <trkpt lat="42.49946" lon="0.20109">
        <ele>1440.19</ele>
        <time>2014-06-03T11:07:56Z</time>
      </trkpt>
      <trkpt lat="42.49948" lon="0.20115">
        <ele>1440.19</ele>
        <time>2014-06-03T11:07:59Z</time>
      </trkpt>
      <trkpt lat="42.49957" lon="0.20127">
        <ele>1442.11</ele>
        <time>2014-06-03T11:08:08Z</time>
      </trkpt>
      <trkpt lat="42.49958" lon="0.20134">
        <ele>1446.44</ele>
        <time>2014-06-03T11:08:12Z</time>
      </trkpt>
      <trkpt lat="42.49959" lon="0.20148">
        <ele>1445.48</ele>
        <time>2014-06-03T11:08:21Z</time>
      </trkpt>
      <trkpt lat="42.49958" lon="0.20154">
        <ele>1446.44</ele>
        <time>2014-06-03T11:08:25Z</time>
      </trkpt>
      <trkpt lat="42.49958" lon="0.2016">
        <ele>1447.4</ele>
        <time>2014-06-03T11:08:29Z</time>
      </trkpt>
      <trkpt lat="42.49954" lon="0.20167">
        <ele>1448.36</ele>
        <time>2014-06-03T11:08:33Z</time>
      </trkpt>
      <trkpt lat="42.49945" lon="0.20175">
        <ele>1450.29</ele>
        <time>2014-06-03T11:08:41Z</time>
      </trkpt>
      <trkpt lat="42.49929" lon="0.20177">
        <ele>1452.21</ele>
        <time>2014-06-03T11:08:53Z</time>
      </trkpt>
      <trkpt lat="42.49924" lon="0.20167">
        <ele>1454.13</ele>
        <time>2014-06-03T11:09:02Z</time>
      </trkpt>
      <trkpt lat="42.49916" lon="0.20143">
        <ele>1457.02</ele>
        <time>2014-06-03T11:09:17Z</time>
      </trkpt>
      <trkpt lat="42.49905" lon="0.20134">
        <ele>1458.94</ele>
        <time>2014-06-03T11:09:27Z</time>
      </trkpt>
      <trkpt lat="42.49903" lon="0.20132">
        <ele>1458.94</ele>
        <time>2014-06-03T11:09:30Z</time>
      </trkpt>
      <trkpt lat="42.499" lon="0.20121">
        <ele>1460.38</ele>
        <time>2014-06-03T11:09:36Z</time>
      </trkpt>
      <trkpt lat="42.49901" lon="0.20102">
        <ele>1461.82</ele>
        <time>2014-06-03T11:09:46Z</time>
      </trkpt>
      <trkpt lat="42.499" lon="0.20095">
        <ele>1461.82</ele>
        <time>2014-06-03T11:09:50Z</time>
      </trkpt>
      <trkpt lat="42.49894" lon="0.20073">
        <ele>1463.26</ele>
        <time>2014-06-03T11:10:03Z</time>
      </trkpt>
      <trkpt lat="42.49891" lon="0.20059">
        <ele>1464.71</ele>
        <time>2014-06-03T11:10:10Z</time>
      </trkpt>
      <trkpt lat="42.49886" lon="0.20052">
        <ele>1465.19</ele>
        <time>2014-06-03T11:10:15Z</time>
      </trkpt>
      <trkpt lat="42.49866" lon="0.20041">
        <ele>1469.51</ele>
        <time>2014-06-03T11:10:30Z</time>
      </trkpt>
      <trkpt lat="42.49861" lon="0.2004">
        <ele>1468.07</ele>
        <time>2014-06-03T11:10:33Z</time>
      </trkpt>
      <trkpt lat="42.49852" lon="0.20028">
        <ele>1469.51</ele>
        <time>2014-06-03T11:10:41Z</time>
      </trkpt>
      <trkpt lat="42.49843" lon="0.20005">
        <ele>1471.44</ele>
        <time>2014-06-03T11:10:56Z</time>
      </trkpt>
      <trkpt lat="42.49848" lon="0.19981">
        <ele>1469.51</ele>
        <time>2014-06-03T11:11:08Z</time>
      </trkpt>
      <trkpt lat="42.49848" lon="0.19982">
        <ele>1469.51</ele>
        <time>2014-06-03T11:11:17Z</time>
      </trkpt>
      <trkpt lat="42.49852" lon="0.19976">
        <ele>1468.07</ele>
        <time>2014-06-03T11:11:20Z</time>
      </trkpt>
      <trkpt lat="42.49853" lon="0.19962">
        <ele>1466.63</ele>
        <time>2014-06-03T11:11:23Z</time>
      </trkpt>
      <trkpt lat="42.49852" lon="0.19952">
        <ele>1465.67</ele>
        <time>2014-06-03T11:11:25Z</time>
      </trkpt>
      <trkpt lat="42.49849" lon="0.19938">
        <ele>1463.74</ele>
        <time>2014-06-03T11:11:30Z</time>
      </trkpt>
      <trkpt lat="42.49847" lon="0.19932">
        <ele>1463.74</ele>
        <time>2014-06-03T11:11:43Z</time>
      </trkpt>
      <trkpt lat="42.49847" lon="0.19932">
        <ele>1464.23</ele>
        <time>2014-06-03T11:12:11Z</time>
      </trkpt>
      <trkpt lat="42.49847" lon="0.19932">
        <ele>1464.23</ele>
        <time>2014-06-03T11:12:43Z</time>
      </trkpt>
      <trkpt lat="42.49847" lon="0.19932">
        <ele>1463.74</ele>
        <time>2014-06-03T11:13:23Z</time>
      </trkpt>
      <trkpt lat="42.49847" lon="0.19931">
        <ele>1463.26</ele>
        <time>2014-06-03T11:13:50Z</time>
      </trkpt>
      <trkpt lat="42.49847" lon="0.19931">
        <ele>1463.74</ele>
        <time>2014-06-03T11:14:29Z</time>
      </trkpt>
      <trkpt lat="42.49846" lon="0.19931">
        <ele>1464.23</ele>
        <time>2014-06-03T11:15:04Z</time>
      </trkpt>
      <trkpt lat="42.49846" lon="0.19931">
        <ele>1463.26</ele>
        <time>2014-06-03T11:15:40Z</time>
      </trkpt>
      <trkpt lat="42.49846" lon="0.19931">
        <ele>1463.74</ele>
        <time>2014-06-03T11:16:18Z</time>
      </trkpt>
      <trkpt lat="42.49846" lon="0.19932">
        <ele>1464.71</ele>
        <time>2014-06-03T11:16:51Z</time>
      </trkpt>
      <trkpt lat="42.49845" lon="0.1993">
        <ele>1464.23</ele>
        <time>2014-06-03T11:17:35Z</time>
      </trkpt>
      <trkpt lat="42.49846" lon="0.1993">
        <ele>1464.23</ele>
        <time>2014-06-03T11:18:16Z</time>
      </trkpt>
      <trkpt lat="42.49846" lon="0.19929">
        <ele>1464.71</ele>
        <time>2014-06-03T11:18:55Z</time>
      </trkpt>
      <trkpt lat="42.49845" lon="0.19929">
        <ele>1464.23</ele>
        <time>2014-06-03T11:19:33Z</time>
      </trkpt>
      <trkpt lat="42.49845" lon="0.19928">
        <ele>1463.74</ele>
        <time>2014-06-03T11:20:12Z</time>
      </trkpt>
      <trkpt lat="42.49845" lon="0.19926">
        <ele>1464.23</ele>
        <time>2014-06-03T11:20:56Z</time>
      </trkpt>
      <trkpt lat="42.49845" lon="0.19927">
        <ele>1464.23</ele>
        <time>2014-06-03T11:21:32Z</time>
      </trkpt>
      <trkpt lat="42.49845" lon="0.19927">
        <ele>1464.71</ele>
        <time>2014-06-03T11:22:08Z</time>
      </trkpt>
      <trkpt lat="42.49845" lon="0.19927">
        <ele>1465.19</ele>
        <time>2014-06-03T11:22:47Z</time>
      </trkpt>
      <trkpt lat="42.49845" lon="0.19927">
        <ele>1464.71</ele>
        <time>2014-06-03T11:23:27Z</time>
      </trkpt>
      <trkpt lat="42.49846" lon="0.19928">
        <ele>1465.19</ele>
        <time>2014-06-03T11:24:02Z</time>
      </trkpt>
      <trkpt lat="42.49846" lon="0.19927">
        <ele>1465.19</ele>
        <time>2014-06-03T11:24:39Z</time>
      </trkpt>
      <trkpt lat="42.49846" lon="0.19928">
        <ele>1465.19</ele>
        <time>2014-06-03T11:25:16Z</time>
      </trkpt>
      <trkpt lat="42.49846" lon="0.19928">
        <ele>1465.19</ele>
        <time>2014-06-03T11:25:50Z</time>
      </trkpt>
      <trkpt lat="42.49846" lon="0.19928">
        <ele>1465.67</ele>
        <time>2014-06-03T11:26:29Z</time>
      </trkpt>
      <trkpt lat="42.49846" lon="0.19928">
        <ele>1465.67</ele>
        <time>2014-06-03T11:27:09Z</time>
      </trkpt>
      <trkpt lat="42.49846" lon="0.19927">
        <ele>1466.15</ele>
        <time>2014-06-03T11:27:53Z</time>
      </trkpt>
      <trkpt lat="42.49846" lon="0.19927">
        <ele>1465.67</ele>
        <time>2014-06-03T11:28:30Z</time>
      </trkpt>
      <trkpt lat="42.49846" lon="0.19928">
        <ele>1465.67</ele>
        <time>2014-06-03T11:29:05Z</time>
      </trkpt>
      <trkpt lat="42.49846" lon="0.19928">
        <ele>1465.67</ele>
        <time>2014-06-03T11:29:42Z</time>
      </trkpt>
      <trkpt lat="42.49846" lon="0.19928">
        <ele>1465.67</ele>
        <time>2014-06-03T11:30:13Z</time>
      </trkpt>
      <trkpt lat="42.49846" lon="0.19929">
        <ele>1465.67</ele>
        <time>2014-06-03T11:30:53Z</time>
      </trkpt>
      <trkpt lat="42.49845" lon="0.19928">
        <ele>1465.67</ele>
        <time>2014-06-03T11:31:25Z</time>
      </trkpt>
      <trkpt lat="42.49845" lon="0.19928">
        <ele>1465.67</ele>
        <time>2014-06-03T11:32:04Z</time>
      </trkpt>
      <trkpt lat="42.49845" lon="0.19928">
        <ele>1465.19</ele>
        <time>2014-06-03T11:32:42Z</time>
      </trkpt>
      <trkpt lat="42.49845" lon="0.19928">
        <ele>1465.19</ele>
        <time>2014-06-03T11:33:19Z</time>
      </trkpt>
      <trkpt lat="42.49844" lon="0.19924">
        <ele>1464.23</ele>
        <time>2014-06-03T11:33:43Z</time>
      </trkpt>
      <trkpt lat="42.49844" lon="0.19924">
        <ele>1464.23</ele>
        <time>2014-06-03T11:34:10Z</time>
      </trkpt>
      <trkpt lat="42.49844" lon="0.19924">
        <ele>1465.19</ele>
        <time>2014-06-03T11:34:31Z</time>
      </trkpt>
      <trkpt lat="42.49844" lon="0.19924">
        <ele>1469.51</ele>
        <time>2014-06-03T11:34:41Z</time>
      </trkpt>
      <trkpt lat="42.49844" lon="0.19924">
        <ele>1468.55</ele>
        <time>2014-06-03T11:34:42Z</time>
      </trkpt>
      <trkpt lat="42.49844" lon="0.19924">
        <ele>1463.74</ele>
        <time>2014-06-03T11:34:43Z</time>
      </trkpt>
      <trkpt lat="42.49844" lon="0.19924">
        <ele>1470.47</ele>
        <time>2014-06-03T11:34:45Z</time>
      </trkpt>
      <trkpt lat="42.49844" lon="0.19924">
        <ele>1464.23</ele>
        <time>2014-06-03T11:34:46Z</time>
      </trkpt>
      <trkpt lat="42.49844" lon="0.19923">
        <ele>1465.19</ele>
        <time>2014-06-03T11:35:09Z</time>
      </trkpt>
      <trkpt lat="42.49843" lon="0.19912">
        <ele>1464.23</ele>
        <time>2014-06-03T11:35:32Z</time>
      </trkpt>
      <trkpt lat="42.49842" lon="0.1989">
        <ele>1462.3</ele>
        <time>2014-06-03T11:35:37Z</time>
      </trkpt>
      <trkpt lat="42.49839" lon="0.19854">
        <ele>1461.82</ele>
        <time>2014-06-03T11:35:44Z</time>
      </trkpt>
      <trkpt lat="42.49836" lon="0.19831">
        <ele>1459.9</ele>
        <time>2014-06-03T11:35:48Z</time>
      </trkpt>
      <trkpt lat="42.49833" lon="0.19804">
        <ele>1459.42</ele>
        <time>2014-06-03T11:35:52Z</time>
      </trkpt>
      <trkpt lat="42.49834" lon="0.19756">
        <ele>1456.05</ele>
        <time>2014-06-03T11:35:59Z</time>
      </trkpt>
      <trkpt lat="42.49834" lon="0.19741">
        <ele>1455.57</ele>
        <time>2014-06-03T11:36:01Z</time>
      </trkpt>
      <trkpt lat="42.49834" lon="0.19719">
        <ele>1454.13</ele>
        <time>2014-06-03T11:36:05Z</time>
      </trkpt>
      <trkpt lat="42.49835" lon="0.19694">
        <ele>1451.73</ele>
        <time>2014-06-03T11:36:09Z</time>
      </trkpt>
      <trkpt lat="42.49833" lon="0.19674">
        <ele>1450.77</ele>
        <time>2014-06-03T11:36:12Z</time>
      </trkpt>
      <trkpt lat="42.49828" lon="0.19657">
        <ele>1451.25</ele>
        <time>2014-06-03T11:36:15Z</time>
      </trkpt>
      <trkpt lat="42.49825" lon="0.19647">
        <ele>1450.77</ele>
        <time>2014-06-03T11:36:17Z</time>
      </trkpt>
      <trkpt lat="42.49822" lon="0.19606">
        <ele>1448.84</ele>
        <time>2014-06-03T11:36:23Z</time>
      </trkpt>
      <trkpt lat="42.4982" lon="0.19587">
        <ele>1448.36</ele>
        <time>2014-06-03T11:36:26Z</time>
      </trkpt>
      <trkpt lat="42.49816" lon="0.19572">
        <ele>1446.92</ele>
        <time>2014-06-03T11:36:28Z</time>
      </trkpt>
      <trkpt lat="42.49815" lon="0.19542">
        <ele>1444.04</ele>
        <time>2014-06-03T11:36:32Z</time>
      </trkpt>
      <trkpt lat="42.49809" lon="0.19515">
        <ele>1442.6</ele>
        <time>2014-06-03T11:36:38Z</time>
      </trkpt>
      <trkpt lat="42.49807" lon="0.19496">
        <ele>1440.67</ele>
        <time>2014-06-03T11:36:41Z</time>
      </trkpt>
      <trkpt lat="42.49804" lon="0.19482">
        <ele>1440.19</ele>
        <time>2014-06-03T11:36:43Z</time>
      </trkpt>
      <trkpt lat="42.49797" lon="0.19454">
        <ele>1439.71</ele>
        <time>2014-06-03T11:36:47Z</time>
      </trkpt>
      <trkpt lat="42.4979" lon="0.19425">
        <ele>1438.75</ele>
        <time>2014-06-03T11:36:51Z</time>
      </trkpt>
      <trkpt lat="42.49786" lon="0.19396">
        <ele>1435.87</ele>
        <time>2014-06-03T11:36:55Z</time>
      </trkpt>
      <trkpt lat="42.49774" lon="0.19357">
        <ele>1433.46</ele>
        <time>2014-06-03T11:37:00Z</time>
      </trkpt>
      <trkpt lat="42.4976" lon="0.193">
        <ele>1430.58</ele>
        <time>2014-06-03T11:37:07Z</time>
      </trkpt>
      <trkpt lat="42.49758" lon="0.19282">
        <ele>1430.1</ele>
        <time>2014-06-03T11:37:09Z</time>
      </trkpt>
      <trkpt lat="42.49754" lon="0.19248">
        <ele>1428.18</ele>
        <time>2014-06-03T11:37:13Z</time>
      </trkpt>
      <trkpt lat="42.4975" lon="0.19231">
        <ele>1427.21</ele>
        <time>2014-06-03T11:37:15Z</time>
      </trkpt>
      <trkpt lat="42.49745" lon="0.19215">
        <ele>1426.73</ele>
        <time>2014-06-03T11:37:17Z</time>
      </trkpt>
      <trkpt lat="42.49733" lon="0.19184">
        <ele>1425.29</ele>
        <time>2014-06-03T11:37:21Z</time>
      </trkpt>
      <trkpt lat="42.49727" lon="0.1917">
        <ele>1424.81</ele>
        <time>2014-06-03T11:37:23Z</time>
      </trkpt>
      <trkpt lat="42.49719" lon="0.19148">
        <ele>1423.37</ele>
        <time>2014-06-03T11:37:26Z</time>
      </trkpt>
      <trkpt lat="42.49694" lon="0.1908">
        <ele>1421.45</ele>
        <time>2014-06-03T11:37:36Z</time>
      </trkpt>
      <trkpt lat="42.49669" lon="0.19059">
        <ele>1420</ele>
        <time>2014-06-03T11:37:44Z</time>
      </trkpt>
      <trkpt lat="42.49655" lon="0.19038">
        <ele>1417.6</ele>
        <time>2014-06-03T11:37:48Z</time>
      </trkpt>
      <trkpt lat="42.49645" lon="0.19008">
        <ele>1415.68</ele>
        <time>2014-06-03T11:37:53Z</time>
      </trkpt>
      <trkpt lat="42.49626" lon="0.18972">
        <ele>1411.35</ele>
        <time>2014-06-03T11:37:58Z</time>
      </trkpt>
      <trkpt lat="42.49618" lon="0.18961">
        <ele>1409.43</ele>
        <time>2014-06-03T11:38:00Z</time>
      </trkpt>
      <trkpt lat="42.49609" lon="0.18948">
        <ele>1406.07</ele>
        <time>2014-06-03T11:38:02Z</time>
      </trkpt>
      <trkpt lat="42.49596" lon="0.18925">
        <ele>1404.62</ele>
        <time>2014-06-03T11:38:05Z</time>
      </trkpt>
      <trkpt lat="42.49581" lon="0.18897">
        <ele>1401.74</ele>
        <time>2014-06-03T11:38:09Z</time>
      </trkpt>
      <trkpt lat="42.49574" lon="0.18876">
        <ele>1398.86</ele>
        <time>2014-06-03T11:38:12Z</time>
      </trkpt>
      <trkpt lat="42.49564" lon="0.18848">
        <ele>1395.49</ele>
        <time>2014-06-03T11:38:16Z</time>
      </trkpt>
      <trkpt lat="42.49561" lon="0.18844">
        <ele>1394.05</ele>
        <time>2014-06-03T11:38:17Z</time>
      </trkpt>
      <trkpt lat="42.4953" lon="0.18818">
        <ele>1395.49</ele>
        <time>2014-06-03T11:38:29Z</time>
      </trkpt>
      <trkpt lat="42.49525" lon="0.18815">
        <ele>1396.45</ele>
        <time>2014-06-03T11:38:32Z</time>
      </trkpt>
      <trkpt lat="42.49518" lon="0.18814">
        <ele>1396.45</ele>
        <time>2014-06-03T11:38:36Z</time>
      </trkpt>
      <trkpt lat="42.49514" lon="0.18813">
        <ele>1396.93</ele>
        <time>2014-06-03T11:38:38Z</time>
      </trkpt>
      <trkpt lat="42.49507" lon="0.18795">
        <ele>1394.53</ele>
        <time>2014-06-03T11:38:47Z</time>
      </trkpt>
      <trkpt lat="42.49505" lon="0.18792">
        <ele>1394.05</ele>
        <time>2014-06-03T11:38:48Z</time>
      </trkpt>
      <trkpt lat="42.49503" lon="0.18787">
        <ele>1393.09</ele>
        <time>2014-06-03T11:38:50Z</time>
      </trkpt>
      <trkpt lat="42.49502" lon="0.18786">
        <ele>1392.61</ele>
        <time>2014-06-03T11:39:06Z</time>
      </trkpt>
      <trkpt lat="42.49502" lon="0.18784">
        <ele>1392.61</ele>
        <time>2014-06-03T11:39:07Z</time>
      </trkpt>
      <trkpt lat="42.49493" lon="0.18766">
        <ele>1389.72</ele>
        <time>2014-06-03T11:39:11Z</time>
      </trkpt>
      <trkpt lat="42.49472" lon="0.18734">
        <ele>1384.44</ele>
        <time>2014-06-03T11:39:16Z</time>
      </trkpt>
      <trkpt lat="42.49463" lon="0.18719">
        <ele>1382.03</ele>
        <time>2014-06-03T11:39:18Z</time>
      </trkpt>
      <trkpt lat="42.49453" lon="0.18705">
        <ele>1380.59</ele>
        <time>2014-06-03T11:39:20Z</time>
      </trkpt>
      <trkpt lat="42.49438" lon="0.18688">
        <ele>1379.63</ele>
        <time>2014-06-03T11:39:23Z</time>
      </trkpt>
      <trkpt lat="42.49418" lon="0.1867">
        <ele>1379.63</ele>
        <time>2014-06-03T11:39:27Z</time>
      </trkpt>
      <trkpt lat="42.49403" lon="0.18651">
        <ele>1377.23</ele>
        <time>2014-06-03T11:39:31Z</time>
      </trkpt>
      <trkpt lat="42.49393" lon="0.18633">
        <ele>1375.3</ele>
        <time>2014-06-03T11:39:34Z</time>
      </trkpt>
      <trkpt lat="42.4938" lon="0.18616">
        <ele>1374.82</ele>
        <time>2014-06-03T11:39:37Z</time>
      </trkpt>
      <trkpt lat="42.49367" lon="0.18598">
        <ele>1373.86</ele>
        <time>2014-06-03T11:39:40Z</time>
      </trkpt>
      <trkpt lat="42.4935" lon="0.18567">
        <ele>1372.9</ele>
        <time>2014-06-03T11:39:45Z</time>
      </trkpt>
      <trkpt lat="42.49332" lon="0.18542">
        <ele>1375.3</ele>
        <time>2014-06-03T11:39:54Z</time>
      </trkpt>
      <trkpt lat="42.49317" lon="0.18511">
        <ele>1375.3</ele>
        <time>2014-06-03T11:40:04Z</time>
      </trkpt>
      <trkpt lat="42.49317" lon="0.18491">
        <ele>1374.34</ele>
        <time>2014-06-03T11:40:08Z</time>
      </trkpt>
      <trkpt lat="42.49322" lon="0.1846">
        <ele>1371.46</ele>
        <time>2014-06-03T11:40:12Z</time>
      </trkpt>
      <trkpt lat="42.49322" lon="0.18422">
        <ele>1370.5</ele>
        <time>2014-06-03T11:40:16Z</time>
      </trkpt>
      <trkpt lat="42.49312" lon="0.18398">
        <ele>1373.38</ele>
        <time>2014-06-03T11:40:21Z</time>
      </trkpt>
      <trkpt lat="42.49295" lon="0.18375">
        <ele>1374.34</ele>
        <time>2014-06-03T11:40:28Z</time>
      </trkpt>
      <trkpt lat="42.49278" lon="0.18334">
        <ele>1373.38</ele>
        <time>2014-06-03T11:40:37Z</time>
      </trkpt>
      <trkpt lat="42.49273" lon="0.18317">
        <ele>1373.86</ele>
        <time>2014-06-03T11:40:41Z</time>
      </trkpt>
      <trkpt lat="42.49274" lon="0.18291">
        <ele>1370.5</ele>
        <time>2014-06-03T11:40:45Z</time>
      </trkpt>
      <trkpt lat="42.49275" lon="0.18285">
        <ele>1370.5</ele>
        <time>2014-06-03T11:40:46Z</time>
      </trkpt>
      <trkpt lat="42.49273" lon="0.18267">
        <ele>1368.57</ele>
        <time>2014-06-03T11:40:49Z</time>
      </trkpt>
      <trkpt lat="42.49268" lon="0.18255">
        <ele>1368.09</ele>
        <time>2014-06-03T11:40:58Z</time>
      </trkpt>
      <trkpt lat="42.49268" lon="0.18255">
        <ele>1367.61</ele>
        <time>2014-06-03T11:41:24Z</time>
      </trkpt>
      <trkpt lat="42.49264" lon="0.18241">
        <ele>1365.21</ele>
        <time>2014-06-03T11:41:28Z</time>
      </trkpt>
      <trkpt lat="42.4926" lon="0.18216">
        <ele>1361.84</ele>
        <time>2014-06-03T11:41:31Z</time>
      </trkpt>
      <trkpt lat="42.4926" lon="0.18182">
        <ele>1357.52</ele>
        <time>2014-06-03T11:41:35Z</time>
      </trkpt>
      <trkpt lat="42.4926" lon="0.18162">
        <ele>1356.56</ele>
        <time>2014-06-03T11:41:37Z</time>
      </trkpt>
      <trkpt lat="42.49261" lon="0.18144">
        <ele>1356.08</ele>
        <time>2014-06-03T11:41:39Z</time>
      </trkpt>
      <trkpt lat="42.49262" lon="0.18127">
        <ele>1355.6</ele>
        <time>2014-06-03T11:41:41Z</time>
      </trkpt>
      <trkpt lat="42.49261" lon="0.18107">
        <ele>1353.19</ele>
        <time>2014-06-03T11:41:43Z</time>
      </trkpt>
      <trkpt lat="42.49261" lon="0.18078">
        <ele>1349.83</ele>
        <time>2014-06-03T11:41:46Z</time>
      </trkpt>
      <trkpt lat="42.49259" lon="0.1806">
        <ele>1348.87</ele>
        <time>2014-06-03T11:41:48Z</time>
      </trkpt>
      <trkpt lat="42.49257" lon="0.18052">
        <ele>1349.35</ele>
        <time>2014-06-03T11:41:49Z</time>
      </trkpt>
      <trkpt lat="42.49255" lon="0.18005">
        <ele>1349.35</ele>
        <time>2014-06-03T11:41:58Z</time>
      </trkpt>
      <trkpt lat="42.49252" lon="0.17977">
        <ele>1350.79</ele>
        <time>2014-06-03T11:42:03Z</time>
      </trkpt>
      <trkpt lat="42.49251" lon="0.17971">
        <ele>1350.79</ele>
        <time>2014-06-03T11:42:13Z</time>
      </trkpt>
      <trkpt lat="42.4925" lon="0.17968">
        <ele>1349.83</ele>
        <time>2014-06-03T11:42:30Z</time>
      </trkpt>
      <trkpt lat="42.49249" lon="0.17958">
        <ele>1348.39</ele>
        <time>2014-06-03T11:42:32Z</time>
      </trkpt>
      <trkpt lat="42.49256" lon="0.17932">
        <ele>1343.58</ele>
        <time>2014-06-03T11:42:37Z</time>
      </trkpt>
      <trkpt lat="42.4926" lon="0.17922">
        <ele>1340.7</ele>
        <time>2014-06-03T11:42:39Z</time>
      </trkpt>
      <trkpt lat="42.49265" lon="0.1789">
        <ele>1332.52</ele>
        <time>2014-06-03T11:42:44Z</time>
      </trkpt>
      <trkpt lat="42.49257" lon="0.17882">
        <ele>1327.72</ele>
        <time>2014-06-03T11:42:49Z</time>
      </trkpt>
      <trkpt lat="42.49255" lon="0.17883">
        <ele>1326.28</ele>
        <time>2014-06-03T11:42:50Z</time>
      </trkpt>
      <trkpt lat="42.49253" lon="0.17884">
        <ele>1325.31</ele>
        <time>2014-06-03T11:42:51Z</time>
      </trkpt>
      <trkpt lat="42.49243" lon="0.17872">
        <ele>1323.39</ele>
        <time>2014-06-03T11:42:54Z</time>
      </trkpt>
      <trkpt lat="42.49232" lon="0.17866">
        <ele>1318.1</ele>
        <time>2014-06-03T11:42:59Z</time>
      </trkpt>
      <trkpt lat="42.49217" lon="0.17873">
        <ele>1314.74</ele>
        <time>2014-06-03T11:43:03Z</time>
      </trkpt>
      <trkpt lat="42.49204" lon="0.17878">
        <ele>1311.38</ele>
        <time>2014-06-03T11:43:06Z</time>
      </trkpt>
      <trkpt lat="42.49198" lon="0.17882">
        <ele>1309.93</ele>
        <time>2014-06-03T11:43:07Z</time>
      </trkpt>
      <trkpt lat="42.49169" lon="0.17898">
        <ele>1303.2</ele>
        <time>2014-06-03T11:43:11Z</time>
      </trkpt>
      <trkpt lat="42.49151" lon="0.17905">
        <ele>1298.88</ele>
        <time>2014-06-03T11:43:13Z</time>
      </trkpt>
      <trkpt lat="42.49122" lon="0.17913">
        <ele>1294.55</ele>
        <time>2014-06-03T11:43:16Z</time>
      </trkpt>
      <trkpt lat="42.49092" lon="0.1791">
        <ele>1289.75</ele>
        <time>2014-06-03T11:43:19Z</time>
      </trkpt>
      <trkpt lat="42.49088" lon="0.17909">
        <ele>1289.75</ele>
        <time>2014-06-03T11:43:20Z</time>
      </trkpt>
      <trkpt lat="42.49075" lon="0.17904">
        <ele>1287.82</ele>
        <time>2014-06-03T11:43:21Z</time>
      </trkpt>
      <trkpt lat="42.49067" lon="0.17901">
        <ele>1285.9</ele>
        <time>2014-06-03T11:43:22Z</time>
      </trkpt>
      <trkpt lat="42.49062" lon="0.17899">
        <ele>1283.98</ele>
        <time>2014-06-03T11:43:23Z</time>
      </trkpt>
      <trkpt lat="42.49051" lon="0.17886">
        <ele>1282.06</ele>
        <time>2014-06-03T11:43:24Z</time>
      </trkpt>
      <trkpt lat="42.49037" lon="0.17871">
        <ele>1278.69</ele>
        <time>2014-06-03T11:43:26Z</time>
      </trkpt>
      <trkpt lat="42.49012" lon="0.17855">
        <ele>1272.92</ele>
        <time>2014-06-03T11:43:29Z</time>
      </trkpt>
      <trkpt lat="42.48988" lon="0.17839">
        <ele>1269.56</ele>
        <time>2014-06-03T11:43:32Z</time>
      </trkpt>
      <trkpt lat="42.48975" lon="0.17827">
        <ele>1267.16</ele>
        <time>2014-06-03T11:43:34Z</time>
      </trkpt>
      <trkpt lat="42.48956" lon="0.17814">
        <ele>1260.91</ele>
        <time>2014-06-03T11:43:37Z</time>
      </trkpt>
      <trkpt lat="42.4895" lon="0.1781">
        <ele>1258.98</ele>
        <time>2014-06-03T11:43:38Z</time>
      </trkpt>
      <trkpt lat="42.48943" lon="0.17807">
        <ele>1257.06</ele>
        <time>2014-06-03T11:43:39Z</time>
      </trkpt>
      <trkpt lat="42.48938" lon="0.17805">
        <ele>1256.1</ele>
        <time>2014-06-03T11:43:40Z</time>
      </trkpt>
      <trkpt lat="42.48932" lon="0.17803">
        <ele>1254.66</ele>
        <time>2014-06-03T11:43:41Z</time>
      </trkpt>
      <trkpt lat="42.48924" lon="0.17802">
        <ele>1252.25</ele>
        <time>2014-06-03T11:43:42Z</time>
      </trkpt>
      <trkpt lat="42.48917" lon="0.17801">
        <ele>1250.81</ele>
        <time>2014-06-03T11:43:43Z</time>
      </trkpt>
      <trkpt lat="42.48912" lon="0.178">
        <ele>1249.37</ele>
        <time>2014-06-03T11:43:44Z</time>
      </trkpt>
      <trkpt lat="42.48895" lon="0.17804">
        <ele>1247.45</ele>
        <time>2014-06-03T11:43:45Z</time>
      </trkpt>
      <trkpt lat="42.48852" lon="0.17816">
        <ele>1241.2</ele>
        <time>2014-06-03T11:43:49Z</time>
      </trkpt>
      <trkpt lat="42.48821" lon="0.17826">
        <ele>1237.83</ele>
        <time>2014-06-03T11:43:52Z</time>
      </trkpt>
      <trkpt lat="42.48812" lon="0.1783">
        <ele>1235.91</ele>
        <time>2014-06-03T11:43:53Z</time>
      </trkpt>
      <trkpt lat="42.48769" lon="0.17837">
        <ele>1230.62</ele>
        <time>2014-06-03T11:43:57Z</time>
      </trkpt>
      <trkpt lat="42.48753" lon="0.17844">
        <ele>1228.7</ele>
        <time>2014-06-03T11:44:00Z</time>
      </trkpt>
      <trkpt lat="42.48736" lon="0.1787">
        <ele>1230.14</ele>
        <time>2014-06-03T11:44:10Z</time>
      </trkpt>
      <trkpt lat="42.48737" lon="0.17872">
        <ele>1230.62</ele>
        <time>2014-06-03T11:44:12Z</time>
      </trkpt>
      <trkpt lat="42.48738" lon="0.17879">
        <ele>1230.14</ele>
        <time>2014-06-03T11:44:25Z</time>
      </trkpt>
      <trkpt lat="42.48733" lon="0.17884">
        <ele>1230.14</ele>
        <time>2014-06-03T11:44:38Z</time>
      </trkpt>
      <trkpt lat="42.48733" lon="0.17884">
        <ele>1229.66</ele>
        <time>2014-06-03T11:44:43Z</time>
      </trkpt>
      <trkpt lat="42.48722" lon="0.17889">
        <ele>1228.22</ele>
        <time>2014-06-03T11:44:47Z</time>
      </trkpt>
      <trkpt lat="42.48703" lon="0.17894">
        <ele>1226.3</ele>
        <time>2014-06-03T11:44:50Z</time>
      </trkpt>
      <trkpt lat="42.48686" lon="0.17902">
        <ele>1225.82</ele>
        <time>2014-06-03T11:44:53Z</time>
      </trkpt>
      <trkpt lat="42.4864" lon="0.17923">
        <ele>1225.34</ele>
        <time>2014-06-03T11:45:02Z</time>
      </trkpt>
      <trkpt lat="42.48605" lon="0.17948">
        <ele>1224.38</ele>
        <time>2014-06-03T11:45:09Z</time>
      </trkpt>
      <trkpt lat="42.48571" lon="0.17966">
        <ele>1223.9</ele>
        <time>2014-06-03T11:45:15Z</time>
      </trkpt>
      <trkpt lat="42.48551" lon="0.17965">
        <ele>1222.45</ele>
        <time>2014-06-03T11:45:18Z</time>
      </trkpt>
      <trkpt lat="42.4854" lon="0.17966">
        <ele>1221.01</ele>
        <time>2014-06-03T11:45:20Z</time>
      </trkpt>
      <trkpt lat="42.48528" lon="0.17971">
        <ele>1220.53</ele>
        <time>2014-06-03T11:45:23Z</time>
      </trkpt>
      <trkpt lat="42.48504" lon="0.17996">
        <ele>1219.09</ele>
        <time>2014-06-03T11:45:28Z</time>
      </trkpt>
      <trkpt lat="42.48497" lon="0.18005">
        <ele>1218.61</ele>
        <time>2014-06-03T11:45:30Z</time>
      </trkpt>
      <trkpt lat="42.48486" lon="0.18015">
        <ele>1219.09</ele>
        <time>2014-06-03T11:45:32Z</time>
      </trkpt>
      <trkpt lat="42.48471" lon="0.18033">
        <ele>1218.61</ele>
        <time>2014-06-03T11:45:36Z</time>
      </trkpt>
      <trkpt lat="42.48464" lon="0.18041">
        <ele>1218.61</ele>
        <time>2014-06-03T11:45:38Z</time>
      </trkpt>
      <trkpt lat="42.4845" lon="0.18051">
        <ele>1216.21</ele>
        <time>2014-06-03T11:45:41Z</time>
      </trkpt>
      <trkpt lat="42.48439" lon="0.18053">
        <ele>1213.8</ele>
        <time>2014-06-03T11:45:43Z</time>
      </trkpt>
      <trkpt lat="42.4843" lon="0.18057">
        <ele>1212.84</ele>
        <time>2014-06-03T11:45:45Z</time>
      </trkpt>
      <trkpt lat="42.48413" lon="0.18063">
        <ele>1211.4</ele>
        <time>2014-06-03T11:45:48Z</time>
      </trkpt>
      <trkpt lat="42.48402" lon="0.18064">
        <ele>1210.44</ele>
        <time>2014-06-03T11:45:50Z</time>
      </trkpt>
      <trkpt lat="42.48389" lon="0.18068">
        <ele>1209.48</ele>
        <time>2014-06-03T11:45:52Z</time>
      </trkpt>
      <trkpt lat="42.48367" lon="0.18067">
        <ele>1208.03</ele>
        <time>2014-06-03T11:45:55Z</time>
      </trkpt>
      <trkpt lat="42.48355" lon="0.18067">
        <ele>1207.07</ele>
        <time>2014-06-03T11:45:57Z</time>
      </trkpt>
      <trkpt lat="42.4834" lon="0.1807">
        <ele>1208.51</ele>
        <time>2014-06-03T11:46:00Z</time>
      </trkpt>
      <trkpt lat="42.48313" lon="0.18075">
        <ele>1209.48</ele>
        <time>2014-06-03T11:46:06Z</time>
      </trkpt>
      <trkpt lat="42.48293" lon="0.1809">
        <ele>1209.48</ele>
        <time>2014-06-03T11:46:13Z</time>
      </trkpt>
      <trkpt lat="42.48278" lon="0.18098">
        <ele>1209.48</ele>
        <time>2014-06-03T11:46:18Z</time>
      </trkpt>
      <trkpt lat="42.48269" lon="0.18107">
        <ele>1209.48</ele>
        <time>2014-06-03T11:46:24Z</time>
      </trkpt>
      <trkpt lat="42.48264" lon="0.18131">
        <ele>1208.03</ele>
        <time>2014-06-03T11:46:31Z</time>
      </trkpt>
      <trkpt lat="42.48265" lon="0.18161">
        <ele>1208.03</ele>
        <time>2014-06-03T11:46:39Z</time>
      </trkpt>
      <trkpt lat="42.48267" lon="0.18174">
        <ele>1209.48</ele>
        <time>2014-06-03T11:46:44Z</time>
      </trkpt>
      <trkpt lat="42.48267" lon="0.18203">
        <ele>1211.88</ele>
        <time>2014-06-03T11:46:56Z</time>
      </trkpt>
      <trkpt lat="42.48267" lon="0.1821">
        <ele>1212.36</ele>
        <time>2014-06-03T11:46:59Z</time>
      </trkpt>
      <trkpt lat="42.48264" lon="0.1822">
        <ele>1212.36</ele>
        <time>2014-06-03T11:47:03Z</time>
      </trkpt>
      <trkpt lat="42.4825" lon="0.18265">
        <ele>1213.32</ele>
        <time>2014-06-03T11:47:18Z</time>
      </trkpt>
      <trkpt lat="42.4825" lon="0.18275">
        <ele>1212.84</ele>
        <time>2014-06-03T11:47:21Z</time>
      </trkpt>
      <trkpt lat="42.48238" lon="0.18299">
        <ele>1210.92</ele>
        <time>2014-06-03T11:47:26Z</time>
      </trkpt>
      <trkpt lat="42.48222" lon="0.18336">
        <ele>1211.4</ele>
        <time>2014-06-03T11:47:34Z</time>
      </trkpt>
      <trkpt lat="42.48214" lon="0.18359">
        <ele>1211.4</ele>
        <time>2014-06-03T11:47:39Z</time>
      </trkpt>
      <trkpt lat="42.48216" lon="0.18369">
        <ele>1211.4</ele>
        <time>2014-06-03T11:47:41Z</time>
      </trkpt>
      <trkpt lat="42.48204" lon="0.18386">
        <ele>1207.55</ele>
        <time>2014-06-03T11:47:47Z</time>
      </trkpt>
      <trkpt lat="42.48201" lon="0.18384">
        <ele>1207.55</ele>
        <time>2014-06-03T11:47:48Z</time>
      </trkpt>
      <trkpt lat="42.48185" lon="0.18385">
        <ele>1209</ele>
        <time>2014-06-03T11:47:56Z</time>
      </trkpt>
      <trkpt lat="42.48164" lon="0.18408">
        <ele>1212.84</ele>
        <time>2014-06-03T11:48:11Z</time>
      </trkpt>
      <trkpt lat="42.48153" lon="0.18424">
        <ele>1215.24</ele>
        <time>2014-06-03T11:48:20Z</time>
      </trkpt>
      <trkpt lat="42.48144" lon="0.18435">
        <ele>1217.17</ele>
        <time>2014-06-03T11:48:27Z</time>
      </trkpt>
      <trkpt lat="42.48127" lon="0.18451">
        <ele>1218.13</ele>
        <time>2014-06-03T11:48:39Z</time>
      </trkpt>
      <trkpt lat="42.48117" lon="0.18467">
        <ele>1220.05</ele>
        <time>2014-06-03T11:48:48Z</time>
      </trkpt>
      <trkpt lat="42.4811" lon="0.18484">
        <ele>1220.53</ele>
        <time>2014-06-03T11:48:55Z</time>
      </trkpt>
      <trkpt lat="42.48096" lon="0.18511">
        <ele>1221.01</ele>
        <time>2014-06-03T11:49:05Z</time>
      </trkpt>
      <trkpt lat="42.48092" lon="0.18524">
        <ele>1221.97</ele>
        <time>2014-06-03T11:49:10Z</time>
      </trkpt>
      <trkpt lat="42.48087" lon="0.18534">
        <ele>1221.97</ele>
        <time>2014-06-03T11:49:14Z</time>
      </trkpt>
      <trkpt lat="42.48085" lon="0.18539">
        <ele>1222.93</ele>
        <time>2014-06-03T11:49:16Z</time>
      </trkpt>
      <trkpt lat="42.4808" lon="0.18552">
        <ele>1223.42</ele>
        <time>2014-06-03T11:49:21Z</time>
      </trkpt>
      <trkpt lat="42.48061" lon="0.18579">
        <ele>1222.93</ele>
        <time>2014-06-03T11:49:33Z</time>
      </trkpt>
      <trkpt lat="42.48041" lon="0.18606">
        <ele>1221.97</ele>
        <time>2014-06-03T11:49:43Z</time>
      </trkpt>
      <trkpt lat="42.48034" lon="0.18618">
        <ele>1221.97</ele>
        <time>2014-06-03T11:49:46Z</time>
      </trkpt>
      <trkpt lat="42.48021" lon="0.18658">
        <ele>1222.45</ele>
        <time>2014-06-03T11:49:55Z</time>
      </trkpt>
      <trkpt lat="42.48009" lon="0.18696">
        <ele>1224.86</ele>
        <time>2014-06-03T11:50:06Z</time>
      </trkpt>
      <trkpt lat="42.47996" lon="0.18725">
        <ele>1226.3</ele>
        <time>2014-06-03T11:50:15Z</time>
      </trkpt>
      <trkpt lat="42.47993" lon="0.18736">
        <ele>1227.26</ele>
        <time>2014-06-03T11:50:19Z</time>
      </trkpt>
      <trkpt lat="42.47988" lon="0.18772">
        <ele>1228.7</ele>
        <time>2014-06-03T11:50:30Z</time>
      </trkpt>
      <trkpt lat="42.47988" lon="0.18782">
        <ele>1229.18</ele>
        <time>2014-06-03T11:50:33Z</time>
      </trkpt>
      <trkpt lat="42.47982" lon="0.18791">
        <ele>1229.66</ele>
        <time>2014-06-03T11:50:45Z</time>
      </trkpt>
      <trkpt lat="42.47981" lon="0.18791">
        <ele>1229.66</ele>
        <time>2014-06-03T11:50:46Z</time>
      </trkpt>
      <trkpt lat="42.47967" lon="0.18784">
        <ele>1230.14</ele>
        <time>2014-06-03T11:50:57Z</time>
      </trkpt>
      <trkpt lat="42.47961" lon="0.1878">
        <ele>1229.66</ele>
        <time>2014-06-03T11:51:11Z</time>
      </trkpt>
      <trkpt lat="42.47961" lon="0.1878">
        <ele>1230.14</ele>
        <time>2014-06-03T11:51:22Z</time>
      </trkpt>
      <trkpt lat="42.47953" lon="0.1879">
        <ele>1231.59</ele>
        <time>2014-06-03T11:51:34Z</time>
      </trkpt>
      <trkpt lat="42.47953" lon="0.1879">
        <ele>1231.11</ele>
        <time>2014-06-03T11:51:36Z</time>
      </trkpt>
      <trkpt lat="42.4795" lon="0.18788">
        <ele>1230.14</ele>
        <time>2014-06-03T11:51:49Z</time>
      </trkpt>
      <trkpt lat="42.47949" lon="0.18788">
        <ele>1230.14</ele>
        <time>2014-06-03T11:51:57Z</time>
      </trkpt>
      <trkpt lat="42.47942" lon="0.18778">
        <ele>1229.66</ele>
        <time>2014-06-03T11:52:07Z</time>
      </trkpt>
      <trkpt lat="42.47921" lon="0.1876">
        <ele>1232.07</ele>
        <time>2014-06-03T11:52:16Z</time>
      </trkpt>
      <trkpt lat="42.47918" lon="0.18748">
        <ele>1230.62</ele>
        <time>2014-06-03T11:52:19Z</time>
      </trkpt>
      <trkpt lat="42.47917" lon="0.18744">
        <ele>1230.62</ele>
        <time>2014-06-03T11:52:20Z</time>
      </trkpt>
      <trkpt lat="42.4791" lon="0.18739">
        <ele>1228.7</ele>
        <time>2014-06-03T11:52:28Z</time>
      </trkpt>
      <trkpt lat="42.4791" lon="0.18739">
        <ele>1229.18</ele>
        <time>2014-06-03T11:52:56Z</time>
      </trkpt>
      <trkpt lat="42.4791" lon="0.18738">
        <ele>1228.7</ele>
        <time>2014-06-03T11:53:37Z</time>
      </trkpt>
      <trkpt lat="42.47909" lon="0.18739">
        <ele>1229.18</ele>
        <time>2014-06-03T11:53:58Z</time>
      </trkpt>
      <trkpt lat="42.47888" lon="0.18732">
        <ele>1225.82</ele>
        <time>2014-06-03T11:54:06Z</time>
      </trkpt>
      <trkpt lat="42.47878" lon="0.18733">
        <ele>1223.9</ele>
        <time>2014-06-03T11:54:09Z</time>
      </trkpt>
      <trkpt lat="42.47867" lon="0.18732">
        <ele>1222.45</ele>
        <time>2014-06-03T11:54:12Z</time>
      </trkpt>
      <trkpt lat="42.47851" lon="0.18741">
        <ele>1219.09</ele>
        <time>2014-06-03T11:54:16Z</time>
      </trkpt>
      <trkpt lat="42.47837" lon="0.18764">
        <ele>1221.49</ele>
        <time>2014-06-03T11:54:23Z</time>
      </trkpt>
      <trkpt lat="42.47833" lon="0.18767">
        <ele>1221.49</ele>
        <time>2014-06-03T11:54:24Z</time>
      </trkpt>
      <trkpt lat="42.47812" lon="0.18795">
        <ele>1221.97</ele>
        <time>2014-06-03T11:54:32Z</time>
      </trkpt>
      <trkpt lat="42.47796" lon="0.18783">
        <ele>1221.97</ele>
        <time>2014-06-03T11:54:39Z</time>
      </trkpt>
      <trkpt lat="42.4779" lon="0.18778">
        <ele>1221.49</ele>
        <time>2014-06-03T11:54:41Z</time>
      </trkpt>
      <trkpt lat="42.47757" lon="0.18748">
        <ele>1216.69</ele>
        <time>2014-06-03T11:54:51Z</time>
      </trkpt>
      <trkpt lat="42.47741" lon="0.1874">
        <ele>1219.09</ele>
        <time>2014-06-03T11:55:00Z</time>
      </trkpt>
      <trkpt lat="42.47739" lon="0.1874">
        <ele>1219.09</ele>
        <time>2014-06-03T11:55:13Z</time>
      </trkpt>
      <trkpt lat="42.47722" lon="0.18729">
        <ele>1221.97</ele>
        <time>2014-06-03T11:55:23Z</time>
      </trkpt>
      <trkpt lat="42.47716" lon="0.18727">
        <ele>1221.97</ele>
        <time>2014-06-03T11:55:27Z</time>
      </trkpt>
      <trkpt lat="42.47686" lon="0.18707">
        <ele>1224.38</ele>
        <time>2014-06-03T11:55:40Z</time>
      </trkpt>
      <trkpt lat="42.47675" lon="0.18688">
        <ele>1222.45</ele>
        <time>2014-06-03T11:55:45Z</time>
      </trkpt>
      <trkpt lat="42.47658" lon="0.18684">
        <ele>1220.53</ele>
        <time>2014-06-03T11:55:51Z</time>
      </trkpt>
      <trkpt lat="42.4765" lon="0.18683">
        <ele>1217.65</ele>
        <time>2014-06-03T11:55:53Z</time>
      </trkpt>
      <trkpt lat="42.4764" lon="0.18684">
        <ele>1216.21</ele>
        <time>2014-06-03T11:55:55Z</time>
      </trkpt>
      <trkpt lat="42.47629" lon="0.18686">
        <ele>1213.8</ele>
        <time>2014-06-03T11:55:57Z</time>
      </trkpt>
      <trkpt lat="42.47606" lon="0.18696">
        <ele>1209.48</ele>
        <time>2014-06-03T11:56:01Z</time>
      </trkpt>
      <trkpt lat="42.47601" lon="0.18699">
        <ele>1209</ele>
        <time>2014-06-03T11:56:02Z</time>
      </trkpt>
      <trkpt lat="42.47593" lon="0.18707">
        <ele>1207.07</ele>
        <time>2014-06-03T11:56:04Z</time>
      </trkpt>
      <trkpt lat="42.47576" lon="0.18713">
        <ele>1203.71</ele>
        <time>2014-06-03T11:56:08Z</time>
      </trkpt>
      <trkpt lat="42.47558" lon="0.18732">
        <ele>1200.82</ele>
        <time>2014-06-03T11:56:13Z</time>
      </trkpt>
      <trkpt lat="42.47549" lon="0.18753">
        <ele>1196.5</ele>
        <time>2014-06-03T11:56:18Z</time>
      </trkpt>
      <trkpt lat="42.47539" lon="0.1877">
        <ele>1193.13</ele>
        <time>2014-06-03T11:56:22Z</time>
      </trkpt>
      <trkpt lat="42.4754" lon="0.18791">
        <ele>1189.29</ele>
        <time>2014-06-03T11:56:27Z</time>
      </trkpt>
      <trkpt lat="42.47543" lon="0.18802">
        <ele>1187.37</ele>
        <time>2014-06-03T11:56:30Z</time>
      </trkpt>
      <trkpt lat="42.47547" lon="0.18817">
        <ele>1184.96</ele>
        <time>2014-06-03T11:56:33Z</time>
      </trkpt>
      <trkpt lat="42.47551" lon="0.18838">
        <ele>1181.6</ele>
        <time>2014-06-03T11:56:36Z</time>
      </trkpt>
      <trkpt lat="42.47556" lon="0.18873">
        <ele>1176.79</ele>
        <time>2014-06-03T11:56:41Z</time>
      </trkpt>
      <trkpt lat="42.47555" lon="0.18896">
        <ele>1173.43</ele>
        <time>2014-06-03T11:56:44Z</time>
      </trkpt>
      <trkpt lat="42.47556" lon="0.18904">
        <ele>1171.5</ele>
        <time>2014-06-03T11:56:45Z</time>
      </trkpt>
      <trkpt lat="42.47558" lon="0.18949">
        <ele>1167.66</ele>
        <time>2014-06-03T11:56:52Z</time>
      </trkpt>
      <trkpt lat="42.47547" lon="0.18968">
        <ele>1165.74</ele>
        <time>2014-06-03T11:56:56Z</time>
      </trkpt>
      <trkpt lat="42.47537" lon="0.18983">
        <ele>1163.33</ele>
        <time>2014-06-03T11:56:59Z</time>
      </trkpt>
      <trkpt lat="42.4753" lon="0.18991">
        <ele>1161.89</ele>
        <time>2014-06-03T11:57:01Z</time>
      </trkpt>
      <trkpt lat="42.47517" lon="0.19015">
        <ele>1159.97</ele>
        <time>2014-06-03T11:57:05Z</time>
      </trkpt>
      <trkpt lat="42.47503" lon="0.19039">
        <ele>1156.12</ele>
        <time>2014-06-03T11:57:08Z</time>
      </trkpt>
      <trkpt lat="42.47475" lon="0.19079">
        <ele>1153.24</ele>
        <time>2014-06-03T11:57:13Z</time>
      </trkpt>
      <trkpt lat="42.47468" lon="0.19086">
        <ele>1153.24</ele>
        <time>2014-06-03T11:57:14Z</time>
      </trkpt>
      <trkpt lat="42.47446" lon="0.1912">
        <ele>1150.35</ele>
        <time>2014-06-03T11:57:20Z</time>
      </trkpt>
      <trkpt lat="42.4743" lon="0.19136">
        <ele>1148.91</ele>
        <time>2014-06-03T11:57:23Z</time>
      </trkpt>
      <trkpt lat="42.47409" lon="0.19175">
        <ele>1152.28</ele>
        <time>2014-06-03T11:57:29Z</time>
      </trkpt>
      <trkpt lat="42.47406" lon="0.1918">
        <ele>1151.8</ele>
        <time>2014-06-03T11:57:30Z</time>
      </trkpt>
      <trkpt lat="42.47396" lon="0.19201">
        <ele>1151.32</ele>
        <time>2014-06-03T11:57:36Z</time>
      </trkpt>
      <trkpt lat="42.47382" lon="0.19238">
        <ele>1152.76</ele>
        <time>2014-06-03T11:57:45Z</time>
      </trkpt>
      <trkpt lat="42.47382" lon="0.1924">
        <ele>1152.76</ele>
        <time>2014-06-03T11:57:46Z</time>
      </trkpt>
      <trkpt lat="42.47382" lon="0.19258">
        <ele>1152.76</ele>
        <time>2014-06-03T11:57:49Z</time>
      </trkpt>
      <trkpt lat="42.47377" lon="0.19302">
        <ele>1154.2</ele>
        <time>2014-06-03T11:57:57Z</time>
      </trkpt>
      <trkpt lat="42.47375" lon="0.19366">
        <ele>1153.24</ele>
        <time>2014-06-03T11:58:07Z</time>
      </trkpt>
      <trkpt lat="42.47373" lon="0.19371">
        <ele>1152.76</ele>
        <time>2014-06-03T11:58:08Z</time>
      </trkpt>
      <trkpt lat="42.47366" lon="0.19383">
        <ele>1151.8</ele>
        <time>2014-06-03T11:58:11Z</time>
      </trkpt>
      <trkpt lat="42.47362" lon="0.19424">
        <ele>1151.8</ele>
        <time>2014-06-03T11:58:18Z</time>
      </trkpt>
      <trkpt lat="42.47362" lon="0.19433">
        <ele>1150.35</ele>
        <time>2014-06-03T11:58:20Z</time>
      </trkpt>
      <trkpt lat="42.47363" lon="0.1944">
        <ele>1149.87</ele>
        <time>2014-06-03T11:58:22Z</time>
      </trkpt>
      <trkpt lat="42.47358" lon="0.19466">
        <ele>1150.84</ele>
        <time>2014-06-03T11:58:26Z</time>
      </trkpt>
      <trkpt lat="42.47357" lon="0.19472">
        <ele>1150.84</ele>
        <time>2014-06-03T11:58:27Z</time>
      </trkpt>
      <trkpt lat="42.47352" lon="0.19481">
        <ele>1150.84</ele>
        <time>2014-06-03T11:58:28Z</time>
      </trkpt>
      <trkpt lat="42.47345" lon="0.19509">
        <ele>1152.28</ele>
        <time>2014-06-03T11:58:33Z</time>
      </trkpt>
      <trkpt lat="42.47341" lon="0.19521">
        <ele>1153.72</ele>
        <time>2014-06-03T11:58:35Z</time>
      </trkpt>
      <trkpt lat="42.47315" lon="0.19582">
        <ele>1151.8</ele>
        <time>2014-06-03T11:58:46Z</time>
      </trkpt>
      <trkpt lat="42.4731" lon="0.19586">
        <ele>1151.8</ele>
        <time>2014-06-03T11:58:47Z</time>
      </trkpt>
      <trkpt lat="42.47293" lon="0.19606">
        <ele>1149.87</ele>
        <time>2014-06-03T11:58:51Z</time>
      </trkpt>
      <trkpt lat="42.47277" lon="0.19626">
        <ele>1150.35</ele>
        <time>2014-06-03T11:58:55Z</time>
      </trkpt>
      <trkpt lat="42.4727" lon="0.19632">
        <ele>1151.32</ele>
        <time>2014-06-03T11:58:57Z</time>
      </trkpt>
      <trkpt lat="42.47247" lon="0.1965">
        <ele>1150.35</ele>
        <time>2014-06-03T11:59:02Z</time>
      </trkpt>
      <trkpt lat="42.47208" lon="0.19681">
        <ele>1148.91</ele>
        <time>2014-06-03T11:59:09Z</time>
      </trkpt>
      <trkpt lat="42.47197" lon="0.19689">
        <ele>1148.91</ele>
        <time>2014-06-03T11:59:11Z</time>
      </trkpt>
      <trkpt lat="42.47175" lon="0.19702">
        <ele>1145.55</ele>
        <time>2014-06-03T11:59:15Z</time>
      </trkpt>
      <trkpt lat="42.47164" lon="0.19711">
        <ele>1143.63</ele>
        <time>2014-06-03T11:59:17Z</time>
      </trkpt>
      <trkpt lat="42.47157" lon="0.19721">
        <ele>1143.63</ele>
        <time>2014-06-03T11:59:19Z</time>
      </trkpt>
      <trkpt lat="42.47144" lon="0.19756">
        <ele>1139.3</ele>
        <time>2014-06-03T11:59:26Z</time>
      </trkpt>
      <trkpt lat="42.47142" lon="0.19774">
        <ele>1139.78</ele>
        <time>2014-06-03T11:59:29Z</time>
      </trkpt>
      <trkpt lat="42.47135" lon="0.19797">
        <ele>1140.26</ele>
        <time>2014-06-03T11:59:33Z</time>
      </trkpt>
      <trkpt lat="42.47123" lon="0.19812">
        <ele>1140.74</ele>
        <time>2014-06-03T11:59:36Z</time>
      </trkpt>
      <trkpt lat="42.47102" lon="0.19831">
        <ele>1136.9</ele>
        <time>2014-06-03T11:59:40Z</time>
      </trkpt>
      <trkpt lat="42.47095" lon="0.19837">
        <ele>1136.9</ele>
        <time>2014-06-03T11:59:41Z</time>
      </trkpt>
      <trkpt lat="42.47088" lon="0.19843">
        <ele>1135.94</ele>
        <time>2014-06-03T11:59:42Z</time>
      </trkpt>
      <trkpt lat="42.47066" lon="0.19855">
        <ele>1135.94</ele>
        <time>2014-06-03T11:59:46Z</time>
      </trkpt>
      <trkpt lat="42.47031" lon="0.19863">
        <ele>1134.49</ele>
        <time>2014-06-03T11:59:52Z</time>
      </trkpt>
      <trkpt lat="42.47012" lon="0.19862">
        <ele>1132.57</ele>
        <time>2014-06-03T11:59:55Z</time>
      </trkpt>
      <trkpt lat="42.47" lon="0.19866">
        <ele>1132.09</ele>
        <time>2014-06-03T11:59:57Z</time>
      </trkpt>
      <trkpt lat="42.4698" lon="0.19873">
        <ele>1131.61</ele>
        <time>2014-06-03T12:00:02Z</time>
      </trkpt>
      <trkpt lat="42.46969" lon="0.19875">
        <ele>1131.61</ele>
        <time>2014-06-03T12:00:05Z</time>
      </trkpt>
      <trkpt lat="42.46947" lon="0.19878">
        <ele>1133.53</ele>
        <time>2014-06-03T12:00:13Z</time>
      </trkpt>
      <trkpt lat="42.46946" lon="0.1988">
        <ele>1133.53</ele>
        <time>2014-06-03T12:00:14Z</time>
      </trkpt>
      <trkpt lat="42.46938" lon="0.19882">
        <ele>1134.97</ele>
        <time>2014-06-03T12:00:19Z</time>
      </trkpt>
      <trkpt lat="42.46921" lon="0.19882">
        <ele>1135.45</ele>
        <time>2014-06-03T12:00:27Z</time>
      </trkpt>
      <trkpt lat="42.46895" lon="0.19878">
        <ele>1136.42</ele>
        <time>2014-06-03T12:00:40Z</time>
      </trkpt>
      <trkpt lat="42.46891" lon="0.19877">
        <ele>1137.86</ele>
        <time>2014-06-03T12:00:42Z</time>
      </trkpt>
      <trkpt lat="42.4688" lon="0.1988">
        <ele>1138.34</ele>
        <time>2014-06-03T12:00:48Z</time>
      </trkpt>
      <trkpt lat="42.46867" lon="0.19882">
        <ele>1138.82</ele>
        <time>2014-06-03T12:00:54Z</time>
      </trkpt>
      <trkpt lat="42.46845" lon="0.19884">
        <ele>1138.82</ele>
        <time>2014-06-03T12:01:04Z</time>
      </trkpt>
      <trkpt lat="42.46837" lon="0.19878">
        <ele>1137.86</ele>
        <time>2014-06-03T12:01:06Z</time>
      </trkpt>
      <trkpt lat="42.46821" lon="0.19871">
        <ele>1135.45</ele>
        <time>2014-06-03T12:01:09Z</time>
      </trkpt>
      <trkpt lat="42.46802" lon="0.19874">
        <ele>1132.57</ele>
        <time>2014-06-03T12:01:13Z</time>
      </trkpt>
      <trkpt lat="42.46787" lon="0.19883">
        <ele>1130.17</ele>
        <time>2014-06-03T12:01:17Z</time>
      </trkpt>
      <trkpt lat="42.46777" lon="0.19896">
        <ele>1130.17</ele>
        <time>2014-06-03T12:01:20Z</time>
      </trkpt>
      <trkpt lat="42.46775" lon="0.19913">
        <ele>1129.21</ele>
        <time>2014-06-03T12:01:24Z</time>
      </trkpt>
      <trkpt lat="42.46779" lon="0.19934">
        <ele>1127.76</ele>
        <time>2014-06-03T12:01:28Z</time>
      </trkpt>
      <trkpt lat="42.46785" lon="0.19959">
        <ele>1127.28</ele>
        <time>2014-06-03T12:01:36Z</time>
      </trkpt>
      <trkpt lat="42.46789" lon="0.19973">
        <ele>1126.32</ele>
        <time>2014-06-03T12:01:40Z</time>
      </trkpt>
      <trkpt lat="42.46789" lon="0.19979">
        <ele>1125.36</ele>
        <time>2014-06-03T12:01:42Z</time>
      </trkpt>
      <trkpt lat="42.46777" lon="0.2001">
        <ele>1123.92</ele>
        <time>2014-06-03T12:01:49Z</time>
      </trkpt>
      <trkpt lat="42.46767" lon="0.20019">
        <ele>1122.96</ele>
        <time>2014-06-03T12:01:52Z</time>
      </trkpt>
      <trkpt lat="42.46742" lon="0.20044">
        <ele>1121.52</ele>
        <time>2014-06-03T12:01:58Z</time>
      </trkpt>
      <trkpt lat="42.46715" lon="0.20072">
        <ele>1119.11</ele>
        <time>2014-06-03T12:02:08Z</time>
      </trkpt>
      <trkpt lat="42.46697" lon="0.20095">
        <ele>1115.75</ele>
        <time>2014-06-03T12:02:15Z</time>
      </trkpt>
      <trkpt lat="42.46694" lon="0.20104">
        <ele>1114.31</ele>
        <time>2014-06-03T12:02:17Z</time>
      </trkpt>
      <trkpt lat="42.46699" lon="0.20141">
        <ele>1110.94</ele>
        <time>2014-06-03T12:02:24Z</time>
      </trkpt>
      <trkpt lat="42.46701" lon="0.20145">
        <ele>1110.94</ele>
        <time>2014-06-03T12:02:25Z</time>
      </trkpt>
      <trkpt lat="42.46705" lon="0.20156">
        <ele>1109.02</ele>
        <time>2014-06-03T12:02:29Z</time>
      </trkpt>
      <trkpt lat="42.46715" lon="0.20177">
        <ele>1107.58</ele>
        <time>2014-06-03T12:02:34Z</time>
      </trkpt>
      <trkpt lat="42.46723" lon="0.20209">
        <ele>1104.69</ele>
        <time>2014-06-03T12:02:38Z</time>
      </trkpt>
      <trkpt lat="42.46716" lon="0.20243">
        <ele>1103.25</ele>
        <time>2014-06-03T12:02:42Z</time>
      </trkpt>
      <trkpt lat="42.46709" lon="0.20271">
        <ele>1103.73</ele>
        <time>2014-06-03T12:02:46Z</time>
      </trkpt>
      <trkpt lat="42.46701" lon="0.20285">
        <ele>1102.29</ele>
        <time>2014-06-03T12:02:49Z</time>
      </trkpt>
      <trkpt lat="42.46697" lon="0.20301">
        <ele>1100.37</ele>
        <time>2014-06-03T12:02:52Z</time>
      </trkpt>
      <trkpt lat="42.46695" lon="0.20307">
        <ele>1098.92</ele>
        <time>2014-06-03T12:02:53Z</time>
      </trkpt>
      <trkpt lat="42.46686" lon="0.20354">
        <ele>1094.12</ele>
        <time>2014-06-03T12:02:59Z</time>
      </trkpt>
      <trkpt lat="42.46676" lon="0.20399">
        <ele>1090.27</ele>
        <time>2014-06-03T12:03:05Z</time>
      </trkpt>
      <trkpt lat="42.46683" lon="0.2044">
        <ele>1085.95</ele>
        <time>2014-06-03T12:03:13Z</time>
      </trkpt>
      <trkpt lat="42.46682" lon="0.20447">
        <ele>1085.47</ele>
        <time>2014-06-03T12:03:22Z</time>
      </trkpt>
      <trkpt lat="42.46681" lon="0.20449">
        <ele>1085.47</ele>
        <time>2014-06-03T12:03:24Z</time>
      </trkpt>
      <trkpt lat="42.46679" lon="0.20454">
        <ele>1084.5</ele>
        <time>2014-06-03T12:03:38Z</time>
      </trkpt>
      <trkpt lat="42.46679" lon="0.20454">
        <ele>1084.99</ele>
        <time>2014-06-03T12:04:02Z</time>
      </trkpt>
      <trkpt lat="42.46679" lon="0.20453">
        <ele>1084.99</ele>
        <time>2014-06-03T12:04:33Z</time>
      </trkpt>
      <trkpt lat="42.46678" lon="0.20454">
        <ele>1084.02</ele>
        <time>2014-06-03T12:05:00Z</time>
      </trkpt>
      <trkpt lat="42.46675" lon="0.2047">
        <ele>1082.58</ele>
        <time>2014-06-03T12:05:05Z</time>
      </trkpt>
      <trkpt lat="42.46674" lon="0.20486">
        <ele>1081.62</ele>
        <time>2014-06-03T12:05:08Z</time>
      </trkpt>
      <trkpt lat="42.46668" lon="0.20502">
        <ele>1080.66</ele>
        <time>2014-06-03T12:05:11Z</time>
      </trkpt>
      <trkpt lat="42.46661" lon="0.20535">
        <ele>1080.66</ele>
        <time>2014-06-03T12:05:17Z</time>
      </trkpt>
      <trkpt lat="42.46661" lon="0.20583">
        <ele>1084.5</ele>
        <time>2014-06-03T12:05:30Z</time>
      </trkpt>
      <trkpt lat="42.46643" lon="0.20605">
        <ele>1081.62</ele>
        <time>2014-06-03T12:05:41Z</time>
      </trkpt>
      <trkpt lat="42.4664" lon="0.20603">
        <ele>1081.62</ele>
        <time>2014-06-03T12:05:44Z</time>
      </trkpt>
      <trkpt lat="42.46624" lon="0.20612">
        <ele>1082.58</ele>
        <time>2014-06-03T12:05:58Z</time>
      </trkpt>
      <trkpt lat="42.46615" lon="0.20621">
        <ele>1083.06</ele>
        <time>2014-06-03T12:06:06Z</time>
      </trkpt>
      <trkpt lat="42.46604" lon="0.20636">
        <ele>1081.62</ele>
        <time>2014-06-03T12:06:12Z</time>
      </trkpt>
      <trkpt lat="42.46593" lon="0.20647">
        <ele>1080.66</ele>
        <time>2014-06-03T12:06:16Z</time>
      </trkpt>
      <trkpt lat="42.46554" lon="0.20664">
        <ele>1079.7</ele>
        <time>2014-06-03T12:06:27Z</time>
      </trkpt>
      <trkpt lat="42.46544" lon="0.20659">
        <ele>1079.22</ele>
        <time>2014-06-03T12:06:30Z</time>
      </trkpt>
      <trkpt lat="42.46525" lon="0.20686">
        <ele>1077.78</ele>
        <time>2014-06-03T12:06:38Z</time>
      </trkpt>
      <trkpt lat="42.46523" lon="0.20688">
        <ele>1077.78</ele>
        <time>2014-06-03T12:06:39Z</time>
      </trkpt>
      <trkpt lat="42.46512" lon="0.20684">
        <ele>1077.78</ele>
        <time>2014-06-03T12:06:42Z</time>
      </trkpt>
      <trkpt lat="42.46504" lon="0.20683">
        <ele>1076.33</ele>
        <time>2014-06-03T12:06:44Z</time>
      </trkpt>
      <trkpt lat="42.46482" lon="0.20685">
        <ele>1072.49</ele>
        <time>2014-06-03T12:06:48Z</time>
      </trkpt>
      <trkpt lat="42.46473" lon="0.20686">
        <ele>1072.01</ele>
        <time>2014-06-03T12:06:50Z</time>
      </trkpt>
      <trkpt lat="42.4647" lon="0.20687">
        <ele>1071.53</ele>
        <time>2014-06-03T12:06:51Z</time>
      </trkpt>
      <trkpt lat="42.46467" lon="0.20686">
        <ele>1071.05</ele>
        <time>2014-06-03T12:07:03Z</time>
      </trkpt>
      <trkpt lat="42.46467" lon="0.20686">
        <ele>1070.57</ele>
        <time>2014-06-03T12:07:16Z</time>
      </trkpt>
      <trkpt lat="42.46474" lon="0.20666">
        <ele>1067.2</ele>
        <time>2014-06-03T12:07:20Z</time>
      </trkpt>
      <trkpt lat="42.4648" lon="0.20651">
        <ele>1066.72</ele>
        <time>2014-06-03T12:07:22Z</time>
      </trkpt>
      <trkpt lat="42.46489" lon="0.20614">
        <ele>1062.87</ele>
        <time>2014-06-03T12:07:26Z</time>
      </trkpt>
      <trkpt lat="42.46507" lon="0.2058">
        <ele>1059.99</ele>
        <time>2014-06-03T12:07:30Z</time>
      </trkpt>
      <trkpt lat="42.46511" lon="0.20573">
        <ele>1059.99</ele>
        <time>2014-06-03T12:07:31Z</time>
      </trkpt>
      <trkpt lat="42.46513" lon="0.20555">
        <ele>1056.63</ele>
        <time>2014-06-03T12:07:34Z</time>
      </trkpt>
      <trkpt lat="42.46518" lon="0.2053">
        <ele>1054.7</ele>
        <time>2014-06-03T12:07:38Z</time>
      </trkpt>
      <trkpt lat="42.46532" lon="0.20505">
        <ele>1053.26</ele>
        <time>2014-06-03T12:07:43Z</time>
      </trkpt>
      <trkpt lat="42.46538" lon="0.20501">
        <ele>1053.26</ele>
        <time>2014-06-03T12:07:45Z</time>
      </trkpt>
      <trkpt lat="42.46543" lon="0.20472">
        <ele>1051.82</ele>
        <time>2014-06-03T12:07:53Z</time>
      </trkpt>
      <trkpt lat="42.46543" lon="0.20459">
        <ele>1050.38</ele>
        <time>2014-06-03T12:07:55Z</time>
      </trkpt>
      <trkpt lat="42.46546" lon="0.20434">
        <ele>1049.42</ele>
        <time>2014-06-03T12:07:59Z</time>
      </trkpt>
      <trkpt lat="42.46562" lon="0.20411">
        <ele>1050.38</ele>
        <time>2014-06-03T12:08:10Z</time>
      </trkpt>
      <trkpt lat="42.46561" lon="0.20405">
        <ele>1048.45</ele>
        <time>2014-06-03T12:08:22Z</time>
      </trkpt>
      <trkpt lat="42.46561" lon="0.20404">
        <ele>1048.45</ele>
        <time>2014-06-03T12:08:23Z</time>
      </trkpt>
      <trkpt lat="42.46553" lon="0.20405">
        <ele>1046.53</ele>
        <time>2014-06-03T12:08:31Z</time>
      </trkpt>
      <trkpt lat="42.46546" lon="0.2041">
        <ele>1046.53</ele>
        <time>2014-06-03T12:08:40Z</time>
      </trkpt>
      <trkpt lat="42.46544" lon="0.20412">
        <ele>1045.09</ele>
        <time>2014-06-03T12:08:50Z</time>
      </trkpt>
      <trkpt lat="42.46544" lon="0.20412">
        <ele>1044.61</ele>
        <time>2014-06-03T12:09:06Z</time>
      </trkpt>
      <trkpt lat="42.46543" lon="0.20411">
        <ele>1044.13</ele>
        <time>2014-06-03T12:09:34Z</time>
      </trkpt>
      <trkpt lat="42.4653" lon="0.20392">
        <ele>1043.65</ele>
        <time>2014-06-03T12:09:43Z</time>
      </trkpt>
      <trkpt lat="42.4653" lon="0.20393">
        <ele>1043.65</ele>
        <time>2014-06-03T12:09:45Z</time>
      </trkpt>
      <trkpt lat="42.46529" lon="0.20405">
        <ele>1044.13</ele>
        <time>2014-06-03T12:09:54Z</time>
      </trkpt>
      <trkpt lat="42.46529" lon="0.20392">
        <ele>1043.17</ele>
        <time>2014-06-03T12:09:57Z</time>
      </trkpt>
      <trkpt lat="42.46529" lon="0.20389">
        <ele>1043.17</ele>
        <time>2014-06-03T12:09:59Z</time>
      </trkpt>
      <trkpt lat="42.46528" lon="0.20389">
        <ele>1042.69</ele>
        <time>2014-06-03T12:10:01Z</time>
      </trkpt>
      <trkpt lat="42.46527" lon="0.20377">
        <ele>1041.73</ele>
        <time>2014-06-03T12:10:06Z</time>
      </trkpt>
      <trkpt lat="42.46528" lon="0.20361">
        <ele>1041.25</ele>
        <time>2014-06-03T12:10:09Z</time>
      </trkpt>
      <trkpt lat="42.4653" lon="0.20318">
        <ele>1041.25</ele>
        <time>2014-06-03T12:10:17Z</time>
      </trkpt>
      <trkpt lat="42.46531" lon="0.203">
        <ele>1040.28</ele>
        <time>2014-06-03T12:10:20Z</time>
      </trkpt>
      <trkpt lat="42.46527" lon="0.20262">
        <ele>1040.28</ele>
        <time>2014-06-03T12:10:29Z</time>
      </trkpt>
      <trkpt lat="42.46519" lon="0.20243">
        <ele>1040.28</ele>
        <time>2014-06-03T12:10:34Z</time>
      </trkpt>
      <trkpt lat="42.46515" lon="0.20235">
        <ele>1040.28</ele>
        <time>2014-06-03T12:10:36Z</time>
      </trkpt>
      <trkpt lat="42.46504" lon="0.20216">
        <ele>1041.73</ele>
        <time>2014-06-03T12:10:41Z</time>
      </trkpt>
      <trkpt lat="42.46504" lon="0.20212">
        <ele>1042.21</ele>
        <time>2014-06-03T12:10:42Z</time>
      </trkpt>
      <trkpt lat="42.46497" lon="0.2019">
        <ele>1044.61</ele>
        <time>2014-06-03T12:10:48Z</time>
      </trkpt>
      <trkpt lat="42.46483" lon="0.20165">
        <ele>1046.05</ele>
        <time>2014-06-03T12:10:57Z</time>
      </trkpt>
      <trkpt lat="42.46479" lon="0.20146">
        <ele>1047.49</ele>
        <time>2014-06-03T12:11:03Z</time>
      </trkpt>
      <trkpt lat="42.46475" lon="0.20127">
        <ele>1047.01</ele>
        <time>2014-06-03T12:11:08Z</time>
      </trkpt>
      <trkpt lat="42.46476" lon="0.20115">
        <ele>1045.57</ele>
        <time>2014-06-03T12:11:10Z</time>
      </trkpt>
      <trkpt lat="42.46475" lon="0.20091">
        <ele>1042.69</ele>
        <time>2014-06-03T12:11:13Z</time>
      </trkpt>
      <trkpt lat="42.46472" lon="0.20065">
        <ele>1041.73</ele>
        <time>2014-06-03T12:11:16Z</time>
      </trkpt>
      <trkpt lat="42.46467" lon="0.20048">
        <ele>1040.76</ele>
        <time>2014-06-03T12:11:18Z</time>
      </trkpt>
      <trkpt lat="42.46459" lon="0.20023">
        <ele>1039.8</ele>
        <time>2014-06-03T12:11:21Z</time>
      </trkpt>
      <trkpt lat="42.46454" lon="0.20008">
        <ele>1039.32</ele>
        <time>2014-06-03T12:11:23Z</time>
      </trkpt>
      <trkpt lat="42.46434" lon="0.19984">
        <ele>1035</ele>
        <time>2014-06-03T12:11:28Z</time>
      </trkpt>
      <trkpt lat="42.46425" lon="0.19975">
        <ele>1033.07</ele>
        <time>2014-06-03T12:11:31Z</time>
      </trkpt>
      <trkpt lat="42.46426" lon="0.19967">
        <ele>1032.59</ele>
        <time>2014-06-03T12:11:33Z</time>
      </trkpt>
      <trkpt lat="42.4643" lon="0.19956">
        <ele>1031.15</ele>
        <time>2014-06-03T12:11:35Z</time>
      </trkpt>
      <trkpt lat="42.46429" lon="0.19929">
        <ele>1027.31</ele>
        <time>2014-06-03T12:11:38Z</time>
      </trkpt>
      <trkpt lat="42.46427" lon="0.19913">
        <ele>1025.86</ele>
        <time>2014-06-03T12:11:40Z</time>
      </trkpt>
      <trkpt lat="42.46423" lon="0.19911">
        <ele>1023.94</ele>
        <time>2014-06-03T12:11:44Z</time>
      </trkpt>
      <trkpt lat="42.46421" lon="0.19928">
        <ele>1022.02</ele>
        <time>2014-06-03T12:11:47Z</time>
      </trkpt>
      <trkpt lat="42.4642" lon="0.19932">
        <ele>1021.54</ele>
        <time>2014-06-03T12:11:48Z</time>
      </trkpt>
      <trkpt lat="42.46413" lon="0.19935">
        <ele>1017.69</ele>
        <time>2014-06-03T12:11:51Z</time>
      </trkpt>
      <trkpt lat="42.46407" lon="0.19914">
        <ele>1013.85</ele>
        <time>2014-06-03T12:11:56Z</time>
      </trkpt>
      <trkpt lat="42.46404" lon="0.19885">
        <ele>1010.96</ele>
        <time>2014-06-03T12:12:00Z</time>
      </trkpt>
      <trkpt lat="42.46408" lon="0.19847">
        <ele>1006.64</ele>
        <time>2014-06-03T12:12:04Z</time>
      </trkpt>
      <trkpt lat="42.46418" lon="0.19828">
        <ele>1004.72</ele>
        <time>2014-06-03T12:12:07Z</time>
      </trkpt>
      <trkpt lat="42.46421" lon="0.19824">
        <ele>1004.72</ele>
        <time>2014-06-03T12:12:08Z</time>
      </trkpt>
      <trkpt lat="42.46438" lon="0.19807">
        <ele>1000.87</ele>
        <time>2014-06-03T12:12:13Z</time>
      </trkpt>
      <trkpt lat="42.46442" lon="0.19797">
        <ele>999.91</ele>
        <time>2014-06-03T12:12:15Z</time>
      </trkpt>
      <trkpt lat="42.46438" lon="0.19749">
        <ele>1000.87</ele>
        <time>2014-06-03T12:12:22Z</time>
      </trkpt>
      <trkpt lat="42.46436" lon="0.1973">
        <ele>999.91</ele>
        <time>2014-06-03T12:12:25Z</time>
      </trkpt>
      <trkpt lat="42.46437" lon="0.19715">
        <ele>997.99</ele>
        <time>2014-06-03T12:12:27Z</time>
      </trkpt>
      <trkpt lat="42.46445" lon="0.19669">
        <ele>995.58</ele>
        <time>2014-06-03T12:12:33Z</time>
      </trkpt>
      <trkpt lat="42.4645" lon="0.19642">
        <ele>991.74</ele>
        <time>2014-06-03T12:12:38Z</time>
      </trkpt>
      <trkpt lat="42.46454" lon="0.19604">
        <ele>985.97</ele>
        <time>2014-06-03T12:12:44Z</time>
      </trkpt>
      <trkpt lat="42.46454" lon="0.19597">
        <ele>985.49</ele>
        <time>2014-06-03T12:12:45Z</time>
      </trkpt>
      <trkpt lat="42.46453" lon="0.19579">
        <ele>982.12</ele>
        <time>2014-06-03T12:12:48Z</time>
      </trkpt>
      <trkpt lat="42.46449" lon="0.19558">
        <ele>979.24</ele>
        <time>2014-06-03T12:12:51Z</time>
      </trkpt>
      <trkpt lat="42.46448" lon="0.19543">
        <ele>976.84</ele>
        <time>2014-06-03T12:12:54Z</time>
      </trkpt>
      <trkpt lat="42.46444" lon="0.19541">
        <ele>975.39</ele>
        <time>2014-06-03T12:12:56Z</time>
      </trkpt>
      <trkpt lat="42.46433" lon="0.19548">
        <ele>972.99</ele>
        <time>2014-06-03T12:12:59Z</time>
      </trkpt>
      <trkpt lat="42.46427" lon="0.19533">
        <ele>968.67</ele>
        <time>2014-06-03T12:13:05Z</time>
      </trkpt>
      <trkpt lat="42.4642" lon="0.19526">
        <ele>965.78</ele>
        <time>2014-06-03T12:13:09Z</time>
      </trkpt>
      <trkpt lat="42.46404" lon="0.19535">
        <ele>962.42</ele>
        <time>2014-06-03T12:13:12Z</time>
      </trkpt>
      <trkpt lat="42.46393" lon="0.19517">
        <ele>957.61</ele>
        <time>2014-06-03T12:13:17Z</time>
      </trkpt>
      <trkpt lat="42.464" lon="0.19478">
        <ele>953.28</ele>
        <time>2014-06-03T12:13:22Z</time>
      </trkpt>
      <trkpt lat="42.464" lon="0.19469">
        <ele>951.84</ele>
        <time>2014-06-03T12:13:24Z</time>
      </trkpt>
      <trkpt lat="42.46395" lon="0.19455">
        <ele>948.48</ele>
        <time>2014-06-03T12:13:28Z</time>
      </trkpt>
      <trkpt lat="42.46396" lon="0.19437">
        <ele>944.63</ele>
        <time>2014-06-03T12:13:32Z</time>
      </trkpt>
      <trkpt lat="42.46394" lon="0.19426">
        <ele>943.67</ele>
        <time>2014-06-03T12:13:34Z</time>
      </trkpt>
      <trkpt lat="42.46389" lon="0.19416">
        <ele>942.71</ele>
        <time>2014-06-03T12:13:36Z</time>
      </trkpt>
      <trkpt lat="42.46386" lon="0.19388">
        <ele>939.35</ele>
        <time>2014-06-03T12:13:40Z</time>
      </trkpt>
      <trkpt lat="42.46384" lon="0.19373">
        <ele>938.38</ele>
        <time>2014-06-03T12:13:42Z</time>
      </trkpt>
      <trkpt lat="42.46388" lon="0.19355">
        <ele>935.98</ele>
        <time>2014-06-03T12:13:46Z</time>
      </trkpt>
      <trkpt lat="42.46386" lon="0.19341">
        <ele>936.46</ele>
        <time>2014-06-03T12:13:50Z</time>
      </trkpt>
      <trkpt lat="42.4638" lon="0.19332">
        <ele>935.5</ele>
        <time>2014-06-03T12:13:52Z</time>
      </trkpt>
      <trkpt lat="42.46375" lon="0.19323">
        <ele>936.46</ele>
        <time>2014-06-03T12:13:54Z</time>
      </trkpt>
      <trkpt lat="42.46368" lon="0.19316">
        <ele>936.46</ele>
        <time>2014-06-03T12:13:56Z</time>
      </trkpt>
      <trkpt lat="42.46347" lon="0.19308">
        <ele>934.54</ele>
        <time>2014-06-03T12:14:00Z</time>
      </trkpt>
      <trkpt lat="42.46318" lon="0.19278">
        <ele>930.21</ele>
        <time>2014-06-03T12:14:07Z</time>
      </trkpt>
      <trkpt lat="42.46313" lon="0.19235">
        <ele>928.29</ele>
        <time>2014-06-03T12:14:12Z</time>
      </trkpt>
      <trkpt lat="42.46311" lon="0.19218">
        <ele>927.81</ele>
        <time>2014-06-03T12:14:14Z</time>
      </trkpt>
      <trkpt lat="42.46312" lon="0.19187">
        <ele>927.33</ele>
        <time>2014-06-03T12:14:18Z</time>
      </trkpt>
      <trkpt lat="42.46318" lon="0.19146">
        <ele>927.33</ele>
        <time>2014-06-03T12:14:24Z</time>
      </trkpt>
      <trkpt lat="42.4631" lon="0.19106">
        <ele>924.93</ele>
        <time>2014-06-03T12:14:30Z</time>
      </trkpt>
      <trkpt lat="42.46301" lon="0.1909">
        <ele>923.96</ele>
        <time>2014-06-03T12:14:33Z</time>
      </trkpt>
      <trkpt lat="42.46285" lon="0.19079">
        <ele>922.04</ele>
        <time>2014-06-03T12:14:39Z</time>
      </trkpt>
      <trkpt lat="42.46275" lon="0.19071">
        <ele>920.6</ele>
        <time>2014-06-03T12:14:42Z</time>
      </trkpt>
      <trkpt lat="42.46271" lon="0.19043">
        <ele>919.64</ele>
        <time>2014-06-03T12:14:46Z</time>
      </trkpt>
      <trkpt lat="42.46266" lon="0.18977">
        <ele>917.24</ele>
        <time>2014-06-03T12:14:54Z</time>
      </trkpt>
      <trkpt lat="42.46258" lon="0.18951">
        <ele>913.87</ele>
        <time>2014-06-03T12:14:58Z</time>
      </trkpt>
      <trkpt lat="42.4625" lon="0.18927">
        <ele>910.03</ele>
        <time>2014-06-03T12:15:02Z</time>
      </trkpt>
      <trkpt lat="42.46235" lon="0.18916">
        <ele>909.06</ele>
        <time>2014-06-03T12:15:07Z</time>
      </trkpt>
      <trkpt lat="42.46203" lon="0.18914">
        <ele>904.74</ele>
        <time>2014-06-03T12:15:11Z</time>
      </trkpt>
      <trkpt lat="42.46186" lon="0.18907">
        <ele>906.18</ele>
        <time>2014-06-03T12:15:14Z</time>
      </trkpt>
      <trkpt lat="42.46181" lon="0.18905">
        <ele>906.18</ele>
        <time>2014-06-03T12:15:25Z</time>
      </trkpt>
      <trkpt lat="42.46181" lon="0.18905">
        <ele>905.7</ele>
        <time>2014-06-03T12:15:49Z</time>
      </trkpt>
      <trkpt lat="42.46181" lon="0.18905">
        <ele>906.18</ele>
        <time>2014-06-03T12:16:12Z</time>
      </trkpt>
      <trkpt lat="42.4616" lon="0.18914">
        <ele>903.3</ele>
        <time>2014-06-03T12:16:20Z</time>
      </trkpt>
      <trkpt lat="42.46155" lon="0.18917">
        <ele>902.82</ele>
        <time>2014-06-03T12:16:21Z</time>
      </trkpt>
      <trkpt lat="42.46135" lon="0.18934">
        <ele>902.82</ele>
        <time>2014-06-03T12:16:26Z</time>
      </trkpt>
      <trkpt lat="42.461" lon="0.18934">
        <ele>898.97</ele>
        <time>2014-06-03T12:16:32Z</time>
      </trkpt>
      <trkpt lat="42.4605" lon="0.18877">
        <ele>896.57</ele>
        <time>2014-06-03T12:16:41Z</time>
      </trkpt>
      <trkpt lat="42.46034" lon="0.18858">
        <ele>895.61</ele>
        <time>2014-06-03T12:16:44Z</time>
      </trkpt>
      <trkpt lat="42.45999" lon="0.18816">
        <ele>895.61</ele>
        <time>2014-06-03T12:16:54Z</time>
      </trkpt>
      <trkpt lat="42.45969" lon="0.18778">
        <ele>898.97</ele>
        <time>2014-06-03T12:17:04Z</time>
      </trkpt>
      <trkpt lat="42.45966" lon="0.18776">
        <ele>898.97</ele>
        <time>2014-06-03T12:17:05Z</time>
      </trkpt>
      <trkpt lat="42.4592" lon="0.18766">
        <ele>900.41</ele>
        <time>2014-06-03T12:17:19Z</time>
      </trkpt>
      <trkpt lat="42.45885" lon="0.18731">
        <ele>903.3</ele>
        <time>2014-06-03T12:17:33Z</time>
      </trkpt>
      <trkpt lat="42.45864" lon="0.18681">
        <ele>905.7</ele>
        <time>2014-06-03T12:17:48Z</time>
      </trkpt>
      <trkpt lat="42.45858" lon="0.18663">
        <ele>906.18</ele>
        <time>2014-06-03T12:17:53Z</time>
      </trkpt>
      <trkpt lat="42.45827" lon="0.18669">
        <ele>908.1</ele>
        <time>2014-06-03T12:18:06Z</time>
      </trkpt>
      <trkpt lat="42.4582" lon="0.18672">
        <ele>909.06</ele>
        <time>2014-06-03T12:18:09Z</time>
      </trkpt>
      <trkpt lat="42.45813" lon="0.18671">
        <ele>910.03</ele>
        <time>2014-06-03T12:18:12Z</time>
      </trkpt>
      <trkpt lat="42.45806" lon="0.18665">
        <ele>910.51</ele>
        <time>2014-06-03T12:18:15Z</time>
      </trkpt>
      <trkpt lat="42.4579" lon="0.18638">
        <ele>910.03</ele>
        <time>2014-06-03T12:18:23Z</time>
      </trkpt>
      <trkpt lat="42.45784" lon="0.18629">
        <ele>909.06</ele>
        <time>2014-06-03T12:18:25Z</time>
      </trkpt>
      <trkpt lat="42.45757" lon="0.18614">
        <ele>903.78</ele>
        <time>2014-06-03T12:18:29Z</time>
      </trkpt>
      <trkpt lat="42.4572" lon="0.18616">
        <ele>900.41</ele>
        <time>2014-06-03T12:18:33Z</time>
      </trkpt>
      <trkpt lat="42.45697" lon="0.18624">
        <ele>900.89</ele>
        <time>2014-06-03T12:18:36Z</time>
      </trkpt>
      <trkpt lat="42.45683" lon="0.18629">
        <ele>902.82</ele>
        <time>2014-06-03T12:18:39Z</time>
      </trkpt>
      <trkpt lat="42.45654" lon="0.18646">
        <ele>905.7</ele>
        <time>2014-06-03T12:18:50Z</time>
      </trkpt>
      <trkpt lat="42.45644" lon="0.1865">
        <ele>908.1</ele>
        <time>2014-06-03T12:18:55Z</time>
      </trkpt>
      <trkpt lat="42.45608" lon="0.18638">
        <ele>910.03</ele>
        <time>2014-06-03T12:19:11Z</time>
      </trkpt>
      <trkpt lat="42.45605" lon="0.18639">
        <ele>910.51</ele>
        <time>2014-06-03T12:19:23Z</time>
      </trkpt>
      <trkpt lat="42.45593" lon="0.18639">
        <ele>910.03</ele>
        <time>2014-06-03T12:19:47Z</time>
      </trkpt>
      <trkpt lat="42.45586" lon="0.18639">
        <ele>910.51</ele>
        <time>2014-06-03T12:19:49Z</time>
      </trkpt>
      <trkpt lat="42.45545" lon="0.1865">
        <ele>910.99</ele>
        <time>2014-06-03T12:20:01Z</time>
      </trkpt>
      <trkpt lat="42.45533" lon="0.18656">
        <ele>910.99</ele>
        <time>2014-06-03T12:20:05Z</time>
      </trkpt>
      <trkpt lat="42.45521" lon="0.18661">
        <ele>910.03</ele>
        <time>2014-06-03T12:20:08Z</time>
      </trkpt>
      <trkpt lat="42.45508" lon="0.18664">
        <ele>910.51</ele>
        <time>2014-06-03T12:20:11Z</time>
      </trkpt>
      <trkpt lat="42.45489" lon="0.18661">
        <ele>910.51</ele>
        <time>2014-06-03T12:20:17Z</time>
      </trkpt>
      <trkpt lat="42.45476" lon="0.18636">
        <ele>910.99</ele>
        <time>2014-06-03T12:20:24Z</time>
      </trkpt>
      <trkpt lat="42.45469" lon="0.18618">
        <ele>908.1</ele>
        <time>2014-06-03T12:20:27Z</time>
      </trkpt>
      <trkpt lat="42.45465" lon="0.18567">
        <ele>904.26</ele>
        <time>2014-06-03T12:20:34Z</time>
      </trkpt>
      <trkpt lat="42.45467" lon="0.18513">
        <ele>898.01</ele>
        <time>2014-06-03T12:20:39Z</time>
      </trkpt>
      <trkpt lat="42.45469" lon="0.18459">
        <ele>893.2</ele>
        <time>2014-06-03T12:20:44Z</time>
      </trkpt>
      <trkpt lat="42.45471" lon="0.18438">
        <ele>891.28</ele>
        <time>2014-06-03T12:20:46Z</time>
      </trkpt>
      <trkpt lat="42.45475" lon="0.18382">
        <ele>886.47</ele>
        <time>2014-06-03T12:20:51Z</time>
      </trkpt>
      <trkpt lat="42.45478" lon="0.1834">
        <ele>882.15</ele>
        <time>2014-06-03T12:20:55Z</time>
      </trkpt>
      <trkpt lat="42.45478" lon="0.18331">
        <ele>880.71</ele>
        <time>2014-06-03T12:20:56Z</time>
      </trkpt>
      <trkpt lat="42.4548" lon="0.18308">
        <ele>876.86</ele>
        <time>2014-06-03T12:20:59Z</time>
      </trkpt>
      <trkpt lat="42.45486" lon="0.1829">
        <ele>874.46</ele>
        <time>2014-06-03T12:21:02Z</time>
      </trkpt>
      <trkpt lat="42.4549" lon="0.18279">
        <ele>873.01</ele>
        <time>2014-06-03T12:21:04Z</time>
      </trkpt>
      <trkpt lat="42.45487" lon="0.18244">
        <ele>869.65</ele>
        <time>2014-06-03T12:21:08Z</time>
      </trkpt>
      <trkpt lat="42.45474" lon="0.18193">
        <ele>867.25</ele>
        <time>2014-06-03T12:21:14Z</time>
      </trkpt>
      <trkpt lat="42.45452" lon="0.18171">
        <ele>863.88</ele>
        <time>2014-06-03T12:21:18Z</time>
      </trkpt>
      <trkpt lat="42.45451" lon="0.1816">
        <ele>862.44</ele>
        <time>2014-06-03T12:21:19Z</time>
      </trkpt>
      <trkpt lat="42.4545" lon="0.18125">
        <ele>858.11</ele>
        <time>2014-06-03T12:21:22Z</time>
      </trkpt>
      <trkpt lat="42.45456" lon="0.18069">
        <ele>853.79</ele>
        <time>2014-06-03T12:21:27Z</time>
      </trkpt>
      <trkpt lat="42.45455" lon="0.18049">
        <ele>851.38</ele>
        <time>2014-06-03T12:21:29Z</time>
      </trkpt>
      <trkpt lat="42.45449" lon="0.17998">
        <ele>848.5</ele>
        <time>2014-06-03T12:21:34Z</time>
      </trkpt>
      <trkpt lat="42.45443" lon="0.17979">
        <ele>847.54</ele>
        <time>2014-06-03T12:21:36Z</time>
      </trkpt>
      <trkpt lat="42.45432" lon="0.17949">
        <ele>847.06</ele>
        <time>2014-06-03T12:21:39Z</time>
      </trkpt>
      <trkpt lat="42.45412" lon="0.1792">
        <ele>846.1</ele>
        <time>2014-06-03T12:21:43Z</time>
      </trkpt>
      <trkpt lat="42.45396" lon="0.1791">
        <ele>847.06</ele>
        <time>2014-06-03T12:21:46Z</time>
      </trkpt>
      <trkpt lat="42.45374" lon="0.17892">
        <ele>849.94</ele>
        <time>2014-06-03T12:21:53Z</time>
      </trkpt>
      <trkpt lat="42.45366" lon="0.1789">
        <ele>850.9</ele>
        <time>2014-06-03T12:21:56Z</time>
      </trkpt>
      <trkpt lat="42.45328" lon="0.17867">
        <ele>853.79</ele>
        <time>2014-06-03T12:22:12Z</time>
      </trkpt>
      <trkpt lat="42.45303" lon="0.1785">
        <ele>855.71</ele>
        <time>2014-06-03T12:22:22Z</time>
      </trkpt>
      <trkpt lat="42.45287" lon="0.17828">
        <ele>858.59</ele>
        <time>2014-06-03T12:22:31Z</time>
      </trkpt>
      <trkpt lat="42.45262" lon="0.17798">
        <ele>861.48</ele>
        <time>2014-06-03T12:22:45Z</time>
      </trkpt>
      <trkpt lat="42.45261" lon="0.17796">
        <ele>861.48</ele>
        <time>2014-06-03T12:22:46Z</time>
      </trkpt>
      <trkpt lat="42.45257" lon="0.17791">
        <ele>861.96</ele>
        <time>2014-06-03T12:22:59Z</time>
      </trkpt>
      <trkpt lat="42.45245" lon="0.17781">
        <ele>859.56</ele>
        <time>2014-06-03T12:23:04Z</time>
      </trkpt>
      <trkpt lat="42.45228" lon="0.17785">
        <ele>858.59</ele>
        <time>2014-06-03T12:23:09Z</time>
      </trkpt>
      <trkpt lat="42.45215" lon="0.17792">
        <ele>857.63</ele>
        <time>2014-06-03T12:23:12Z</time>
      </trkpt>
      <trkpt lat="42.45173" lon="0.17811">
        <ele>855.23</ele>
        <time>2014-06-03T12:23:19Z</time>
      </trkpt>
      <trkpt lat="42.45157" lon="0.17815">
        <ele>855.23</ele>
        <time>2014-06-03T12:23:22Z</time>
      </trkpt>
      <trkpt lat="42.45145" lon="0.17813">
        <ele>854.75</ele>
        <time>2014-06-03T12:23:24Z</time>
      </trkpt>
      <trkpt lat="42.45119" lon="0.178">
        <ele>851.87</ele>
        <time>2014-06-03T12:23:28Z</time>
      </trkpt>
      <trkpt lat="42.45081" lon="0.17781">
        <ele>849.46</ele>
        <time>2014-06-03T12:23:34Z</time>
      </trkpt>
      <trkpt lat="42.45052" lon="0.17747">
        <ele>849.94</ele>
        <time>2014-06-03T12:23:39Z</time>
      </trkpt>
      <trkpt lat="42.4503" lon="0.17705">
        <ele>845.14</ele>
        <time>2014-06-03T12:23:44Z</time>
      </trkpt>
      <trkpt lat="42.45025" lon="0.17698">
        <ele>843.69</ele>
        <time>2014-06-03T12:23:45Z</time>
      </trkpt>
      <trkpt lat="42.45" lon="0.17673">
        <ele>839.37</ele>
        <time>2014-06-03T12:23:50Z</time>
      </trkpt>
      <trkpt lat="42.44997" lon="0.1767">
        <ele>838.41</ele>
        <time>2014-06-03T12:23:51Z</time>
      </trkpt>
      <trkpt lat="42.44985" lon="0.17653">
        <ele>835.52</ele>
        <time>2014-06-03T12:23:55Z</time>
      </trkpt>
      <trkpt lat="42.44968" lon="0.17617">
        <ele>830.24</ele>
        <time>2014-06-03T12:24:00Z</time>
      </trkpt>
      <trkpt lat="42.44956" lon="0.17591">
        <ele>826.39</ele>
        <time>2014-06-03T12:24:03Z</time>
      </trkpt>
      <trkpt lat="42.44949" lon="0.17575">
        <ele>824.95</ele>
        <time>2014-06-03T12:24:05Z</time>
      </trkpt>
      <trkpt lat="42.44932" lon="0.17559">
        <ele>823.03</ele>
        <time>2014-06-03T12:24:08Z</time>
      </trkpt>
      <trkpt lat="42.44913" lon="0.17538">
        <ele>818.7</ele>
        <time>2014-06-03T12:24:13Z</time>
      </trkpt>
      <trkpt lat="42.44893" lon="0.17568">
        <ele>813.89</ele>
        <time>2014-06-03T12:24:18Z</time>
      </trkpt>
      <trkpt lat="42.44885" lon="0.17589">
        <ele>812.93</ele>
        <time>2014-06-03T12:24:20Z</time>
      </trkpt>
      <trkpt lat="42.44884" lon="0.176">
        <ele>812.45</ele>
        <time>2014-06-03T12:24:21Z</time>
      </trkpt>
      <trkpt lat="42.44882" lon="0.1762">
        <ele>810.53</ele>
        <time>2014-06-03T12:24:23Z</time>
      </trkpt>
      <trkpt lat="42.44881" lon="0.1766">
        <ele>806.68</ele>
        <time>2014-06-03T12:24:27Z</time>
      </trkpt>
      <trkpt lat="42.44883" lon="0.17689">
        <ele>803.8</ele>
        <time>2014-06-03T12:24:30Z</time>
      </trkpt>
      <trkpt lat="42.44881" lon="0.17695">
        <ele>803.32</ele>
        <time>2014-06-03T12:24:32Z</time>
      </trkpt>
      <trkpt lat="42.44877" lon="0.17696">
        <ele>803.8</ele>
        <time>2014-06-03T12:24:34Z</time>
      </trkpt>
      <trkpt lat="42.4487" lon="0.17696">
        <ele>803.8</ele>
        <time>2014-06-03T12:24:37Z</time>
      </trkpt>
      <trkpt lat="42.44849" lon="0.17698">
        <ele>802.36</ele>
        <time>2014-06-03T12:24:45Z</time>
      </trkpt>
      <trkpt lat="42.44822" lon="0.17687">
        <ele>801.88</ele>
        <time>2014-06-03T12:24:52Z</time>
      </trkpt>
      <trkpt lat="42.44807" lon="0.17668">
        <ele>800.92</ele>
        <time>2014-06-03T12:24:56Z</time>
      </trkpt>
      <trkpt lat="42.44789" lon="0.17653">
        <ele>800.44</ele>
        <time>2014-06-03T12:25:00Z</time>
      </trkpt>
      <trkpt lat="42.44764" lon="0.17633">
        <ele>797.55</ele>
        <time>2014-06-03T12:25:04Z</time>
      </trkpt>
      <trkpt lat="42.44738" lon="0.17628">
        <ele>796.59</ele>
        <time>2014-06-03T12:25:08Z</time>
      </trkpt>
      <trkpt lat="42.44676" lon="0.17616">
        <ele>794.19</ele>
        <time>2014-06-03T12:25:16Z</time>
      </trkpt>
      <trkpt lat="42.44652" lon="0.17617">
        <ele>793.22</ele>
        <time>2014-06-03T12:25:19Z</time>
      </trkpt>
      <trkpt lat="42.44636" lon="0.1762">
        <ele>792.26</ele>
        <time>2014-06-03T12:25:21Z</time>
      </trkpt>
      <trkpt lat="42.44614" lon="0.17629">
        <ele>789.38</ele>
        <time>2014-06-03T12:25:24Z</time>
      </trkpt>
      <trkpt lat="42.44594" lon="0.17644">
        <ele>787.94</ele>
        <time>2014-06-03T12:25:27Z</time>
      </trkpt>
      <trkpt lat="42.44567" lon="0.17677">
        <ele>784.57</ele>
        <time>2014-06-03T12:25:32Z</time>
      </trkpt>
      <trkpt lat="42.44563" lon="0.17684">
        <ele>784.09</ele>
        <time>2014-06-03T12:25:33Z</time>
      </trkpt>
      <trkpt lat="42.44556" lon="0.17698">
        <ele>782.17</ele>
        <time>2014-06-03T12:25:35Z</time>
      </trkpt>
      <trkpt lat="42.44551" lon="0.17722">
        <ele>778.81</ele>
        <time>2014-06-03T12:25:38Z</time>
      </trkpt>
      <trkpt lat="42.44552" lon="0.17741">
        <ele>775.44</ele>
        <time>2014-06-03T12:25:41Z</time>
      </trkpt>
      <trkpt lat="42.44552" lon="0.17748">
        <ele>774</ele>
        <time>2014-06-03T12:25:43Z</time>
      </trkpt>
      <trkpt lat="42.44543" lon="0.17737">
        <ele>770.63</ele>
        <time>2014-06-03T12:25:47Z</time>
      </trkpt>
      <trkpt lat="42.44536" lon="0.1773">
        <ele>769.67</ele>
        <time>2014-06-03T12:25:49Z</time>
      </trkpt>
      <trkpt lat="42.44517" lon="0.17695">
        <ele>771.11</ele>
        <time>2014-06-03T12:25:57Z</time>
      </trkpt>
      <trkpt lat="42.44515" lon="0.17683">
        <ele>770.63</ele>
        <time>2014-06-03T12:25:59Z</time>
      </trkpt>
      <trkpt lat="42.44507" lon="0.17638">
        <ele>766.79</ele>
        <time>2014-06-03T12:26:04Z</time>
      </trkpt>
      <trkpt lat="42.44505" lon="0.17628">
        <ele>765.83</ele>
        <time>2014-06-03T12:26:05Z</time>
      </trkpt>
      <trkpt lat="42.44492" lon="0.17589">
        <ele>760.06</ele>
        <time>2014-06-03T12:26:09Z</time>
      </trkpt>
      <trkpt lat="42.44474" lon="0.17572">
        <ele>755.73</ele>
        <time>2014-06-03T12:26:13Z</time>
      </trkpt>
      <trkpt lat="42.44453" lon="0.1757">
        <ele>752.37</ele>
        <time>2014-06-03T12:26:17Z</time>
      </trkpt>
      <trkpt lat="42.44446" lon="0.17581">
        <ele>749</ele>
        <time>2014-06-03T12:26:21Z</time>
      </trkpt>
      <trkpt lat="42.44441" lon="0.17595">
        <ele>747.08</ele>
        <time>2014-06-03T12:26:24Z</time>
      </trkpt>
      <trkpt lat="42.44424" lon="0.17605">
        <ele>744.2</ele>
        <time>2014-06-03T12:26:27Z</time>
      </trkpt>
      <trkpt lat="42.44402" lon="0.17616">
        <ele>739.87</ele>
        <time>2014-06-03T12:26:32Z</time>
      </trkpt>
      <trkpt lat="42.44391" lon="0.17628">
        <ele>737.95</ele>
        <time>2014-06-03T12:26:35Z</time>
      </trkpt>
      <trkpt lat="42.44391" lon="0.1762">
        <ele>736.99</ele>
        <time>2014-06-03T12:26:39Z</time>
      </trkpt>
      <trkpt lat="42.44387" lon="0.17577">
        <ele>737.95</ele>
        <time>2014-06-03T12:26:49Z</time>
      </trkpt>
      <trkpt lat="42.44377" lon="0.17554">
        <ele>736.99</ele>
        <time>2014-06-03T12:26:53Z</time>
      </trkpt>
      <trkpt lat="42.44348" lon="0.17523">
        <ele>736.51</ele>
        <time>2014-06-03T12:27:00Z</time>
      </trkpt>
      <trkpt lat="42.44335" lon="0.17517">
        <ele>735.55</ele>
        <time>2014-06-03T12:27:03Z</time>
      </trkpt>
      <trkpt lat="42.44316" lon="0.17517">
        <ele>735.07</ele>
        <time>2014-06-03T12:27:07Z</time>
      </trkpt>
      <trkpt lat="42.44294" lon="0.17506">
        <ele>734.1</ele>
        <time>2014-06-03T12:27:13Z</time>
      </trkpt>
      <trkpt lat="42.44292" lon="0.17501">
        <ele>733.62</ele>
        <time>2014-06-03T12:27:25Z</time>
      </trkpt>
      <trkpt lat="42.44292" lon="0.17501">
        <ele>733.62</ele>
        <time>2014-06-03T12:27:51Z</time>
      </trkpt>
      <trkpt lat="42.44292" lon="0.17502">
        <ele>733.62</ele>
        <time>2014-06-03T12:28:18Z</time>
      </trkpt>
      <trkpt lat="42.4429" lon="0.17497">
        <ele>733.14</ele>
        <time>2014-06-03T12:28:46Z</time>
      </trkpt>
      <trkpt lat="42.44288" lon="0.17488">
        <ele>733.14</ele>
        <time>2014-06-03T12:28:48Z</time>
      </trkpt>
      <trkpt lat="42.4428" lon="0.17475">
        <ele>731.7</ele>
        <time>2014-06-03T12:28:51Z</time>
      </trkpt>
      <trkpt lat="42.44272" lon="0.17463">
        <ele>729.78</ele>
        <time>2014-06-03T12:28:53Z</time>
      </trkpt>
      <trkpt lat="42.4425" lon="0.17442">
        <ele>725.93</ele>
        <time>2014-06-03T12:28:58Z</time>
      </trkpt>
      <trkpt lat="42.44241" lon="0.1742">
        <ele>723.53</ele>
        <time>2014-06-03T12:29:01Z</time>
      </trkpt>
      <trkpt lat="42.44234" lon="0.17404">
        <ele>722.09</ele>
        <time>2014-06-03T12:29:03Z</time>
      </trkpt>
      <trkpt lat="42.44225" lon="0.1738">
        <ele>722.09</ele>
        <time>2014-06-03T12:29:06Z</time>
      </trkpt>
      <trkpt lat="42.44214" lon="0.17358">
        <ele>720.16</ele>
        <time>2014-06-03T12:29:09Z</time>
      </trkpt>
      <trkpt lat="42.44208" lon="0.17345">
        <ele>719.2</ele>
        <time>2014-06-03T12:29:11Z</time>
      </trkpt>
      <trkpt lat="42.44196" lon="0.17306">
        <ele>714.88</ele>
        <time>2014-06-03T12:29:17Z</time>
      </trkpt>
      <trkpt lat="42.44186" lon="0.17275">
        <ele>708.63</ele>
        <time>2014-06-03T12:29:22Z</time>
      </trkpt>
      <trkpt lat="42.44185" lon="0.17243">
        <ele>705.75</ele>
        <time>2014-06-03T12:29:26Z</time>
      </trkpt>
      <trkpt lat="42.44184" lon="0.17229">
        <ele>704.3</ele>
        <time>2014-06-03T12:29:28Z</time>
      </trkpt>
      <trkpt lat="42.44185" lon="0.17167">
        <ele>701.9</ele>
        <time>2014-06-03T12:29:35Z</time>
      </trkpt>
      <trkpt lat="42.44189" lon="0.17148">
        <ele>700.94</ele>
        <time>2014-06-03T12:29:37Z</time>
      </trkpt>
      <trkpt lat="42.44186" lon="0.17116">
        <ele>697.57</ele>
        <time>2014-06-03T12:29:40Z</time>
      </trkpt>
      <trkpt lat="42.44178" lon="0.17079">
        <ele>696.13</ele>
        <time>2014-06-03T12:29:43Z</time>
      </trkpt>
      <trkpt lat="42.44172" lon="0.1706">
        <ele>696.61</ele>
        <time>2014-06-03T12:29:45Z</time>
      </trkpt>
      <trkpt lat="42.44165" lon="0.17044">
        <ele>696.61</ele>
        <time>2014-06-03T12:29:47Z</time>
      </trkpt>
      <trkpt lat="42.44148" lon="0.17">
        <ele>692.77</ele>
        <time>2014-06-03T12:29:52Z</time>
      </trkpt>
      <trkpt lat="42.4414" lon="0.16984">
        <ele>691.33</ele>
        <time>2014-06-03T12:29:54Z</time>
      </trkpt>
      <trkpt lat="42.44128" lon="0.16971">
        <ele>688.92</ele>
        <time>2014-06-03T12:29:57Z</time>
      </trkpt>
      <trkpt lat="42.44118" lon="0.16952">
        <ele>685.08</ele>
        <time>2014-06-03T12:30:01Z</time>
      </trkpt>
      <trkpt lat="42.44115" lon="0.16935">
        <ele>681.23</ele>
        <time>2014-06-03T12:30:04Z</time>
      </trkpt>
      <trkpt lat="42.44117" lon="0.16922">
        <ele>677.87</ele>
        <time>2014-06-03T12:30:06Z</time>
      </trkpt>
      <trkpt lat="42.44118" lon="0.169">
        <ele>674.5</ele>
        <time>2014-06-03T12:30:09Z</time>
      </trkpt>
      <trkpt lat="42.44113" lon="0.16879">
        <ele>670.66</ele>
        <time>2014-06-03T12:30:12Z</time>
      </trkpt>
      <trkpt lat="42.44107" lon="0.16867">
        <ele>667.29</ele>
        <time>2014-06-03T12:30:14Z</time>
      </trkpt>
      <trkpt lat="42.441" lon="0.16847">
        <ele>661.04</ele>
        <time>2014-06-03T12:30:17Z</time>
      </trkpt>
      <trkpt lat="42.44097" lon="0.1684">
        <ele>659.12</ele>
        <time>2014-06-03T12:30:18Z</time>
      </trkpt>
      <trkpt lat="42.44086" lon="0.16816">
        <ele>659.12</ele>
        <time>2014-06-03T12:30:26Z</time>
      </trkpt>
      <trkpt lat="42.44089" lon="0.16808">
        <ele>660.08</ele>
        <time>2014-06-03T12:30:30Z</time>
      </trkpt>
      <trkpt lat="42.44097" lon="0.1677">
        <ele>663.45</ele>
        <time>2014-06-03T12:30:46Z</time>
      </trkpt>
      <trkpt lat="42.44104" lon="0.1674">
        <ele>666.33</ele>
        <time>2014-06-03T12:31:00Z</time>
      </trkpt>
      <trkpt lat="42.44107" lon="0.16732">
        <ele>670.66</ele>
        <time>2014-06-03T12:31:04Z</time>
      </trkpt>
      <trkpt lat="42.44108" lon="0.1673">
        <ele>667.77</ele>
        <time>2014-06-03T12:31:05Z</time>
      </trkpt>
      <trkpt lat="42.44116" lon="0.1671">
        <ele>669.22</ele>
        <time>2014-06-03T12:31:16Z</time>
      </trkpt>
      <trkpt lat="42.44133" lon="0.16686">
        <ele>670.18</ele>
        <time>2014-06-03T12:31:30Z</time>
      </trkpt>
      <trkpt lat="42.44144" lon="0.16654">
        <ele>669.22</ele>
        <time>2014-06-03T12:31:42Z</time>
      </trkpt>
      <trkpt lat="42.44145" lon="0.16648">
        <ele>668.25</ele>
        <time>2014-06-03T12:31:43Z</time>
      </trkpt>
      <trkpt lat="42.44147" lon="0.16635">
        <ele>666.81</ele>
        <time>2014-06-03T12:31:45Z</time>
      </trkpt>
      <trkpt lat="42.4415" lon="0.16584">
        <ele>664.41</ele>
        <time>2014-06-03T12:31:51Z</time>
      </trkpt>
      <trkpt lat="42.44149" lon="0.16556">
        <ele>664.89</ele>
        <time>2014-06-03T12:31:55Z</time>
      </trkpt>
      <trkpt lat="42.44147" lon="0.16535">
        <ele>663.45</ele>
        <time>2014-06-03T12:31:58Z</time>
      </trkpt>
      <trkpt lat="42.44146" lon="0.16526">
        <ele>664.41</ele>
        <time>2014-06-03T12:32:00Z</time>
      </trkpt>
      <trkpt lat="42.44153" lon="0.16478">
        <ele>663.93</ele>
        <time>2014-06-03T12:32:11Z</time>
      </trkpt>
      <trkpt lat="42.44154" lon="0.16473">
        <ele>662.97</ele>
        <time>2014-06-03T12:32:12Z</time>
      </trkpt>
      <trkpt lat="42.44156" lon="0.16462">
        <ele>662.01</ele>
        <time>2014-06-03T12:32:14Z</time>
      </trkpt>
      <trkpt lat="42.44164" lon="0.16444">
        <ele>660.56</ele>
        <time>2014-06-03T12:32:17Z</time>
      </trkpt>
      <trkpt lat="42.4417" lon="0.16409">
        <ele>655.76</ele>
        <time>2014-06-03T12:32:23Z</time>
      </trkpt>
      <trkpt lat="42.4417" lon="0.16398">
        <ele>652.39</ele>
        <time>2014-06-03T12:32:26Z</time>
      </trkpt>
      <trkpt lat="42.44178" lon="0.16386">
        <ele>649.99</ele>
        <time>2014-06-03T12:32:30Z</time>
      </trkpt>
      <trkpt lat="42.44171" lon="0.16372">
        <ele>647.59</ele>
        <time>2014-06-03T12:32:36Z</time>
      </trkpt>
      <trkpt lat="42.44172" lon="0.16362">
        <ele>648.07</ele>
        <time>2014-06-03T12:32:41Z</time>
      </trkpt>
      <trkpt lat="42.44181" lon="0.1635">
        <ele>650.47</ele>
        <time>2014-06-03T12:32:48Z</time>
      </trkpt>
      <trkpt lat="42.44178" lon="0.16342">
        <ele>651.91</ele>
        <time>2014-06-03T12:32:53Z</time>
      </trkpt>
      <trkpt lat="42.44174" lon="0.16342">
        <ele>652.39</ele>
        <time>2014-06-03T12:32:56Z</time>
      </trkpt>
      <trkpt lat="42.44168" lon="0.16347">
        <ele>652.87</ele>
        <time>2014-06-03T12:33:01Z</time>
      </trkpt>
      <trkpt lat="42.44158" lon="0.16355">
        <ele>655.76</ele>
        <time>2014-06-03T12:33:13Z</time>
      </trkpt>
      <trkpt lat="42.44154" lon="0.16355">
        <ele>656.72</ele>
        <time>2014-06-03T12:33:26Z</time>
      </trkpt>
      <trkpt lat="42.44147" lon="0.16352">
        <ele>658.16</ele>
        <time>2014-06-03T12:33:40Z</time>
      </trkpt>
      <trkpt lat="42.44137" lon="0.16347">
        <ele>660.56</ele>
        <time>2014-06-03T12:33:52Z</time>
      </trkpt>
      <trkpt lat="42.44137" lon="0.16341">
        <ele>661.04</ele>
        <time>2014-06-03T12:33:57Z</time>
      </trkpt>
      <trkpt lat="42.44142" lon="0.16331">
        <ele>663.45</ele>
        <time>2014-06-03T12:34:10Z</time>
      </trkpt>
      <trkpt lat="42.44145" lon="0.16326">
        <ele>663.93</ele>
        <time>2014-06-03T12:34:20Z</time>
      </trkpt>
      <trkpt lat="42.44163" lon="0.16309">
        <ele>666.81</ele>
        <time>2014-06-03T12:34:36Z</time>
      </trkpt>
      <trkpt lat="42.44167" lon="0.16304">
        <ele>667.29</ele>
        <time>2014-06-03T12:34:40Z</time>
      </trkpt>
      <trkpt lat="42.44173" lon="0.16291">
        <ele>668.73</ele>
        <time>2014-06-03T12:34:48Z</time>
      </trkpt>
      <trkpt lat="42.4418" lon="0.16278">
        <ele>669.22</ele>
        <time>2014-06-03T12:34:55Z</time>
      </trkpt>
      <trkpt lat="42.44186" lon="0.16269">
        <ele>670.66</ele>
        <time>2014-06-03T12:35:00Z</time>
      </trkpt>
      <trkpt lat="42.4419" lon="0.1626">
        <ele>671.62</ele>
        <time>2014-06-03T12:35:05Z</time>
      </trkpt>
      <trkpt lat="42.4419" lon="0.16259">
        <ele>672.1</ele>
        <time>2014-06-03T12:35:06Z</time>
      </trkpt>
      <trkpt lat="42.44194" lon="0.16253">
        <ele>672.58</ele>
        <time>2014-06-03T12:35:10Z</time>
      </trkpt>
      <trkpt lat="42.44204" lon="0.16238">
        <ele>673.06</ele>
        <time>2014-06-03T12:35:19Z</time>
      </trkpt>
      <trkpt lat="42.44215" lon="0.16226">
        <ele>672.58</ele>
        <time>2014-06-03T12:35:30Z</time>
      </trkpt>
      <trkpt lat="42.44215" lon="0.16226">
        <ele>672.58</ele>
        <time>2014-06-03T12:35:53Z</time>
      </trkpt>
      <trkpt lat="42.44216" lon="0.16225">
        <ele>672.58</ele>
        <time>2014-06-03T12:36:06Z</time>
      </trkpt>
      <trkpt lat="42.44233" lon="0.16198">
        <ele>671.62</ele>
        <time>2014-06-03T12:36:19Z</time>
      </trkpt>
      <trkpt lat="42.44242" lon="0.16177">
        <ele>673.06</ele>
        <time>2014-06-03T12:36:25Z</time>
      </trkpt>
      <trkpt lat="42.44244" lon="0.16147">
        <ele>676.42</ele>
        <time>2014-06-03T12:36:33Z</time>
      </trkpt>
      <trkpt lat="42.44255" lon="0.16113">
        <ele>679.31</ele>
        <time>2014-06-03T12:36:45Z</time>
      </trkpt>
      <trkpt lat="42.44254" lon="0.16084">
        <ele>681.71</ele>
        <time>2014-06-03T12:36:59Z</time>
      </trkpt>
      <trkpt lat="42.44253" lon="0.16076">
        <ele>682.67</ele>
        <time>2014-06-03T12:37:03Z</time>
      </trkpt>
      <trkpt lat="42.44255" lon="0.16065">
        <ele>684.12</ele>
        <time>2014-06-03T12:37:08Z</time>
      </trkpt>
      <trkpt lat="42.44256" lon="0.16034">
        <ele>687</ele>
        <time>2014-06-03T12:37:23Z</time>
      </trkpt>
      <trkpt lat="42.44256" lon="0.16029">
        <ele>687</ele>
        <time>2014-06-03T12:37:26Z</time>
      </trkpt>
      <trkpt lat="42.44255" lon="0.16021">
        <ele>687.96</ele>
        <time>2014-06-03T12:37:30Z</time>
      </trkpt>
      <trkpt lat="42.44248" lon="0.15987">
        <ele>690.84</ele>
        <time>2014-06-03T12:37:46Z</time>
      </trkpt>
      <trkpt lat="42.44246" lon="0.15959">
        <ele>691.81</ele>
        <time>2014-06-03T12:37:57Z</time>
      </trkpt>
      <trkpt lat="42.44238" lon="0.15963">
        <ele>692.77</ele>
        <time>2014-06-03T12:38:07Z</time>
      </trkpt>
      <trkpt lat="42.44238" lon="0.15969">
        <ele>693.25</ele>
        <time>2014-06-03T12:38:11Z</time>
      </trkpt>
      <trkpt lat="42.44237" lon="0.15971">
        <ele>693.73</ele>
        <time>2014-06-03T12:38:23Z</time>
      </trkpt>
      <trkpt lat="42.44237" lon="0.15974">
        <ele>694.21</ele>
        <time>2014-06-03T12:38:38Z</time>
      </trkpt>
      <trkpt lat="42.44239" lon="0.1598">
        <ele>694.69</ele>
        <time>2014-06-03T12:38:43Z</time>
      </trkpt>
      <trkpt lat="42.44237" lon="0.15993">
        <ele>694.69</ele>
        <time>2014-06-03T12:38:51Z</time>
      </trkpt>
      <trkpt lat="42.44234" lon="0.16027">
        <ele>695.65</ele>
        <time>2014-06-03T12:39:05Z</time>
      </trkpt>
      <trkpt lat="42.44223" lon="0.16064">
        <ele>697.09</ele>
        <time>2014-06-03T12:39:18Z</time>
      </trkpt>
      <trkpt lat="42.442" lon="0.1611">
        <ele>698.53</ele>
        <time>2014-06-03T12:39:34Z</time>
      </trkpt>
      <trkpt lat="42.44171" lon="0.16147">
        <ele>701.9</ele>
        <time>2014-06-03T12:39:49Z</time>
      </trkpt>
      <trkpt lat="42.44166" lon="0.16157">
        <ele>702.86</ele>
        <time>2014-06-03T12:39:53Z</time>
      </trkpt>
      <trkpt lat="42.44141" lon="0.16177">
        <ele>704.78</ele>
        <time>2014-06-03T12:40:08Z</time>
      </trkpt>
      <trkpt lat="42.4414" lon="0.16177">
        <ele>704.3</ele>
        <time>2014-06-03T12:40:26Z</time>
      </trkpt>
      <trkpt lat="42.4414" lon="0.16177">
        <ele>704.3</ele>
        <time>2014-06-03T12:40:58Z</time>
      </trkpt>
      <trkpt lat="42.4414" lon="0.16177">
        <ele>704.3</ele>
        <time>2014-06-03T12:41:28Z</time>
      </trkpt>
      <trkpt lat="42.4414" lon="0.16178">
        <ele>704.78</ele>
        <time>2014-06-03T12:42:06Z</time>
      </trkpt>
      <trkpt lat="42.4414" lon="0.16177">
        <ele>704.78</ele>
        <time>2014-06-03T12:42:41Z</time>
      </trkpt>
      <trkpt lat="42.4414" lon="0.16178">
        <ele>704.78</ele>
        <time>2014-06-03T12:43:12Z</time>
      </trkpt>
      <trkpt lat="42.4414" lon="0.16178">
        <ele>704.78</ele>
        <time>2014-06-03T12:43:48Z</time>
      </trkpt>
      <trkpt lat="42.4414" lon="0.16178">
        <ele>705.26</ele>
        <time>2014-06-03T12:44:18Z</time>
      </trkpt>
      <trkpt lat="42.4414" lon="0.16178">
        <ele>705.26</ele>
        <time>2014-06-03T12:44:51Z</time>
      </trkpt>
      <trkpt lat="42.4414" lon="0.16178">
        <ele>705.26</ele>
        <time>2014-06-03T12:45:27Z</time>
      </trkpt>
      <trkpt lat="42.4414" lon="0.16178">
        <ele>705.26</ele>
        <time>2014-06-03T12:46:07Z</time>
      </trkpt>
      <trkpt lat="42.4414" lon="0.16178">
        <ele>705.26</ele>
        <time>2014-06-03T12:46:48Z</time>
      </trkpt>
      <trkpt lat="42.4414" lon="0.16176">
        <ele>705.75</ele>
        <time>2014-06-03T12:46:54Z</time>
      </trkpt>
      <trkpt lat="42.44136" lon="0.1617">
        <ele>705.75</ele>
        <time>2014-06-03T12:47:01Z</time>
      </trkpt>
      <trkpt lat="42.4414" lon="0.16171">
        <ele>705.26</ele>
        <time>2014-06-03T12:47:04Z</time>
      </trkpt>
      <trkpt lat="42.44144" lon="0.16172">
        <ele>705.26</ele>
        <time>2014-06-03T12:47:06Z</time>
      </trkpt>
      <trkpt lat="42.44146" lon="0.16175">
        <ele>705.75</ele>
        <time>2014-06-03T12:47:20Z</time>
      </trkpt>
      <trkpt lat="42.44146" lon="0.16175">
        <ele>705.26</ele>
        <time>2014-06-03T12:47:34Z</time>
      </trkpt>
      <trkpt lat="42.44141" lon="0.16167">
        <ele>704.78</ele>
        <time>2014-06-03T12:47:42Z</time>
      </trkpt>
      <trkpt lat="42.44139" lon="0.16166">
        <ele>705.75</ele>
        <time>2014-06-03T12:47:57Z</time>
      </trkpt>
      <trkpt lat="42.44138" lon="0.16168">
        <ele>705.26</ele>
        <time>2014-06-03T12:48:01Z</time>
      </trkpt>
      <trkpt lat="42.44133" lon="0.16169">
        <ele>704.78</ele>
        <time>2014-06-03T12:48:09Z</time>
      </trkpt>
      <trkpt lat="42.44133" lon="0.16169">
        <ele>703.82</ele>
        <time>2014-06-03T12:48:31Z</time>
      </trkpt>
      <trkpt lat="42.44129" lon="0.16166">
        <ele>702.86</ele>
        <time>2014-06-03T12:48:57Z</time>
      </trkpt>
      <trkpt lat="42.44109" lon="0.16148">
        <ele>697.57</ele>
        <time>2014-06-03T12:49:02Z</time>
      </trkpt>
      <trkpt lat="42.44105" lon="0.16131">
        <ele>695.17</ele>
        <time>2014-06-03T12:49:05Z</time>
      </trkpt>
      <trkpt lat="42.44089" lon="0.16107">
        <ele>690.84</ele>
        <time>2014-06-03T12:49:09Z</time>
      </trkpt>
      <trkpt lat="42.44085" lon="0.16098">
        <ele>689.4</ele>
        <time>2014-06-03T12:49:10Z</time>
      </trkpt>
      <trkpt lat="42.44076" lon="0.16075">
        <ele>687</ele>
        <time>2014-06-03T12:49:12Z</time>
      </trkpt>
      <trkpt lat="42.44061" lon="0.16047">
        <ele>682.19</ele>
        <time>2014-06-03T12:49:15Z</time>
      </trkpt>
      <trkpt lat="42.44054" lon="0.1602">
        <ele>678.83</ele>
        <time>2014-06-03T12:49:19Z</time>
      </trkpt>
      <trkpt lat="42.44038" lon="0.16018">
        <ele>675.94</ele>
        <time>2014-06-03T12:49:22Z</time>
      </trkpt>
      <trkpt lat="42.44022" lon="0.16019">
        <ele>672.58</ele>
        <time>2014-06-03T12:49:24Z</time>
      </trkpt>
      <trkpt lat="42.43994" lon="0.16011">
        <ele>667.77</ele>
        <time>2014-06-03T12:49:27Z</time>
      </trkpt>
      <trkpt lat="42.43961" lon="0.15991">
        <ele>665.85</ele>
        <time>2014-06-03T12:49:31Z</time>
      </trkpt>
      <trkpt lat="42.43936" lon="0.15965">
        <ele>661.52</ele>
        <time>2014-06-03T12:49:35Z</time>
      </trkpt>
      <trkpt lat="42.4393" lon="0.15961">
        <ele>660.08</ele>
        <time>2014-06-03T12:49:36Z</time>
      </trkpt>
      <trkpt lat="42.43907" lon="0.1595">
        <ele>655.76</ele>
        <time>2014-06-03T12:49:39Z</time>
      </trkpt>
      <trkpt lat="42.43891" lon="0.15944">
        <ele>652.39</ele>
        <time>2014-06-03T12:49:41Z</time>
      </trkpt>
      <trkpt lat="42.43869" lon="0.15933">
        <ele>648.07</ele>
        <time>2014-06-03T12:49:44Z</time>
      </trkpt>
      <trkpt lat="42.43857" lon="0.15926">
        <ele>646.62</ele>
        <time>2014-06-03T12:49:46Z</time>
      </trkpt>
      <trkpt lat="42.43844" lon="0.15912">
        <ele>643.74</ele>
        <time>2014-06-03T12:49:49Z</time>
      </trkpt>
      <trkpt lat="42.43823" lon="0.15894">
        <ele>641.82</ele>
        <time>2014-06-03T12:49:53Z</time>
      </trkpt>
      <trkpt lat="42.43802" lon="0.15878">
        <ele>639.89</ele>
        <time>2014-06-03T12:49:57Z</time>
      </trkpt>
      <trkpt lat="42.43768" lon="0.15845">
        <ele>635.57</ele>
        <time>2014-06-03T12:50:03Z</time>
      </trkpt>
      <trkpt lat="42.43755" lon="0.15835">
        <ele>635.57</ele>
        <time>2014-06-03T12:50:05Z</time>
      </trkpt>
      <trkpt lat="42.43734" lon="0.15807">
        <ele>635.09</ele>
        <time>2014-06-03T12:50:09Z</time>
      </trkpt>
      <trkpt lat="42.43698" lon="0.15769">
        <ele>634.61</ele>
        <time>2014-06-03T12:50:16Z</time>
      </trkpt>
      <trkpt lat="42.4366" lon="0.15712">
        <ele>657.68</ele>
        <time>2014-06-03T12:54:14Z</time>
      </trkpt>
      <trkpt lat="42.43658" lon="0.15713">
        <ele>657.68</ele>
        <time>2014-06-03T12:54:15Z</time>
      </trkpt>
      <trkpt lat="42.43657" lon="0.15717">
        <ele>654.31</ele>
        <time>2014-06-03T12:54:21Z</time>
      </trkpt>
      <trkpt lat="42.43656" lon="0.15718">
        <ele>650.95</ele>
        <time>2014-06-03T12:54:24Z</time>
      </trkpt>
      <trkpt lat="42.43655" lon="0.15719">
        <ele>643.74</ele>
        <time>2014-06-03T12:54:27Z</time>
      </trkpt>
      <trkpt lat="42.43655" lon="0.15719">
        <ele>649.51</ele>
        <time>2014-06-03T12:54:28Z</time>
      </trkpt>
      <trkpt lat="42.43656" lon="0.15718">
        <ele>646.62</ele>
        <time>2014-06-03T12:54:35Z</time>
      </trkpt>
      <trkpt lat="42.43657" lon="0.15717">
        <ele>644.7</ele>
        <time>2014-06-03T12:54:39Z</time>
      </trkpt>
      <trkpt lat="42.43656" lon="0.15716">
        <ele>644.7</ele>
        <time>2014-06-03T12:54:42Z</time>
      </trkpt>
      <trkpt lat="42.4365" lon="0.15709">
        <ele>643.74</ele>
        <time>2014-06-03T12:54:48Z</time>
      </trkpt>
      <trkpt lat="42.43643" lon="0.15699">
        <ele>641.82</ele>
        <time>2014-06-03T12:55:02Z</time>
      </trkpt>
      <trkpt lat="42.43643" lon="0.15698">
        <ele>641.34</ele>
        <time>2014-06-03T12:55:03Z</time>
      </trkpt>
      <trkpt lat="42.43642" lon="0.15694">
        <ele>641.34</ele>
        <time>2014-06-03T12:55:07Z</time>
      </trkpt>
      <trkpt lat="42.43636" lon="0.15687">
        <ele>642.78</ele>
        <time>2014-06-03T12:55:21Z</time>
      </trkpt>
      <trkpt lat="42.43627" lon="0.15677">
        <ele>644.22</ele>
        <time>2014-06-03T12:55:35Z</time>
      </trkpt>
      <trkpt lat="42.4362" lon="0.15674">
        <ele>645.18</ele>
        <time>2014-06-03T12:55:47Z</time>
      </trkpt>
      <trkpt lat="42.43606" lon="0.1567">
        <ele>648.07</ele>
        <time>2014-06-03T12:56:04Z</time>
      </trkpt>
      <trkpt lat="42.43594" lon="0.15675">
        <ele>650.95</ele>
        <time>2014-06-03T12:56:19Z</time>
      </trkpt>
      <trkpt lat="42.43591" lon="0.15675">
        <ele>652.39</ele>
        <time>2014-06-03T12:56:24Z</time>
      </trkpt>
      <trkpt lat="42.43582" lon="0.15674">
        <ele>654.31</ele>
        <time>2014-06-03T12:56:38Z</time>
      </trkpt>
      <trkpt lat="42.43579" lon="0.15681">
        <ele>655.28</ele>
        <time>2014-06-03T12:56:46Z</time>
      </trkpt>
      <trkpt lat="42.4357" lon="0.15688">
        <ele>656.72</ele>
        <time>2014-06-03T12:56:57Z</time>
      </trkpt>
      <trkpt lat="42.43559" lon="0.15695">
        <ele>659.12</ele>
        <time>2014-06-03T12:57:11Z</time>
      </trkpt>
      <trkpt lat="42.43549" lon="0.15705">
        <ele>661.52</ele>
        <time>2014-06-03T12:57:25Z</time>
      </trkpt>
      <trkpt lat="42.43543" lon="0.15698">
        <ele>662.97</ele>
        <time>2014-06-03T12:57:38Z</time>
      </trkpt>
      <trkpt lat="42.4354" lon="0.15695">
        <ele>665.37</ele>
        <time>2014-06-03T12:57:50Z</time>
      </trkpt>
      <trkpt lat="42.43533" lon="0.15696">
        <ele>667.77</ele>
        <time>2014-06-03T12:58:03Z</time>
      </trkpt>
      <trkpt lat="42.43529" lon="0.15695">
        <ele>668.73</ele>
        <time>2014-06-03T12:58:16Z</time>
      </trkpt>
      <trkpt lat="42.43524" lon="0.15692">
        <ele>669.7</ele>
        <time>2014-06-03T12:58:30Z</time>
      </trkpt>
      <trkpt lat="42.43523" lon="0.15692">
        <ele>669.7</ele>
        <time>2014-06-03T12:58:31Z</time>
      </trkpt>
      <trkpt lat="42.43511" lon="0.15693">
        <ele>667.29</ele>
        <time>2014-06-03T12:58:38Z</time>
      </trkpt>
      <trkpt lat="42.43499" lon="0.15711">
        <ele>668.25</ele>
        <time>2014-06-03T12:58:46Z</time>
      </trkpt>
      <trkpt lat="42.43487" lon="0.15724">
        <ele>666.81</ele>
        <time>2014-06-03T12:58:51Z</time>
      </trkpt>
      <trkpt lat="42.4348" lon="0.15736">
        <ele>666.81</ele>
        <time>2014-06-03T12:58:54Z</time>
      </trkpt>
      <trkpt lat="42.43465" lon="0.15752">
        <ele>664.89</ele>
        <time>2014-06-03T12:58:58Z</time>
      </trkpt>
      <trkpt lat="42.43456" lon="0.1576">
        <ele>664.41</ele>
        <time>2014-06-03T12:59:04Z</time>
      </trkpt>
      <trkpt lat="42.43456" lon="0.1576">
        <ele>663.93</ele>
        <time>2014-06-03T12:59:15Z</time>
      </trkpt>
      <trkpt lat="42.43449" lon="0.1576">
        <ele>661.04</ele>
        <time>2014-06-03T12:59:19Z</time>
      </trkpt>
      <trkpt lat="42.43442" lon="0.15759">
        <ele>658.16</ele>
        <time>2014-06-03T12:59:22Z</time>
      </trkpt>
      <trkpt lat="42.43436" lon="0.15759">
        <ele>655.76</ele>
        <time>2014-06-03T12:59:29Z</time>
      </trkpt>
      <trkpt lat="42.43438" lon="0.15761">
        <ele>655.28</ele>
        <time>2014-06-03T12:59:51Z</time>
      </trkpt>
      <trkpt lat="42.43438" lon="0.15761">
        <ele>655.28</ele>
        <time>2014-06-03T12:59:52Z</time>
      </trkpt>
      <trkpt lat="42.43438" lon="0.15766">
        <ele>655.28</ele>
        <time>2014-06-03T12:59:55Z</time>
      </trkpt>
      <trkpt lat="42.4343" lon="0.15776">
        <ele>653.83</ele>
        <time>2014-06-03T13:00:00Z</time>
      </trkpt>
      <trkpt lat="42.43422" lon="0.15783">
        <ele>652.87</ele>
        <time>2014-06-03T13:00:02Z</time>
      </trkpt>
      <trkpt lat="42.43411" lon="0.15788">
        <ele>649.99</ele>
        <time>2014-06-03T13:00:04Z</time>
      </trkpt>
      <trkpt lat="42.43399" lon="0.15793">
        <ele>648.07</ele>
        <time>2014-06-03T13:00:06Z</time>
      </trkpt>
      <trkpt lat="42.43375" lon="0.15785">
        <ele>644.22</ele>
        <time>2014-06-03T13:00:10Z</time>
      </trkpt>
      <trkpt lat="42.43369" lon="0.15786">
        <ele>643.26</ele>
        <time>2014-06-03T13:00:11Z</time>
      </trkpt>
      <trkpt lat="42.43355" lon="0.1579">
        <ele>641.82</ele>
        <time>2014-06-03T13:00:13Z</time>
      </trkpt>
      <trkpt lat="42.4334" lon="0.15789">
        <ele>638.45</ele>
        <time>2014-06-03T13:00:15Z</time>
      </trkpt>
      <trkpt lat="42.43307" lon="0.15781">
        <ele>633.65</ele>
        <time>2014-06-03T13:00:20Z</time>
      </trkpt>
      <trkpt lat="42.43301" lon="0.15777">
        <ele>632.2</ele>
        <time>2014-06-03T13:00:21Z</time>
      </trkpt>
      <trkpt lat="42.4328" lon="0.15764">
        <ele>627.4</ele>
        <time>2014-06-03T13:00:25Z</time>
      </trkpt>
      <trkpt lat="42.43256" lon="0.15741">
        <ele>623.55</ele>
        <time>2014-06-03T13:00:30Z</time>
      </trkpt>
      <trkpt lat="42.43244" lon="0.15737">
        <ele>621.15</ele>
        <time>2014-06-03T13:00:32Z</time>
      </trkpt>
      <trkpt lat="42.43213" lon="0.15734">
        <ele>617.3</ele>
        <time>2014-06-03T13:00:37Z</time>
      </trkpt>
      <trkpt lat="42.43204" lon="0.15724">
        <ele>616.82</ele>
        <time>2014-06-03T13:00:39Z</time>
      </trkpt>
      <trkpt lat="42.43189" lon="0.15694">
        <ele>612.98</ele>
        <time>2014-06-03T13:00:44Z</time>
      </trkpt>
      <trkpt lat="42.43163" lon="0.15697">
        <ele>610.09</ele>
        <time>2014-06-03T13:00:47Z</time>
      </trkpt>
      <trkpt lat="42.43128" lon="0.157">
        <ele>606.73</ele>
        <time>2014-06-03T13:00:51Z</time>
      </trkpt>
      <trkpt lat="42.43105" lon="0.1571">
        <ele>607.69</ele>
        <time>2014-06-03T13:00:55Z</time>
      </trkpt>
      <trkpt lat="42.4308" lon="0.15718">
        <ele>608.65</ele>
        <time>2014-06-03T13:01:02Z</time>
      </trkpt>
      <trkpt lat="42.43067" lon="0.15707">
        <ele>606.25</ele>
        <time>2014-06-03T13:01:05Z</time>
      </trkpt>
      <trkpt lat="42.43055" lon="0.15697">
        <ele>605.29</ele>
        <time>2014-06-03T13:01:07Z</time>
      </trkpt>
      <trkpt lat="42.43044" lon="0.15698">
        <ele>605.29</ele>
        <time>2014-06-03T13:01:09Z</time>
      </trkpt>
      <trkpt lat="42.43004" lon="0.15716">
        <ele>603.36</ele>
        <time>2014-06-03T13:01:16Z</time>
      </trkpt>
      <trkpt lat="42.42963" lon="0.15752">
        <ele>602.88</ele>
        <time>2014-06-03T13:01:23Z</time>
      </trkpt>
      <trkpt lat="42.42938" lon="0.1577">
        <ele>600</ele>
        <time>2014-06-03T13:01:27Z</time>
      </trkpt>
      <trkpt lat="42.42934" lon="0.15774">
        <ele>600</ele>
        <time>2014-06-03T13:01:28Z</time>
      </trkpt>
      <trkpt lat="42.42924" lon="0.15785">
        <ele>599.04</ele>
        <time>2014-06-03T13:01:31Z</time>
      </trkpt>
      <trkpt lat="42.42895" lon="0.15808">
        <ele>597.6</ele>
        <time>2014-06-03T13:01:38Z</time>
      </trkpt>
      <trkpt lat="42.42881" lon="0.15818">
        <ele>595.19</ele>
        <time>2014-06-03T13:01:41Z</time>
      </trkpt>
      <trkpt lat="42.42848" lon="0.15848">
        <ele>591.35</ele>
        <time>2014-06-03T13:01:48Z</time>
      </trkpt>
      <trkpt lat="42.42843" lon="0.15853">
        <ele>591.35</ele>
        <time>2014-06-03T13:01:49Z</time>
      </trkpt>
      <trkpt lat="42.42833" lon="0.15862">
        <ele>589.91</ele>
        <time>2014-06-03T13:01:51Z</time>
      </trkpt>
      <trkpt lat="42.42824" lon="0.15876">
        <ele>586.54</ele>
        <time>2014-06-03T13:01:53Z</time>
      </trkpt>
      <trkpt lat="42.42812" lon="0.15888">
        <ele>584.62</ele>
        <time>2014-06-03T13:01:55Z</time>
      </trkpt>
      <trkpt lat="42.42798" lon="0.15899">
        <ele>583.66</ele>
        <time>2014-06-03T13:01:57Z</time>
      </trkpt>
      <trkpt lat="42.42775" lon="0.15911">
        <ele>580.77</ele>
        <time>2014-06-03T13:02:00Z</time>
      </trkpt>
      <trkpt lat="42.42733" lon="0.15909">
        <ele>577.41</ele>
        <time>2014-06-03T13:02:05Z</time>
      </trkpt>
      <trkpt lat="42.42689" lon="0.15893">
        <ele>576.45</ele>
        <time>2014-06-03T13:02:11Z</time>
      </trkpt>
      <trkpt lat="42.42682" lon="0.15893">
        <ele>576.93</ele>
        <time>2014-06-03T13:02:16Z</time>
      </trkpt>
      <trkpt lat="42.42682" lon="0.15893">
        <ele>576.93</ele>
        <time>2014-06-03T13:02:43Z</time>
      </trkpt>
      <trkpt lat="42.42677" lon="0.15901">
        <ele>576.93</ele>
        <time>2014-06-03T13:02:58Z</time>
      </trkpt>
      <trkpt lat="42.42667" lon="0.15901">
        <ele>575.97</ele>
        <time>2014-06-03T13:03:01Z</time>
      </trkpt>
      <trkpt lat="42.42642" lon="0.15898">
        <ele>572.6</ele>
        <time>2014-06-03T13:03:05Z</time>
      </trkpt>
      <trkpt lat="42.42628" lon="0.15915">
        <ele>571.16</ele>
        <time>2014-06-03T13:03:08Z</time>
      </trkpt>
      <trkpt lat="42.42584" lon="0.15988">
        <ele>568.28</ele>
        <time>2014-06-03T13:03:19Z</time>
      </trkpt>
      <trkpt lat="42.42576" lon="0.16008">
        <ele>565.87</ele>
        <time>2014-06-03T13:03:22Z</time>
      </trkpt>
      <trkpt lat="42.42573" lon="0.16015">
        <ele>564.91</ele>
        <time>2014-06-03T13:03:23Z</time>
      </trkpt>
      <trkpt lat="42.42547" lon="0.16025">
        <ele>566.83</ele>
        <time>2014-06-03T13:03:29Z</time>
      </trkpt>
      <trkpt lat="42.42544" lon="0.16026">
        <ele>566.83</ele>
        <time>2014-06-03T13:03:30Z</time>
      </trkpt>
      <trkpt lat="42.42541" lon="0.16026">
        <ele>567.32</ele>
        <time>2014-06-03T13:03:32Z</time>
      </trkpt>
      <trkpt lat="42.42527" lon="0.16008">
        <ele>566.35</ele>
        <time>2014-06-03T13:03:39Z</time>
      </trkpt>
      <trkpt lat="42.42511" lon="0.15991">
        <ele>566.35</ele>
        <time>2014-06-03T13:03:44Z</time>
      </trkpt>
      <trkpt lat="42.42493" lon="0.15974">
        <ele>564.91</ele>
        <time>2014-06-03T13:03:48Z</time>
      </trkpt>
      <trkpt lat="42.42477" lon="0.15948">
        <ele>563.47</ele>
        <time>2014-06-03T13:03:52Z</time>
      </trkpt>
      <trkpt lat="42.42466" lon="0.15917">
        <ele>562.99</ele>
        <time>2014-06-03T13:03:56Z</time>
      </trkpt>
      <trkpt lat="42.42456" lon="0.1587">
        <ele>562.99</ele>
        <time>2014-06-03T13:04:03Z</time>
      </trkpt>
      <trkpt lat="42.42467" lon="0.15835">
        <ele>561.55</ele>
        <time>2014-06-03T13:04:08Z</time>
      </trkpt>
      <trkpt lat="42.42492" lon="0.15768">
        <ele>560.11</ele>
        <time>2014-06-03T13:04:17Z</time>
      </trkpt>
      <trkpt lat="42.42481" lon="0.15702">
        <ele>560.11</ele>
        <time>2014-06-03T13:04:26Z</time>
      </trkpt>
      <trkpt lat="42.42478" lon="0.15697">
        <ele>560.59</ele>
        <time>2014-06-03T13:04:27Z</time>
      </trkpt>
      <trkpt lat="42.42459" lon="0.15658">
        <ele>560.59</ele>
        <time>2014-06-03T13:04:34Z</time>
      </trkpt>
      <trkpt lat="42.4243" lon="0.15626">
        <ele>559.62</ele>
        <time>2014-06-03T13:04:42Z</time>
      </trkpt>
      <trkpt lat="42.42363" lon="0.15587">
        <ele>561.07</ele>
        <time>2014-06-03T13:04:57Z</time>
      </trkpt>
      <trkpt lat="42.42281" lon="0.15502">
        <ele>558.18</ele>
        <time>2014-06-03T13:05:16Z</time>
      </trkpt>
      <trkpt lat="42.42236" lon="0.15455">
        <ele>556.26</ele>
        <time>2014-06-03T13:05:25Z</time>
      </trkpt>
      <trkpt lat="42.42204" lon="0.15413">
        <ele>552.41</ele>
        <time>2014-06-03T13:05:31Z</time>
      </trkpt>
      <trkpt lat="42.42135" lon="0.15318">
        <ele>549.53</ele>
        <time>2014-06-03T13:05:43Z</time>
      </trkpt>
      <trkpt lat="42.42096" lon="0.15269">
        <ele>549.05</ele>
        <time>2014-06-03T13:05:51Z</time>
      </trkpt>
      <trkpt lat="42.42077" lon="0.15245">
        <ele>550.01</ele>
        <time>2014-06-03T13:05:56Z</time>
      </trkpt>
      <trkpt lat="42.42063" lon="0.1523">
        <ele>549.05</ele>
        <time>2014-06-03T13:05:59Z</time>
      </trkpt>
      <trkpt lat="42.42013" lon="0.15135">
        <ele>547.61</ele>
        <time>2014-06-03T13:06:14Z</time>
      </trkpt>
      <trkpt lat="42.42002" lon="0.15022">
        <ele>547.13</ele>
        <time>2014-06-03T13:06:30Z</time>
      </trkpt>
      <trkpt lat="42.41979" lon="0.14919">
        <ele>546.65</ele>
        <time>2014-06-03T13:06:45Z</time>
      </trkpt>
      <trkpt lat="42.41962" lon="0.14888">
        <ele>546.17</ele>
        <time>2014-06-03T13:06:50Z</time>
      </trkpt>
      <trkpt lat="42.41895" lon="0.14838">
        <ele>543.76</ele>
        <time>2014-06-03T13:07:03Z</time>
      </trkpt>
      <trkpt lat="42.41783" lon="0.14819">
        <ele>540.88</ele>
        <time>2014-06-03T13:07:23Z</time>
      </trkpt>
      <trkpt lat="42.41702" lon="0.14775">
        <ele>540.4</ele>
        <time>2014-06-03T13:07:39Z</time>
      </trkpt>
      <trkpt lat="42.4164" lon="0.14689">
        <ele>538.96</ele>
        <time>2014-06-03T13:07:56Z</time>
      </trkpt>
      <trkpt lat="42.41616" lon="0.14656">
        <ele>537.99</ele>
        <time>2014-06-03T13:08:03Z</time>
      </trkpt>
      <trkpt lat="42.41596" lon="0.14613">
        <ele>538.48</ele>
        <time>2014-06-03T13:08:10Z</time>
      </trkpt>
      <trkpt lat="42.4157" lon="0.14529">
        <ele>537.99</ele>
        <time>2014-06-03T13:08:23Z</time>
      </trkpt>
      <trkpt lat="42.41563" lon="0.14496">
        <ele>537.99</ele>
        <time>2014-06-03T13:08:29Z</time>
      </trkpt>
      <trkpt lat="42.41546" lon="0.14445">
        <ele>541.36</ele>
        <time>2014-06-03T13:08:40Z</time>
      </trkpt>
      <trkpt lat="42.41538" lon="0.14434">
        <ele>541.36</ele>
        <time>2014-06-03T13:08:47Z</time>
      </trkpt>
      <trkpt lat="42.4153" lon="0.1442">
        <ele>540.88</ele>
        <time>2014-06-03T13:08:52Z</time>
      </trkpt>
      <trkpt lat="42.41514" lon="0.14366">
        <ele>541.36</ele>
        <time>2014-06-03T13:09:04Z</time>
      </trkpt>
      <trkpt lat="42.41498" lon="0.14249">
        <ele>541.36</ele>
        <time>2014-06-03T13:09:23Z</time>
      </trkpt>
      <trkpt lat="42.41481" lon="0.14123">
        <ele>541.36</ele>
        <time>2014-06-03T13:09:44Z</time>
      </trkpt>
      <trkpt lat="42.41466" lon="0.14065">
        <ele>542.32</ele>
        <time>2014-06-03T13:09:58Z</time>
      </trkpt>
      <trkpt lat="42.41461" lon="0.14058">
        <ele>542.32</ele>
        <time>2014-06-03T13:10:01Z</time>
      </trkpt>
      <trkpt lat="42.4146" lon="0.14048">
        <ele>542.32</ele>
        <time>2014-06-03T13:10:15Z</time>
      </trkpt>
      <trkpt lat="42.4146" lon="0.14048">
        <ele>541.84</ele>
        <time>2014-06-03T13:10:37Z</time>
      </trkpt>
      <trkpt lat="42.4146" lon="0.14048">
        <ele>542.32</ele>
        <time>2014-06-03T13:10:59Z</time>
      </trkpt>
      <trkpt lat="42.4146" lon="0.14048">
        <ele>541.84</ele>
        <time>2014-06-03T13:11:23Z</time>
      </trkpt>
      <trkpt lat="42.4146" lon="0.14048">
        <ele>542.32</ele>
        <time>2014-06-03T13:11:44Z</time>
      </trkpt>
      <trkpt lat="42.4146" lon="0.14048">
        <ele>542.32</ele>
        <time>2014-06-03T13:12:00Z</time>
      </trkpt>
      <trkpt lat="42.4146" lon="0.14048">
        <ele>542.8</ele>
        <time>2014-06-03T13:12:27Z</time>
      </trkpt>
      <trkpt lat="42.41461" lon="0.14043">
        <ele>542.32</ele>
        <time>2014-06-03T13:12:44Z</time>
      </trkpt>
      <trkpt lat="42.41446" lon="0.14038">
        <ele>542.32</ele>
        <time>2014-06-03T13:12:51Z</time>
      </trkpt>
      <trkpt lat="42.41422" lon="0.14027">
        <ele>541.36</ele>
        <time>2014-06-03T13:13:00Z</time>
      </trkpt>
      <trkpt lat="42.41351" lon="0.14036">
        <ele>541.84</ele>
        <time>2014-06-03T13:13:18Z</time>
      </trkpt>
      <trkpt lat="42.41271" lon="0.14041">
        <ele>541.36</ele>
        <time>2014-06-03T13:13:36Z</time>
      </trkpt>
      <trkpt lat="42.41259" lon="0.1404">
        <ele>541.84</ele>
        <time>2014-06-03T13:13:39Z</time>
      </trkpt>
      <trkpt lat="42.41235" lon="0.14035">
        <ele>541.84</ele>
        <time>2014-06-03T13:13:46Z</time>
      </trkpt>
      <trkpt lat="42.41231" lon="0.14043">
        <ele>541.36</ele>
        <time>2014-06-03T13:13:49Z</time>
      </trkpt>
      <trkpt lat="42.41229" lon="0.14062">
        <ele>542.8</ele>
        <time>2014-06-03T13:13:55Z</time>
      </trkpt>
      <trkpt lat="42.41227" lon="0.14063">
        <ele>543.28</ele>
        <time>2014-06-03T13:13:56Z</time>
      </trkpt>
      <trkpt lat="42.41224" lon="0.14066">
        <ele>544.24</ele>
        <time>2014-06-03T13:13:59Z</time>
      </trkpt>
      <trkpt lat="42.41221" lon="0.14065">
        <ele>544.72</ele>
        <time>2014-06-03T13:14:10Z</time>
      </trkpt>
      <trkpt lat="42.4122" lon="0.14067">
        <ele>543.76</ele>
        <time>2014-06-03T13:14:30Z</time>
      </trkpt>
      <trkpt lat="42.41221" lon="0.14068">
        <ele>543.76</ele>
        <time>2014-06-03T13:15:08Z</time>
      </trkpt>
      <trkpt lat="42.41221" lon="0.14068">
        <ele>543.76</ele>
        <time>2014-06-03T13:15:40Z</time>
      </trkpt>
      <trkpt lat="42.41223" lon="0.14069">
        <ele>543.76</ele>
        <time>2014-06-03T13:16:00Z</time>
      </trkpt>
      <trkpt lat="42.41222" lon="0.1407">
        <ele>544.24</ele>
        <time>2014-06-03T13:16:12Z</time>
      </trkpt>
      <trkpt lat="42.41222" lon="0.1407">
        <ele>544.24</ele>
        <time>2014-06-03T13:16:41Z</time>
      </trkpt>
      <trkpt lat="42.41222" lon="0.1407">
        <ele>544.72</ele>
        <time>2014-06-03T13:17:11Z</time>
      </trkpt>
      <trkpt lat="42.41222" lon="0.14071">
        <ele>544.24</ele>
        <time>2014-06-03T13:17:42Z</time>
      </trkpt>
      <trkpt lat="42.41222" lon="0.14071">
        <ele>544.24</ele>
        <time>2014-06-03T13:18:11Z</time>
      </trkpt>
      <trkpt lat="42.41222" lon="0.14071">
        <ele>544.72</ele>
        <time>2014-06-03T13:18:39Z</time>
      </trkpt>
      <trkpt lat="42.41222" lon="0.14072">
        <ele>544.24</ele>
        <time>2014-06-03T13:19:10Z</time>
      </trkpt>
      <trkpt lat="42.41222" lon="0.14072">
        <ele>544.24</ele>
        <time>2014-06-03T13:19:42Z</time>
      </trkpt>
      <trkpt lat="42.41222" lon="0.14072">
        <ele>544.72</ele>
        <time>2014-06-03T13:20:11Z</time>
      </trkpt>
      <trkpt lat="42.41222" lon="0.14072">
        <ele>544.24</ele>
        <time>2014-06-03T13:20:45Z</time>
      </trkpt>
      <trkpt lat="42.41222" lon="0.14072">
        <ele>544.72</ele>
        <time>2014-06-03T13:21:16Z</time>
      </trkpt>
      <trkpt lat="42.41223" lon="0.14072">
        <ele>544.24</ele>
        <time>2014-06-03T13:21:52Z</time>
      </trkpt>
      <trkpt lat="42.41224" lon="0.14072">
        <ele>544.72</ele>
        <time>2014-06-03T13:22:26Z</time>
      </trkpt>
      <trkpt lat="42.41226" lon="0.1407">
        <ele>544.72</ele>
        <time>2014-06-03T13:22:47Z</time>
      </trkpt>
      <trkpt lat="42.41226" lon="0.1407">
        <ele>544.24</ele>
        <time>2014-06-03T13:23:04Z</time>
      </trkpt>
      <trkpt lat="42.41224" lon="0.1407">
        <ele>545.2</ele>
        <time>2014-06-03T13:23:21Z</time>
      </trkpt>
      <trkpt lat="42.41215" lon="0.14071">
        <ele>547.13</ele>
        <time>2014-06-03T13:23:33Z</time>
      </trkpt>
      <trkpt lat="42.412" lon="0.14067">
        <ele>550.49</ele>
        <time>2014-06-03T13:23:44Z</time>
      </trkpt>
      <trkpt lat="42.4118" lon="0.14064">
        <ele>552.9</ele>
        <time>2014-06-03T13:23:59Z</time>
      </trkpt>
      <trkpt lat="42.41174" lon="0.14062">
        <ele>554.34</ele>
        <time>2014-06-03T13:24:04Z</time>
      </trkpt>
      <trkpt lat="42.41159" lon="0.1406">
        <ele>555.78</ele>
        <time>2014-06-03T13:24:15Z</time>
      </trkpt>
      <trkpt lat="42.41153" lon="0.14062">
        <ele>557.22</ele>
        <time>2014-06-03T13:24:20Z</time>
      </trkpt>
      <trkpt lat="42.41127" lon="0.14066">
        <ele>560.11</ele>
        <time>2014-06-03T13:24:38Z</time>
      </trkpt>
      <trkpt lat="42.41112" lon="0.1406">
        <ele>562.99</ele>
        <time>2014-06-03T13:24:50Z</time>
      </trkpt>
      <trkpt lat="42.41099" lon="0.1406">
        <ele>565.39</ele>
        <time>2014-06-03T13:24:59Z</time>
      </trkpt>
      <trkpt lat="42.41094" lon="0.14062">
        <ele>566.35</ele>
        <time>2014-06-03T13:25:04Z</time>
      </trkpt>
      <trkpt lat="42.41083" lon="0.14066">
        <ele>568.28</ele>
        <time>2014-06-03T13:25:14Z</time>
      </trkpt>
      <trkpt lat="42.41072" lon="0.14066">
        <ele>570.68</ele>
        <time>2014-06-03T13:25:22Z</time>
      </trkpt>
      <trkpt lat="42.41052" lon="0.14073">
        <ele>573.56</ele>
        <time>2014-06-03T13:25:37Z</time>
      </trkpt>
      <trkpt lat="42.41045" lon="0.14074">
        <ele>574.04</ele>
        <time>2014-06-03T13:25:41Z</time>
      </trkpt>
      <trkpt lat="42.41035" lon="0.14076">
        <ele>574.53</ele>
        <time>2014-06-03T13:25:47Z</time>
      </trkpt>
      <trkpt lat="42.41008" lon="0.14065">
        <ele>577.89</ele>
        <time>2014-06-03T13:26:04Z</time>
      </trkpt>
      <trkpt lat="42.40987" lon="0.14052">
        <ele>581.25</ele>
        <time>2014-06-03T13:26:21Z</time>
      </trkpt>
      <trkpt lat="42.40968" lon="0.14042">
        <ele>584.14</ele>
        <time>2014-06-03T13:26:35Z</time>
      </trkpt>
      <trkpt lat="42.40942" lon="0.14037">
        <ele>586.54</ele>
        <time>2014-06-03T13:26:50Z</time>
      </trkpt>
      <trkpt lat="42.40918" lon="0.14031">
        <ele>587.5</ele>
        <time>2014-06-03T13:27:03Z</time>
      </trkpt>
      <trkpt lat="42.40894" lon="0.1402">
        <ele>591.83</ele>
        <time>2014-06-03T13:27:16Z</time>
      </trkpt>
      <trkpt lat="42.40889" lon="0.14017">
        <ele>589.91</ele>
        <time>2014-06-03T13:27:19Z</time>
      </trkpt>
      <trkpt lat="42.40883" lon="0.14015">
        <ele>587.5</ele>
        <time>2014-06-03T13:27:22Z</time>
      </trkpt>
      <trkpt lat="42.40879" lon="0.14014">
        <ele>589.43</ele>
        <time>2014-06-03T13:27:24Z</time>
      </trkpt>
      <trkpt lat="42.40846" lon="0.1402">
        <ele>591.83</ele>
        <time>2014-06-03T13:27:40Z</time>
      </trkpt>
      <trkpt lat="42.40815" lon="0.14045">
        <ele>591.35</ele>
        <time>2014-06-03T13:27:53Z</time>
      </trkpt>
      <trkpt lat="42.40786" lon="0.14064">
        <ele>594.23</ele>
        <time>2014-06-03T13:28:07Z</time>
      </trkpt>
      <trkpt lat="42.40764" lon="0.14077">
        <ele>595.67</ele>
        <time>2014-06-03T13:28:19Z</time>
      </trkpt>
      <trkpt lat="42.40737" lon="0.14083">
        <ele>599.04</ele>
        <time>2014-06-03T13:28:34Z</time>
      </trkpt>
      <trkpt lat="42.40704" lon="0.14098">
        <ele>600.48</ele>
        <time>2014-06-03T13:28:51Z</time>
      </trkpt>
      <trkpt lat="42.4068" lon="0.14114">
        <ele>603.36</ele>
        <time>2014-06-03T13:29:05Z</time>
      </trkpt>
      <trkpt lat="42.40643" lon="0.14116">
        <ele>604.33</ele>
        <time>2014-06-03T13:29:21Z</time>
      </trkpt>
      <trkpt lat="42.40615" lon="0.14108">
        <ele>605.77</ele>
        <time>2014-06-03T13:29:35Z</time>
      </trkpt>
      <trkpt lat="42.40581" lon="0.14101">
        <ele>608.17</ele>
        <time>2014-06-03T13:29:51Z</time>
      </trkpt>
      <trkpt lat="42.40541" lon="0.141">
        <ele>609.13</ele>
        <time>2014-06-03T13:30:09Z</time>
      </trkpt>
      <trkpt lat="42.405" lon="0.141">
        <ele>611.54</ele>
        <time>2014-06-03T13:30:26Z</time>
      </trkpt>
      <trkpt lat="42.40461" lon="0.14109">
        <ele>612.5</ele>
        <time>2014-06-03T13:30:42Z</time>
      </trkpt>
      <trkpt lat="42.40421" lon="0.14123">
        <ele>612.98</ele>
        <time>2014-06-03T13:30:58Z</time>
      </trkpt>
      <trkpt lat="42.40373" lon="0.14144">
        <ele>614.42</ele>
        <time>2014-06-03T13:31:16Z</time>
      </trkpt>
      <trkpt lat="42.40362" lon="0.14154">
        <ele>612.98</ele>
        <time>2014-06-03T13:31:19Z</time>
      </trkpt>
      <trkpt lat="42.40348" lon="0.14166">
        <ele>611.54</ele>
        <time>2014-06-03T13:31:22Z</time>
      </trkpt>
      <trkpt lat="42.40324" lon="0.14172">
        <ele>612.98</ele>
        <time>2014-06-03T13:31:27Z</time>
      </trkpt>
      <trkpt lat="42.40283" lon="0.14178">
        <ele>614.9</ele>
        <time>2014-06-03T13:31:41Z</time>
      </trkpt>
      <trkpt lat="42.40258" lon="0.14183">
        <ele>618.26</ele>
        <time>2014-06-03T13:31:53Z</time>
      </trkpt>
      <trkpt lat="42.40253" lon="0.14154">
        <ele>620.67</ele>
        <time>2014-06-03T13:32:05Z</time>
      </trkpt>
      <trkpt lat="42.40253" lon="0.14141">
        <ele>622.59</ele>
        <time>2014-06-03T13:32:10Z</time>
      </trkpt>
      <trkpt lat="42.40253" lon="0.14136">
        <ele>623.55</ele>
        <time>2014-06-03T13:32:12Z</time>
      </trkpt>
      <trkpt lat="42.40247" lon="0.14106">
        <ele>626.44</ele>
        <time>2014-06-03T13:32:25Z</time>
      </trkpt>
      <trkpt lat="42.40226" lon="0.14064">
        <ele>628.36</ele>
        <time>2014-06-03T13:32:42Z</time>
      </trkpt>
      <trkpt lat="42.40219" lon="0.14059">
        <ele>626.44</ele>
        <time>2014-06-03T13:32:45Z</time>
      </trkpt>
      <trkpt lat="42.40204" lon="0.14056">
        <ele>624.51</ele>
        <time>2014-06-03T13:32:48Z</time>
      </trkpt>
      <trkpt lat="42.40181" lon="0.1403">
        <ele>625.96</ele>
        <time>2014-06-03T13:32:56Z</time>
      </trkpt>
      <trkpt lat="42.40159" lon="0.14014">
        <ele>628.84</ele>
        <time>2014-06-03T13:33:08Z</time>
      </trkpt>
      <trkpt lat="42.40138" lon="0.14005">
        <ele>630.76</ele>
        <time>2014-06-03T13:33:22Z</time>
      </trkpt>
      <trkpt lat="42.40119" lon="0.13993">
        <ele>634.13</ele>
        <time>2014-06-03T13:33:35Z</time>
      </trkpt>
      <trkpt lat="42.40104" lon="0.13978">
        <ele>636.53</ele>
        <time>2014-06-03T13:33:46Z</time>
      </trkpt>
      <trkpt lat="42.40092" lon="0.13975">
        <ele>638.45</ele>
        <time>2014-06-03T13:33:53Z</time>
      </trkpt>
      <trkpt lat="42.40084" lon="0.13965">
        <ele>640.38</ele>
        <time>2014-06-03T13:34:00Z</time>
      </trkpt>
      <trkpt lat="42.40081" lon="0.13949">
        <ele>643.26</ele>
        <time>2014-06-03T13:34:13Z</time>
      </trkpt>
      <trkpt lat="42.40074" lon="0.13935">
        <ele>645.66</ele>
        <time>2014-06-03T13:34:25Z</time>
      </trkpt>
      <trkpt lat="42.40066" lon="0.13921">
        <ele>648.07</ele>
        <time>2014-06-03T13:34:40Z</time>
      </trkpt>
      <trkpt lat="42.40063" lon="0.13907">
        <ele>650.47</ele>
        <time>2014-06-03T13:34:55Z</time>
      </trkpt>
      <trkpt lat="42.40062" lon="0.13894">
        <ele>650.47</ele>
        <time>2014-06-03T13:35:01Z</time>
      </trkpt>
      <trkpt lat="42.40078" lon="0.13864">
        <ele>651.43</ele>
        <time>2014-06-03T13:35:15Z</time>
      </trkpt>
      <trkpt lat="42.40078" lon="0.13848">
        <ele>652.87</ele>
        <time>2014-06-03T13:35:23Z</time>
      </trkpt>
      <trkpt lat="42.40083" lon="0.13827">
        <ele>656.24</ele>
        <time>2014-06-03T13:35:34Z</time>
      </trkpt>
      <trkpt lat="42.40084" lon="0.13824">
        <ele>656.72</ele>
        <time>2014-06-03T13:35:36Z</time>
      </trkpt>
      <trkpt lat="42.40083" lon="0.13819">
        <ele>657.68</ele>
        <time>2014-06-03T13:35:39Z</time>
      </trkpt>
      <trkpt lat="42.40078" lon="0.13808">
        <ele>658.64</ele>
        <time>2014-06-03T13:35:46Z</time>
      </trkpt>
      <trkpt lat="42.40072" lon="0.138">
        <ele>659.12</ele>
        <time>2014-06-03T13:35:52Z</time>
      </trkpt>
      <trkpt lat="42.40061" lon="0.13788">
        <ele>660.56</ele>
        <time>2014-06-03T13:36:02Z</time>
      </trkpt>
      <trkpt lat="42.40055" lon="0.13786">
        <ele>662.01</ele>
        <time>2014-06-03T13:36:07Z</time>
      </trkpt>
      <trkpt lat="42.40048" lon="0.1378">
        <ele>663.45</ele>
        <time>2014-06-03T13:36:14Z</time>
      </trkpt>
      <trkpt lat="42.40045" lon="0.1377">
        <ele>664.89</ele>
        <time>2014-06-03T13:36:20Z</time>
      </trkpt>
      <trkpt lat="42.40039" lon="0.13756">
        <ele>666.81</ele>
        <time>2014-06-03T13:36:31Z</time>
      </trkpt>
      <trkpt lat="42.40036" lon="0.13752">
        <ele>668.25</ele>
        <time>2014-06-03T13:36:34Z</time>
      </trkpt>
      <trkpt lat="42.40031" lon="0.13746">
        <ele>669.22</ele>
        <time>2014-06-03T13:36:39Z</time>
      </trkpt>
      <trkpt lat="42.4003" lon="0.1374">
        <ele>670.18</ele>
        <time>2014-06-03T13:36:43Z</time>
      </trkpt>
      <trkpt lat="42.40027" lon="0.13719">
        <ele>672.1</ele>
        <time>2014-06-03T13:36:56Z</time>
      </trkpt>
      <trkpt lat="42.40026" lon="0.13698">
        <ele>674.5</ele>
        <time>2014-06-03T13:37:10Z</time>
      </trkpt>
      <trkpt lat="42.40021" lon="0.13684">
        <ele>675.94</ele>
        <time>2014-06-03T13:37:22Z</time>
      </trkpt>
      <trkpt lat="42.40019" lon="0.13679">
        <ele>676.91</ele>
        <time>2014-06-03T13:37:27Z</time>
      </trkpt>
      <trkpt lat="42.40014" lon="0.1367">
        <ele>679.31</ele>
        <time>2014-06-03T13:37:37Z</time>
      </trkpt>
      <trkpt lat="42.40012" lon="0.13667">
        <ele>680.27</ele>
        <time>2014-06-03T13:37:41Z</time>
      </trkpt>
      <trkpt lat="42.40007" lon="0.13654">
        <ele>682.19</ele>
        <time>2014-06-03T13:37:55Z</time>
      </trkpt>
      <trkpt lat="42.40006" lon="0.13652">
        <ele>682.67</ele>
        <time>2014-06-03T13:37:57Z</time>
      </trkpt>
      <trkpt lat="42.40001" lon="0.13637">
        <ele>685.08</ele>
        <time>2014-06-03T13:38:12Z</time>
      </trkpt>
      <trkpt lat="42.39997" lon="0.13626">
        <ele>686.52</ele>
        <time>2014-06-03T13:38:24Z</time>
      </trkpt>
      <trkpt lat="42.39997" lon="0.13624">
        <ele>687</ele>
        <time>2014-06-03T13:38:28Z</time>
      </trkpt>
      <trkpt lat="42.39995" lon="0.13615">
        <ele>687.96</ele>
        <time>2014-06-03T13:38:34Z</time>
      </trkpt>
      <trkpt lat="42.39985" lon="0.136">
        <ele>689.88</ele>
        <time>2014-06-03T13:38:47Z</time>
      </trkpt>
      <trkpt lat="42.3998" lon="0.13593">
        <ele>690.36</ele>
        <time>2014-06-03T13:38:52Z</time>
      </trkpt>
      <trkpt lat="42.39974" lon="0.13592">
        <ele>690.36</ele>
        <time>2014-06-03T13:38:56Z</time>
      </trkpt>
      <trkpt lat="42.39965" lon="0.13591">
        <ele>691.81</ele>
        <time>2014-06-03T13:39:02Z</time>
      </trkpt>
      <trkpt lat="42.39962" lon="0.13581">
        <ele>691.81</ele>
        <time>2014-06-03T13:39:08Z</time>
      </trkpt>
      <trkpt lat="42.39953" lon="0.13557">
        <ele>694.21</ele>
        <time>2014-06-03T13:39:21Z</time>
      </trkpt>
      <trkpt lat="42.39946" lon="0.13545">
        <ele>695.65</ele>
        <time>2014-06-03T13:39:29Z</time>
      </trkpt>
      <trkpt lat="42.39942" lon="0.13523">
        <ele>698.05</ele>
        <time>2014-06-03T13:39:39Z</time>
      </trkpt>
      <trkpt lat="42.39941" lon="0.13517">
        <ele>698.53</ele>
        <time>2014-06-03T13:39:43Z</time>
      </trkpt>
      <trkpt lat="42.39936" lon="0.13498">
        <ele>700.46</ele>
        <time>2014-06-03T13:39:54Z</time>
      </trkpt>
      <trkpt lat="42.39935" lon="0.13494">
        <ele>700.94</ele>
        <time>2014-06-03T13:39:57Z</time>
      </trkpt>
      <trkpt lat="42.39929" lon="0.13485">
        <ele>702.38</ele>
        <time>2014-06-03T13:40:03Z</time>
      </trkpt>
      <trkpt lat="42.3991" lon="0.13472">
        <ele>705.26</ele>
        <time>2014-06-03T13:40:16Z</time>
      </trkpt>
      <trkpt lat="42.39899" lon="0.13446">
        <ele>707.67</ele>
        <time>2014-06-03T13:40:31Z</time>
      </trkpt>
      <trkpt lat="42.39899" lon="0.13432">
        <ele>709.11</ele>
        <time>2014-06-03T13:40:38Z</time>
      </trkpt>
      <trkpt lat="42.399" lon="0.13423">
        <ele>709.59</ele>
        <time>2014-06-03T13:40:42Z</time>
      </trkpt>
      <trkpt lat="42.399" lon="0.13417">
        <ele>710.55</ele>
        <time>2014-06-03T13:40:45Z</time>
      </trkpt>
      <trkpt lat="42.39895" lon="0.13397">
        <ele>711.99</ele>
        <time>2014-06-03T13:41:00Z</time>
      </trkpt>
      <trkpt lat="42.39894" lon="0.13397">
        <ele>712.47</ele>
        <time>2014-06-03T13:41:12Z</time>
      </trkpt>
      <trkpt lat="42.39893" lon="0.13394">
        <ele>712.47</ele>
        <time>2014-06-03T13:41:15Z</time>
      </trkpt>
      <trkpt lat="42.39887" lon="0.13381">
        <ele>711.51</ele>
        <time>2014-06-03T13:41:20Z</time>
      </trkpt>
      <trkpt lat="42.39864" lon="0.13326">
        <ele>711.51</ele>
        <time>2014-06-03T13:41:32Z</time>
      </trkpt>
      <trkpt lat="42.39859" lon="0.133">
        <ele>711.51</ele>
        <time>2014-06-03T13:41:40Z</time>
      </trkpt>
      <trkpt lat="42.39848" lon="0.13291">
        <ele>710.55</ele>
        <time>2014-06-03T13:41:43Z</time>
      </trkpt>
      <trkpt lat="42.39844" lon="0.13289">
        <ele>709.59</ele>
        <time>2014-06-03T13:41:44Z</time>
      </trkpt>
      <trkpt lat="42.39822" lon="0.13265">
        <ele>708.15</ele>
        <time>2014-06-03T13:41:49Z</time>
      </trkpt>
      <trkpt lat="42.3981" lon="0.13226">
        <ele>710.07</ele>
        <time>2014-06-03T13:41:58Z</time>
      </trkpt>
      <trkpt lat="42.39806" lon="0.13219">
        <ele>710.07</ele>
        <time>2014-06-03T13:42:00Z</time>
      </trkpt>
      <trkpt lat="42.39802" lon="0.13204">
        <ele>708.15</ele>
        <time>2014-06-03T13:42:04Z</time>
      </trkpt>
      <trkpt lat="42.39798" lon="0.13193">
        <ele>707.67</ele>
        <time>2014-06-03T13:42:06Z</time>
      </trkpt>
      <trkpt lat="42.3979" lon="0.13174">
        <ele>707.19</ele>
        <time>2014-06-03T13:42:09Z</time>
      </trkpt>
      <trkpt lat="42.39762" lon="0.13142">
        <ele>705.26</ele>
        <time>2014-06-03T13:42:16Z</time>
      </trkpt>
      <trkpt lat="42.39747" lon="0.13098">
        <ele>707.19</ele>
        <time>2014-06-03T13:42:26Z</time>
      </trkpt>
      <trkpt lat="42.39725" lon="0.13058">
        <ele>706.23</ele>
        <time>2014-06-03T13:42:38Z</time>
      </trkpt>
      <trkpt lat="42.39722" lon="0.13055">
        <ele>705.26</ele>
        <time>2014-06-03T13:42:39Z</time>
      </trkpt>
      <trkpt lat="42.39707" lon="0.13031">
        <ele>701.42</ele>
        <time>2014-06-03T13:42:45Z</time>
      </trkpt>
      <trkpt lat="42.39713" lon="0.13016">
        <ele>701.9</ele>
        <time>2014-06-03T13:42:52Z</time>
      </trkpt>
      <trkpt lat="42.39714" lon="0.13014">
        <ele>702.86</ele>
        <time>2014-06-03T13:42:54Z</time>
      </trkpt>
      <trkpt lat="42.39719" lon="0.13007">
        <ele>703.34</ele>
        <time>2014-06-03T13:42:58Z</time>
      </trkpt>
      <trkpt lat="42.39728" lon="0.12983">
        <ele>706.23</ele>
        <time>2014-06-03T13:43:09Z</time>
      </trkpt>
      <trkpt lat="42.39721" lon="0.12965">
        <ele>705.26</ele>
        <time>2014-06-03T13:43:16Z</time>
      </trkpt>
      <trkpt lat="42.39713" lon="0.12963">
        <ele>705.75</ele>
        <time>2014-06-03T13:43:20Z</time>
      </trkpt>
      <trkpt lat="42.39691" lon="0.12967">
        <ele>709.11</ele>
        <time>2014-06-03T13:43:34Z</time>
      </trkpt>
      <trkpt lat="42.39681" lon="0.12963">
        <ele>711.03</ele>
        <time>2014-06-03T13:43:41Z</time>
      </trkpt>
      <trkpt lat="42.39673" lon="0.12954">
        <ele>711.99</ele>
        <time>2014-06-03T13:43:49Z</time>
      </trkpt>
      <trkpt lat="42.39654" lon="0.12949">
        <ele>712.95</ele>
        <time>2014-06-03T13:44:01Z</time>
      </trkpt>
      <trkpt lat="42.3965" lon="0.1295">
        <ele>713.92</ele>
        <time>2014-06-03T13:44:03Z</time>
      </trkpt>
      <trkpt lat="42.39637" lon="0.12959">
        <ele>714.88</ele>
        <time>2014-06-03T13:44:12Z</time>
      </trkpt>
      <trkpt lat="42.39613" lon="0.12966">
        <ele>716.8</ele>
        <time>2014-06-03T13:44:27Z</time>
      </trkpt>
      <trkpt lat="42.39605" lon="0.12965">
        <ele>717.76</ele>
        <time>2014-06-03T13:44:32Z</time>
      </trkpt>
      <trkpt lat="42.3959" lon="0.12962">
        <ele>718.72</ele>
        <time>2014-06-03T13:44:43Z</time>
      </trkpt>
      <trkpt lat="42.39582" lon="0.12958">
        <ele>718.24</ele>
        <time>2014-06-03T13:44:48Z</time>
      </trkpt>
      <trkpt lat="42.39566" lon="0.12944">
        <ele>719.68</ele>
        <time>2014-06-03T13:44:57Z</time>
      </trkpt>
      <trkpt lat="42.39558" lon="0.12942">
        <ele>719.68</ele>
        <time>2014-06-03T13:45:02Z</time>
      </trkpt>
      <trkpt lat="42.39543" lon="0.12925">
        <ele>721.61</ele>
        <time>2014-06-03T13:45:15Z</time>
      </trkpt>
      <trkpt lat="42.39528" lon="0.12907">
        <ele>722.09</ele>
        <time>2014-06-03T13:45:25Z</time>
      </trkpt>
      <trkpt lat="42.39516" lon="0.12888">
        <ele>723.53</ele>
        <time>2014-06-03T13:45:35Z</time>
      </trkpt>
      <trkpt lat="42.39536" lon="0.12869">
        <ele>724.49</ele>
        <time>2014-06-03T13:45:46Z</time>
      </trkpt>
      <trkpt lat="42.39558" lon="0.1285">
        <ele>726.89</ele>
        <time>2014-06-03T13:46:00Z</time>
      </trkpt>
      <trkpt lat="42.39582" lon="0.12831">
        <ele>728.82</ele>
        <time>2014-06-03T13:46:15Z</time>
      </trkpt>
      <trkpt lat="42.39603" lon="0.12812">
        <ele>729.78</ele>
        <time>2014-06-03T13:46:28Z</time>
      </trkpt>
      <trkpt lat="42.39624" lon="0.128">
        <ele>731.7</ele>
        <time>2014-06-03T13:46:40Z</time>
      </trkpt>
      <trkpt lat="42.39645" lon="0.12786">
        <ele>733.14</ele>
        <time>2014-06-03T13:46:53Z</time>
      </trkpt>
      <trkpt lat="42.39651" lon="0.12781">
        <ele>733.14</ele>
        <time>2014-06-03T13:47:04Z</time>
      </trkpt>
      <trkpt lat="42.39651" lon="0.12781">
        <ele>733.62</ele>
        <time>2014-06-03T13:47:29Z</time>
      </trkpt>
      <trkpt lat="42.39658" lon="0.12777">
        <ele>735.55</ele>
        <time>2014-06-03T13:47:45Z</time>
      </trkpt>
      <trkpt lat="42.39663" lon="0.12765">
        <ele>737.47</ele>
        <time>2014-06-03T13:47:51Z</time>
      </trkpt>
      <trkpt lat="42.39661" lon="0.12745">
        <ele>739.87</ele>
        <time>2014-06-03T13:48:01Z</time>
      </trkpt>
      <trkpt lat="42.39647" lon="0.12736">
        <ele>743.24</ele>
        <time>2014-06-03T13:48:14Z</time>
      </trkpt>
      <trkpt lat="42.39639" lon="0.12734">
        <ele>745.64</ele>
        <time>2014-06-03T13:48:20Z</time>
      </trkpt>
      <trkpt lat="42.39628" lon="0.12715">
        <ele>746.6</ele>
        <time>2014-06-03T13:48:32Z</time>
      </trkpt>
      <trkpt lat="42.39619" lon="0.12714">
        <ele>746.12</ele>
        <time>2014-06-03T13:48:37Z</time>
      </trkpt>
      <trkpt lat="42.39594" lon="0.12716">
        <ele>746.6</ele>
        <time>2014-06-03T13:48:46Z</time>
      </trkpt>
      <trkpt lat="42.39593" lon="0.12714">
        <ele>747.08</ele>
        <time>2014-06-03T13:48:47Z</time>
      </trkpt>
      <trkpt lat="42.39583" lon="0.12705">
        <ele>749</ele>
        <time>2014-06-03T13:48:54Z</time>
      </trkpt>
      <trkpt lat="42.39575" lon="0.12704">
        <ele>750.45</ele>
        <time>2014-06-03T13:49:00Z</time>
      </trkpt>
      <trkpt lat="42.39562" lon="0.12695">
        <ele>752.37</ele>
        <time>2014-06-03T13:49:11Z</time>
      </trkpt>
      <trkpt lat="42.39554" lon="0.12681">
        <ele>754.77</ele>
        <time>2014-06-03T13:49:20Z</time>
      </trkpt>
      <trkpt lat="42.39547" lon="0.12673">
        <ele>756.69</ele>
        <time>2014-06-03T13:49:26Z</time>
      </trkpt>
      <trkpt lat="42.39537" lon="0.12674">
        <ele>757.66</ele>
        <time>2014-06-03T13:49:33Z</time>
      </trkpt>
      <trkpt lat="42.39513" lon="0.1267">
        <ele>759.58</ele>
        <time>2014-06-03T13:49:48Z</time>
      </trkpt>
      <trkpt lat="42.39509" lon="0.12666">
        <ele>760.06</ele>
        <time>2014-06-03T13:49:51Z</time>
      </trkpt>
      <trkpt lat="42.395" lon="0.12664">
        <ele>761.02</ele>
        <time>2014-06-03T13:49:57Z</time>
      </trkpt>
      <trkpt lat="42.39496" lon="0.12664">
        <ele>761.5</ele>
        <time>2014-06-03T13:50:00Z</time>
      </trkpt>
      <trkpt lat="42.39489" lon="0.12668">
        <ele>762.46</ele>
        <time>2014-06-03T13:50:06Z</time>
      </trkpt>
      <trkpt lat="42.39482" lon="0.12663">
        <ele>763.9</ele>
        <time>2014-06-03T13:50:12Z</time>
      </trkpt>
      <trkpt lat="42.39464" lon="0.12665">
        <ele>766.31</ele>
        <time>2014-06-03T13:50:26Z</time>
      </trkpt>
      <trkpt lat="42.39456" lon="0.12664">
        <ele>767.75</ele>
        <time>2014-06-03T13:50:31Z</time>
      </trkpt>
      <trkpt lat="42.39447" lon="0.12651">
        <ele>769.67</ele>
        <time>2014-06-03T13:50:42Z</time>
      </trkpt>
      <trkpt lat="42.39449" lon="0.1265">
        <ele>770.15</ele>
        <time>2014-06-03T13:51:02Z</time>
      </trkpt>
      <trkpt lat="42.39461" lon="0.12642">
        <ele>770.15</ele>
        <time>2014-06-03T13:51:13Z</time>
      </trkpt>
      <trkpt lat="42.39463" lon="0.12641">
        <ele>770.15</ele>
        <time>2014-06-03T13:51:14Z</time>
      </trkpt>
      <trkpt lat="42.39469" lon="0.12634">
        <ele>770.63</ele>
        <time>2014-06-03T13:51:19Z</time>
      </trkpt>
      <trkpt lat="42.39476" lon="0.12628">
        <ele>771.6</ele>
        <time>2014-06-03T13:51:25Z</time>
      </trkpt>
      <trkpt lat="42.39484" lon="0.12623">
        <ele>772.56</ele>
        <time>2014-06-03T13:51:30Z</time>
      </trkpt>
      <trkpt lat="42.39499" lon="0.12618">
        <ele>774</ele>
        <time>2014-06-03T13:51:39Z</time>
      </trkpt>
      <trkpt lat="42.39502" lon="0.12617">
        <ele>774.48</ele>
        <time>2014-06-03T13:51:42Z</time>
      </trkpt>
      <trkpt lat="42.39509" lon="0.12619">
        <ele>775.92</ele>
        <time>2014-06-03T13:51:47Z</time>
      </trkpt>
      <trkpt lat="42.3952" lon="0.12623">
        <ele>778.32</ele>
        <time>2014-06-03T13:51:56Z</time>
      </trkpt>
      <trkpt lat="42.39522" lon="0.12621">
        <ele>778.32</ele>
        <time>2014-06-03T13:51:59Z</time>
      </trkpt>
      <trkpt lat="42.39524" lon="0.12617">
        <ele>778.81</ele>
        <time>2014-06-03T13:52:03Z</time>
      </trkpt>
      <trkpt lat="42.39533" lon="0.12615">
        <ele>779.77</ele>
        <time>2014-06-03T13:52:08Z</time>
      </trkpt>
      <trkpt lat="42.39546" lon="0.12609">
        <ele>780.73</ele>
        <time>2014-06-03T13:52:15Z</time>
      </trkpt>
      <trkpt lat="42.39556" lon="0.12607">
        <ele>781.69</ele>
        <time>2014-06-03T13:52:21Z</time>
      </trkpt>
      <trkpt lat="42.39562" lon="0.12605">
        <ele>782.17</ele>
        <time>2014-06-03T13:52:25Z</time>
      </trkpt>
      <trkpt lat="42.39574" lon="0.12601">
        <ele>782.65</ele>
        <time>2014-06-03T13:52:33Z</time>
      </trkpt>
      <trkpt lat="42.39591" lon="0.12596">
        <ele>785.05</ele>
        <time>2014-06-03T13:52:45Z</time>
      </trkpt>
      <trkpt lat="42.39599" lon="0.12603">
        <ele>786.98</ele>
        <time>2014-06-03T13:52:52Z</time>
      </trkpt>
      <trkpt lat="42.39604" lon="0.12611">
        <ele>789.38</ele>
        <time>2014-06-03T13:53:00Z</time>
      </trkpt>
      <trkpt lat="42.39617" lon="0.12614">
        <ele>791.78</ele>
        <time>2014-06-03T13:53:11Z</time>
      </trkpt>
      <trkpt lat="42.39619" lon="0.12613">
        <ele>792.26</ele>
        <time>2014-06-03T13:53:14Z</time>
      </trkpt>
      <trkpt lat="42.39629" lon="0.12611">
        <ele>793.22</ele>
        <time>2014-06-03T13:53:23Z</time>
      </trkpt>
      <trkpt lat="42.39633" lon="0.12608">
        <ele>793.71</ele>
        <time>2014-06-03T13:53:26Z</time>
      </trkpt>
      <trkpt lat="42.39638" lon="0.12603">
        <ele>793.71</ele>
        <time>2014-06-03T13:53:30Z</time>
      </trkpt>
      <trkpt lat="42.39645" lon="0.12601">
        <ele>794.67</ele>
        <time>2014-06-03T13:53:35Z</time>
      </trkpt>
      <trkpt lat="42.39653" lon="0.12601">
        <ele>795.63</ele>
        <time>2014-06-03T13:53:40Z</time>
      </trkpt>
      <trkpt lat="42.39657" lon="0.12598">
        <ele>795.63</ele>
        <time>2014-06-03T13:53:44Z</time>
      </trkpt>
      <trkpt lat="42.39668" lon="0.12598">
        <ele>798.03</ele>
        <time>2014-06-03T13:53:55Z</time>
      </trkpt>
      <trkpt lat="42.39674" lon="0.12594">
        <ele>798.99</ele>
        <time>2014-06-03T13:53:59Z</time>
      </trkpt>
      <trkpt lat="42.39687" lon="0.1259">
        <ele>799.95</ele>
        <time>2014-06-03T13:54:08Z</time>
      </trkpt>
      <trkpt lat="42.3969" lon="0.1259">
        <ele>800.44</ele>
        <time>2014-06-03T13:54:10Z</time>
      </trkpt>
      <trkpt lat="42.39699" lon="0.12588">
        <ele>801.88</ele>
        <time>2014-06-03T13:54:17Z</time>
      </trkpt>
      <trkpt lat="42.39708" lon="0.12582">
        <ele>802.84</ele>
        <time>2014-06-03T13:54:24Z</time>
      </trkpt>
      <trkpt lat="42.39721" lon="0.12575">
        <ele>803.8</ele>
        <time>2014-06-03T13:54:34Z</time>
      </trkpt>
      <trkpt lat="42.39725" lon="0.12574">
        <ele>804.28</ele>
        <time>2014-06-03T13:54:37Z</time>
      </trkpt>
      <trkpt lat="42.39736" lon="0.12576">
        <ele>806.2</ele>
        <time>2014-06-03T13:54:45Z</time>
      </trkpt>
      <trkpt lat="42.39751" lon="0.12571">
        <ele>807.64</ele>
        <time>2014-06-03T13:54:57Z</time>
      </trkpt>
      <trkpt lat="42.39761" lon="0.12568">
        <ele>809.57</ele>
        <time>2014-06-03T13:55:05Z</time>
      </trkpt>
      <trkpt lat="42.39767" lon="0.12566">
        <ele>810.05</ele>
        <time>2014-06-03T13:55:10Z</time>
      </trkpt>
      <trkpt lat="42.3978" lon="0.12561">
        <ele>811.49</ele>
        <time>2014-06-03T13:55:18Z</time>
      </trkpt>
      <trkpt lat="42.39787" lon="0.12559">
        <ele>811.49</ele>
        <time>2014-06-03T13:55:23Z</time>
      </trkpt>
      <trkpt lat="42.398" lon="0.12554">
        <ele>812.45</ele>
        <time>2014-06-03T13:55:31Z</time>
      </trkpt>
      <trkpt lat="42.39814" lon="0.12546">
        <ele>813.41</ele>
        <time>2014-06-03T13:55:41Z</time>
      </trkpt>
      <trkpt lat="42.39823" lon="0.12547">
        <ele>814.85</ele>
        <time>2014-06-03T13:55:47Z</time>
      </trkpt>
      <trkpt lat="42.39836" lon="0.12541">
        <ele>816.3</ele>
        <time>2014-06-03T13:55:56Z</time>
      </trkpt>
      <trkpt lat="42.39845" lon="0.12539">
        <ele>817.26</ele>
        <time>2014-06-03T13:56:02Z</time>
      </trkpt>
      <trkpt lat="42.39851" lon="0.12535">
        <ele>817.74</ele>
        <time>2014-06-03T13:56:06Z</time>
      </trkpt>
      <trkpt lat="42.39866" lon="0.12531">
        <ele>820.14</ele>
        <time>2014-06-03T13:56:18Z</time>
      </trkpt>
      <trkpt lat="42.39869" lon="0.12533">
        <ele>821.1</ele>
        <time>2014-06-03T13:56:20Z</time>
      </trkpt>
      <trkpt lat="42.39882" lon="0.12525">
        <ele>822.55</ele>
        <time>2014-06-03T13:56:32Z</time>
      </trkpt>
      <trkpt lat="42.39891" lon="0.12527">
        <ele>823.99</ele>
        <time>2014-06-03T13:56:39Z</time>
      </trkpt>
      <trkpt lat="42.39899" lon="0.12525">
        <ele>825.43</ele>
        <time>2014-06-03T13:56:45Z</time>
      </trkpt>
      <trkpt lat="42.39905" lon="0.12523">
        <ele>825.91</ele>
        <time>2014-06-03T13:56:50Z</time>
      </trkpt>
      <trkpt lat="42.39907" lon="0.1252">
        <ele>825.91</ele>
        <time>2014-06-03T13:56:52Z</time>
      </trkpt>
      <trkpt lat="42.39916" lon="0.12519">
        <ele>826.39</ele>
        <time>2014-06-03T13:56:58Z</time>
      </trkpt>
      <trkpt lat="42.39921" lon="0.12515">
        <ele>826.39</ele>
        <time>2014-06-03T13:57:01Z</time>
      </trkpt>
      <trkpt lat="42.39927" lon="0.12514">
        <ele>826.87</ele>
        <time>2014-06-03T13:57:05Z</time>
      </trkpt>
      <trkpt lat="42.3994" lon="0.12505">
        <ele>826.39</ele>
        <time>2014-06-03T13:57:14Z</time>
      </trkpt>
      <trkpt lat="42.39961" lon="0.1248">
        <ele>824.47</ele>
        <time>2014-06-03T13:57:24Z</time>
      </trkpt>
      <trkpt lat="42.39972" lon="0.12464">
        <ele>822.55</ele>
        <time>2014-06-03T13:57:30Z</time>
      </trkpt>
      <trkpt lat="42.40003" lon="0.12436">
        <ele>821.1</ele>
        <time>2014-06-03T13:57:41Z</time>
      </trkpt>
      <trkpt lat="42.40012" lon="0.12428">
        <ele>820.62</ele>
        <time>2014-06-03T13:57:46Z</time>
      </trkpt>
      <trkpt lat="42.40022" lon="0.12416">
        <ele>821.1</ele>
        <time>2014-06-03T13:57:52Z</time>
      </trkpt>
      <trkpt lat="42.40036" lon="0.12399">
        <ele>820.14</ele>
        <time>2014-06-03T13:57:59Z</time>
      </trkpt>
      <trkpt lat="42.40049" lon="0.12391">
        <ele>820.14</ele>
        <time>2014-06-03T13:58:05Z</time>
      </trkpt>
      <trkpt lat="42.40064" lon="0.12381">
        <ele>820.62</ele>
        <time>2014-06-03T13:58:13Z</time>
      </trkpt>
      <trkpt lat="42.40078" lon="0.12367">
        <ele>820.62</ele>
        <time>2014-06-03T13:58:20Z</time>
      </trkpt>
      <trkpt lat="42.40094" lon="0.12364">
        <ele>822.55</ele>
        <time>2014-06-03T13:58:30Z</time>
      </trkpt>
      <trkpt lat="42.40101" lon="0.12359">
        <ele>823.51</ele>
        <time>2014-06-03T13:58:35Z</time>
      </trkpt>
      <trkpt lat="42.40111" lon="0.12351">
        <ele>825.91</ele>
        <time>2014-06-03T13:58:48Z</time>
      </trkpt>
      <trkpt lat="42.40123" lon="0.12356">
        <ele>828.79</ele>
        <time>2014-06-03T13:59:03Z</time>
      </trkpt>
      <trkpt lat="42.40132" lon="0.12356">
        <ele>830.72</ele>
        <time>2014-06-03T13:59:16Z</time>
      </trkpt>
      <trkpt lat="42.40142" lon="0.12358">
        <ele>833.12</ele>
        <time>2014-06-03T13:59:28Z</time>
      </trkpt>
      <trkpt lat="42.40151" lon="0.12358">
        <ele>834.56</ele>
        <time>2014-06-03T13:59:41Z</time>
      </trkpt>
      <trkpt lat="42.40161" lon="0.12356">
        <ele>836.48</ele>
        <time>2014-06-03T13:59:55Z</time>
      </trkpt>
      <trkpt lat="42.40163" lon="0.12354">
        <ele>836.48</ele>
        <time>2014-06-03T13:59:57Z</time>
      </trkpt>
      <trkpt lat="42.4017" lon="0.12351">
        <ele>837.45</ele>
        <time>2014-06-03T14:00:04Z</time>
      </trkpt>
      <trkpt lat="42.40174" lon="0.12354">
        <ele>838.41</ele>
        <time>2014-06-03T14:00:08Z</time>
      </trkpt>
      <trkpt lat="42.40178" lon="0.12353">
        <ele>839.85</ele>
        <time>2014-06-03T14:00:11Z</time>
      </trkpt>
      <trkpt lat="42.40182" lon="0.1235">
        <ele>839.85</ele>
        <time>2014-06-03T14:00:14Z</time>
      </trkpt>
      <trkpt lat="42.40192" lon="0.12349">
        <ele>841.29</ele>
        <time>2014-06-03T14:00:25Z</time>
      </trkpt>
      <trkpt lat="42.40196" lon="0.12349">
        <ele>842.25</ele>
        <time>2014-06-03T14:00:29Z</time>
      </trkpt>
      <trkpt lat="42.40208" lon="0.12343">
        <ele>843.69</ele>
        <time>2014-06-03T14:00:39Z</time>
      </trkpt>
      <trkpt lat="42.40213" lon="0.12344">
        <ele>844.66</ele>
        <time>2014-06-03T14:00:44Z</time>
      </trkpt>
      <trkpt lat="42.40221" lon="0.1234">
        <ele>846.1</ele>
        <time>2014-06-03T14:00:50Z</time>
      </trkpt>
      <trkpt lat="42.40226" lon="0.1234">
        <ele>846.58</ele>
        <time>2014-06-03T14:00:54Z</time>
      </trkpt>
      <trkpt lat="42.40241" lon="0.12334">
        <ele>848.02</ele>
        <time>2014-06-03T14:01:03Z</time>
      </trkpt>
      <trkpt lat="42.40247" lon="0.12337">
        <ele>849.94</ele>
        <time>2014-06-03T14:01:08Z</time>
      </trkpt>
      <trkpt lat="42.40254" lon="0.12338">
        <ele>850.9</ele>
        <time>2014-06-03T14:01:13Z</time>
      </trkpt>
      <trkpt lat="42.40255" lon="0.12337">
        <ele>850.9</ele>
        <time>2014-06-03T14:01:17Z</time>
      </trkpt>
      <trkpt lat="42.40262" lon="0.12332">
        <ele>850.9</ele>
        <time>2014-06-03T14:01:29Z</time>
      </trkpt>
      <trkpt lat="42.40262" lon="0.12333">
        <ele>850.9</ele>
        <time>2014-06-03T14:02:16Z</time>
      </trkpt>
      <trkpt lat="42.40262" lon="0.12333">
        <ele>851.38</ele>
        <time>2014-06-03T14:03:07Z</time>
      </trkpt>
      <trkpt lat="42.40262" lon="0.12332">
        <ele>852.35</ele>
        <time>2014-06-03T14:03:43Z</time>
      </trkpt>
      <trkpt lat="42.40272" lon="0.12322">
        <ele>852.83</ele>
        <time>2014-06-03T14:03:52Z</time>
      </trkpt>
      <trkpt lat="42.40285" lon="0.12309">
        <ele>852.35</ele>
        <time>2014-06-03T14:04:00Z</time>
      </trkpt>
      <trkpt lat="42.40309" lon="0.1229">
        <ele>852.35</ele>
        <time>2014-06-03T14:04:13Z</time>
      </trkpt>
      <trkpt lat="42.40339" lon="0.12268">
        <ele>853.31</ele>
        <time>2014-06-03T14:04:25Z</time>
      </trkpt>
      <trkpt lat="42.40367" lon="0.12245">
        <ele>850.42</ele>
        <time>2014-06-03T14:04:35Z</time>
      </trkpt>
      <trkpt lat="42.40374" lon="0.12234">
        <ele>848.98</ele>
        <time>2014-06-03T14:04:38Z</time>
      </trkpt>
      <trkpt lat="42.40385" lon="0.12223">
        <ele>847.54</ele>
        <time>2014-06-03T14:04:42Z</time>
      </trkpt>
      <trkpt lat="42.40404" lon="0.12205">
        <ele>846.58</ele>
        <time>2014-06-03T14:04:48Z</time>
      </trkpt>
      <trkpt lat="42.40411" lon="0.12197">
        <ele>846.1</ele>
        <time>2014-06-03T14:04:50Z</time>
      </trkpt>
      <trkpt lat="42.40431" lon="0.12182">
        <ele>845.14</ele>
        <time>2014-06-03T14:04:57Z</time>
      </trkpt>
      <trkpt lat="42.40442" lon="0.12171">
        <ele>845.14</ele>
        <time>2014-06-03T14:05:00Z</time>
      </trkpt>
      <trkpt lat="42.40452" lon="0.12158">
        <ele>843.21</ele>
        <time>2014-06-03T14:05:03Z</time>
      </trkpt>
      <trkpt lat="42.40463" lon="0.12151">
        <ele>844.18</ele>
        <time>2014-06-03T14:05:06Z</time>
      </trkpt>
      <trkpt lat="42.40498" lon="0.12119">
        <ele>844.18</ele>
        <time>2014-06-03T14:05:17Z</time>
      </trkpt>
      <trkpt lat="42.40505" lon="0.12111">
        <ele>844.18</ele>
        <time>2014-06-03T14:05:19Z</time>
      </trkpt>
      <trkpt lat="42.40521" lon="0.12093">
        <ele>843.69</ele>
        <time>2014-06-03T14:05:24Z</time>
      </trkpt>
      <trkpt lat="42.40528" lon="0.12089">
        <ele>844.18</ele>
        <time>2014-06-03T14:05:26Z</time>
      </trkpt>
      <trkpt lat="42.40539" lon="0.1207">
        <ele>842.73</ele>
        <time>2014-06-03T14:05:30Z</time>
      </trkpt>
      <trkpt lat="42.40541" lon="0.12066">
        <ele>841.77</ele>
        <time>2014-06-03T14:05:31Z</time>
      </trkpt>
      <trkpt lat="42.40568" lon="0.12048">
        <ele>843.21</ele>
        <time>2014-06-03T14:05:40Z</time>
      </trkpt>
      <trkpt lat="42.40578" lon="0.12031">
        <ele>841.29</ele>
        <time>2014-06-03T14:05:46Z</time>
      </trkpt>
      <trkpt lat="42.40596" lon="0.12015">
        <ele>840.33</ele>
        <time>2014-06-03T14:05:52Z</time>
      </trkpt>
      <trkpt lat="42.40614" lon="0.1201">
        <ele>841.77</ele>
        <time>2014-06-03T14:05:58Z</time>
      </trkpt>
      <trkpt lat="42.4063" lon="0.11995">
        <ele>840.81</ele>
        <time>2014-06-03T14:06:04Z</time>
      </trkpt>
      <trkpt lat="42.40642" lon="0.11975">
        <ele>838.89</ele>
        <time>2014-06-03T14:06:08Z</time>
      </trkpt>
      <trkpt lat="42.40656" lon="0.11961">
        <ele>836.96</ele>
        <time>2014-06-03T14:06:12Z</time>
      </trkpt>
      <trkpt lat="42.40669" lon="0.11936">
        <ele>834.56</ele>
        <time>2014-06-03T14:06:18Z</time>
      </trkpt>
      <trkpt lat="42.40672" lon="0.11926">
        <ele>832.64</ele>
        <time>2014-06-03T14:06:21Z</time>
      </trkpt>
      <trkpt lat="42.40674" lon="0.11923">
        <ele>832.16</ele>
        <time>2014-06-03T14:06:22Z</time>
      </trkpt>
      <trkpt lat="42.40685" lon="0.11908">
        <ele>831.2</ele>
        <time>2014-06-03T14:06:26Z</time>
      </trkpt>
      <trkpt lat="42.4069" lon="0.11901">
        <ele>831.2</ele>
        <time>2014-06-03T14:06:35Z</time>
      </trkpt>
      <trkpt lat="42.40691" lon="0.11899">
        <ele>830.72</ele>
        <time>2014-06-03T14:06:43Z</time>
      </trkpt>
      <trkpt lat="42.40696" lon="0.11883">
        <ele>828.79</ele>
        <time>2014-06-03T14:06:48Z</time>
      </trkpt>
      <trkpt lat="42.40703" lon="0.1186">
        <ele>824.95</ele>
        <time>2014-06-03T14:06:52Z</time>
      </trkpt>
      <trkpt lat="42.40705" lon="0.11853">
        <ele>823.99</ele>
        <time>2014-06-03T14:06:53Z</time>
      </trkpt>
      <trkpt lat="42.40708" lon="0.11834">
        <ele>822.55</ele>
        <time>2014-06-03T14:06:56Z</time>
      </trkpt>
      <trkpt lat="42.40712" lon="0.11827">
        <ele>821.1</ele>
        <time>2014-06-03T14:06:58Z</time>
      </trkpt>
      <trkpt lat="42.40723" lon="0.11822">
        <ele>822.06</ele>
        <time>2014-06-03T14:07:03Z</time>
      </trkpt>
      <trkpt lat="42.40741" lon="0.11802">
        <ele>820.62</ele>
        <time>2014-06-03T14:07:10Z</time>
      </trkpt>
      <trkpt lat="42.40759" lon="0.11777">
        <ele>818.22</ele>
        <time>2014-06-03T14:07:16Z</time>
      </trkpt>
      <trkpt lat="42.40765" lon="0.1177">
        <ele>817.74</ele>
        <time>2014-06-03T14:07:18Z</time>
      </trkpt>
      <trkpt lat="42.40773" lon="0.11754">
        <ele>815.82</ele>
        <time>2014-06-03T14:07:22Z</time>
      </trkpt>
      <trkpt lat="42.40788" lon="0.11733">
        <ele>811.97</ele>
        <time>2014-06-03T14:07:29Z</time>
      </trkpt>
      <trkpt lat="42.40786" lon="0.11716">
        <ele>808.61</ele>
        <time>2014-06-03T14:07:32Z</time>
      </trkpt>
      <trkpt lat="42.40789" lon="0.11699">
        <ele>805.24</ele>
        <time>2014-06-03T14:07:35Z</time>
      </trkpt>
      <trkpt lat="42.40792" lon="0.11695">
        <ele>804.76</ele>
        <time>2014-06-03T14:07:36Z</time>
      </trkpt>
      <trkpt lat="42.40805" lon="0.11676">
        <ele>801.4</ele>
        <time>2014-06-03T14:07:41Z</time>
      </trkpt>
      <trkpt lat="42.4082" lon="0.11641">
        <ele>795.63</ele>
        <time>2014-06-03T14:07:48Z</time>
      </trkpt>
      <trkpt lat="42.40832" lon="0.11614">
        <ele>792.26</ele>
        <time>2014-06-03T14:07:53Z</time>
      </trkpt>
      <trkpt lat="42.40834" lon="0.11602">
        <ele>789.38</ele>
        <time>2014-06-03T14:07:55Z</time>
      </trkpt>
      <trkpt lat="42.40836" lon="0.11597">
        <ele>789.38</ele>
        <time>2014-06-03T14:07:56Z</time>
      </trkpt>
      <trkpt lat="42.4084" lon="0.11583">
        <ele>786.98</ele>
        <time>2014-06-03T14:07:59Z</time>
      </trkpt>
      <trkpt lat="42.40844" lon="0.11571">
        <ele>785.05</ele>
        <time>2014-06-03T14:08:02Z</time>
      </trkpt>
      <trkpt lat="42.4085" lon="0.11564">
        <ele>785.05</ele>
        <time>2014-06-03T14:08:05Z</time>
      </trkpt>
      <trkpt lat="42.40853" lon="0.1155">
        <ele>782.65</ele>
        <time>2014-06-03T14:08:08Z</time>
      </trkpt>
      <trkpt lat="42.40855" lon="0.11529">
        <ele>778.81</ele>
        <time>2014-06-03T14:08:13Z</time>
      </trkpt>
      <trkpt lat="42.40866" lon="0.11511">
        <ele>775.92</ele>
        <time>2014-06-03T14:08:18Z</time>
      </trkpt>
      <trkpt lat="42.4087" lon="0.11508">
        <ele>774.96</ele>
        <time>2014-06-03T14:08:19Z</time>
      </trkpt>
      <trkpt lat="42.40882" lon="0.11485">
        <ele>773.52</ele>
        <time>2014-06-03T14:08:24Z</time>
      </trkpt>
      <trkpt lat="42.40889" lon="0.11466">
        <ele>772.08</ele>
        <time>2014-06-03T14:08:28Z</time>
      </trkpt>
      <trkpt lat="42.40894" lon="0.11457">
        <ele>771.6</ele>
        <time>2014-06-03T14:08:30Z</time>
      </trkpt>
      <trkpt lat="42.40898" lon="0.11436">
        <ele>769.19</ele>
        <time>2014-06-03T14:08:35Z</time>
      </trkpt>
      <trkpt lat="42.40903" lon="0.11411">
        <ele>765.83</ele>
        <time>2014-06-03T14:08:40Z</time>
      </trkpt>
      <trkpt lat="42.40899" lon="0.1138">
        <ele>760.54</ele>
        <time>2014-06-03T14:08:46Z</time>
      </trkpt>
      <trkpt lat="42.40902" lon="0.11363">
        <ele>757.66</ele>
        <time>2014-06-03T14:08:50Z</time>
      </trkpt>
      <trkpt lat="42.40911" lon="0.11342">
        <ele>753.81</ele>
        <time>2014-06-03T14:08:54Z</time>
      </trkpt>
      <trkpt lat="42.40912" lon="0.11318">
        <ele>749.97</ele>
        <time>2014-06-03T14:08:59Z</time>
      </trkpt>
      <trkpt lat="42.40915" lon="0.1131">
        <ele>748.04</ele>
        <time>2014-06-03T14:09:02Z</time>
      </trkpt>
      <trkpt lat="42.40921" lon="0.11301">
        <ele>745.16</ele>
        <time>2014-06-03T14:09:05Z</time>
      </trkpt>
      <trkpt lat="42.40916" lon="0.11278">
        <ele>741.79</ele>
        <time>2014-06-03T14:09:09Z</time>
      </trkpt>
      <trkpt lat="42.40917" lon="0.11259">
        <ele>738.43</ele>
        <time>2014-06-03T14:09:13Z</time>
      </trkpt>
      <trkpt lat="42.40918" lon="0.11243">
        <ele>733.62</ele>
        <time>2014-06-03T14:09:17Z</time>
      </trkpt>
      <trkpt lat="42.4092" lon="0.11233">
        <ele>730.26</ele>
        <time>2014-06-03T14:09:20Z</time>
      </trkpt>
      <trkpt lat="42.40923" lon="0.11216">
        <ele>726.89</ele>
        <time>2014-06-03T14:09:24Z</time>
      </trkpt>
      <trkpt lat="42.40917" lon="0.11204">
        <ele>724.49</ele>
        <time>2014-06-03T14:09:27Z</time>
      </trkpt>
      <trkpt lat="42.40915" lon="0.11193">
        <ele>721.13</ele>
        <time>2014-06-03T14:09:30Z</time>
      </trkpt>
      <trkpt lat="42.40906" lon="0.11183">
        <ele>717.76</ele>
        <time>2014-06-03T14:09:34Z</time>
      </trkpt>
      <trkpt lat="42.40895" lon="0.1116">
        <ele>715.36</ele>
        <time>2014-06-03T14:09:41Z</time>
      </trkpt>
      <trkpt lat="42.40898" lon="0.11153">
        <ele>712.47</ele>
        <time>2014-06-03T14:09:43Z</time>
      </trkpt>
      <trkpt lat="42.40888" lon="0.11136">
        <ele>708.63</ele>
        <time>2014-06-03T14:09:47Z</time>
      </trkpt>
      <trkpt lat="42.40881" lon="0.11126">
        <ele>706.71</ele>
        <time>2014-06-03T14:09:50Z</time>
      </trkpt>
      <trkpt lat="42.40879" lon="0.11123">
        <ele>706.71</ele>
        <time>2014-06-03T14:09:51Z</time>
      </trkpt>
      <trkpt lat="42.40876" lon="0.11117">
        <ele>706.23</ele>
        <time>2014-06-03T14:09:53Z</time>
      </trkpt>
      <trkpt lat="42.40865" lon="0.11107">
        <ele>705.26</ele>
        <time>2014-06-03T14:09:57Z</time>
      </trkpt>
      <trkpt lat="42.40867" lon="0.11091">
        <ele>701.42</ele>
        <time>2014-06-03T14:10:01Z</time>
      </trkpt>
      <trkpt lat="42.40864" lon="0.11084">
        <ele>699.02</ele>
        <time>2014-06-03T14:10:03Z</time>
      </trkpt>
      <trkpt lat="42.40862" lon="0.11064">
        <ele>692.29</ele>
        <time>2014-06-03T14:10:08Z</time>
      </trkpt>
      <trkpt lat="42.40857" lon="0.1105">
        <ele>687.96</ele>
        <time>2014-06-03T14:10:11Z</time>
      </trkpt>
      <trkpt lat="42.40852" lon="0.11039">
        <ele>684.6</ele>
        <time>2014-06-03T14:10:13Z</time>
      </trkpt>
      <trkpt lat="42.40847" lon="0.11023">
        <ele>680.75</ele>
        <time>2014-06-03T14:10:16Z</time>
      </trkpt>
      <trkpt lat="42.40845" lon="0.10995">
        <ele>674.5</ele>
        <time>2014-06-03T14:10:22Z</time>
      </trkpt>
      <trkpt lat="42.40842" lon="0.10983">
        <ele>671.14</ele>
        <time>2014-06-03T14:10:26Z</time>
      </trkpt>
      <trkpt lat="42.40838" lon="0.10957">
        <ele>664.41</ele>
        <time>2014-06-03T14:10:32Z</time>
      </trkpt>
      <trkpt lat="42.40838" lon="0.10947">
        <ele>661.52</ele>
        <time>2014-06-03T14:10:34Z</time>
      </trkpt>
      <trkpt lat="42.40839" lon="0.1093">
        <ele>658.64</ele>
        <time>2014-06-03T14:10:37Z</time>
      </trkpt>
      <trkpt lat="42.40825" lon="0.10903">
        <ele>655.28</ele>
        <time>2014-06-03T14:10:42Z</time>
      </trkpt>
      <trkpt lat="42.40823" lon="0.10897">
        <ele>653.83</ele>
        <time>2014-06-03T14:10:44Z</time>
      </trkpt>
      <trkpt lat="42.40817" lon="0.10896">
        <ele>651.91</ele>
        <time>2014-06-03T14:10:46Z</time>
      </trkpt>
      <trkpt lat="42.40811" lon="0.10871">
        <ele>647.59</ele>
        <time>2014-06-03T14:10:50Z</time>
      </trkpt>
      <trkpt lat="42.40813" lon="0.10858">
        <ele>645.18</ele>
        <time>2014-06-03T14:10:52Z</time>
      </trkpt>
      <trkpt lat="42.40816" lon="0.10844">
        <ele>640.86</ele>
        <time>2014-06-03T14:10:55Z</time>
      </trkpt>
      <trkpt lat="42.40818" lon="0.10835">
        <ele>638.93</ele>
        <time>2014-06-03T14:10:57Z</time>
      </trkpt>
      <trkpt lat="42.40827" lon="0.10826">
        <ele>634.61</ele>
        <time>2014-06-03T14:11:02Z</time>
      </trkpt>
      <trkpt lat="42.40831" lon="0.10823">
        <ele>630.76</ele>
        <time>2014-06-03T14:11:05Z</time>
      </trkpt>
      <trkpt lat="42.40832" lon="0.10815">
        <ele>627.4</ele>
        <time>2014-06-03T14:11:08Z</time>
      </trkpt>
      <trkpt lat="42.40837" lon="0.10801">
        <ele>623.55</ele>
        <time>2014-06-03T14:11:12Z</time>
      </trkpt>
      <trkpt lat="42.40839" lon="0.10796">
        <ele>622.11</ele>
        <time>2014-06-03T14:11:13Z</time>
      </trkpt>
      <trkpt lat="42.4084" lon="0.10793">
        <ele>621.15</ele>
        <time>2014-06-03T14:11:14Z</time>
      </trkpt>
      <trkpt lat="42.40841" lon="0.10787">
        <ele>620.19</ele>
        <time>2014-06-03T14:11:15Z</time>
      </trkpt>
      <trkpt lat="42.40845" lon="0.10769">
        <ele>616.82</ele>
        <time>2014-06-03T14:11:18Z</time>
      </trkpt>
      <trkpt lat="42.40845" lon="0.10757">
        <ele>613.46</ele>
        <time>2014-06-03T14:11:21Z</time>
      </trkpt>
      <trkpt lat="42.40856" lon="0.10743">
        <ele>609.61</ele>
        <time>2014-06-03T14:11:25Z</time>
      </trkpt>
      <trkpt lat="42.40865" lon="0.10731">
        <ele>606.25</ele>
        <time>2014-06-03T14:11:29Z</time>
      </trkpt>
      <trkpt lat="42.40871" lon="0.10713">
        <ele>602.88</ele>
        <time>2014-06-03T14:11:33Z</time>
      </trkpt>
      <trkpt lat="42.40869" lon="0.10696">
        <ele>599.52</ele>
        <time>2014-06-03T14:11:37Z</time>
      </trkpt>
      <trkpt lat="42.4087" lon="0.10688">
        <ele>597.6</ele>
        <time>2014-06-03T14:11:39Z</time>
      </trkpt>
      <trkpt lat="42.40875" lon="0.10675">
        <ele>594.23</ele>
        <time>2014-06-03T14:11:44Z</time>
      </trkpt>
      <trkpt lat="42.40876" lon="0.10681">
        <ele>592.31</ele>
        <time>2014-06-03T14:11:46Z</time>
      </trkpt>
      <trkpt lat="42.40882" lon="0.10703">
        <ele>587.98</ele>
        <time>2014-06-03T14:11:50Z</time>
      </trkpt>
      <trkpt lat="42.4089" lon="0.10731">
        <ele>583.66</ele>
        <time>2014-06-03T14:11:54Z</time>
      </trkpt>
      <trkpt lat="42.40891" lon="0.10736">
        <ele>582.7</ele>
        <time>2014-06-03T14:11:56Z</time>
      </trkpt>
      <trkpt lat="42.40891" lon="0.10736">
        <ele>581.73</ele>
        <time>2014-06-03T14:11:57Z</time>
      </trkpt>
      <trkpt lat="42.40887" lon="0.10731">
        <ele>577.41</ele>
        <time>2014-06-03T14:12:03Z</time>
      </trkpt>
      <trkpt lat="42.40889" lon="0.10728">
        <ele>575.49</ele>
        <time>2014-06-03T14:12:05Z</time>
      </trkpt>
      <trkpt lat="42.40906" lon="0.10707">
        <ele>572.6</ele>
        <time>2014-06-03T14:12:09Z</time>
      </trkpt>
      <trkpt lat="42.40916" lon="0.10708">
        <ele>572.6</ele>
        <time>2014-06-03T14:12:15Z</time>
      </trkpt>
      <trkpt lat="42.40917" lon="0.10712">
        <ele>573.08</ele>
        <time>2014-06-03T14:12:29Z</time>
      </trkpt>
      <trkpt lat="42.40917" lon="0.10712">
        <ele>573.08</ele>
        <time>2014-06-03T14:12:57Z</time>
      </trkpt>
      <trkpt lat="42.40917" lon="0.10712">
        <ele>572.6</ele>
        <time>2014-06-03T14:13:14Z</time>
      </trkpt>
      <trkpt lat="42.40918" lon="0.10714">
        <ele>572.6</ele>
        <time>2014-06-03T14:13:25Z</time>
      </trkpt>
      <trkpt lat="42.40917" lon="0.10716">
        <ele>573.08</ele>
        <time>2014-06-03T14:13:34Z</time>
      </trkpt>
      <trkpt lat="42.40917" lon="0.10719">
        <ele>572.6</ele>
        <time>2014-06-03T14:13:38Z</time>
      </trkpt>
      <trkpt lat="42.40919" lon="0.10729">
        <ele>572.6</ele>
        <time>2014-06-03T14:13:45Z</time>
      </trkpt>
      <trkpt lat="42.4092" lon="0.10734">
        <ele>572.6</ele>
        <time>2014-06-03T14:13:49Z</time>
      </trkpt>
      <trkpt lat="42.40917" lon="0.10741">
        <ele>572.6</ele>
        <time>2014-06-03T14:13:59Z</time>
      </trkpt>
      <trkpt lat="42.40918" lon="0.10746">
        <ele>573.08</ele>
        <time>2014-06-03T14:14:10Z</time>
      </trkpt>
      <trkpt lat="42.40918" lon="0.10746">
        <ele>573.08</ele>
        <time>2014-06-03T14:14:12Z</time>
      </trkpt>
      <trkpt lat="42.40918" lon="0.10748">
        <ele>572.6</ele>
        <time>2014-06-03T14:14:19Z</time>
      </trkpt>
      <trkpt lat="42.40925" lon="0.10751">
        <ele>573.08</ele>
        <time>2014-06-03T14:14:25Z</time>
      </trkpt>
      <trkpt lat="42.40927" lon="0.10752">
        <ele>573.08</ele>
        <time>2014-06-03T14:14:27Z</time>
      </trkpt>
      <trkpt lat="42.4093" lon="0.10753">
        <ele>573.56</ele>
        <time>2014-06-03T14:14:31Z</time>
      </trkpt>
      <trkpt lat="42.40938" lon="0.10757">
        <ele>573.08</ele>
        <time>2014-06-03T14:14:41Z</time>
      </trkpt>
      <trkpt lat="42.40942" lon="0.10763">
        <ele>574.04</ele>
        <time>2014-06-03T14:14:49Z</time>
      </trkpt>
      <trkpt lat="42.40941" lon="0.10765">
        <ele>574.04</ele>
        <time>2014-06-03T14:14:51Z</time>
      </trkpt>
      <trkpt lat="42.4094" lon="0.10792">
        <ele>574.53</ele>
        <time>2014-06-03T14:15:03Z</time>
      </trkpt>
      <trkpt lat="42.4094" lon="0.10821">
        <ele>575.01</ele>
        <time>2014-06-03T14:15:11Z</time>
      </trkpt>
      <trkpt lat="42.4096" lon="0.1086">
        <ele>574.53</ele>
        <time>2014-06-03T14:15:23Z</time>
      </trkpt>
      <trkpt lat="42.4098" lon="0.10874">
        <ele>574.04</ele>
        <time>2014-06-03T14:15:28Z</time>
      </trkpt>
      <trkpt lat="42.40997" lon="0.10882">
        <ele>573.08</ele>
        <time>2014-06-03T14:15:31Z</time>
      </trkpt>
      <trkpt lat="42.41007" lon="0.10889">
        <ele>572.6</ele>
        <time>2014-06-03T14:15:33Z</time>
      </trkpt>
      <trkpt lat="42.41042" lon="0.10898">
        <ele>571.64</ele>
        <time>2014-06-03T14:15:40Z</time>
      </trkpt>
      <trkpt lat="42.41064" lon="0.10901">
        <ele>571.16</ele>
        <time>2014-06-03T14:15:44Z</time>
      </trkpt>
      <trkpt lat="42.41097" lon="0.10897">
        <ele>570.68</ele>
        <time>2014-06-03T14:15:51Z</time>
      </trkpt>
      <trkpt lat="42.41124" lon="0.10885">
        <ele>570.68</ele>
        <time>2014-06-03T14:15:57Z</time>
      </trkpt>
      <trkpt lat="42.41162" lon="0.10868">
        <ele>572.12</ele>
        <time>2014-06-03T14:16:06Z</time>
      </trkpt>
      <trkpt lat="42.41169" lon="0.10864">
        <ele>574.04</ele>
        <time>2014-06-03T14:16:09Z</time>
      </trkpt>
      <trkpt lat="42.41186" lon="0.10879">
        <ele>575.97</ele>
        <time>2014-06-03T14:16:19Z</time>
      </trkpt>
      <trkpt lat="42.41191" lon="0.10882">
        <ele>575.49</ele>
        <time>2014-06-03T14:16:21Z</time>
      </trkpt>
      <trkpt lat="42.41194" lon="0.10884">
        <ele>575.01</ele>
        <time>2014-06-03T14:16:22Z</time>
      </trkpt>
      <trkpt lat="42.41213" lon="0.10894">
        <ele>574.04</ele>
        <time>2014-06-03T14:16:27Z</time>
      </trkpt>
      <trkpt lat="42.41221" lon="0.10898">
        <ele>574.04</ele>
        <time>2014-06-03T14:16:29Z</time>
      </trkpt>
      <trkpt lat="42.41248" lon="0.10911">
        <ele>573.08</ele>
        <time>2014-06-03T14:16:37Z</time>
      </trkpt>
      <trkpt lat="42.41268" lon="0.10919">
        <ele>573.56</ele>
        <time>2014-06-03T14:16:44Z</time>
      </trkpt>
      <trkpt lat="42.41268" lon="0.10923">
        <ele>573.08</ele>
        <time>2014-06-03T14:16:45Z</time>
      </trkpt>
      <trkpt lat="42.41272" lon="0.10932">
        <ele>573.08</ele>
        <time>2014-06-03T14:16:48Z</time>
      </trkpt>
      <trkpt lat="42.41298" lon="0.10959">
        <ele>569.24</ele>
        <time>2014-06-03T14:16:57Z</time>
      </trkpt>
      <trkpt lat="42.41311" lon="0.10975">
        <ele>569.24</ele>
        <time>2014-06-03T14:17:01Z</time>
      </trkpt>
      <trkpt lat="42.41316" lon="0.10979">
        <ele>570.68</ele>
        <time>2014-06-03T14:17:03Z</time>
      </trkpt>
      <trkpt lat="42.41324" lon="0.10991">
        <ele>566.83</ele>
        <time>2014-06-03T14:17:06Z</time>
      </trkpt>
      <trkpt lat="42.41334" lon="0.11002">
        <ele>564.91</ele>
        <time>2014-06-03T14:17:09Z</time>
      </trkpt>
      <trkpt lat="42.41354" lon="0.11031">
        <ele>563.95</ele>
        <time>2014-06-03T14:17:17Z</time>
      </trkpt>
      <trkpt lat="42.41362" lon="0.11037">
        <ele>564.91</ele>
        <time>2014-06-03T14:17:20Z</time>
      </trkpt>
      <trkpt lat="42.4139" lon="0.11071">
        <ele>565.39</ele>
        <time>2014-06-03T14:17:33Z</time>
      </trkpt>
      <trkpt lat="42.41408" lon="0.11103">
        <ele>568.28</ele>
        <time>2014-06-03T14:17:46Z</time>
      </trkpt>
      <trkpt lat="42.41411" lon="0.11137">
        <ele>570.68</ele>
        <time>2014-06-03T14:18:00Z</time>
      </trkpt>
      <trkpt lat="42.4141" lon="0.11154">
        <ele>572.12</ele>
        <time>2014-06-03T14:18:07Z</time>
      </trkpt>
      <trkpt lat="42.41407" lon="0.11169">
        <ele>574.04</ele>
        <time>2014-06-03T14:18:14Z</time>
      </trkpt>
      <trkpt lat="42.41411" lon="0.1118">
        <ele>575.97</ele>
        <time>2014-06-03T14:18:27Z</time>
      </trkpt>
      <trkpt lat="42.41411" lon="0.1118">
        <ele>575.97</ele>
        <time>2014-06-03T14:18:34Z</time>
      </trkpt>
      <trkpt lat="42.41412" lon="0.11178">
        <ele>575.97</ele>
        <time>2014-06-03T14:18:41Z</time>
      </trkpt>
      <trkpt lat="42.41415" lon="0.11161">
        <ele>576.45</ele>
        <time>2014-06-03T14:18:48Z</time>
      </trkpt>
      <trkpt lat="42.41424" lon="0.11145">
        <ele>578.85</ele>
        <time>2014-06-03T14:18:58Z</time>
      </trkpt>
      <trkpt lat="42.41426" lon="0.11141">
        <ele>579.81</ele>
        <time>2014-06-03T14:19:00Z</time>
      </trkpt>
      <trkpt lat="42.41434" lon="0.11121">
        <ele>581.25</ele>
        <time>2014-06-03T14:19:12Z</time>
      </trkpt>
      <trkpt lat="42.41441" lon="0.11106">
        <ele>584.14</ele>
        <time>2014-06-03T14:19:25Z</time>
      </trkpt>
      <trkpt lat="42.41449" lon="0.11093">
        <ele>587.5</ele>
        <time>2014-06-03T14:19:40Z</time>
      </trkpt>
      <trkpt lat="42.41457" lon="0.11086">
        <ele>588.95</ele>
        <time>2014-06-03T14:19:52Z</time>
      </trkpt>
      <trkpt lat="42.4146" lon="0.11082">
        <ele>589.91</ele>
        <time>2014-06-03T14:19:57Z</time>
      </trkpt>
      <trkpt lat="42.4147" lon="0.11069">
        <ele>593.27</ele>
        <time>2014-06-03T14:20:14Z</time>
      </trkpt>
      <trkpt lat="42.41476" lon="0.11058">
        <ele>596.15</ele>
        <time>2014-06-03T14:20:28Z</time>
      </trkpt>
      <trkpt lat="42.41484" lon="0.11047">
        <ele>598.56</ele>
        <time>2014-06-03T14:20:44Z</time>
      </trkpt>
      <trkpt lat="42.4149" lon="0.11035">
        <ele>600.48</ele>
        <time>2014-06-03T14:20:57Z</time>
      </trkpt>
      <trkpt lat="42.41489" lon="0.11017">
        <ele>602.4</ele>
        <time>2014-06-03T14:21:11Z</time>
      </trkpt>
      <trkpt lat="42.41482" lon="0.10998">
        <ele>604.81</ele>
        <time>2014-06-03T14:21:27Z</time>
      </trkpt>
      <trkpt lat="42.41476" lon="0.10986">
        <ele>606.25</ele>
        <time>2014-06-03T14:21:39Z</time>
      </trkpt>
      <trkpt lat="42.41466" lon="0.10976">
        <ele>608.17</ele>
        <time>2014-06-03T14:21:52Z</time>
      </trkpt>
      <trkpt lat="42.41465" lon="0.10974">
        <ele>608.65</ele>
        <time>2014-06-03T14:21:55Z</time>
      </trkpt>
      <trkpt lat="42.41463" lon="0.10967">
        <ele>608.65</ele>
        <time>2014-06-03T14:21:59Z</time>
      </trkpt>
      <trkpt lat="42.41457" lon="0.10945">
        <ele>611.54</ele>
        <time>2014-06-03T14:22:11Z</time>
      </trkpt>
      <trkpt lat="42.41455" lon="0.10933">
        <ele>613.94</ele>
        <time>2014-06-03T14:22:17Z</time>
      </trkpt>
      <trkpt lat="42.41455" lon="0.1091">
        <ele>614.9</ele>
        <time>2014-06-03T14:22:30Z</time>
      </trkpt>
      <trkpt lat="42.41458" lon="0.10898">
        <ele>617.3</ele>
        <time>2014-06-03T14:22:42Z</time>
      </trkpt>
      <trkpt lat="42.41459" lon="0.10891">
        <ele>617.78</ele>
        <time>2014-06-03T14:22:48Z</time>
      </trkpt>
      <trkpt lat="42.41465" lon="0.10876">
        <ele>619.23</ele>
        <time>2014-06-03T14:23:01Z</time>
      </trkpt>
      <trkpt lat="42.41469" lon="0.10867">
        <ele>622.59</ele>
        <time>2014-06-03T14:23:13Z</time>
      </trkpt>
      <trkpt lat="42.41471" lon="0.10858">
        <ele>625.47</ele>
        <time>2014-06-03T14:23:27Z</time>
      </trkpt>
      <trkpt lat="42.41471" lon="0.10854">
        <ele>625.96</ele>
        <time>2014-06-03T14:23:41Z</time>
      </trkpt>
      <trkpt lat="42.41472" lon="0.10853">
        <ele>625.47</ele>
        <time>2014-06-03T14:24:06Z</time>
      </trkpt>
      <trkpt lat="42.41471" lon="0.10854">
        <ele>624.99</ele>
        <time>2014-06-03T14:24:38Z</time>
      </trkpt>
      <trkpt lat="42.41471" lon="0.10854">
        <ele>625.47</ele>
        <time>2014-06-03T14:25:13Z</time>
      </trkpt>
      <trkpt lat="42.4147" lon="0.10849">
        <ele>625.47</ele>
        <time>2014-06-03T14:25:16Z</time>
      </trkpt>
      <trkpt lat="42.4144" lon="0.10845">
        <ele>625.47</ele>
        <time>2014-06-03T14:25:31Z</time>
      </trkpt>
      <trkpt lat="42.41414" lon="0.10836">
        <ele>627.88</ele>
        <time>2014-06-03T14:25:41Z</time>
      </trkpt>
      <trkpt lat="42.41388" lon="0.10822">
        <ele>630.76</ele>
        <time>2014-06-03T14:25:56Z</time>
      </trkpt>
      <trkpt lat="42.41372" lon="0.10809">
        <ele>633.17</ele>
        <time>2014-06-03T14:26:07Z</time>
      </trkpt>
      <trkpt lat="42.41367" lon="0.10802">
        <ele>634.13</ele>
        <time>2014-06-03T14:26:12Z</time>
      </trkpt>
      <trkpt lat="42.41347" lon="0.10779">
        <ele>637.01</ele>
        <time>2014-06-03T14:26:30Z</time>
      </trkpt>
      <trkpt lat="42.41329" lon="0.10754">
        <ele>639.41</ele>
        <time>2014-06-03T14:26:47Z</time>
      </trkpt>
      <trkpt lat="42.41314" lon="0.10736">
        <ele>641.82</ele>
        <time>2014-06-03T14:27:01Z</time>
      </trkpt>
      <trkpt lat="42.41296" lon="0.10722">
        <ele>644.22</ele>
        <time>2014-06-03T14:27:15Z</time>
      </trkpt>
      <trkpt lat="42.41279" lon="0.10712">
        <ele>647.59</ele>
        <time>2014-06-03T14:27:28Z</time>
      </trkpt>
      <trkpt lat="42.41275" lon="0.10709">
        <ele>648.07</ele>
        <time>2014-06-03T14:27:31Z</time>
      </trkpt>
      <trkpt lat="42.41249" lon="0.10697">
        <ele>650.47</ele>
        <time>2014-06-03T14:27:49Z</time>
      </trkpt>
      <trkpt lat="42.41246" lon="0.10697">
        <ele>650.95</ele>
        <time>2014-06-03T14:27:51Z</time>
      </trkpt>
      <trkpt lat="42.41241" lon="0.10696">
        <ele>651.43</ele>
        <time>2014-06-03T14:27:55Z</time>
      </trkpt>
      <trkpt lat="42.41215" lon="0.10685">
        <ele>654.8</ele>
        <time>2014-06-03T14:28:13Z</time>
      </trkpt>
      <trkpt lat="42.41212" lon="0.10682">
        <ele>654.8</ele>
        <time>2014-06-03T14:28:15Z</time>
      </trkpt>
      <trkpt lat="42.41207" lon="0.10672">
        <ele>654.8</ele>
        <time>2014-06-03T14:28:20Z</time>
      </trkpt>
      <trkpt lat="42.41201" lon="0.10626">
        <ele>656.24</ele>
        <time>2014-06-03T14:28:36Z</time>
      </trkpt>
      <trkpt lat="42.41198" lon="0.10586">
        <ele>657.68</ele>
        <time>2014-06-03T14:28:50Z</time>
      </trkpt>
      <trkpt lat="42.41174" lon="0.10574">
        <ele>660.56</ele>
        <time>2014-06-03T14:29:05Z</time>
      </trkpt>
      <trkpt lat="42.41166" lon="0.10579">
        <ele>661.04</ele>
        <time>2014-06-03T14:29:10Z</time>
      </trkpt>
      <trkpt lat="42.41162" lon="0.10578">
        <ele>661.04</ele>
        <time>2014-06-03T14:29:13Z</time>
      </trkpt>
      <trkpt lat="42.4116" lon="0.10579">
        <ele>661.52</ele>
        <time>2014-06-03T14:29:22Z</time>
      </trkpt>
      <trkpt lat="42.41193" lon="0.10551">
        <ele>662.49</ele>
        <time>2014-06-03T14:29:39Z</time>
      </trkpt>
      <trkpt lat="42.41197" lon="0.10548">
        <ele>662.97</ele>
        <time>2014-06-03T14:29:42Z</time>
      </trkpt>
      <trkpt lat="42.41198" lon="0.10546">
        <ele>662.49</ele>
        <time>2014-06-03T14:29:52Z</time>
      </trkpt>
      <trkpt lat="42.41198" lon="0.10546">
        <ele>663.45</ele>
        <time>2014-06-03T14:30:33Z</time>
      </trkpt>
      <trkpt lat="42.41198" lon="0.10545">
        <ele>663.45</ele>
        <time>2014-06-03T14:31:18Z</time>
      </trkpt>
      <trkpt lat="42.41198" lon="0.10544">
        <ele>663.45</ele>
        <time>2014-06-03T14:31:58Z</time>
      </trkpt>
      <trkpt lat="42.41198" lon="0.10546">
        <ele>662.97</ele>
        <time>2014-06-03T14:32:12Z</time>
      </trkpt>
      <trkpt lat="42.41201" lon="0.10548">
        <ele>662.49</ele>
        <time>2014-06-03T14:32:16Z</time>
      </trkpt>
      <trkpt lat="42.41222" lon="0.10548">
        <ele>665.85</ele>
        <time>2014-06-03T14:32:32Z</time>
      </trkpt>
      <trkpt lat="42.41243" lon="0.10543">
        <ele>667.77</ele>
        <time>2014-06-03T14:32:46Z</time>
      </trkpt>
      <trkpt lat="42.41245" lon="0.10541">
        <ele>668.73</ele>
        <time>2014-06-03T14:32:48Z</time>
      </trkpt>
      <trkpt lat="42.41255" lon="0.10517">
        <ele>671.62</ele>
        <time>2014-06-03T14:33:03Z</time>
      </trkpt>
      <trkpt lat="42.4126" lon="0.1051">
        <ele>673.06</ele>
        <time>2014-06-03T14:33:08Z</time>
      </trkpt>
      <trkpt lat="42.41267" lon="0.10508">
        <ele>673.54</ele>
        <time>2014-06-03T14:33:13Z</time>
      </trkpt>
      <trkpt lat="42.41272" lon="0.10501">
        <ele>674.98</ele>
        <time>2014-06-03T14:33:27Z</time>
      </trkpt>
      <trkpt lat="42.41276" lon="0.10498">
        <ele>675.46</ele>
        <time>2014-06-03T14:33:42Z</time>
      </trkpt>
      <trkpt lat="42.41281" lon="0.10493">
        <ele>675.94</ele>
        <time>2014-06-03T14:33:51Z</time>
      </trkpt>
      <trkpt lat="42.41301" lon="0.1048">
        <ele>678.35</ele>
        <time>2014-06-03T14:34:05Z</time>
      </trkpt>
      <trkpt lat="42.41318" lon="0.10465">
        <ele>681.23</ele>
        <time>2014-06-03T14:34:18Z</time>
      </trkpt>
      <trkpt lat="42.41322" lon="0.10462">
        <ele>681.71</ele>
        <time>2014-06-03T14:34:21Z</time>
      </trkpt>
      <trkpt lat="42.4134" lon="0.10442">
        <ele>683.63</ele>
        <time>2014-06-03T14:34:36Z</time>
      </trkpt>
      <trkpt lat="42.41351" lon="0.10428">
        <ele>685.56</ele>
        <time>2014-06-03T14:34:46Z</time>
      </trkpt>
      <trkpt lat="42.41358" lon="0.10422">
        <ele>687</ele>
        <time>2014-06-03T14:34:51Z</time>
      </trkpt>
      <trkpt lat="42.41378" lon="0.10404">
        <ele>688.44</ele>
        <time>2014-06-03T14:35:06Z</time>
      </trkpt>
      <trkpt lat="42.41396" lon="0.10393">
        <ele>689.88</ele>
        <time>2014-06-03T14:35:17Z</time>
      </trkpt>
      <trkpt lat="42.41412" lon="0.10373">
        <ele>691.33</ele>
        <time>2014-06-03T14:35:29Z</time>
      </trkpt>
      <trkpt lat="42.41426" lon="0.10353">
        <ele>693.25</ele>
        <time>2014-06-03T14:35:41Z</time>
      </trkpt>
      <trkpt lat="42.41448" lon="0.10345">
        <ele>695.17</ele>
        <time>2014-06-03T14:35:54Z</time>
      </trkpt>
      <trkpt lat="42.41463" lon="0.10335">
        <ele>697.09</ele>
        <time>2014-06-03T14:36:04Z</time>
      </trkpt>
      <trkpt lat="42.41481" lon="0.10316">
        <ele>699.98</ele>
        <time>2014-06-03T14:36:18Z</time>
      </trkpt>
      <trkpt lat="42.41482" lon="0.10315">
        <ele>699.98</ele>
        <time>2014-06-03T14:36:19Z</time>
      </trkpt>
      <trkpt lat="42.4149" lon="0.10304">
        <ele>701.42</ele>
        <time>2014-06-03T14:36:26Z</time>
      </trkpt>
      <trkpt lat="42.41496" lon="0.10296">
        <ele>701.9</ele>
        <time>2014-06-03T14:36:31Z</time>
      </trkpt>
      <trkpt lat="42.41506" lon="0.10274">
        <ele>704.3</ele>
        <time>2014-06-03T14:36:43Z</time>
      </trkpt>
      <trkpt lat="42.41506" lon="0.10273">
        <ele>704.78</ele>
        <time>2014-06-03T14:36:44Z</time>
      </trkpt>
      <trkpt lat="42.4152" lon="0.10252">
        <ele>706.71</ele>
        <time>2014-06-03T14:36:57Z</time>
      </trkpt>
      <trkpt lat="42.41522" lon="0.10251">
        <ele>706.71</ele>
        <time>2014-06-03T14:36:58Z</time>
      </trkpt>
      <trkpt lat="42.41527" lon="0.1025">
        <ele>707.67</ele>
        <time>2014-06-03T14:37:01Z</time>
      </trkpt>
      <trkpt lat="42.41546" lon="0.10231">
        <ele>709.59</ele>
        <time>2014-06-03T14:37:16Z</time>
      </trkpt>
      <trkpt lat="42.41553" lon="0.10225">
        <ele>711.03</ele>
        <time>2014-06-03T14:37:21Z</time>
      </trkpt>
      <trkpt lat="42.41561" lon="0.10219">
        <ele>712.47</ele>
        <time>2014-06-03T14:37:31Z</time>
      </trkpt>
      <trkpt lat="42.41567" lon="0.10212">
        <ele>713.92</ele>
        <time>2014-06-03T14:37:41Z</time>
      </trkpt>
      <trkpt lat="42.4157" lon="0.10211">
        <ele>714.4</ele>
        <time>2014-06-03T14:37:44Z</time>
      </trkpt>
      <trkpt lat="42.41572" lon="0.1021">
        <ele>715.36</ele>
        <time>2014-06-03T14:37:46Z</time>
      </trkpt>
      <trkpt lat="42.41575" lon="0.10203">
        <ele>716.32</ele>
        <time>2014-06-03T14:37:54Z</time>
      </trkpt>
      <trkpt lat="42.41579" lon="0.102">
        <ele>717.76</ele>
        <time>2014-06-03T14:38:07Z</time>
      </trkpt>
      <trkpt lat="42.41579" lon="0.102">
        <ele>714.4</ele>
        <time>2014-06-03T14:38:15Z</time>
      </trkpt>
      <trkpt lat="42.41579" lon="0.102">
        <ele>717.28</ele>
        <time>2014-06-03T14:38:16Z</time>
      </trkpt>
      <trkpt lat="42.41579" lon="0.102">
        <ele>713.44</ele>
        <time>2014-06-03T14:38:38Z</time>
      </trkpt>
      <trkpt lat="42.41579" lon="0.102">
        <ele>720.16</ele>
        <time>2014-06-03T14:38:39Z</time>
      </trkpt>
      <trkpt lat="42.41579" lon="0.10199">
        <ele>713.44</ele>
        <time>2014-06-03T14:38:41Z</time>
      </trkpt>
      <trkpt lat="42.41579" lon="0.10199">
        <ele>717.28</ele>
        <time>2014-06-03T14:38:42Z</time>
      </trkpt>
      <trkpt lat="42.41579" lon="0.10199">
        <ele>716.8</ele>
        <time>2014-06-03T14:38:53Z</time>
      </trkpt>
      <trkpt lat="42.41579" lon="0.10199">
        <ele>713.92</ele>
        <time>2014-06-03T14:39:04Z</time>
      </trkpt>
      <trkpt lat="42.41579" lon="0.10199">
        <ele>718.72</ele>
        <time>2014-06-03T14:39:06Z</time>
      </trkpt>
      <trkpt lat="42.41579" lon="0.10199">
        <ele>717.28</ele>
        <time>2014-06-03T14:39:07Z</time>
      </trkpt>
      <trkpt lat="42.41583" lon="0.10198">
        <ele>716.32</ele>
        <time>2014-06-03T14:39:21Z</time>
      </trkpt>
      <trkpt lat="42.4159" lon="0.10197">
        <ele>715.36</ele>
        <time>2014-06-03T14:39:23Z</time>
      </trkpt>
      <trkpt lat="42.41607" lon="0.10192">
        <ele>712.95</ele>
        <time>2014-06-03T14:39:27Z</time>
      </trkpt>
      <trkpt lat="42.41619" lon="0.10187">
        <ele>711.03</ele>
        <time>2014-06-03T14:39:30Z</time>
      </trkpt>
      <trkpt lat="42.41627" lon="0.10182">
        <ele>710.07</ele>
        <time>2014-06-03T14:39:32Z</time>
      </trkpt>
      <trkpt lat="42.41653" lon="0.10176">
        <ele>710.07</ele>
        <time>2014-06-03T14:39:39Z</time>
      </trkpt>
      <trkpt lat="42.4166" lon="0.10172">
        <ele>710.55</ele>
        <time>2014-06-03T14:39:42Z</time>
      </trkpt>
      <trkpt lat="42.4167" lon="0.1016">
        <ele>711.51</ele>
        <time>2014-06-03T14:39:47Z</time>
      </trkpt>
      <trkpt lat="42.41698" lon="0.10157">
        <ele>712.95</ele>
        <time>2014-06-03T14:39:59Z</time>
      </trkpt>
      <trkpt lat="42.41717" lon="0.10147">
        <ele>715.84</ele>
        <time>2014-06-03T14:40:10Z</time>
      </trkpt>
      <trkpt lat="42.41723" lon="0.10144">
        <ele>717.28</ele>
        <time>2014-06-03T14:40:14Z</time>
      </trkpt>
      <trkpt lat="42.41734" lon="0.10133">
        <ele>717.76</ele>
        <time>2014-06-03T14:40:22Z</time>
      </trkpt>
      <trkpt lat="42.41753" lon="0.10109">
        <ele>716.32</ele>
        <time>2014-06-03T14:40:35Z</time>
      </trkpt>
      <trkpt lat="42.41754" lon="0.10108">
        <ele>716.32</ele>
        <time>2014-06-03T14:40:38Z</time>
      </trkpt>
      <trkpt lat="42.41765" lon="0.10092">
        <ele>714.88</ele>
        <time>2014-06-03T14:40:43Z</time>
      </trkpt>
      <trkpt lat="42.41777" lon="0.10068">
        <ele>712.95</ele>
        <time>2014-06-03T14:40:48Z</time>
      </trkpt>
      <trkpt lat="42.41793" lon="0.10027">
        <ele>711.99</ele>
        <time>2014-06-03T14:40:54Z</time>
      </trkpt>
      <trkpt lat="42.41805" lon="0.1">
        <ele>710.07</ele>
        <time>2014-06-03T14:40:58Z</time>
      </trkpt>
      <trkpt lat="42.41821" lon="0.09957">
        <ele>708.63</ele>
        <time>2014-06-03T14:41:04Z</time>
      </trkpt>
      <trkpt lat="42.41828" lon="0.09934">
        <ele>708.15</ele>
        <time>2014-06-03T14:41:09Z</time>
      </trkpt>
      <trkpt lat="42.41836" lon="0.09919">
        <ele>704.78</ele>
        <time>2014-06-03T14:41:12Z</time>
      </trkpt>
      <trkpt lat="42.4184" lon="0.09905">
        <ele>703.34</ele>
        <time>2014-06-03T14:41:14Z</time>
      </trkpt>
      <trkpt lat="42.41848" lon="0.09881">
        <ele>701.9</ele>
        <time>2014-06-03T14:41:18Z</time>
      </trkpt>
      <trkpt lat="42.41853" lon="0.09866">
        <ele>700.94</ele>
        <time>2014-06-03T14:41:20Z</time>
      </trkpt>
      <trkpt lat="42.41858" lon="0.0985">
        <ele>699.02</ele>
        <time>2014-06-03T14:41:22Z</time>
      </trkpt>
      <trkpt lat="42.41867" lon="0.09819">
        <ele>696.13</ele>
        <time>2014-06-03T14:41:26Z</time>
      </trkpt>
      <trkpt lat="42.4187" lon="0.09812">
        <ele>694.21</ele>
        <time>2014-06-03T14:41:27Z</time>
      </trkpt>
      <trkpt lat="42.41881" lon="0.09776">
        <ele>690.84</ele>
        <time>2014-06-03T14:41:33Z</time>
      </trkpt>
      <trkpt lat="42.41885" lon="0.09763">
        <ele>688.92</ele>
        <time>2014-06-03T14:41:35Z</time>
      </trkpt>
      <trkpt lat="42.41893" lon="0.09739">
        <ele>687.48</ele>
        <time>2014-06-03T14:41:40Z</time>
      </trkpt>
      <trkpt lat="42.41902" lon="0.09705">
        <ele>686.04</ele>
        <time>2014-06-03T14:41:47Z</time>
      </trkpt>
      <trkpt lat="42.41909" lon="0.09681">
        <ele>684.6</ele>
        <time>2014-06-03T14:41:51Z</time>
      </trkpt>
      <trkpt lat="42.41913" lon="0.09662">
        <ele>683.15</ele>
        <time>2014-06-03T14:41:54Z</time>
      </trkpt>
      <trkpt lat="42.41915" lon="0.09656">
        <ele>683.63</ele>
        <time>2014-06-03T14:41:55Z</time>
      </trkpt>
      <trkpt lat="42.4192" lon="0.09625">
        <ele>682.19</ele>
        <time>2014-06-03T14:42:04Z</time>
      </trkpt>
      <trkpt lat="42.41921" lon="0.09622">
        <ele>682.19</ele>
        <time>2014-06-03T14:42:19Z</time>
      </trkpt>
      <trkpt lat="42.41924" lon="0.09615">
        <ele>681.23</ele>
        <time>2014-06-03T14:42:21Z</time>
      </trkpt>
      <trkpt lat="42.4193" lon="0.09601">
        <ele>680.27</ele>
        <time>2014-06-03T14:42:24Z</time>
      </trkpt>
      <trkpt lat="42.41934" lon="0.09584">
        <ele>679.79</ele>
        <time>2014-06-03T14:42:27Z</time>
      </trkpt>
      <trkpt lat="42.41947" lon="0.09551">
        <ele>676.42</ele>
        <time>2014-06-03T14:42:33Z</time>
      </trkpt>
      <trkpt lat="42.41949" lon="0.09544">
        <ele>675.46</ele>
        <time>2014-06-03T14:42:34Z</time>
      </trkpt>
      <trkpt lat="42.41954" lon="0.09511">
        <ele>670.66</ele>
        <time>2014-06-03T14:42:39Z</time>
      </trkpt>
      <trkpt lat="42.41957" lon="0.09506">
        <ele>670.18</ele>
        <time>2014-06-03T14:42:40Z</time>
      </trkpt>
      <trkpt lat="42.41964" lon="0.09496">
        <ele>669.22</ele>
        <time>2014-06-03T14:42:42Z</time>
      </trkpt>
      <trkpt lat="42.41976" lon="0.0949">
        <ele>667.77</ele>
        <time>2014-06-03T14:42:46Z</time>
      </trkpt>
      <trkpt lat="42.41986" lon="0.09474">
        <ele>663.93</ele>
        <time>2014-06-03T14:42:49Z</time>
      </trkpt>
      <trkpt lat="42.41988" lon="0.09452">
        <ele>661.04</ele>
        <time>2014-06-03T14:42:53Z</time>
      </trkpt>
      <trkpt lat="42.41988" lon="0.09434">
        <ele>658.16</ele>
        <time>2014-06-03T14:42:56Z</time>
      </trkpt>
      <trkpt lat="42.41984" lon="0.09412">
        <ele>653.83</ele>
        <time>2014-06-03T14:43:00Z</time>
      </trkpt>
      <trkpt lat="42.4198" lon="0.09392">
        <ele>649.51</ele>
        <time>2014-06-03T14:43:04Z</time>
      </trkpt>
      <trkpt lat="42.41976" lon="0.09382">
        <ele>648.07</ele>
        <time>2014-06-03T14:43:07Z</time>
      </trkpt>
      <trkpt lat="42.41976" lon="0.09376">
        <ele>646.14</ele>
        <time>2014-06-03T14:43:13Z</time>
      </trkpt>
      <trkpt lat="42.41996" lon="0.09385">
        <ele>643.74</ele>
        <time>2014-06-03T14:43:22Z</time>
      </trkpt>
      <trkpt lat="42.42009" lon="0.09397">
        <ele>642.3</ele>
        <time>2014-06-03T14:43:26Z</time>
      </trkpt>
      <trkpt lat="42.42026" lon="0.09417">
        <ele>641.34</ele>
        <time>2014-06-03T14:43:31Z</time>
      </trkpt>
      <trkpt lat="42.42063" lon="0.09401">
        <ele>641.82</ele>
        <time>2014-06-03T14:43:42Z</time>
      </trkpt>
      <trkpt lat="42.42067" lon="0.094">
        <ele>640.86</ele>
        <time>2014-06-03T14:43:43Z</time>
      </trkpt>
      <trkpt lat="42.42086" lon="0.09384">
        <ele>638.93</ele>
        <time>2014-06-03T14:43:48Z</time>
      </trkpt>
      <trkpt lat="42.42101" lon="0.0936">
        <ele>638.93</ele>
        <time>2014-06-03T14:43:53Z</time>
      </trkpt>
      <trkpt lat="42.42114" lon="0.09338">
        <ele>638.45</ele>
        <time>2014-06-03T14:43:57Z</time>
      </trkpt>
      <trkpt lat="42.42119" lon="0.09326">
        <ele>638.93</ele>
        <time>2014-06-03T14:43:59Z</time>
      </trkpt>
      <trkpt lat="42.42139" lon="0.093">
        <ele>636.53</ele>
        <time>2014-06-03T14:44:05Z</time>
      </trkpt>
      <trkpt lat="42.42168" lon="0.09278">
        <ele>633.17</ele>
        <time>2014-06-03T14:44:10Z</time>
      </trkpt>
      <trkpt lat="42.42181" lon="0.09269">
        <ele>632.2</ele>
        <time>2014-06-03T14:44:12Z</time>
      </trkpt>
      <trkpt lat="42.42252" lon="0.09222">
        <ele>628.84</ele>
        <time>2014-06-03T14:44:23Z</time>
      </trkpt>
      <trkpt lat="42.42309" lon="0.09193">
        <ele>627.88</ele>
        <time>2014-06-03T14:44:32Z</time>
      </trkpt>
      <trkpt lat="42.42333" lon="0.09192">
        <ele>627.88</ele>
        <time>2014-06-03T14:44:36Z</time>
      </trkpt>
      <trkpt lat="42.42362" lon="0.09177">
        <ele>627.88</ele>
        <time>2014-06-03T14:44:42Z</time>
      </trkpt>
      <trkpt lat="42.42379" lon="0.0917">
        <ele>626.44</ele>
        <time>2014-06-03T14:44:45Z</time>
      </trkpt>
      <trkpt lat="42.42463" lon="0.09122">
        <ele>625.96</ele>
        <time>2014-06-03T14:45:00Z</time>
      </trkpt>
      <trkpt lat="42.42484" lon="0.09109">
        <ele>625.47</ele>
        <time>2014-06-03T14:45:04Z</time>
      </trkpt>
      <trkpt lat="42.42499" lon="0.09101">
        <ele>624.99</ele>
        <time>2014-06-03T14:45:07Z</time>
      </trkpt>
      <trkpt lat="42.42519" lon="0.09097">
        <ele>624.99</ele>
        <time>2014-06-03T14:45:11Z</time>
      </trkpt>
      <trkpt lat="42.42532" lon="0.0909">
        <ele>625.47</ele>
        <time>2014-06-03T14:45:14Z</time>
      </trkpt>
      <trkpt lat="42.42545" lon="0.09082">
        <ele>624.99</ele>
        <time>2014-06-03T14:45:17Z</time>
      </trkpt>
      <trkpt lat="42.42559" lon="0.09075">
        <ele>624.03</ele>
        <time>2014-06-03T14:45:20Z</time>
      </trkpt>
      <trkpt lat="42.42605" lon="0.09046">
        <ele>622.11</ele>
        <time>2014-06-03T14:45:29Z</time>
      </trkpt>
      <trkpt lat="42.42621" lon="0.09037">
        <ele>621.63</ele>
        <time>2014-06-03T14:45:32Z</time>
      </trkpt>
      <trkpt lat="42.42653" lon="0.09012">
        <ele>621.63</ele>
        <time>2014-06-03T14:45:40Z</time>
      </trkpt>
      <trkpt lat="42.42675" lon="0.09001">
        <ele>621.63</ele>
        <time>2014-06-03T14:45:46Z</time>
      </trkpt>
      <trkpt lat="42.42679" lon="0.08997">
        <ele>621.63</ele>
        <time>2014-06-03T14:45:47Z</time>
      </trkpt>
      <trkpt lat="42.42695" lon="0.08979">
        <ele>622.11</ele>
        <time>2014-06-03T14:45:51Z</time>
      </trkpt>
      <trkpt lat="42.42715" lon="0.08947">
        <ele>621.15</ele>
        <time>2014-06-03T14:45:58Z</time>
      </trkpt>
      <trkpt lat="42.42717" lon="0.08942">
        <ele>620.67</ele>
        <time>2014-06-03T14:45:59Z</time>
      </trkpt>
      <trkpt lat="42.4273" lon="0.08899">
        <ele>616.82</ele>
        <time>2014-06-03T14:46:07Z</time>
      </trkpt>
      <trkpt lat="42.42733" lon="0.08871">
        <ele>613.46</ele>
        <time>2014-06-03T14:46:11Z</time>
      </trkpt>
      <trkpt lat="42.42732" lon="0.08838">
        <ele>609.13</ele>
        <time>2014-06-03T14:46:15Z</time>
      </trkpt>
      <trkpt lat="42.42733" lon="0.08829">
        <ele>607.69</ele>
        <time>2014-06-03T14:46:16Z</time>
      </trkpt>
      <trkpt lat="42.42733" lon="0.08824">
        <ele>606.25</ele>
        <time>2014-06-03T14:46:17Z</time>
      </trkpt>
      <trkpt lat="42.42727" lon="0.08792">
        <ele>602.4</ele>
        <time>2014-06-03T14:46:20Z</time>
      </trkpt>
      <trkpt lat="42.42719" lon="0.08757">
        <ele>598.08</ele>
        <time>2014-06-03T14:46:23Z</time>
      </trkpt>
      <trkpt lat="42.42714" lon="0.08739">
        <ele>597.12</ele>
        <time>2014-06-03T14:46:25Z</time>
      </trkpt>
      <trkpt lat="42.42719" lon="0.08697">
        <ele>595.19</ele>
        <time>2014-06-03T14:46:30Z</time>
      </trkpt>
      <trkpt lat="42.42721" lon="0.08692">
        <ele>595.19</ele>
        <time>2014-06-03T14:46:31Z</time>
      </trkpt>
      <trkpt lat="42.42728" lon="0.08677">
        <ele>594.71</ele>
        <time>2014-06-03T14:46:33Z</time>
      </trkpt>
      <trkpt lat="42.42751" lon="0.08651">
        <ele>593.75</ele>
        <time>2014-06-03T14:46:37Z</time>
      </trkpt>
      <trkpt lat="42.42761" lon="0.08642">
        <ele>592.79</ele>
        <time>2014-06-03T14:46:39Z</time>
      </trkpt>
      <trkpt lat="42.42781" lon="0.08631">
        <ele>591.35</ele>
        <time>2014-06-03T14:46:42Z</time>
      </trkpt>
      <trkpt lat="42.42798" lon="0.08618">
        <ele>589.91</ele>
        <time>2014-06-03T14:46:45Z</time>
      </trkpt>
      <trkpt lat="42.4281" lon="0.08613">
        <ele>587.98</ele>
        <time>2014-06-03T14:46:47Z</time>
      </trkpt>
      <trkpt lat="42.42825" lon="0.08612">
        <ele>587.02</ele>
        <time>2014-06-03T14:46:49Z</time>
      </trkpt>
      <trkpt lat="42.42851" lon="0.08597">
        <ele>586.06</ele>
        <time>2014-06-03T14:46:53Z</time>
      </trkpt>
      <trkpt lat="42.42858" lon="0.08565">
        <ele>584.14</ele>
        <time>2014-06-03T14:46:57Z</time>
      </trkpt>
      <trkpt lat="42.42872" lon="0.08526">
        <ele>584.14</ele>
        <time>2014-06-03T14:47:03Z</time>
      </trkpt>
      <trkpt lat="42.42874" lon="0.08458">
        <ele>584.62</ele>
        <time>2014-06-03T14:47:16Z</time>
      </trkpt>
      <trkpt lat="42.4288" lon="0.08407">
        <ele>585.58</ele>
        <time>2014-06-03T14:47:28Z</time>
      </trkpt>
      <trkpt lat="42.42881" lon="0.08343">
        <ele>586.06</ele>
        <time>2014-06-03T14:47:42Z</time>
      </trkpt>
      <trkpt lat="42.42882" lon="0.08291">
        <ele>587.5</ele>
        <time>2014-06-03T14:47:54Z</time>
      </trkpt>
      <trkpt lat="42.42867" lon="0.08235">
        <ele>587.5</ele>
        <time>2014-06-03T14:48:08Z</time>
      </trkpt>
      <trkpt lat="42.42878" lon="0.08217">
        <ele>586.06</ele>
        <time>2014-06-03T14:48:16Z</time>
      </trkpt>
      <trkpt lat="42.42882" lon="0.08188">
        <ele>587.02</ele>
        <time>2014-06-03T14:48:28Z</time>
      </trkpt>
      <trkpt lat="42.42904" lon="0.08177">
        <ele>589.43</ele>
        <time>2014-06-03T14:48:43Z</time>
      </trkpt>
      <trkpt lat="42.42913" lon="0.08182">
        <ele>588.95</ele>
        <time>2014-06-03T14:48:47Z</time>
      </trkpt>
      <trkpt lat="42.42965" lon="0.08214">
        <ele>587.98</ele>
        <time>2014-06-03T14:49:02Z</time>
      </trkpt>
      <trkpt lat="42.4301" lon="0.08237">
        <ele>586.54</ele>
        <time>2014-06-03T14:49:15Z</time>
      </trkpt>
      <trkpt lat="42.43045" lon="0.08259">
        <ele>585.58</ele>
        <time>2014-06-03T14:49:27Z</time>
      </trkpt>
      <trkpt lat="42.43064" lon="0.08272">
        <ele>585.1</ele>
        <time>2014-06-03T14:49:32Z</time>
      </trkpt>
      <trkpt lat="42.43081" lon="0.0828">
        <ele>585.1</ele>
        <time>2014-06-03T14:49:36Z</time>
      </trkpt>
      <trkpt lat="42.43094" lon="0.08287">
        <ele>585.1</ele>
        <time>2014-06-03T14:49:39Z</time>
      </trkpt>
      <trkpt lat="42.43174" lon="0.08336">
        <ele>583.66</ele>
        <time>2014-06-03T14:49:56Z</time>
      </trkpt>
      <trkpt lat="42.43242" lon="0.08379">
        <ele>583.18</ele>
        <time>2014-06-03T14:50:13Z</time>
      </trkpt>
      <trkpt lat="42.43258" lon="0.08383">
        <ele>583.18</ele>
        <time>2014-06-03T14:50:17Z</time>
      </trkpt>
      <trkpt lat="42.43276" lon="0.08372">
        <ele>583.66</ele>
        <time>2014-06-03T14:50:22Z</time>
      </trkpt>
      <trkpt lat="42.43291" lon="0.08347">
        <ele>583.18</ele>
        <time>2014-06-03T14:50:28Z</time>
      </trkpt>
      <trkpt lat="42.4334" lon="0.08257">
        <ele>584.14</ele>
        <time>2014-06-03T14:50:47Z</time>
      </trkpt>
      <trkpt lat="42.43394" lon="0.08151">
        <ele>584.62</ele>
        <time>2014-06-03T14:51:07Z</time>
      </trkpt>
      <trkpt lat="42.4344" lon="0.08064">
        <ele>585.58</ele>
        <time>2014-06-03T14:51:24Z</time>
      </trkpt>
      <trkpt lat="42.43481" lon="0.07983">
        <ele>585.58</ele>
        <time>2014-06-03T14:51:39Z</time>
      </trkpt>
      <trkpt lat="42.43524" lon="0.07897">
        <ele>586.06</ele>
        <time>2014-06-03T14:51:55Z</time>
      </trkpt>
      <trkpt lat="42.43543" lon="0.07861">
        <ele>587.02</ele>
        <time>2014-06-03T14:52:04Z</time>
      </trkpt>
      <trkpt lat="42.43579" lon="0.07862">
        <ele>588.46</ele>
        <time>2014-06-03T14:52:16Z</time>
      </trkpt>
      <trkpt lat="42.43594" lon="0.07874">
        <ele>593.27</ele>
        <time>2014-06-03T14:52:22Z</time>
      </trkpt>
      <trkpt lat="42.43597" lon="0.07876">
        <ele>590.87</ele>
        <time>2014-06-03T14:52:23Z</time>
      </trkpt>
      <trkpt lat="42.43626" lon="0.07897">
        <ele>589.43</ele>
        <time>2014-06-03T14:52:34Z</time>
      </trkpt>
      <trkpt lat="42.43632" lon="0.07901">
        <ele>591.35</ele>
        <time>2014-06-03T14:52:36Z</time>
      </trkpt>
      <trkpt lat="42.43673" lon="0.07922">
        <ele>593.27</ele>
        <time>2014-06-03T14:52:51Z</time>
      </trkpt>
      <trkpt lat="42.43677" lon="0.07919">
        <ele>592.79</ele>
        <time>2014-06-03T14:52:52Z</time>
      </trkpt>
      <trkpt lat="42.4371" lon="0.07861">
        <ele>593.27</ele>
        <time>2014-06-03T14:53:04Z</time>
      </trkpt>
      <trkpt lat="42.43768" lon="0.07782">
        <ele>591.83</ele>
        <time>2014-06-03T14:53:21Z</time>
      </trkpt>
      <trkpt lat="42.43826" lon="0.07699">
        <ele>592.31</ele>
        <time>2014-06-03T14:53:38Z</time>
      </trkpt>
      <trkpt lat="42.43868" lon="0.07632">
        <ele>591.83</ele>
        <time>2014-06-03T14:53:50Z</time>
      </trkpt>
      <trkpt lat="42.43931" lon="0.07522">
        <ele>594.23</ele>
        <time>2014-06-03T14:54:10Z</time>
      </trkpt>
      <trkpt lat="42.43988" lon="0.07426">
        <ele>595.19</ele>
        <time>2014-06-03T14:54:28Z</time>
      </trkpt>
      <trkpt lat="42.44035" lon="0.07345">
        <ele>595.19</ele>
        <time>2014-06-03T14:54:43Z</time>
      </trkpt>
      <trkpt lat="42.44064" lon="0.07295">
        <ele>595.67</ele>
        <time>2014-06-03T14:54:53Z</time>
      </trkpt>
      <trkpt lat="42.44081" lon="0.073">
        <ele>595.67</ele>
        <time>2014-06-03T14:54:58Z</time>
      </trkpt>
      <trkpt lat="42.44127" lon="0.07346">
        <ele>598.56</ele>
        <time>2014-06-03T14:55:14Z</time>
      </trkpt>
      <trkpt lat="42.44158" lon="0.0738">
        <ele>601.44</ele>
        <time>2014-06-03T14:55:28Z</time>
      </trkpt>
      <trkpt lat="42.44182" lon="0.07407">
        <ele>603.36</ele>
        <time>2014-06-03T14:55:42Z</time>
      </trkpt>
      <trkpt lat="42.44189" lon="0.07414">
        <ele>604.33</ele>
        <time>2014-06-03T14:55:46Z</time>
      </trkpt>
      <trkpt lat="42.44182" lon="0.07443">
        <ele>604.33</ele>
        <time>2014-06-03T14:55:54Z</time>
      </trkpt>
      <trkpt lat="42.44174" lon="0.07505">
        <ele>604.33</ele>
        <time>2014-06-03T14:56:09Z</time>
      </trkpt>
      <trkpt lat="42.44198" lon="0.07525">
        <ele>607.69</ele>
        <time>2014-06-03T14:56:20Z</time>
      </trkpt>
      <trkpt lat="42.4422" lon="0.07543">
        <ele>610.57</ele>
        <time>2014-06-03T14:56:37Z</time>
      </trkpt>
      <trkpt lat="42.44227" lon="0.07549">
        <ele>611.54</ele>
        <time>2014-06-03T14:56:42Z</time>
      </trkpt>
      <trkpt lat="42.44238" lon="0.07556">
        <ele>613.94</ele>
        <time>2014-06-03T14:56:51Z</time>
      </trkpt>
      <trkpt lat="42.4425" lon="0.07567">
        <ele>616.82</ele>
        <time>2014-06-03T14:57:02Z</time>
      </trkpt>
      <trkpt lat="42.44251" lon="0.07568">
        <ele>617.3</ele>
        <time>2014-06-03T14:57:03Z</time>
      </trkpt>
      <trkpt lat="42.44259" lon="0.07567">
        <ele>618.26</ele>
        <time>2014-06-03T14:57:09Z</time>
      </trkpt>
      <trkpt lat="42.44264" lon="0.07568">
        <ele>618.75</ele>
        <time>2014-06-03T14:57:13Z</time>
      </trkpt>
      <trkpt lat="42.44266" lon="0.07567">
        <ele>619.71</ele>
        <time>2014-06-03T14:57:15Z</time>
      </trkpt>
      <trkpt lat="42.44278" lon="0.0754">
        <ele>620.67</ele>
        <time>2014-06-03T14:57:30Z</time>
      </trkpt>
      <trkpt lat="42.44285" lon="0.07524">
        <ele>621.15</ele>
        <time>2014-06-03T14:57:38Z</time>
      </trkpt>
      <trkpt lat="42.4429" lon="0.07516">
        <ele>621.63</ele>
        <time>2014-06-03T14:57:43Z</time>
      </trkpt>
      <trkpt lat="42.44293" lon="0.07521">
        <ele>622.11</ele>
        <time>2014-06-03T14:57:47Z</time>
      </trkpt>
      <trkpt lat="42.44295" lon="0.07541">
        <ele>625.47</ele>
        <time>2014-06-03T14:57:59Z</time>
      </trkpt>
      <trkpt lat="42.44296" lon="0.07545">
        <ele>625.96</ele>
        <time>2014-06-03T14:58:02Z</time>
      </trkpt>
      <trkpt lat="42.44298" lon="0.07561">
        <ele>628.36</ele>
        <time>2014-06-03T14:58:12Z</time>
      </trkpt>
      <trkpt lat="42.44302" lon="0.07574">
        <ele>630.28</ele>
        <time>2014-06-03T14:58:21Z</time>
      </trkpt>
      <trkpt lat="42.44307" lon="0.0759">
        <ele>632.68</ele>
        <time>2014-06-03T14:58:32Z</time>
      </trkpt>
      <trkpt lat="42.44308" lon="0.07595">
        <ele>633.65</ele>
        <time>2014-06-03T14:58:36Z</time>
      </trkpt>
      <trkpt lat="42.44311" lon="0.07609">
        <ele>636.05</ele>
        <time>2014-06-03T14:58:45Z</time>
      </trkpt>
      <trkpt lat="42.44314" lon="0.07614">
        <ele>637.01</ele>
        <time>2014-06-03T14:58:50Z</time>
      </trkpt>
      <trkpt lat="42.44317" lon="0.0763">
        <ele>639.41</ele>
        <time>2014-06-03T14:59:02Z</time>
      </trkpt>
      <trkpt lat="42.44314" lon="0.07638">
        <ele>640.38</ele>
        <time>2014-06-03T14:59:08Z</time>
      </trkpt>
      <trkpt lat="42.44313" lon="0.07648">
        <ele>641.82</ele>
        <time>2014-06-03T14:59:15Z</time>
      </trkpt>
      <trkpt lat="42.44311" lon="0.07658">
        <ele>643.74</ele>
        <time>2014-06-03T14:59:22Z</time>
      </trkpt>
      <trkpt lat="42.44314" lon="0.07682">
        <ele>645.18</ele>
        <time>2014-06-03T14:59:37Z</time>
      </trkpt>
      <trkpt lat="42.44317" lon="0.0769">
        <ele>645.18</ele>
        <time>2014-06-03T14:59:42Z</time>
      </trkpt>
      <trkpt lat="42.4432" lon="0.07699">
        <ele>646.14</ele>
        <time>2014-06-03T14:59:49Z</time>
      </trkpt>
      <trkpt lat="42.44323" lon="0.07703">
        <ele>646.62</ele>
        <time>2014-06-03T14:59:53Z</time>
      </trkpt>
      <trkpt lat="42.4433" lon="0.0772">
        <ele>649.03</ele>
        <time>2014-06-03T15:00:05Z</time>
      </trkpt>
      <trkpt lat="42.44336" lon="0.0773">
        <ele>650.95</ele>
        <time>2014-06-03T15:00:13Z</time>
      </trkpt>
      <trkpt lat="42.44338" lon="0.07733">
        <ele>651.43</ele>
        <time>2014-06-03T15:00:16Z</time>
      </trkpt>
      <trkpt lat="42.4434" lon="0.07735">
        <ele>651.43</ele>
        <time>2014-06-03T15:00:18Z</time>
      </trkpt>
      <trkpt lat="42.44343" lon="0.07741">
        <ele>652.39</ele>
        <time>2014-06-03T15:00:23Z</time>
      </trkpt>
      <trkpt lat="42.44345" lon="0.07745">
        <ele>652.87</ele>
        <time>2014-06-03T15:00:26Z</time>
      </trkpt>
      <trkpt lat="42.44347" lon="0.07751">
        <ele>652.87</ele>
        <time>2014-06-03T15:00:30Z</time>
      </trkpt>
      <trkpt lat="42.4435" lon="0.07759">
        <ele>653.35</ele>
        <time>2014-06-03T15:00:35Z</time>
      </trkpt>
      <trkpt lat="42.44357" lon="0.07777">
        <ele>655.28</ele>
        <time>2014-06-03T15:00:47Z</time>
      </trkpt>
      <trkpt lat="42.44359" lon="0.07788">
        <ele>656.72</ele>
        <time>2014-06-03T15:00:59Z</time>
      </trkpt>
      <trkpt lat="42.44364" lon="0.07804">
        <ele>658.64</ele>
        <time>2014-06-03T15:01:12Z</time>
      </trkpt>
      <trkpt lat="42.44364" lon="0.07807">
        <ele>658.64</ele>
        <time>2014-06-03T15:01:14Z</time>
      </trkpt>
      <trkpt lat="42.44364" lon="0.07814">
        <ele>660.08</ele>
        <time>2014-06-03T15:01:20Z</time>
      </trkpt>
      <trkpt lat="42.44372" lon="0.07826">
        <ele>662.49</ele>
        <time>2014-06-03T15:01:35Z</time>
      </trkpt>
      <trkpt lat="42.44377" lon="0.07838">
        <ele>665.37</ele>
        <time>2014-06-03T15:01:49Z</time>
      </trkpt>
      <trkpt lat="42.44383" lon="0.07847">
        <ele>667.29</ele>
        <time>2014-06-03T15:02:01Z</time>
      </trkpt>
      <trkpt lat="42.44386" lon="0.07855">
        <ele>668.25</ele>
        <time>2014-06-03T15:02:12Z</time>
      </trkpt>
      <trkpt lat="42.44388" lon="0.07859">
        <ele>668.73</ele>
        <time>2014-06-03T15:02:17Z</time>
      </trkpt>
      <trkpt lat="42.44389" lon="0.0786">
        <ele>669.22</ele>
        <time>2014-06-03T15:02:19Z</time>
      </trkpt>
      <trkpt lat="42.44393" lon="0.0787">
        <ele>670.18</ele>
        <time>2014-06-03T15:02:26Z</time>
      </trkpt>
      <trkpt lat="42.44404" lon="0.07896">
        <ele>671.14</ele>
        <time>2014-06-03T15:02:41Z</time>
      </trkpt>
      <trkpt lat="42.4442" lon="0.07928">
        <ele>672.1</ele>
        <time>2014-06-03T15:02:58Z</time>
      </trkpt>
      <trkpt lat="42.44437" lon="0.07948">
        <ele>674.02</ele>
        <time>2014-06-03T15:03:12Z</time>
      </trkpt>
      <trkpt lat="42.44442" lon="0.07957">
        <ele>675.46</ele>
        <time>2014-06-03T15:03:18Z</time>
      </trkpt>
      <trkpt lat="42.44447" lon="0.07968">
        <ele>676.42</ele>
        <time>2014-06-03T15:03:34Z</time>
      </trkpt>
      <trkpt lat="42.44448" lon="0.07971">
        <ele>675.94</ele>
        <time>2014-06-03T15:03:47Z</time>
      </trkpt>
      <trkpt lat="42.44453" lon="0.07981">
        <ele>674.98</ele>
        <time>2014-06-03T15:03:51Z</time>
      </trkpt>
      <trkpt lat="42.44472" lon="0.07998">
        <ele>678.35</ele>
        <time>2014-06-03T15:04:03Z</time>
      </trkpt>
      <trkpt lat="42.44472" lon="0.08021">
        <ele>680.27</ele>
        <time>2014-06-03T15:04:16Z</time>
      </trkpt>
      <trkpt lat="42.44475" lon="0.08028">
        <ele>681.23</ele>
        <time>2014-06-03T15:04:21Z</time>
      </trkpt>
      <trkpt lat="42.44481" lon="0.08038">
        <ele>682.67</ele>
        <time>2014-06-03T15:04:29Z</time>
      </trkpt>
      <trkpt lat="42.4449" lon="0.08049">
        <ele>681.71</ele>
        <time>2014-06-03T15:04:38Z</time>
      </trkpt>
      <trkpt lat="42.44501" lon="0.08065">
        <ele>682.19</ele>
        <time>2014-06-03T15:04:47Z</time>
      </trkpt>
      <trkpt lat="42.44504" lon="0.0807">
        <ele>682.67</ele>
        <time>2014-06-03T15:04:51Z</time>
      </trkpt>
      <trkpt lat="42.44504" lon="0.08083">
        <ele>682.19</ele>
        <time>2014-06-03T15:04:56Z</time>
      </trkpt>
      <trkpt lat="42.445" lon="0.08093">
        <ele>682.19</ele>
        <time>2014-06-03T15:05:00Z</time>
      </trkpt>
      <trkpt lat="42.44493" lon="0.08113">
        <ele>684.6</ele>
        <time>2014-06-03T15:05:11Z</time>
      </trkpt>
      <trkpt lat="42.44493" lon="0.08115">
        <ele>684.6</ele>
        <time>2014-06-03T15:05:12Z</time>
      </trkpt>
      <trkpt lat="42.44493" lon="0.08138">
        <ele>684.12</ele>
        <time>2014-06-03T15:05:19Z</time>
      </trkpt>
      <trkpt lat="42.44507" lon="0.08171">
        <ele>686.52</ele>
        <time>2014-06-03T15:05:32Z</time>
      </trkpt>
      <trkpt lat="42.44509" lon="0.08192">
        <ele>686.04</ele>
        <time>2014-06-03T15:05:39Z</time>
      </trkpt>
      <trkpt lat="42.44511" lon="0.08212">
        <ele>687.48</ele>
        <time>2014-06-03T15:05:46Z</time>
      </trkpt>
      <trkpt lat="42.4451" lon="0.08219">
        <ele>688.44</ele>
        <time>2014-06-03T15:05:49Z</time>
      </trkpt>
      <trkpt lat="42.44514" lon="0.08227">
        <ele>689.88</ele>
        <time>2014-06-03T15:05:59Z</time>
      </trkpt>
      <trkpt lat="42.44516" lon="0.08233">
        <ele>690.84</ele>
        <time>2014-06-03T15:06:05Z</time>
      </trkpt>
      <trkpt lat="42.44518" lon="0.08239">
        <ele>690.84</ele>
        <time>2014-06-03T15:06:11Z</time>
      </trkpt>
      <trkpt lat="42.4452" lon="0.08245">
        <ele>692.29</ele>
        <time>2014-06-03T15:06:16Z</time>
      </trkpt>
      <trkpt lat="42.44525" lon="0.08256">
        <ele>693.73</ele>
        <time>2014-06-03T15:06:28Z</time>
      </trkpt>
      <trkpt lat="42.44526" lon="0.08267">
        <ele>695.65</ele>
        <time>2014-06-03T15:06:40Z</time>
      </trkpt>
      <trkpt lat="42.44526" lon="0.08286">
        <ele>696.13</ele>
        <time>2014-06-03T15:06:50Z</time>
      </trkpt>
      <trkpt lat="42.44526" lon="0.08303">
        <ele>697.57</ele>
        <time>2014-06-03T15:06:57Z</time>
      </trkpt>
      <trkpt lat="42.44534" lon="0.08327">
        <ele>699.02</ele>
        <time>2014-06-03T15:07:09Z</time>
      </trkpt>
      <trkpt lat="42.44535" lon="0.08336">
        <ele>699.5</ele>
        <time>2014-06-03T15:07:14Z</time>
      </trkpt>
      <trkpt lat="42.4454" lon="0.08377">
        <ele>699.98</ele>
        <time>2014-06-03T15:07:29Z</time>
      </trkpt>
      <trkpt lat="42.44541" lon="0.08384">
        <ele>699.98</ele>
        <time>2014-06-03T15:07:31Z</time>
      </trkpt>
      <trkpt lat="42.44539" lon="0.08408">
        <ele>699.02</ele>
        <time>2014-06-03T15:07:37Z</time>
      </trkpt>
      <trkpt lat="42.44538" lon="0.08425">
        <ele>697.57</ele>
        <time>2014-06-03T15:07:40Z</time>
      </trkpt>
      <trkpt lat="42.44537" lon="0.08431">
        <ele>697.57</ele>
        <time>2014-06-03T15:07:41Z</time>
      </trkpt>
      <trkpt lat="42.44533" lon="0.08456">
        <ele>696.61</ele>
        <time>2014-06-03T15:07:50Z</time>
      </trkpt>
      <trkpt lat="42.44531" lon="0.08456">
        <ele>696.61</ele>
        <time>2014-06-03T15:07:54Z</time>
      </trkpt>
      <trkpt lat="42.44522" lon="0.08465">
        <ele>697.09</ele>
        <time>2014-06-03T15:08:01Z</time>
      </trkpt>
      <trkpt lat="42.44521" lon="0.0847">
        <ele>698.05</ele>
        <time>2014-06-03T15:08:04Z</time>
      </trkpt>
      <trkpt lat="42.44521" lon="0.08474">
        <ele>699.02</ele>
        <time>2014-06-03T15:08:07Z</time>
      </trkpt>
      <trkpt lat="42.44521" lon="0.08487">
        <ele>700.46</ele>
        <time>2014-06-03T15:08:20Z</time>
      </trkpt>
      <trkpt lat="42.4452" lon="0.08492">
        <ele>700.46</ele>
        <time>2014-06-03T15:08:23Z</time>
      </trkpt>
      <trkpt lat="42.44521" lon="0.08509">
        <ele>702.38</ele>
        <time>2014-06-03T15:08:37Z</time>
      </trkpt>
      <trkpt lat="42.44521" lon="0.08515">
        <ele>702.38</ele>
        <time>2014-06-03T15:08:42Z</time>
      </trkpt>
      <trkpt lat="42.44524" lon="0.08537">
        <ele>704.3</ele>
        <time>2014-06-03T15:08:52Z</time>
      </trkpt>
      <trkpt lat="42.44527" lon="0.08552">
        <ele>706.23</ele>
        <time>2014-06-03T15:08:59Z</time>
      </trkpt>
      <trkpt lat="42.44531" lon="0.08567">
        <ele>707.67</ele>
        <time>2014-06-03T15:09:05Z</time>
      </trkpt>
      <trkpt lat="42.44535" lon="0.08577">
        <ele>709.59</ele>
        <time>2014-06-03T15:09:11Z</time>
      </trkpt>
      <trkpt lat="42.44537" lon="0.08588">
        <ele>711.03</ele>
        <time>2014-06-03T15:09:17Z</time>
      </trkpt>
      <trkpt lat="42.44539" lon="0.08613">
        <ele>714.4</ele>
        <time>2014-06-03T15:09:31Z</time>
      </trkpt>
      <trkpt lat="42.44537" lon="0.08634">
        <ele>715.84</ele>
        <time>2014-06-03T15:09:43Z</time>
      </trkpt>
      <trkpt lat="42.44527" lon="0.08658">
        <ele>715.36</ele>
        <time>2014-06-03T15:09:55Z</time>
      </trkpt>
      <trkpt lat="42.4452" lon="0.08708">
        <ele>714.88</ele>
        <time>2014-06-03T15:10:06Z</time>
      </trkpt>
      <trkpt lat="42.44509" lon="0.08745">
        <ele>713.92</ele>
        <time>2014-06-03T15:10:15Z</time>
      </trkpt>
      <trkpt lat="42.44507" lon="0.0878">
        <ele>713.92</ele>
        <time>2014-06-03T15:10:25Z</time>
      </trkpt>
      <trkpt lat="42.44507" lon="0.08786">
        <ele>714.4</ele>
        <time>2014-06-03T15:10:28Z</time>
      </trkpt>
      <trkpt lat="42.44504" lon="0.08807">
        <ele>715.84</ele>
        <time>2014-06-03T15:10:38Z</time>
      </trkpt>
      <trkpt lat="42.44504" lon="0.08816">
        <ele>716.8</ele>
        <time>2014-06-03T15:10:43Z</time>
      </trkpt>
      <trkpt lat="42.44502" lon="0.08845">
        <ele>718.24</ele>
        <time>2014-06-03T15:10:57Z</time>
      </trkpt>
      <trkpt lat="42.44501" lon="0.08875">
        <ele>719.68</ele>
        <time>2014-06-03T15:11:09Z</time>
      </trkpt>
      <trkpt lat="42.445" lon="0.08895">
        <ele>721.13</ele>
        <time>2014-06-03T15:11:19Z</time>
      </trkpt>
      <trkpt lat="42.44502" lon="0.08924">
        <ele>722.57</ele>
        <time>2014-06-03T15:11:33Z</time>
      </trkpt>
      <trkpt lat="42.44504" lon="0.08947">
        <ele>725.45</ele>
        <time>2014-06-03T15:11:45Z</time>
      </trkpt>
      <trkpt lat="42.44503" lon="0.08949">
        <ele>725.45</ele>
        <time>2014-06-03T15:11:46Z</time>
      </trkpt>
      <trkpt lat="42.44506" lon="0.08965">
        <ele>726.41</ele>
        <time>2014-06-03T15:11:54Z</time>
      </trkpt>
      <trkpt lat="42.44509" lon="0.08982">
        <ele>727.86</ele>
        <time>2014-06-03T15:12:04Z</time>
      </trkpt>
      <trkpt lat="42.44513" lon="0.08991">
        <ele>729.3</ele>
        <time>2014-06-03T15:12:15Z</time>
      </trkpt>
      <trkpt lat="42.4452" lon="0.09003">
        <ele>730.74</ele>
        <time>2014-06-03T15:12:30Z</time>
      </trkpt>
      <trkpt lat="42.44522" lon="0.09013">
        <ele>731.7</ele>
        <time>2014-06-03T15:12:41Z</time>
      </trkpt>
      <trkpt lat="42.44528" lon="0.09027">
        <ele>734.1</ele>
        <time>2014-06-03T15:12:57Z</time>
      </trkpt>
      <trkpt lat="42.44529" lon="0.0903">
        <ele>734.58</ele>
        <time>2014-06-03T15:13:01Z</time>
      </trkpt>
      <trkpt lat="42.44531" lon="0.09061">
        <ele>736.03</ele>
        <time>2014-06-03T15:13:16Z</time>
      </trkpt>
      <trkpt lat="42.44534" lon="0.09088">
        <ele>737.95</ele>
        <time>2014-06-03T15:13:29Z</time>
      </trkpt>
      <trkpt lat="42.44538" lon="0.09111">
        <ele>738.91</ele>
        <time>2014-06-03T15:13:41Z</time>
      </trkpt>
      <trkpt lat="42.44541" lon="0.09135">
        <ele>740.35</ele>
        <time>2014-06-03T15:13:55Z</time>
      </trkpt>
      <trkpt lat="42.44542" lon="0.09141">
        <ele>739.87</ele>
        <time>2014-06-03T15:14:05Z</time>
      </trkpt>
      <trkpt lat="42.44542" lon="0.09141">
        <ele>739.87</ele>
        <time>2014-06-03T15:14:45Z</time>
      </trkpt>
      <trkpt lat="42.44541" lon="0.09143">
        <ele>740.35</ele>
        <time>2014-06-03T15:15:08Z</time>
      </trkpt>
      <trkpt lat="42.44524" lon="0.09135">
        <ele>736.99</ele>
        <time>2014-06-03T15:15:14Z</time>
      </trkpt>
      <trkpt lat="42.44519" lon="0.09133">
        <ele>736.51</ele>
        <time>2014-06-03T15:15:15Z</time>
      </trkpt>
      <trkpt lat="42.44509" lon="0.09128">
        <ele>735.07</ele>
        <time>2014-06-03T15:15:17Z</time>
      </trkpt>
      <trkpt lat="42.44474" lon="0.09125">
        <ele>733.14</ele>
        <time>2014-06-03T15:15:24Z</time>
      </trkpt>
      <trkpt lat="42.4447" lon="0.09127">
        <ele>733.14</ele>
        <time>2014-06-03T15:15:25Z</time>
      </trkpt>
      <trkpt lat="42.44453" lon="0.09129">
        <ele>734.1</ele>
        <time>2014-06-03T15:15:30Z</time>
      </trkpt>
      <trkpt lat="42.44448" lon="0.09129">
        <ele>735.07</ele>
        <time>2014-06-03T15:15:33Z</time>
      </trkpt>
      <trkpt lat="42.44442" lon="0.09136">
        <ele>735.07</ele>
        <time>2014-06-03T15:15:38Z</time>
      </trkpt>
      <trkpt lat="42.44434" lon="0.09134">
        <ele>736.03</ele>
        <time>2014-06-03T15:15:42Z</time>
      </trkpt>
      <trkpt lat="42.44417" lon="0.0912">
        <ele>738.43</ele>
        <time>2014-06-03T15:15:53Z</time>
      </trkpt>
      <trkpt lat="42.44401" lon="0.09098">
        <ele>740.35</ele>
        <time>2014-06-03T15:16:06Z</time>
      </trkpt>
      <trkpt lat="42.44392" lon="0.09098">
        <ele>742.28</ele>
        <time>2014-06-03T15:16:12Z</time>
      </trkpt>
      <trkpt lat="42.44386" lon="0.09101">
        <ele>742.76</ele>
        <time>2014-06-03T15:16:16Z</time>
      </trkpt>
      <trkpt lat="42.44375" lon="0.09104">
        <ele>745.64</ele>
        <time>2014-06-03T15:16:28Z</time>
      </trkpt>
      <trkpt lat="42.44365" lon="0.09107">
        <ele>747.56</ele>
        <time>2014-06-03T15:16:42Z</time>
      </trkpt>
      <trkpt lat="42.44365" lon="0.09108">
        <ele>747.56</ele>
        <time>2014-06-03T15:16:43Z</time>
      </trkpt>
      <trkpt lat="42.44362" lon="0.09123">
        <ele>749.97</ele>
        <time>2014-06-03T15:16:57Z</time>
      </trkpt>
      <trkpt lat="42.4436" lon="0.09127">
        <ele>750.45</ele>
        <time>2014-06-03T15:17:12Z</time>
      </trkpt>
      <trkpt lat="42.44355" lon="0.09138">
        <ele>749.97</ele>
        <time>2014-06-03T15:17:25Z</time>
      </trkpt>
      <trkpt lat="42.44352" lon="0.09142">
        <ele>749.49</ele>
        <time>2014-06-03T15:17:26Z</time>
      </trkpt>
      <trkpt lat="42.44339" lon="0.09157">
        <ele>748.52</ele>
        <time>2014-06-03T15:17:31Z</time>
      </trkpt>
      <trkpt lat="42.44337" lon="0.09165">
        <ele>749</ele>
        <time>2014-06-03T15:17:34Z</time>
      </trkpt>
      <trkpt lat="42.44329" lon="0.09179">
        <ele>749.97</ele>
        <time>2014-06-03T15:17:41Z</time>
      </trkpt>
      <trkpt lat="42.4434" lon="0.09204">
        <ele>751.89</ele>
        <time>2014-06-03T15:17:53Z</time>
      </trkpt>
      <trkpt lat="42.44342" lon="0.09208">
        <ele>752.85</ele>
        <time>2014-06-03T15:18:07Z</time>
      </trkpt>
      <trkpt lat="42.44343" lon="0.09208">
        <ele>752.37</ele>
        <time>2014-06-03T15:18:31Z</time>
      </trkpt>
      <trkpt lat="42.44341" lon="0.09211">
        <ele>752.85</ele>
        <time>2014-06-03T15:18:52Z</time>
      </trkpt>
      <trkpt lat="42.44337" lon="0.09216">
        <ele>752.85</ele>
        <time>2014-06-03T15:18:56Z</time>
      </trkpt>
      <trkpt lat="42.4433" lon="0.09219">
        <ele>753.33</ele>
        <time>2014-06-03T15:18:59Z</time>
      </trkpt>
      <trkpt lat="42.44322" lon="0.09228">
        <ele>753.81</ele>
        <time>2014-06-03T15:19:04Z</time>
      </trkpt>
      <trkpt lat="42.44314" lon="0.0924">
        <ele>754.29</ele>
        <time>2014-06-03T15:19:09Z</time>
      </trkpt>
      <trkpt lat="42.44296" lon="0.09287">
        <ele>755.25</ele>
        <time>2014-06-03T15:19:23Z</time>
      </trkpt>
      <trkpt lat="42.44292" lon="0.09296">
        <ele>755.73</ele>
        <time>2014-06-03T15:19:26Z</time>
      </trkpt>
      <trkpt lat="42.44282" lon="0.09305">
        <ele>755.73</ele>
        <time>2014-06-03T15:19:31Z</time>
      </trkpt>
      <trkpt lat="42.44266" lon="0.09311">
        <ele>756.21</ele>
        <time>2014-06-03T15:19:37Z</time>
      </trkpt>
      <trkpt lat="42.44265" lon="0.09312">
        <ele>755.73</ele>
        <time>2014-06-03T15:19:38Z</time>
      </trkpt>
      <trkpt lat="42.44259" lon="0.0933">
        <ele>756.69</ele>
        <time>2014-06-03T15:19:44Z</time>
      </trkpt>
      <trkpt lat="42.44256" lon="0.09369">
        <ele>757.66</ele>
        <time>2014-06-03T15:19:54Z</time>
      </trkpt>
      <trkpt lat="42.44255" lon="0.09373">
        <ele>757.66</ele>
        <time>2014-06-03T15:19:55Z</time>
      </trkpt>
      <trkpt lat="42.44233" lon="0.09397">
        <ele>758.14</ele>
        <time>2014-06-03T15:20:06Z</time>
      </trkpt>
      <trkpt lat="42.44229" lon="0.09404">
        <ele>758.62</ele>
        <time>2014-06-03T15:20:08Z</time>
      </trkpt>
      <trkpt lat="42.44222" lon="0.09435">
        <ele>759.1</ele>
        <time>2014-06-03T15:20:18Z</time>
      </trkpt>
      <trkpt lat="42.44223" lon="0.09437">
        <ele>759.58</ele>
        <time>2014-06-03T15:20:19Z</time>
      </trkpt>
      <trkpt lat="42.44227" lon="0.09449">
        <ele>760.54</ele>
        <time>2014-06-03T15:20:23Z</time>
      </trkpt>
      <trkpt lat="42.44228" lon="0.09479">
        <ele>763.9</ele>
        <time>2014-06-03T15:20:35Z</time>
      </trkpt>
      <trkpt lat="42.44227" lon="0.09481">
        <ele>763.42</ele>
        <time>2014-06-03T15:20:36Z</time>
      </trkpt>
      <trkpt lat="42.44214" lon="0.09498">
        <ele>765.35</ele>
        <time>2014-06-03T15:20:46Z</time>
      </trkpt>
      <trkpt lat="42.44211" lon="0.09504">
        <ele>764.87</ele>
        <time>2014-06-03T15:20:49Z</time>
      </trkpt>
      <trkpt lat="42.44187" lon="0.09526">
        <ele>763.42</ele>
        <time>2014-06-03T15:20:58Z</time>
      </trkpt>
      <trkpt lat="42.4417" lon="0.09543">
        <ele>761.5</ele>
        <time>2014-06-03T15:21:03Z</time>
      </trkpt>
      <trkpt lat="42.44157" lon="0.09559">
        <ele>760.06</ele>
        <time>2014-06-03T15:21:07Z</time>
      </trkpt>
      <trkpt lat="42.44137" lon="0.0958">
        <ele>758.62</ele>
        <time>2014-06-03T15:21:14Z</time>
      </trkpt>
      <trkpt lat="42.44127" lon="0.09581">
        <ele>755.25</ele>
        <time>2014-06-03T15:21:18Z</time>
      </trkpt>
      <trkpt lat="42.44117" lon="0.09577">
        <ele>751.41</ele>
        <time>2014-06-03T15:21:21Z</time>
      </trkpt>
      <trkpt lat="42.44112" lon="0.09575">
        <ele>750.93</ele>
        <time>2014-06-03T15:21:22Z</time>
      </trkpt>
      <trkpt lat="42.44096" lon="0.09583">
        <ele>748.04</ele>
        <time>2014-06-03T15:21:25Z</time>
      </trkpt>
      <trkpt lat="42.44093" lon="0.09587">
        <ele>747.56</ele>
        <time>2014-06-03T15:21:26Z</time>
      </trkpt>
      <trkpt lat="42.44092" lon="0.09595">
        <ele>748.04</ele>
        <time>2014-06-03T15:21:28Z</time>
      </trkpt>
      <trkpt lat="42.44104" lon="0.09635">
        <ele>742.76</ele>
        <time>2014-06-03T15:21:35Z</time>
      </trkpt>
      <trkpt lat="42.4411" lon="0.09647">
        <ele>741.31</ele>
        <time>2014-06-03T15:21:38Z</time>
      </trkpt>
      <trkpt lat="42.44111" lon="0.09677">
        <ele>739.87</ele>
        <time>2014-06-03T15:21:45Z</time>
      </trkpt>
      <trkpt lat="42.44112" lon="0.09682">
        <ele>739.87</ele>
        <time>2014-06-03T15:21:46Z</time>
      </trkpt>
      <trkpt lat="42.44115" lon="0.09705">
        <ele>740.35</ele>
        <time>2014-06-03T15:21:50Z</time>
      </trkpt>
      <trkpt lat="42.44115" lon="0.09726">
        <ele>743.24</ele>
        <time>2014-06-03T15:21:59Z</time>
      </trkpt>
      <trkpt lat="42.44113" lon="0.0975">
        <ele>745.16</ele>
        <time>2014-06-03T15:22:09Z</time>
      </trkpt>
      <trkpt lat="42.44113" lon="0.09771">
        <ele>748.04</ele>
        <time>2014-06-03T15:22:20Z</time>
      </trkpt>
      <trkpt lat="42.44113" lon="0.09776">
        <ele>748.52</ele>
        <time>2014-06-03T15:22:22Z</time>
      </trkpt>
      <trkpt lat="42.44111" lon="0.09788">
        <ele>749.49</ele>
        <time>2014-06-03T15:22:28Z</time>
      </trkpt>
      <trkpt lat="42.44112" lon="0.09795">
        <ele>750.45</ele>
        <time>2014-06-03T15:22:32Z</time>
      </trkpt>
      <trkpt lat="42.44106" lon="0.09819">
        <ele>753.33</ele>
        <time>2014-06-03T15:22:44Z</time>
      </trkpt>
      <trkpt lat="42.44097" lon="0.0985">
        <ele>751.89</ele>
        <time>2014-06-03T15:22:55Z</time>
      </trkpt>
      <trkpt lat="42.44088" lon="0.09864">
        <ele>751.41</ele>
        <time>2014-06-03T15:23:01Z</time>
      </trkpt>
      <trkpt lat="42.44082" lon="0.09873">
        <ele>749.97</ele>
        <time>2014-06-03T15:23:03Z</time>
      </trkpt>
      <trkpt lat="42.4406" lon="0.09911">
        <ele>747.56</ele>
        <time>2014-06-03T15:23:10Z</time>
      </trkpt>
      <trkpt lat="42.44055" lon="0.09929">
        <ele>745.64</ele>
        <time>2014-06-03T15:23:13Z</time>
      </trkpt>
      <trkpt lat="42.4404" lon="0.09956">
        <ele>743.72</ele>
        <time>2014-06-03T15:23:20Z</time>
      </trkpt>
      <trkpt lat="42.44041" lon="0.09963">
        <ele>743.24</ele>
        <time>2014-06-03T15:23:28Z</time>
      </trkpt>
      <trkpt lat="42.44049" lon="0.09984">
        <ele>741.79</ele>
        <time>2014-06-03T15:23:35Z</time>
      </trkpt>
      <trkpt lat="42.44048" lon="0.09994">
        <ele>740.83</ele>
        <time>2014-06-03T15:23:37Z</time>
      </trkpt>
      <trkpt lat="42.44045" lon="0.10017">
        <ele>738.43</ele>
        <time>2014-06-03T15:23:41Z</time>
      </trkpt>
      <trkpt lat="42.44044" lon="0.10045">
        <ele>739.39</ele>
        <time>2014-06-03T15:23:45Z</time>
      </trkpt>
      <trkpt lat="42.44043" lon="0.10064">
        <ele>737.95</ele>
        <time>2014-06-03T15:23:49Z</time>
      </trkpt>
      <trkpt lat="42.44041" lon="0.10082">
        <ele>734.1</ele>
        <time>2014-06-03T15:23:53Z</time>
      </trkpt>
      <trkpt lat="42.44029" lon="0.10108">
        <ele>728.34</ele>
        <time>2014-06-03T15:23:57Z</time>
      </trkpt>
      <trkpt lat="42.44021" lon="0.10135">
        <ele>726.89</ele>
        <time>2014-06-03T15:24:00Z</time>
      </trkpt>
      <trkpt lat="42.44019" lon="0.10144">
        <ele>725.93</ele>
        <time>2014-06-03T15:24:01Z</time>
      </trkpt>
      <trkpt lat="42.44015" lon="0.10165">
        <ele>726.89</ele>
        <time>2014-06-03T15:24:04Z</time>
      </trkpt>
      <trkpt lat="42.44014" lon="0.10168">
        <ele>726.89</ele>
        <time>2014-06-03T15:24:05Z</time>
      </trkpt>
      <trkpt lat="42.44014" lon="0.10176">
        <ele>726.89</ele>
        <time>2014-06-03T15:24:11Z</time>
      </trkpt>
      <trkpt lat="42.44013" lon="0.10187">
        <ele>727.86</ele>
        <time>2014-06-03T15:24:17Z</time>
      </trkpt>
      <trkpt lat="42.44006" lon="0.10205">
        <ele>728.82</ele>
        <time>2014-06-03T15:24:24Z</time>
      </trkpt>
      <trkpt lat="42.44003" lon="0.10208">
        <ele>730.74</ele>
        <time>2014-06-03T15:24:28Z</time>
      </trkpt>
      <trkpt lat="42.44002" lon="0.10214">
        <ele>732.18</ele>
        <time>2014-06-03T15:24:32Z</time>
      </trkpt>
      <trkpt lat="42.44001" lon="0.1022">
        <ele>732.66</ele>
        <time>2014-06-03T15:24:36Z</time>
      </trkpt>
      <trkpt lat="42.43998" lon="0.1023">
        <ele>733.62</ele>
        <time>2014-06-03T15:24:40Z</time>
      </trkpt>
      <trkpt lat="42.43987" lon="0.10268">
        <ele>732.18</ele>
        <time>2014-06-03T15:24:53Z</time>
      </trkpt>
      <trkpt lat="42.43985" lon="0.10272">
        <ele>732.66</ele>
        <time>2014-06-03T15:24:54Z</time>
      </trkpt>
      <trkpt lat="42.43979" lon="0.10283">
        <ele>729.78</ele>
        <time>2014-06-03T15:24:56Z</time>
      </trkpt>
      <trkpt lat="42.43966" lon="0.10302">
        <ele>725.93</ele>
        <time>2014-06-03T15:25:01Z</time>
      </trkpt>
      <trkpt lat="42.43957" lon="0.10315">
        <ele>722.09</ele>
        <time>2014-06-03T15:25:04Z</time>
      </trkpt>
      <trkpt lat="42.4395" lon="0.1032">
        <ele>720.16</ele>
        <time>2014-06-03T15:25:06Z</time>
      </trkpt>
      <trkpt lat="42.43943" lon="0.10327">
        <ele>716.8</ele>
        <time>2014-06-03T15:25:08Z</time>
      </trkpt>
      <trkpt lat="42.43937" lon="0.10333">
        <ele>715.36</ele>
        <time>2014-06-03T15:25:10Z</time>
      </trkpt>
      <trkpt lat="42.43928" lon="0.10345">
        <ele>711.51</ele>
        <time>2014-06-03T15:25:14Z</time>
      </trkpt>
      <trkpt lat="42.43923" lon="0.10366">
        <ele>712.47</ele>
        <time>2014-06-03T15:25:19Z</time>
      </trkpt>
      <trkpt lat="42.43917" lon="0.10394">
        <ele>713.92</ele>
        <time>2014-06-03T15:25:28Z</time>
      </trkpt>
      <trkpt lat="42.43914" lon="0.10427">
        <ele>715.36</ele>
        <time>2014-06-03T15:25:39Z</time>
      </trkpt>
      <trkpt lat="42.43914" lon="0.10474">
        <ele>713.44</ele>
        <time>2014-06-03T15:25:50Z</time>
      </trkpt>
      <trkpt lat="42.43911" lon="0.10486">
        <ele>711.99</ele>
        <time>2014-06-03T15:25:52Z</time>
      </trkpt>
      <trkpt lat="42.43902" lon="0.10511">
        <ele>710.55</ele>
        <time>2014-06-03T15:25:56Z</time>
      </trkpt>
      <trkpt lat="42.43899" lon="0.10523">
        <ele>709.11</ele>
        <time>2014-06-03T15:25:58Z</time>
      </trkpt>
      <trkpt lat="42.4389" lon="0.10546">
        <ele>709.59</ele>
        <time>2014-06-03T15:26:02Z</time>
      </trkpt>
      <trkpt lat="42.43877" lon="0.10579">
        <ele>710.55</ele>
        <time>2014-06-03T15:26:08Z</time>
      </trkpt>
      <trkpt lat="42.43863" lon="0.10611">
        <ele>712.47</ele>
        <time>2014-06-03T15:26:18Z</time>
      </trkpt>
      <trkpt lat="42.4386" lon="0.10622">
        <ele>712.95</ele>
        <time>2014-06-03T15:26:23Z</time>
      </trkpt>
      <trkpt lat="42.43843" lon="0.10643">
        <ele>709.59</ele>
        <time>2014-06-03T15:26:36Z</time>
      </trkpt>
      <trkpt lat="42.43829" lon="0.10671">
        <ele>705.26</ele>
        <time>2014-06-03T15:26:41Z</time>
      </trkpt>
      <trkpt lat="42.43821" lon="0.10688">
        <ele>703.34</ele>
        <time>2014-06-03T15:26:43Z</time>
      </trkpt>
      <trkpt lat="42.43796" lon="0.10727">
        <ele>698.05</ele>
        <time>2014-06-03T15:26:48Z</time>
      </trkpt>
      <trkpt lat="42.4379" lon="0.10733">
        <ele>697.09</ele>
        <time>2014-06-03T15:26:49Z</time>
      </trkpt>
      <trkpt lat="42.43779" lon="0.10744">
        <ele>695.17</ele>
        <time>2014-06-03T15:26:52Z</time>
      </trkpt>
      <trkpt lat="42.43763" lon="0.10763">
        <ele>691.81</ele>
        <time>2014-06-03T15:26:56Z</time>
      </trkpt>
      <trkpt lat="42.43752" lon="0.10775">
        <ele>689.4</ele>
        <time>2014-06-03T15:26:58Z</time>
      </trkpt>
      <trkpt lat="42.43736" lon="0.1079">
        <ele>687</ele>
        <time>2014-06-03T15:27:01Z</time>
      </trkpt>
      <trkpt lat="42.43731" lon="0.10802">
        <ele>688.44</ele>
        <time>2014-06-03T15:27:08Z</time>
      </trkpt>
      <trkpt lat="42.43731" lon="0.10804">
        <ele>687</ele>
        <time>2014-06-03T15:27:23Z</time>
      </trkpt>
      <trkpt lat="42.43728" lon="0.10814">
        <ele>687.96</ele>
        <time>2014-06-03T15:27:34Z</time>
      </trkpt>
      <trkpt lat="42.43714" lon="0.10839">
        <ele>686.52</ele>
        <time>2014-06-03T15:27:42Z</time>
      </trkpt>
      <trkpt lat="42.43696" lon="0.10851">
        <ele>683.15</ele>
        <time>2014-06-03T15:27:46Z</time>
      </trkpt>
      <trkpt lat="42.43681" lon="0.10867">
        <ele>681.23</ele>
        <time>2014-06-03T15:27:49Z</time>
      </trkpt>
      <trkpt lat="42.43659" lon="0.10895">
        <ele>682.19</ele>
        <time>2014-06-03T15:27:54Z</time>
      </trkpt>
      <trkpt lat="42.43643" lon="0.1091">
        <ele>684.12</ele>
        <time>2014-06-03T15:27:59Z</time>
      </trkpt>
      <trkpt lat="42.43628" lon="0.10911">
        <ele>687</ele>
        <time>2014-06-03T15:28:08Z</time>
      </trkpt>
      <trkpt lat="42.43614" lon="0.10924">
        <ele>689.4</ele>
        <time>2014-06-03T15:28:19Z</time>
      </trkpt>
      <trkpt lat="42.43603" lon="0.10933">
        <ele>689.88</ele>
        <time>2014-06-03T15:28:25Z</time>
      </trkpt>
      <trkpt lat="42.43593" lon="0.10939">
        <ele>689.88</ele>
        <time>2014-06-03T15:28:29Z</time>
      </trkpt>
      <trkpt lat="42.43572" lon="0.10978">
        <ele>688.92</ele>
        <time>2014-06-03T15:28:39Z</time>
      </trkpt>
      <trkpt lat="42.43555" lon="0.11017">
        <ele>687.48</ele>
        <time>2014-06-03T15:28:46Z</time>
      </trkpt>
      <trkpt lat="42.43535" lon="0.11036">
        <ele>684.6</ele>
        <time>2014-06-03T15:28:50Z</time>
      </trkpt>
      <trkpt lat="42.43532" lon="0.11044">
        <ele>684.6</ele>
        <time>2014-06-03T15:28:51Z</time>
      </trkpt>
      <trkpt lat="42.43521" lon="0.11076">
        <ele>680.75</ele>
        <time>2014-06-03T15:28:55Z</time>
      </trkpt>
      <trkpt lat="42.43514" lon="0.11096">
        <ele>679.79</ele>
        <time>2014-06-03T15:28:58Z</time>
      </trkpt>
      <trkpt lat="42.43505" lon="0.11105">
        <ele>677.87</ele>
        <time>2014-06-03T15:29:00Z</time>
      </trkpt>
      <trkpt lat="42.43491" lon="0.11124">
        <ele>673.54</ele>
        <time>2014-06-03T15:29:04Z</time>
      </trkpt>
      <trkpt lat="42.43483" lon="0.11145">
        <ele>672.1</ele>
        <time>2014-06-03T15:29:07Z</time>
      </trkpt>
      <trkpt lat="42.43462" lon="0.1118">
        <ele>669.7</ele>
        <time>2014-06-03T15:29:14Z</time>
      </trkpt>
      <trkpt lat="42.43459" lon="0.11183">
        <ele>669.22</ele>
        <time>2014-06-03T15:29:15Z</time>
      </trkpt>
      <trkpt lat="42.43448" lon="0.11197">
        <ele>667.77</ele>
        <time>2014-06-03T15:29:18Z</time>
      </trkpt>
      <trkpt lat="42.4344" lon="0.1121">
        <ele>667.29</ele>
        <time>2014-06-03T15:29:20Z</time>
      </trkpt>
      <trkpt lat="42.4342" lon="0.11241">
        <ele>665.85</ele>
        <time>2014-06-03T15:29:25Z</time>
      </trkpt>
      <trkpt lat="42.43404" lon="0.11265">
        <ele>666.33</ele>
        <time>2014-06-03T15:29:30Z</time>
      </trkpt>
      <trkpt lat="42.43394" lon="0.11288">
        <ele>666.81</ele>
        <time>2014-06-03T15:29:40Z</time>
      </trkpt>
      <trkpt lat="42.43394" lon="0.11289">
        <ele>666.33</ele>
        <time>2014-06-03T15:29:56Z</time>
      </trkpt>
      <trkpt lat="42.43393" lon="0.1129">
        <ele>666.81</ele>
        <time>2014-06-03T15:30:01Z</time>
      </trkpt>
      <trkpt lat="42.43391" lon="0.11294">
        <ele>666.33</ele>
        <time>2014-06-03T15:30:08Z</time>
      </trkpt>
      <trkpt lat="42.43389" lon="0.11303">
        <ele>666.81</ele>
        <time>2014-06-03T15:30:12Z</time>
      </trkpt>
      <trkpt lat="42.43374" lon="0.11331">
        <ele>664.89</ele>
        <time>2014-06-03T15:30:21Z</time>
      </trkpt>
      <trkpt lat="42.4337" lon="0.1134">
        <ele>663.93</ele>
        <time>2014-06-03T15:30:23Z</time>
      </trkpt>
      <trkpt lat="42.43354" lon="0.11368">
        <ele>660.56</ele>
        <time>2014-06-03T15:30:28Z</time>
      </trkpt>
      <trkpt lat="42.43339" lon="0.11392">
        <ele>656.24</ele>
        <time>2014-06-03T15:30:33Z</time>
      </trkpt>
      <trkpt lat="42.43336" lon="0.11397">
        <ele>656.24</ele>
        <time>2014-06-03T15:30:34Z</time>
      </trkpt>
      <trkpt lat="42.43334" lon="0.11402">
        <ele>656.24</ele>
        <time>2014-06-03T15:30:35Z</time>
      </trkpt>
      <trkpt lat="42.43324" lon="0.11421">
        <ele>653.35</ele>
        <time>2014-06-03T15:30:39Z</time>
      </trkpt>
      <trkpt lat="42.43305" lon="0.11441">
        <ele>650.47</ele>
        <time>2014-06-03T15:30:45Z</time>
      </trkpt>
      <trkpt lat="42.43296" lon="0.11451">
        <ele>647.1</ele>
        <time>2014-06-03T15:30:49Z</time>
      </trkpt>
      <trkpt lat="42.43294" lon="0.11469">
        <ele>642.3</ele>
        <time>2014-06-03T15:30:53Z</time>
      </trkpt>
      <trkpt lat="42.43298" lon="0.11481">
        <ele>638.45</ele>
        <time>2014-06-03T15:30:57Z</time>
      </trkpt>
      <trkpt lat="42.433" lon="0.11487">
        <ele>635.09</ele>
        <time>2014-06-03T15:31:01Z</time>
      </trkpt>
      <trkpt lat="42.43296" lon="0.11489">
        <ele>634.13</ele>
        <time>2014-06-03T15:31:03Z</time>
      </trkpt>
      <trkpt lat="42.43291" lon="0.115">
        <ele>630.28</ele>
        <time>2014-06-03T15:31:06Z</time>
      </trkpt>
      <trkpt lat="42.43283" lon="0.1151">
        <ele>626.44</ele>
        <time>2014-06-03T15:31:09Z</time>
      </trkpt>
      <trkpt lat="42.43276" lon="0.11527">
        <ele>623.07</ele>
        <time>2014-06-03T15:31:13Z</time>
      </trkpt>
      <trkpt lat="42.43271" lon="0.11541">
        <ele>619.71</ele>
        <time>2014-06-03T15:31:16Z</time>
      </trkpt>
      <trkpt lat="42.43268" lon="0.11557">
        <ele>616.82</ele>
        <time>2014-06-03T15:31:19Z</time>
      </trkpt>
      <trkpt lat="42.43267" lon="0.1156">
        <ele>617.3</ele>
        <time>2014-06-03T15:31:20Z</time>
      </trkpt>
      <trkpt lat="42.43261" lon="0.11581">
        <ele>616.82</ele>
        <time>2014-06-03T15:31:29Z</time>
      </trkpt>
      <trkpt lat="42.43261" lon="0.11581">
        <ele>616.34</ele>
        <time>2014-06-03T15:31:47Z</time>
      </trkpt>
      <trkpt lat="42.4326" lon="0.11584">
        <ele>616.34</ele>
        <time>2014-06-03T15:32:01Z</time>
      </trkpt>
      <trkpt lat="42.4326" lon="0.11584">
        <ele>616.34</ele>
        <time>2014-06-03T15:32:10Z</time>
      </trkpt>
      <trkpt lat="42.43259" lon="0.11584">
        <ele>617.3</ele>
        <time>2014-06-03T15:32:24Z</time>
      </trkpt>
      <trkpt lat="42.43258" lon="0.11585">
        <ele>616.34</ele>
        <time>2014-06-03T15:32:51Z</time>
      </trkpt>
      <trkpt lat="42.43258" lon="0.11585">
        <ele>616.34</ele>
        <time>2014-06-03T15:33:02Z</time>
      </trkpt>
      <trkpt lat="42.43259" lon="0.11586">
        <ele>616.82</ele>
        <time>2014-06-03T15:33:42Z</time>
      </trkpt>
      <trkpt lat="42.43259" lon="0.11585">
        <ele>616.82</ele>
        <time>2014-06-03T15:33:53Z</time>
      </trkpt>
      <trkpt lat="42.43259" lon="0.11576">
        <ele>615.86</ele>
        <time>2014-06-03T15:33:58Z</time>
      </trkpt>
      <trkpt lat="42.43266" lon="0.11558">
        <ele>616.82</ele>
        <time>2014-06-03T15:34:10Z</time>
      </trkpt>
      <trkpt lat="42.43269" lon="0.11543">
        <ele>619.71</ele>
        <time>2014-06-03T15:34:22Z</time>
      </trkpt>
      <trkpt lat="42.43272" lon="0.11535">
        <ele>621.15</ele>
        <time>2014-06-03T15:34:35Z</time>
      </trkpt>
      <trkpt lat="42.43276" lon="0.11526">
        <ele>624.03</ele>
        <time>2014-06-03T15:34:48Z</time>
      </trkpt>
      <trkpt lat="42.43279" lon="0.11518">
        <ele>625.47</ele>
        <time>2014-06-03T15:35:02Z</time>
      </trkpt>
      <trkpt lat="42.43279" lon="0.11518">
        <ele>626.44</ele>
        <time>2014-06-03T15:35:11Z</time>
      </trkpt>
      <trkpt lat="42.43274" lon="0.11529">
        <ele>624.03</ele>
        <time>2014-06-03T15:35:15Z</time>
      </trkpt>
      <trkpt lat="42.43267" lon="0.11549">
        <ele>618.75</ele>
        <time>2014-06-03T15:35:19Z</time>
      </trkpt>
      <trkpt lat="42.43263" lon="0.11566">
        <ele>616.34</ele>
        <time>2014-06-03T15:35:22Z</time>
      </trkpt>
      <trkpt lat="42.43257" lon="0.11587">
        <ele>616.82</ele>
        <time>2014-06-03T15:35:28Z</time>
      </trkpt>
      <trkpt lat="42.43256" lon="0.11588">
        <ele>616.34</ele>
        <time>2014-06-03T15:35:29Z</time>
      </trkpt>
      <trkpt lat="42.43253" lon="0.11594">
        <ele>614.42</ele>
        <time>2014-06-03T15:35:32Z</time>
      </trkpt>
      <trkpt lat="42.43243" lon="0.11602">
        <ele>608.65</ele>
        <time>2014-06-03T15:35:35Z</time>
      </trkpt>
      <trkpt lat="42.43238" lon="0.11603">
        <ele>606.73</ele>
        <time>2014-06-03T15:35:36Z</time>
      </trkpt>
      <trkpt lat="42.43229" lon="0.11605">
        <ele>604.81</ele>
        <time>2014-06-03T15:35:38Z</time>
      </trkpt>
      <trkpt lat="42.43219" lon="0.11615">
        <ele>600.48</ele>
        <time>2014-06-03T15:35:41Z</time>
      </trkpt>
      <trkpt lat="42.43209" lon="0.11619">
        <ele>596.64</ele>
        <time>2014-06-03T15:35:43Z</time>
      </trkpt>
      <trkpt lat="42.43201" lon="0.11609">
        <ele>593.27</ele>
        <time>2014-06-03T15:35:45Z</time>
      </trkpt>
      <trkpt lat="42.43198" lon="0.11605">
        <ele>593.27</ele>
        <time>2014-06-03T15:35:46Z</time>
      </trkpt>
      <trkpt lat="42.43196" lon="0.11604">
        <ele>592.79</ele>
        <time>2014-06-03T15:35:47Z</time>
      </trkpt>
      <trkpt lat="42.43187" lon="0.11599">
        <ele>592.79</ele>
        <time>2014-06-03T15:36:01Z</time>
      </trkpt>
      <trkpt lat="42.43178" lon="0.11596">
        <ele>588.46</ele>
        <time>2014-06-03T15:36:07Z</time>
      </trkpt>
      <trkpt lat="42.43169" lon="0.11597">
        <ele>586.06</ele>
        <time>2014-06-03T15:36:09Z</time>
      </trkpt>
      <trkpt lat="42.43148" lon="0.11605">
        <ele>584.62</ele>
        <time>2014-06-03T15:36:13Z</time>
      </trkpt>
      <trkpt lat="42.43132" lon="0.11621">
        <ele>582.22</ele>
        <time>2014-06-03T15:36:16Z</time>
      </trkpt>
      <trkpt lat="42.43118" lon="0.11634">
        <ele>580.29</ele>
        <time>2014-06-03T15:36:19Z</time>
      </trkpt>
      <trkpt lat="42.43109" lon="0.11642">
        <ele>579.81</ele>
        <time>2014-06-03T15:36:21Z</time>
      </trkpt>
      <trkpt lat="42.43099" lon="0.11652">
        <ele>580.77</ele>
        <time>2014-06-03T15:36:28Z</time>
      </trkpt>
      <trkpt lat="42.43095" lon="0.11655">
        <ele>580.29</ele>
        <time>2014-06-03T15:36:33Z</time>
      </trkpt>
      <trkpt lat="42.43082" lon="0.11662">
        <ele>575.49</ele>
        <time>2014-06-03T15:36:36Z</time>
      </trkpt>
      <trkpt lat="42.4307" lon="0.11676">
        <ele>570.68</ele>
        <time>2014-06-03T15:36:39Z</time>
      </trkpt>
      <trkpt lat="42.43066" lon="0.11679">
        <ele>570.2</ele>
        <time>2014-06-03T15:36:40Z</time>
      </trkpt>
      <trkpt lat="42.43051" lon="0.11691">
        <ele>570.2</ele>
        <time>2014-06-03T15:36:45Z</time>
      </trkpt>
      <trkpt lat="42.43047" lon="0.11699">
        <ele>571.16</ele>
        <time>2014-06-03T15:36:49Z</time>
      </trkpt>
      <trkpt lat="42.43048" lon="0.11703">
        <ele>571.64</ele>
        <time>2014-06-03T15:36:51Z</time>
      </trkpt>
      <trkpt lat="42.43049" lon="0.11716">
        <ele>572.12</ele>
        <time>2014-06-03T15:36:56Z</time>
      </trkpt>
      <trkpt lat="42.43049" lon="0.11721">
        <ele>573.08</ele>
        <time>2014-06-03T15:36:58Z</time>
      </trkpt>
      <trkpt lat="42.43053" lon="0.11732">
        <ele>574.53</ele>
        <time>2014-06-03T15:37:03Z</time>
      </trkpt>
      <trkpt lat="42.43054" lon="0.11739">
        <ele>575.01</ele>
        <time>2014-06-03T15:37:07Z</time>
      </trkpt>
      <trkpt lat="42.43056" lon="0.11747">
        <ele>575.01</ele>
        <time>2014-06-03T15:37:10Z</time>
      </trkpt>
      <trkpt lat="42.43062" lon="0.11766">
        <ele>575.49</ele>
        <time>2014-06-03T15:37:17Z</time>
      </trkpt>
      <trkpt lat="42.43069" lon="0.11793">
        <ele>576.45</ele>
        <time>2014-06-03T15:37:27Z</time>
      </trkpt>
      <trkpt lat="42.4307" lon="0.11837">
        <ele>576.93</ele>
        <time>2014-06-03T15:37:39Z</time>
      </trkpt>
      <trkpt lat="42.43069" lon="0.1188">
        <ele>578.37</ele>
        <time>2014-06-03T15:37:52Z</time>
      </trkpt>
      <trkpt lat="42.4308" lon="0.11896">
        <ele>580.77</ele>
        <time>2014-06-03T15:38:01Z</time>
      </trkpt>
      <trkpt lat="42.43095" lon="0.11922">
        <ele>583.66</ele>
        <time>2014-06-03T15:38:16Z</time>
      </trkpt>
      <trkpt lat="42.43107" lon="0.1195">
        <ele>586.54</ele>
        <time>2014-06-03T15:38:31Z</time>
      </trkpt>
      <trkpt lat="42.43118" lon="0.11986">
        <ele>587.5</ele>
        <time>2014-06-03T15:38:47Z</time>
      </trkpt>
      <trkpt lat="42.43131" lon="0.12056">
        <ele>584.62</ele>
        <time>2014-06-03T15:39:01Z</time>
      </trkpt>
      <trkpt lat="42.43134" lon="0.12071">
        <ele>583.66</ele>
        <time>2014-06-03T15:39:03Z</time>
      </trkpt>
      <trkpt lat="42.43145" lon="0.12112">
        <ele>581.25</ele>
        <time>2014-06-03T15:39:08Z</time>
      </trkpt>
      <trkpt lat="42.43149" lon="0.12131">
        <ele>580.29</ele>
        <time>2014-06-03T15:39:10Z</time>
      </trkpt>
      <trkpt lat="42.43155" lon="0.12177">
        <ele>577.41</ele>
        <time>2014-06-03T15:39:17Z</time>
      </trkpt>
      <trkpt lat="42.4316" lon="0.12181">
        <ele>575.97</ele>
        <time>2014-06-03T15:39:18Z</time>
      </trkpt>
      <trkpt lat="42.43171" lon="0.12187">
        <ele>577.41</ele>
        <time>2014-06-03T15:39:21Z</time>
      </trkpt>
      <trkpt lat="42.43189" lon="0.12183">
        <ele>577.89</ele>
        <time>2014-06-03T15:39:27Z</time>
      </trkpt>
      <trkpt lat="42.43195" lon="0.12199">
        <ele>579.33</ele>
        <time>2014-06-03T15:39:32Z</time>
      </trkpt>
      <trkpt lat="42.43207" lon="0.12233">
        <ele>577.89</ele>
        <time>2014-06-03T15:39:40Z</time>
      </trkpt>
      <trkpt lat="42.43239" lon="0.12253">
        <ele>577.89</ele>
        <time>2014-06-03T15:39:48Z</time>
      </trkpt>
      <trkpt lat="42.43257" lon="0.12283">
        <ele>580.77</ele>
        <time>2014-06-03T15:39:56Z</time>
      </trkpt>
      <trkpt lat="42.43254" lon="0.12298">
        <ele>579.81</ele>
        <time>2014-06-03T15:39:59Z</time>
      </trkpt>
      <trkpt lat="42.4325" lon="0.1234">
        <ele>576.45</ele>
        <time>2014-06-03T15:40:05Z</time>
      </trkpt>
      <trkpt lat="42.43252" lon="0.12349">
        <ele>576.45</ele>
        <time>2014-06-03T15:40:06Z</time>
      </trkpt>
      <trkpt lat="42.43264" lon="0.12401">
        <ele>572.6</ele>
        <time>2014-06-03T15:40:12Z</time>
      </trkpt>
      <trkpt lat="42.43264" lon="0.12411">
        <ele>572.12</ele>
        <time>2014-06-03T15:40:13Z</time>
      </trkpt>
      <trkpt lat="42.43259" lon="0.12449">
        <ele>570.2</ele>
        <time>2014-06-03T15:40:17Z</time>
      </trkpt>
      <trkpt lat="42.43251" lon="0.12465">
        <ele>569.72</ele>
        <time>2014-06-03T15:40:19Z</time>
      </trkpt>
      <trkpt lat="42.43244" lon="0.12503">
        <ele>567.8</ele>
        <time>2014-06-03T15:40:23Z</time>
      </trkpt>
      <trkpt lat="42.43257" lon="0.12536">
        <ele>566.83</ele>
        <time>2014-06-03T15:40:27Z</time>
      </trkpt>
      <trkpt lat="42.43264" lon="0.12561">
        <ele>566.83</ele>
        <time>2014-06-03T15:40:30Z</time>
      </trkpt>
      <trkpt lat="42.43278" lon="0.12589">
        <ele>565.87</ele>
        <time>2014-06-03T15:40:34Z</time>
      </trkpt>
      <trkpt lat="42.43281" lon="0.12632">
        <ele>566.83</ele>
        <time>2014-06-03T15:40:42Z</time>
      </trkpt>
      <trkpt lat="42.43254" lon="0.12656">
        <ele>565.87</ele>
        <time>2014-06-03T15:40:52Z</time>
      </trkpt>
      <trkpt lat="42.43246" lon="0.12663">
        <ele>567.8</ele>
        <time>2014-06-03T15:40:57Z</time>
      </trkpt>
      <trkpt lat="42.43214" lon="0.12663">
        <ele>570.2</ele>
        <time>2014-06-03T15:41:13Z</time>
      </trkpt>
      <trkpt lat="42.43205" lon="0.12667">
        <ele>571.16</ele>
        <time>2014-06-03T15:41:18Z</time>
      </trkpt>
      <trkpt lat="42.4318" lon="0.12682">
        <ele>573.08</ele>
        <time>2014-06-03T15:41:32Z</time>
      </trkpt>
      <trkpt lat="42.43166" lon="0.12693">
        <ele>574.04</ele>
        <time>2014-06-03T15:41:40Z</time>
      </trkpt>
      <trkpt lat="42.43156" lon="0.12704">
        <ele>575.97</ele>
        <time>2014-06-03T15:41:47Z</time>
      </trkpt>
      <trkpt lat="42.4315" lon="0.1271">
        <ele>576.93</ele>
        <time>2014-06-03T15:41:52Z</time>
      </trkpt>
      <trkpt lat="42.43141" lon="0.12712">
        <ele>577.89</ele>
        <time>2014-06-03T15:41:58Z</time>
      </trkpt>
      <trkpt lat="42.43133" lon="0.12718">
        <ele>579.81</ele>
        <time>2014-06-03T15:42:04Z</time>
      </trkpt>
      <trkpt lat="42.43131" lon="0.1272">
        <ele>579.81</ele>
        <time>2014-06-03T15:42:06Z</time>
      </trkpt>
      <trkpt lat="42.43127" lon="0.12725">
        <ele>580.29</ele>
        <time>2014-06-03T15:42:09Z</time>
      </trkpt>
      <trkpt lat="42.43116" lon="0.12729">
        <ele>581.73</ele>
        <time>2014-06-03T15:42:16Z</time>
      </trkpt>
      <trkpt lat="42.43103" lon="0.12754">
        <ele>584.62</ele>
        <time>2014-06-03T15:42:30Z</time>
      </trkpt>
      <trkpt lat="42.43099" lon="0.12759">
        <ele>584.62</ele>
        <time>2014-06-03T15:42:33Z</time>
      </trkpt>
      <trkpt lat="42.43085" lon="0.12771">
        <ele>586.06</ele>
        <time>2014-06-03T15:42:44Z</time>
      </trkpt>
      <trkpt lat="42.43069" lon="0.12789">
        <ele>586.54</ele>
        <time>2014-06-03T15:42:56Z</time>
      </trkpt>
      <trkpt lat="42.43061" lon="0.12793">
        <ele>586.06</ele>
        <time>2014-06-03T15:43:00Z</time>
      </trkpt>
      <trkpt lat="42.43049" lon="0.1281">
        <ele>588.46</ele>
        <time>2014-06-03T15:43:10Z</time>
      </trkpt>
      <trkpt lat="42.43027" lon="0.12826">
        <ele>590.39</ele>
        <time>2014-06-03T15:43:24Z</time>
      </trkpt>
      <trkpt lat="42.42997" lon="0.12857">
        <ele>590.87</ele>
        <time>2014-06-03T15:43:40Z</time>
      </trkpt>
      <trkpt lat="42.42977" lon="0.12882">
        <ele>592.79</ele>
        <time>2014-06-03T15:43:51Z</time>
      </trkpt>
      <trkpt lat="42.42966" lon="0.12893">
        <ele>594.23</ele>
        <time>2014-06-03T15:43:59Z</time>
      </trkpt>
      <trkpt lat="42.4296" lon="0.12901">
        <ele>594.23</ele>
        <time>2014-06-03T15:44:04Z</time>
      </trkpt>
      <trkpt lat="42.42944" lon="0.12921">
        <ele>596.15</ele>
        <time>2014-06-03T15:44:18Z</time>
      </trkpt>
      <trkpt lat="42.4294" lon="0.12923">
        <ele>596.64</ele>
        <time>2014-06-03T15:44:20Z</time>
      </trkpt>
      <trkpt lat="42.42932" lon="0.1293">
        <ele>597.12</ele>
        <time>2014-06-03T15:44:25Z</time>
      </trkpt>
      <trkpt lat="42.42928" lon="0.12933">
        <ele>597.12</ele>
        <time>2014-06-03T15:44:27Z</time>
      </trkpt>
      <trkpt lat="42.42923" lon="0.12934">
        <ele>598.56</ele>
        <time>2014-06-03T15:44:30Z</time>
      </trkpt>
      <trkpt lat="42.42898" lon="0.12941">
        <ele>599.04</ele>
        <time>2014-06-03T15:44:43Z</time>
      </trkpt>
      <trkpt lat="42.42876" lon="0.12947">
        <ele>601.44</ele>
        <time>2014-06-03T15:44:57Z</time>
      </trkpt>
      <trkpt lat="42.42862" lon="0.12952">
        <ele>602.88</ele>
        <time>2014-06-03T15:45:06Z</time>
      </trkpt>
      <trkpt lat="42.42857" lon="0.12951">
        <ele>603.36</ele>
        <time>2014-06-03T15:45:09Z</time>
      </trkpt>
      <trkpt lat="42.42839" lon="0.12958">
        <ele>604.33</ele>
        <time>2014-06-03T15:45:19Z</time>
      </trkpt>
      <trkpt lat="42.42803" lon="0.12973">
        <ele>605.77</ele>
        <time>2014-06-03T15:45:34Z</time>
      </trkpt>
      <trkpt lat="42.42757" lon="0.12996">
        <ele>605.77</ele>
        <time>2014-06-03T15:45:50Z</time>
      </trkpt>
      <trkpt lat="42.4271" lon="0.13021">
        <ele>605.77</ele>
        <time>2014-06-03T15:46:03Z</time>
      </trkpt>
      <trkpt lat="42.42688" lon="0.13027">
        <ele>605.77</ele>
        <time>2014-06-03T15:46:08Z</time>
      </trkpt>
      <trkpt lat="42.42653" lon="0.13027">
        <ele>605.29</ele>
        <time>2014-06-03T15:46:15Z</time>
      </trkpt>
      <trkpt lat="42.42644" lon="0.13029">
        <ele>605.29</ele>
        <time>2014-06-03T15:46:17Z</time>
      </trkpt>
      <trkpt lat="42.4263" lon="0.13036">
        <ele>604.81</ele>
        <time>2014-06-03T15:46:20Z</time>
      </trkpt>
      <trkpt lat="42.42589" lon="0.13062">
        <ele>604.81</ele>
        <time>2014-06-03T15:46:29Z</time>
      </trkpt>
      <trkpt lat="42.42553" lon="0.13086">
        <ele>602.88</ele>
        <time>2014-06-03T15:46:36Z</time>
      </trkpt>
      <trkpt lat="42.42531" lon="0.13093">
        <ele>601.92</ele>
        <time>2014-06-03T15:46:40Z</time>
      </trkpt>
      <trkpt lat="42.42491" lon="0.13102">
        <ele>601.92</ele>
        <time>2014-06-03T15:46:47Z</time>
      </trkpt>
      <trkpt lat="42.42406" lon="0.13138">
        <ele>600.96</ele>
        <time>2014-06-03T15:47:03Z</time>
      </trkpt>
      <trkpt lat="42.42395" lon="0.13144">
        <ele>600.96</ele>
        <time>2014-06-03T15:47:05Z</time>
      </trkpt>
      <trkpt lat="42.42375" lon="0.13158">
        <ele>600.96</ele>
        <time>2014-06-03T15:47:09Z</time>
      </trkpt>
      <trkpt lat="42.4236" lon="0.13167">
        <ele>600</ele>
        <time>2014-06-03T15:47:13Z</time>
      </trkpt>
      <trkpt lat="42.423" lon="0.13202">
        <ele>600</ele>
        <time>2014-06-03T15:47:26Z</time>
      </trkpt>
      <trkpt lat="42.4222" lon="0.13242">
        <ele>598.56</ele>
        <time>2014-06-03T15:47:42Z</time>
      </trkpt>
      <trkpt lat="42.42132" lon="0.1329">
        <ele>597.6</ele>
        <time>2014-06-03T15:48:00Z</time>
      </trkpt>
      <trkpt lat="42.4212" lon="0.133">
        <ele>596.64</ele>
        <time>2014-06-03T15:48:03Z</time>
      </trkpt>
      <trkpt lat="42.42076" lon="0.13335">
        <ele>595.67</ele>
        <time>2014-06-03T15:48:14Z</time>
      </trkpt>
      <trkpt lat="42.4203" lon="0.13364">
        <ele>595.19</ele>
        <time>2014-06-03T15:48:25Z</time>
      </trkpt>
      <trkpt lat="42.42002" lon="0.13384">
        <ele>594.71</ele>
        <time>2014-06-03T15:48:32Z</time>
      </trkpt>
      <trkpt lat="42.41978" lon="0.13399">
        <ele>594.23</ele>
        <time>2014-06-03T15:48:38Z</time>
      </trkpt>
      <trkpt lat="42.4194" lon="0.13461">
        <ele>593.75</ele>
        <time>2014-06-03T15:48:51Z</time>
      </trkpt>
      <trkpt lat="42.4191" lon="0.13509">
        <ele>594.23</ele>
        <time>2014-06-03T15:49:04Z</time>
      </trkpt>
      <trkpt lat="42.41878" lon="0.13499">
        <ele>595.19</ele>
        <time>2014-06-03T15:49:12Z</time>
      </trkpt>
      <trkpt lat="42.41841" lon="0.13525">
        <ele>596.15</ele>
        <time>2014-06-03T15:49:23Z</time>
      </trkpt>
      <trkpt lat="42.41834" lon="0.13536">
        <ele>595.67</ele>
        <time>2014-06-03T15:49:26Z</time>
      </trkpt>
      <trkpt lat="42.4182" lon="0.13579">
        <ele>596.15</ele>
        <time>2014-06-03T15:49:36Z</time>
      </trkpt>
      <trkpt lat="42.4182" lon="0.13581">
        <ele>596.15</ele>
        <time>2014-06-03T15:49:39Z</time>
      </trkpt>
      <trkpt lat="42.41832" lon="0.13541">
        <ele>596.15</ele>
        <time>2014-06-03T15:49:52Z</time>
      </trkpt>
      <trkpt lat="42.41835" lon="0.13529">
        <ele>596.64</ele>
        <time>2014-06-03T15:49:57Z</time>
      </trkpt>
      <trkpt lat="42.41837" lon="0.13535">
        <ele>595.67</ele>
        <time>2014-06-03T15:50:02Z</time>
      </trkpt>
      <trkpt lat="42.41824" lon="0.13564">
        <ele>595.67</ele>
        <time>2014-06-03T15:50:08Z</time>
      </trkpt>
      <trkpt lat="42.41819" lon="0.1359">
        <ele>596.15</ele>
        <time>2014-06-03T15:50:12Z</time>
      </trkpt>
      <trkpt lat="42.41816" lon="0.13606">
        <ele>594.71</ele>
        <time>2014-06-03T15:50:14Z</time>
      </trkpt>
      <trkpt lat="42.41812" lon="0.13637">
        <ele>593.75</ele>
        <time>2014-06-03T15:50:18Z</time>
      </trkpt>
      <trkpt lat="42.41811" lon="0.13686">
        <ele>594.23</ele>
        <time>2014-06-03T15:50:25Z</time>
      </trkpt>
      <trkpt lat="42.4181" lon="0.13698">
        <ele>594.23</ele>
        <time>2014-06-03T15:50:27Z</time>
      </trkpt>
      <trkpt lat="42.41777" lon="0.13781">
        <ele>593.27</ele>
        <time>2014-06-03T15:50:41Z</time>
      </trkpt>
      <trkpt lat="42.41736" lon="0.13862">
        <ele>592.79</ele>
        <time>2014-06-03T15:50:56Z</time>
      </trkpt>
      <trkpt lat="42.41729" lon="0.13894">
        <ele>592.31</ele>
        <time>2014-06-03T15:51:01Z</time>
      </trkpt>
      <trkpt lat="42.41721" lon="0.13919">
        <ele>591.35</ele>
        <time>2014-06-03T15:51:06Z</time>
      </trkpt>
      <trkpt lat="42.41708" lon="0.13949">
        <ele>587.5</ele>
        <time>2014-06-03T15:51:11Z</time>
      </trkpt>
      <trkpt lat="42.41704" lon="0.13958">
        <ele>586.54</ele>
        <time>2014-06-03T15:51:12Z</time>
      </trkpt>
      <trkpt lat="42.41699" lon="0.13965">
        <ele>584.14</ele>
        <time>2014-06-03T15:51:14Z</time>
      </trkpt>
      <trkpt lat="42.41687" lon="0.13976">
        <ele>583.18</ele>
        <time>2014-06-03T15:51:17Z</time>
      </trkpt>
      <trkpt lat="42.41657" lon="0.13983">
        <ele>584.14</ele>
        <time>2014-06-03T15:51:20Z</time>
      </trkpt>
      <trkpt lat="42.41595" lon="0.13989">
        <ele>582.22</ele>
        <time>2014-06-03T15:51:30Z</time>
      </trkpt>
      <trkpt lat="42.41574" lon="0.13995">
        <ele>581.73</ele>
        <time>2014-06-03T15:51:42Z</time>
      </trkpt>
      <trkpt lat="42.41572" lon="0.13994">
        <ele>576.93</ele>
        <time>2014-06-03T15:51:44Z</time>
      </trkpt>
      <trkpt lat="42.41571" lon="0.13994">
        <ele>582.7</ele>
        <time>2014-06-03T15:51:45Z</time>
      </trkpt>
      <trkpt lat="42.41569" lon="0.13994">
        <ele>578.37</ele>
        <time>2014-06-03T15:51:47Z</time>
      </trkpt>
      <trkpt lat="42.41569" lon="0.13994">
        <ele>580.77</ele>
        <time>2014-06-03T15:51:48Z</time>
      </trkpt>
      <trkpt lat="42.41568" lon="0.13994">
        <ele>581.73</ele>
        <time>2014-06-03T15:51:51Z</time>
      </trkpt>
    </trkseg>
  </trk>
</gpx>